<?xml version='1.0' encoding='UTF-8'?><gpx version="1.1" creator="JPX - https://github.com/jenetics/jpx" xmlns="http://www.topografix.com/GPX/1/1"><trk><trkseg><trkpt lat="45.164179627950745" lon="1.4930959532887647"><ele>103.0</ele><time>2026-04-10T16:38:15.012Z</time></trkpt><trkpt lat="45.16429988923786" lon="1.4930724351988875"><ele>103.0</ele><time>2026-04-10T16:38:16.012Z</time></trkpt><trkpt lat="45.16439056481913" lon="1.4930478907272349"><ele>103.0</ele><time>2026-04-10T16:38:17.011Z</time></trkpt><trkpt lat="45.164460586605585" lon="1.4929723684083556"><ele>103.0</ele><time>2026-04-10T16:38:19.011Z</time></trkpt><trkpt lat="45.16449609913604" lon="1.492896565219913"><ele>103.0</ele><time>2026-04-10T16:38:22.01Z</time></trkpt><trkpt lat="45.164482299294825" lon="1.4927688666453494"><ele>103.75</ele><time>2026-04-10T16:38:24.011Z</time></trkpt><trkpt lat="45.16439925005088" lon="1.4927890067839935"><ele>104.5</ele><time>2026-04-10T16:38:27.011Z</time></trkpt><trkpt lat="45.1644538045037" lon="1.492837613677024"><ele>105.25</ele><time>2026-04-10T16:38:31.011Z</time></trkpt><trkpt lat="45.16456502511936" lon="1.4926766597548944"><ele>106.0</ele><time>2026-04-10T16:38:52.01Z</time></trkpt><trkpt lat="45.16446378712201" lon="1.4925041676904514"><ele>106.0</ele><time>2026-04-10T16:38:53.01Z</time></trkpt><trkpt lat="45.164443986453634" lon="1.4923777371393663"><ele>106.0</ele><time>2026-04-10T16:38:54.01Z</time></trkpt><trkpt lat="45.16440600343893" lon="1.492235125438646"><ele>106.0</ele><time>2026-04-10T16:38:55.008Z</time></trkpt><trkpt lat="45.16434289115332" lon="1.4920638403089277"><ele>106.0</ele><time>2026-04-10T16:38:56.008Z</time></trkpt><trkpt lat="45.16427353964159" lon="1.491905532022656"><ele>105.75</ele><time>2026-04-10T16:38:57.01Z</time></trkpt><trkpt lat="45.164188982116904" lon="1.4917449991869143"><ele>105.5</ele><time>2026-04-10T16:38:58.011Z</time></trkpt><trkpt lat="45.16410337508767" lon="1.4916038123164632"><ele>105.25</ele><time>2026-04-10T16:38:59.008Z</time></trkpt><trkpt lat="45.1640195343455" lon="1.4914567549102513"><ele>105.0</ele><time>2026-04-10T16:39:00.012Z</time></trkpt><trkpt lat="45.16392600952561" lon="1.4912936450298115"><ele>105.75</ele><time>2026-04-10T16:39:01.008Z</time></trkpt><trkpt lat="45.163824504800225" lon="1.4911391041509026"><ele>106.5</ele><time>2026-04-10T16:39:02.011Z</time></trkpt><trkpt lat="45.16372453027138" lon="1.4909814188934227"><ele>107.25</ele><time>2026-04-10T16:39:03.011Z</time></trkpt><trkpt lat="45.163638309102794" lon="1.4908428158082312"><ele>108.0</ele><time>2026-04-10T16:39:04.011Z</time></trkpt><trkpt lat="45.16355394288005" lon="1.4907060449280174"><ele>108.0</ele><time>2026-04-10T16:39:05.009Z</time></trkpt><trkpt lat="45.16346551146806" lon="1.4905631830257424"><ele>108.0</ele><time>2026-04-10T16:39:06.009Z</time></trkpt><trkpt lat="45.16336504793063" lon="1.4904098455510508"><ele>108.0</ele><time>2026-04-10T16:39:07.008Z</time></trkpt><trkpt lat="45.16326003556439" lon="1.4902427845589168"><ele>108.0</ele><time>2026-04-10T16:39:08.009Z</time></trkpt><trkpt lat="45.163160569327665" lon="1.4900775892277087"><ele>107.5</ele><time>2026-04-10T16:39:09.009Z</time></trkpt><trkpt lat="45.163058554234254" lon="1.4899366587494258"><ele>107.0</ele><time>2026-04-10T16:39:10.008Z</time></trkpt><trkpt lat="45.16295850559522" lon="1.4898222611908707"><ele>106.5</ele><time>2026-04-10T16:39:11.009Z</time></trkpt><trkpt lat="45.16286213489889" lon="1.4896829383324464"><ele>106.0</ele><time>2026-04-10T16:39:12.009Z</time></trkpt><trkpt lat="45.16276038722984" lon="1.4895426430730256"><ele>106.0</ele><time>2026-04-10T16:39:12.986Z</time></trkpt><trkpt lat="45.16265163451386" lon="1.4893894897849798"><ele>106.0</ele><time>2026-04-10T16:39:13.987Z</time></trkpt><trkpt lat="45.162541682950994" lon="1.4892303123537032"><ele>106.0</ele><time>2026-04-10T16:39:14.987Z</time></trkpt><trkpt lat="45.16244121214852" lon="1.4890727522483729"><ele>105.25</ele><time>2026-04-10T16:39:15.988Z</time></trkpt><trkpt lat="45.16235537628592" lon="1.4889436850354913"><ele>104.5</ele><time>2026-04-10T16:39:16.989Z</time></trkpt><trkpt lat="45.16228112804007" lon="1.4888186955554703"><ele>103.75</ele><time>2026-04-10T16:39:17.99Z</time></trkpt><trkpt lat="45.162218283698856" lon="1.488689819426605"><ele>103.0</ele><time>2026-04-10T16:39:18.991Z</time></trkpt><trkpt lat="45.1621707597795" lon="1.488559524477323"><ele>103.0</ele><time>2026-04-10T16:39:19.991Z</time></trkpt><trkpt lat="45.16213266501837" lon="1.4884347469189365"><ele>103.0</ele><time>2026-04-10T16:39:20.992Z</time></trkpt><trkpt lat="45.162105714805364" lon="1.4883133681510294"><ele>103.0</ele><time>2026-04-10T16:39:21.992Z</time></trkpt><trkpt lat="45.1621151007307" lon="1.488169819121577"><ele>103.0</ele><time>2026-04-10T16:39:22.993Z</time></trkpt><trkpt lat="45.16209187774816" lon="1.4880289207781203"><ele>103.0</ele><time>2026-04-10T16:39:23.993Z</time></trkpt><trkpt lat="45.16205903473104" lon="1.4878144105044833"><ele>102.5</ele><time>2026-04-10T16:39:24.994Z</time></trkpt><trkpt lat="45.162006658534814" lon="1.4877212770796489"><ele>102.0</ele><time>2026-04-10T16:39:25.994Z</time></trkpt><trkpt lat="45.162013554055974" lon="1.4875236999223491"><ele>101.5</ele><time>2026-04-10T16:39:26.995Z</time></trkpt><trkpt lat="45.16199703014471" lon="1.4873104383320062"><ele>101.0</ele><time>2026-04-10T16:39:27.995Z</time></trkpt><trkpt lat="45.161982220562464" lon="1.487146140341125"><ele>101.25</ele><time>2026-04-10T16:39:28.995Z</time></trkpt><trkpt lat="45.16197283089717" lon="1.4869696664723888"><ele>101.5</ele><time>2026-04-10T16:39:29.996Z</time></trkpt><trkpt lat="45.16196547211329" lon="1.4867836817709572"><ele>101.75</ele><time>2026-04-10T16:39:30.996Z</time></trkpt><trkpt lat="45.16195532649442" lon="1.4865842405504999"><ele>102.0</ele><time>2026-04-10T16:39:31.996Z</time></trkpt><trkpt lat="45.16194140700968" lon="1.4863808927084925"><ele>102.0</ele><time>2026-04-10T16:39:32.996Z</time></trkpt><trkpt lat="45.161928071632474" lon="1.4861570356955114"><ele>102.0</ele><time>2026-04-10T16:39:33.997Z</time></trkpt><trkpt lat="45.161913812210486" lon="1.4859311947886795"><ele>102.0</ele><time>2026-04-10T16:39:34.997Z</time></trkpt><trkpt lat="45.1618952028425" lon="1.4857153768839158"><ele>102.0</ele><time>2026-04-10T16:39:35.997Z</time></trkpt><trkpt lat="45.16187436349368" lon="1.485505907609133"><ele>102.0</ele><time>2026-04-10T16:39:36.997Z</time></trkpt><trkpt lat="45.161859767363566" lon="1.4852938634729411"><ele>102.0</ele><time>2026-04-10T16:39:37.997Z</time></trkpt><trkpt lat="45.1618426703841" lon="1.4850754457093385"><ele>102.33333333333334</ele><time>2026-04-10T16:39:38.998Z</time></trkpt><trkpt lat="45.16182939871012" lon="1.4848542382349394"><ele>102.66666666666667</ele><time>2026-04-10T16:39:39.998Z</time></trkpt><trkpt lat="45.16181438339951" lon="1.484629496349946"><ele>103.0</ele><time>2026-04-10T16:39:40.998Z</time></trkpt><trkpt lat="45.1618038526165" lon="1.4843951250494771"><ele>103.33333333333334</ele><time>2026-04-10T16:39:41.998Z</time></trkpt><trkpt lat="45.161796304568334" lon="1.4841678634561295"><ele>103.66666666666666</ele><time>2026-04-10T16:39:42.998Z</time></trkpt><trkpt lat="45.16177932717169" lon="1.4839482872583594"><ele>104.0</ele><time>2026-04-10T16:39:43.998Z</time></trkpt><trkpt lat="45.16175863454211" lon="1.4837074566555568"><ele>104.0</ele><time>2026-04-10T16:39:44.998Z</time></trkpt><trkpt lat="45.161740850915855" lon="1.4834603081467355"><ele>104.0</ele><time>2026-04-10T16:39:45.999Z</time></trkpt><trkpt lat="45.1617312256999" lon="1.4832352767863086"><ele>104.0</ele><time>2026-04-10T16:39:46.999Z</time></trkpt><trkpt lat="45.161735457425905" lon="1.483027596994123"><ele>104.0</ele><time>2026-04-10T16:39:47.999Z</time></trkpt><trkpt lat="45.161751496702834" lon="1.4828160879612977"><ele>104.0</ele><time>2026-04-10T16:39:48.999Z</time></trkpt><trkpt lat="45.16177214726972" lon="1.4825866654112971"><ele>104.0</ele><time>2026-04-10T16:39:49.999Z</time></trkpt><trkpt lat="45.16180089033637" lon="1.482382403796715"><ele>104.0</ele><time>2026-04-10T16:39:50.999Z</time></trkpt><trkpt lat="45.16184409256622" lon="1.482198217783712"><ele>104.0</ele><time>2026-04-10T16:39:51.999Z</time></trkpt><trkpt lat="45.16189738354045" lon="1.4820196935946592"><ele>104.0</ele><time>2026-04-10T16:39:52.999Z</time></trkpt><trkpt lat="45.16197398764294" lon="1.4818391493756364"><ele>104.0</ele><time>2026-04-10T16:39:53.999Z</time></trkpt><trkpt lat="45.16206328980294" lon="1.4816466808594293"><ele>103.75</ele><time>2026-04-10T16:39:54.999Z</time></trkpt><trkpt lat="45.162160396699676" lon="1.4814485555414165"><ele>103.5</ele><time>2026-04-10T16:39:55.999Z</time></trkpt><trkpt lat="45.16224012422247" lon="1.4812835664397175"><ele>103.25</ele><time>2026-04-10T16:39:56.999Z</time></trkpt><trkpt lat="45.16230291430011" lon="1.4811382922357978"><ele>103.0</ele><time>2026-04-10T16:39:57.999Z</time></trkpt><trkpt lat="45.16236571196191" lon="1.4810102662052425"><ele>103.0</ele><time>2026-04-10T16:39:58.999Z</time></trkpt><trkpt lat="45.16244853250736" lon="1.4809032384205658"><ele>103.0</ele><time>2026-04-10T16:39:59.999Z</time></trkpt><trkpt lat="45.16248293264889" lon="1.4808033709426922"><ele>103.0</ele><time>2026-04-10T16:40:00.999Z</time></trkpt><trkpt lat="45.16266971892084" lon="1.4810908090490127"><ele>103.0</ele><time>2026-04-10T16:40:01.999Z</time></trkpt><trkpt lat="45.162802901740655" lon="1.4810341943547538"><ele>103.0</ele><time>2026-04-10T16:40:03Z</time></trkpt><trkpt lat="45.16295511040328" lon="1.481093872037992"><ele>103.0</ele><time>2026-04-10T16:40:04Z</time></trkpt><trkpt lat="45.1630952181182" lon="1.4811824942484613"><ele>103.25</ele><time>2026-04-10T16:40:05Z</time></trkpt><trkpt lat="45.1632188226866" lon="1.4812530655642608"><ele>103.5</ele><time>2026-04-10T16:40:06Z</time></trkpt><trkpt lat="45.163339249644174" lon="1.4813230802216184"><ele>103.75</ele><time>2026-04-10T16:40:07Z</time></trkpt><trkpt lat="45.16347940840213" lon="1.4814064598280376"><ele>104.0</ele><time>2026-04-10T16:40:08Z</time></trkpt><trkpt lat="45.163634053945124" lon="1.4814931186261668"><ele>104.33333333333333</ele><time>2026-04-10T16:40:09Z</time></trkpt><trkpt lat="45.163792427853444" lon="1.4815831318548793"><ele>104.66666666666666</ele><time>2026-04-10T16:40:10Z</time></trkpt><trkpt lat="45.163932073355596" lon="1.4816596145442182"><ele>105.0</ele><time>2026-04-10T16:40:11Z</time></trkpt><trkpt lat="45.164059995401864" lon="1.4817641199107403"><ele>105.0</ele><time>2026-04-10T16:40:12Z</time></trkpt><trkpt lat="45.16419651181119" lon="1.4818669179363873"><ele>105.0</ele><time>2026-04-10T16:40:13Z</time></trkpt><trkpt lat="45.16433813658294" lon="1.481988549878637"><ele>105.0</ele><time>2026-04-10T16:40:14Z</time></trkpt><trkpt lat="45.164484861479814" lon="1.4820880448652043"><ele>105.66666666666666</ele><time>2026-04-10T16:40:15Z</time></trkpt><trkpt lat="45.164628221624454" lon="1.482195826027248"><ele>106.33333333333333</ele><time>2026-04-10T16:40:16Z</time></trkpt><trkpt lat="45.16478192039837" lon="1.4823010661074065"><ele>107.0</ele><time>2026-04-10T16:40:17Z</time></trkpt><trkpt lat="45.164931462403786" lon="1.4824212702115398"><ele>107.0</ele><time>2026-04-10T16:40:18Z</time></trkpt><trkpt lat="45.165106816901165" lon="1.4826317676821927"><ele>107.0</ele><time>2026-04-10T16:40:19Z</time></trkpt><trkpt lat="45.165237184048856" lon="1.482824925093487"><ele>107.0</ele><time>2026-04-10T16:40:20Z</time></trkpt><trkpt lat="45.16534531554871" lon="1.4830102956208504"><ele>108.0</ele><time>2026-04-10T16:40:21Z</time></trkpt><trkpt lat="45.165437173627495" lon="1.4831990150501804"><ele>109.0</ele><time>2026-04-10T16:40:22Z</time></trkpt><trkpt lat="45.16552647162744" lon="1.4834038126758202"><ele>110.0</ele><time>2026-04-10T16:40:23Z</time></trkpt><trkpt lat="45.16562722364423" lon="1.4836476929902123"><ele>108.5</ele><time>2026-04-10T16:40:24Z</time></trkpt><trkpt lat="45.1657605244553" lon="1.4839346324816691"><ele>107.0</ele><time>2026-04-10T16:40:25Z</time></trkpt><trkpt lat="45.16587005479313" lon="1.4842113792556164"><ele>107.0</ele><time>2026-04-10T16:40:26Z</time></trkpt><trkpt lat="45.16597899466142" lon="1.4844647431929932"><ele>107.0</ele><time>2026-04-10T16:40:27Z</time></trkpt><trkpt lat="45.16607928029815" lon="1.484717942011359"><ele>107.0</ele><time>2026-04-10T16:40:28Z</time></trkpt><trkpt lat="45.16617695218808" lon="1.4849810435525357"><ele>107.0</ele><time>2026-04-10T16:40:29Z</time></trkpt><trkpt lat="45.166278569418125" lon="1.4852446006981301"><ele>107.0</ele><time>2026-04-10T16:40:30Z</time></trkpt><trkpt lat="45.16638551988083" lon="1.485504181375823"><ele>107.0</ele><time>2026-04-10T16:40:31Z</time></trkpt><trkpt lat="45.166493765525594" lon="1.485754072557005"><ele>109.0</ele><time>2026-04-10T16:40:32Z</time></trkpt><trkpt lat="45.16659267445965" lon="1.4859843592028532"><ele>111.0</ele><time>2026-04-10T16:40:33Z</time></trkpt><trkpt lat="45.1667182025612" lon="1.4862037405465334"><ele>113.0</ele><time>2026-04-10T16:40:34Z</time></trkpt><trkpt lat="45.16689304765373" lon="1.486392385510691"><ele>112.66666666666666</ele><time>2026-04-10T16:40:35Z</time></trkpt><trkpt lat="45.16708184904829" lon="1.48653249315976"><ele>112.33333333333334</ele><time>2026-04-10T16:40:36Z</time></trkpt><trkpt lat="45.16727964679377" lon="1.4866446416533334"><ele>112.0</ele><time>2026-04-10T16:40:37Z</time></trkpt><trkpt lat="45.16749349047311" lon="1.4867215770414022"><ele>112.0</ele><time>2026-04-10T16:40:38Z</time></trkpt><trkpt lat="45.16770628459144" lon="1.4868062359586558"><ele>112.0</ele><time>2026-04-10T16:40:39Z</time></trkpt><trkpt lat="45.1679063794044" lon="1.4868956254850174"><ele>112.0</ele><time>2026-04-10T16:40:40Z</time></trkpt><trkpt lat="45.16809520655274" lon="1.4869807500349266"><ele>112.0</ele><time>2026-04-10T16:40:41Z</time></trkpt><trkpt lat="45.16827861620643" lon="1.4870606519276752"><ele>112.0</ele><time>2026-04-10T16:40:42Z</time></trkpt><trkpt lat="45.16847174475634" lon="1.4871532805221128"><ele>112.0</ele><time>2026-04-10T16:40:43Z</time></trkpt><trkpt lat="45.16869003997979" lon="1.4872453712565943"><ele>112.66666666666667</ele><time>2026-04-10T16:40:44Z</time></trkpt><trkpt lat="45.16888993094889" lon="1.4873301023840337"><ele>113.33333333333334</ele><time>2026-04-10T16:40:45Z</time></trkpt><trkpt lat="45.16906705966449" lon="1.4874098948203325"><ele>114.0</ele><time>2026-04-10T16:40:46Z</time></trkpt><trkpt lat="45.169259153198574" lon="1.4875000123164455"><ele>112.66666666666666</ele><time>2026-04-10T16:40:47Z</time></trkpt><trkpt lat="45.169477103783635" lon="1.4875970156915952"><ele>111.33333333333333</ele><time>2026-04-10T16:40:48Z</time></trkpt><trkpt lat="45.16968665683256" lon="1.4876932181705003"><ele>110.0</ele><time>2026-04-10T16:40:49Z</time></trkpt><trkpt lat="45.16987814752371" lon="1.4877800705982462"><ele>109.66666666666666</ele><time>2026-04-10T16:40:50Z</time></trkpt><trkpt lat="45.17005861740485" lon="1.487870967876798"><ele>109.33333333333334</ele><time>2026-04-10T16:40:51Z</time></trkpt><trkpt lat="45.17026526909462" lon="1.4879532288113237"><ele>109.0</ele><time>2026-04-10T16:40:52Z</time></trkpt><trkpt lat="45.1704711290797" lon="1.4880463873238574"><ele>109.0</ele><time>2026-04-10T16:40:53Z</time></trkpt><trkpt lat="45.17067006097786" lon="1.4881446456910028"><ele>109.0</ele><time>2026-04-10T16:40:54Z</time></trkpt><trkpt lat="45.17086115459896" lon="1.4882364501875882"><ele>109.0</ele><time>2026-04-10T16:40:55Z</time></trkpt><trkpt lat="45.17105030879084" lon="1.4883128370008238"><ele>108.33333333333334</ele><time>2026-04-10T16:40:56Z</time></trkpt><trkpt lat="45.17124016046966" lon="1.4883988597268971"><ele>107.66666666666666</ele><time>2026-04-10T16:40:57Z</time></trkpt><trkpt lat="45.171426028312005" lon="1.4884939134562543"><ele>107.0</ele><time>2026-04-10T16:40:58Z</time></trkpt><trkpt lat="45.17162034818009" lon="1.4885845532827293"><ele>106.66666666666666</ele><time>2026-04-10T16:40:59Z</time></trkpt><trkpt lat="45.171805728604134" lon="1.48866533733384"><ele>106.33333333333334</ele><time>2026-04-10T16:41:00Z</time></trkpt><trkpt lat="45.17198311278631" lon="1.4887580263151798"><ele>106.0</ele><time>2026-04-10T16:41:01Z</time></trkpt><trkpt lat="45.17216110303756" lon="1.4888340101927129"><ele>107.33333333333334</ele><time>2026-04-10T16:41:02Z</time></trkpt><trkpt lat="45.17234125764017" lon="1.4889021677624763"><ele>108.66666666666666</ele><time>2026-04-10T16:41:03Z</time></trkpt><trkpt lat="45.172523885303406" lon="1.4889717239889368"><ele>110.0</ele><time>2026-04-10T16:41:04Z</time></trkpt><trkpt lat="45.17268500717603" lon="1.4890386592490163"><ele>110.0</ele><time>2026-04-10T16:41:05Z</time></trkpt><trkpt lat="45.172833320647946" lon="1.4891111402896327"><ele>110.0</ele><time>2026-04-10T16:41:06Z</time></trkpt><trkpt lat="45.17297127107385" lon="1.4891778005977112"><ele>110.0</ele><time>2026-04-10T16:41:07Z</time></trkpt><trkpt lat="45.173102725767855" lon="1.4892633920201082"><ele>110.0</ele><time>2026-04-10T16:41:07.999Z</time></trkpt><trkpt lat="45.17322560978384" lon="1.489402644404429"><ele>110.4</ele><time>2026-04-10T16:41:08.999Z</time></trkpt><trkpt lat="45.17331597952478" lon="1.489515858682776"><ele>110.8</ele><time>2026-04-10T16:41:09.999Z</time></trkpt><trkpt lat="45.1733840508988" lon="1.4895986622755166"><ele>111.19999999999999</ele><time>2026-04-10T16:41:10.999Z</time></trkpt><trkpt lat="45.17343994198748" lon="1.4897266072688762"><ele>111.6</ele><time>2026-04-10T16:41:11.999Z</time></trkpt><trkpt lat="45.173486992732755" lon="1.489887915980617"><ele>112.0</ele><time>2026-04-10T16:41:12.999Z</time></trkpt><trkpt lat="45.17349429076064" lon="1.4900814974598091"><ele>112.0</ele><time>2026-04-10T16:41:13.999Z</time></trkpt><trkpt lat="45.17343536080068" lon="1.4903192809721342"><ele>112.0</ele><time>2026-04-10T16:41:14.999Z</time></trkpt><trkpt lat="45.173413698934006" lon="1.490595471022683"><ele>112.0</ele><time>2026-04-10T16:41:15.999Z</time></trkpt><trkpt lat="45.173381545529175" lon="1.4908031238559265"><ele>112.0</ele><time>2026-04-10T16:41:16.999Z</time></trkpt><trkpt lat="45.173355225000215" lon="1.4909990057455764"><ele>112.0</ele><time>2026-04-10T16:41:17.999Z</time></trkpt><trkpt lat="45.17333246742136" lon="1.4912257328953367"><ele>112.0</ele><time>2026-04-10T16:41:19Z</time></trkpt><trkpt lat="45.1733274047144" lon="1.4914613546117117"><ele>115.0</ele><time>2026-04-10T16:41:20Z</time></trkpt><trkpt lat="45.173362265380675" lon="1.4917040376641686"><ele>118.0</ele><time>2026-04-10T16:41:21Z</time></trkpt><trkpt lat="45.173434317774344" lon="1.491945457182156"><ele>121.0</ele><time>2026-04-10T16:41:22Z</time></trkpt><trkpt lat="45.173544866260556" lon="1.492187890135455"><ele>119.66666666666667</ele><time>2026-04-10T16:41:23Z</time></trkpt><trkpt lat="45.17368828221289" lon="1.4924148662925945"><ele>118.33333333333334</ele><time>2026-04-10T16:41:24Z</time></trkpt><trkpt lat="45.173863001266" lon="1.4925762393901303"><ele>117.0</ele><time>2026-04-10T16:41:25Z</time></trkpt><trkpt lat="45.17407567046549" lon="1.4927666072326746"><ele>122.0</ele><time>2026-04-10T16:41:26Z</time></trkpt><trkpt lat="45.174264566107816" lon="1.4929740589120355"><ele>127.0</ele><time>2026-04-10T16:41:27Z</time></trkpt><trkpt lat="45.1744307313094" lon="1.4931484649827937"><ele>132.0</ele><time>2026-04-10T16:41:28Z</time></trkpt><trkpt lat="45.174591461406536" lon="1.4933177785767882"><ele>132.0</ele><time>2026-04-10T16:41:29Z</time></trkpt><trkpt lat="45.17475399545243" lon="1.4934846325238167"><ele>132.0</ele><time>2026-04-10T16:41:30Z</time></trkpt><trkpt lat="45.17492299497622" lon="1.4936553333621596"><ele>132.0</ele><time>2026-04-10T16:41:31Z</time></trkpt><trkpt lat="45.17510819591623" lon="1.4938423987548337"><ele>129.0</ele><time>2026-04-10T16:41:32Z</time></trkpt><trkpt lat="45.17529897610651" lon="1.4940350995876315"><ele>126.0</ele><time>2026-04-10T16:41:33Z</time></trkpt><trkpt lat="45.1754752584066" lon="1.4942123454058487"><ele>126.0</ele><time>2026-04-10T16:41:34Z</time></trkpt><trkpt lat="45.17564634126835" lon="1.4943637800810852"><ele>126.0</ele><time>2026-04-10T16:41:35Z</time></trkpt><trkpt lat="45.17582404011728" lon="1.4945299049801777"><ele>126.0</ele><time>2026-04-10T16:41:36Z</time></trkpt><trkpt lat="45.175998742772705" lon="1.4946886139755515"><ele>123.0</ele><time>2026-04-10T16:41:37Z</time></trkpt><trkpt lat="45.17617583706148" lon="1.4948332526642565"><ele>120.0</ele><time>2026-04-10T16:41:38Z</time></trkpt><trkpt lat="45.1763603065968" lon="1.4949507323680071"><ele>117.0</ele><time>2026-04-10T16:41:39Z</time></trkpt><trkpt lat="45.17655676514959" lon="1.4950502431167512"><ele>114.0</ele><time>2026-04-10T16:41:40Z</time></trkpt><trkpt lat="45.17676538918435" lon="1.4951344820632892"><ele>111.0</ele><time>2026-04-10T16:41:41Z</time></trkpt><trkpt lat="45.17698977336288" lon="1.4951991527174904"><ele>108.0</ele><time>2026-04-10T16:41:42Z</time></trkpt><trkpt lat="45.1772250800223" lon="1.4952432854314686"><ele>108.0</ele><time>2026-04-10T16:41:43Z</time></trkpt><trkpt lat="45.17744349503344" lon="1.4952554636327031"><ele>108.0</ele><time>2026-04-10T16:41:44Z</time></trkpt><trkpt lat="45.17764247020506" lon="1.4952465301999731"><ele>108.0</ele><time>2026-04-10T16:41:45Z</time></trkpt><trkpt lat="45.1778527055594" lon="1.495241108081217"><ele>108.0</ele><time>2026-04-10T16:41:46Z</time></trkpt><trkpt lat="45.17808247650412" lon="1.495217929534015"><ele>108.0</ele><time>2026-04-10T16:41:47Z</time></trkpt><trkpt lat="45.17832847814466" lon="1.4951753558004353"><ele>108.0</ele><time>2026-04-10T16:41:48Z</time></trkpt><trkpt lat="45.1785569253094" lon="1.495138260830966"><ele>108.0</ele><time>2026-04-10T16:41:49Z</time></trkpt><trkpt lat="45.17878300852546" lon="1.4951112809409224"><ele>108.0</ele><time>2026-04-10T16:41:50Z</time></trkpt><trkpt lat="45.17900746247665" lon="1.4950899001566471"><ele>108.0</ele><time>2026-04-10T16:41:51Z</time></trkpt><trkpt lat="45.179230006359056" lon="1.4950672562230374"><ele>108.0</ele><time>2026-04-10T16:41:52Z</time></trkpt><trkpt lat="45.17945321917096" lon="1.4950335105389527"><ele>108.0</ele><time>2026-04-10T16:41:53Z</time></trkpt><trkpt lat="45.17967149374129" lon="1.4949984687504716"><ele>108.0</ele><time>2026-04-10T16:41:54Z</time></trkpt><trkpt lat="45.1798936177939" lon="1.4949693444863195"><ele>108.0</ele><time>2026-04-10T16:41:55Z</time></trkpt><trkpt lat="45.18011818881941" lon="1.4949355451318842"><ele>109.0</ele><time>2026-04-10T16:41:56Z</time></trkpt><trkpt lat="45.18033408503245" lon="1.4949158041270882"><ele>110.0</ele><time>2026-04-10T16:41:57Z</time></trkpt><trkpt lat="45.180550317764805" lon="1.4949372745328204"><ele>111.0</ele><time>2026-04-10T16:41:58Z</time></trkpt><trkpt lat="45.18076398407429" lon="1.4949695776153142"><ele>111.66666666666666</ele><time>2026-04-10T16:41:59Z</time></trkpt><trkpt lat="45.18097764981867" lon="1.494989692740757"><ele>112.33333333333333</ele><time>2026-04-10T16:42:00Z</time></trkpt><trkpt lat="45.18119016070617" lon="1.4950439076704534"><ele>113.0</ele><time>2026-04-10T16:42:01Z</time></trkpt><trkpt lat="45.1814057055837" lon="1.4950772176158613"><ele>111.66666666666666</ele><time>2026-04-10T16:42:02Z</time></trkpt><trkpt lat="45.18160622406389" lon="1.4951325873171004"><ele>110.33333333333334</ele><time>2026-04-10T16:42:03Z</time></trkpt><trkpt lat="45.18178686951842" lon="1.4952529024840968"><ele>109.0</ele><time>2026-04-10T16:42:04Z</time></trkpt><trkpt lat="45.18197349874201" lon="1.4953879386410314"><ele>112.0</ele><time>2026-04-10T16:42:05Z</time></trkpt><trkpt lat="45.18214351753274" lon="1.495527060870524"><ele>115.0</ele><time>2026-04-10T16:42:06Z</time></trkpt><trkpt lat="45.182327413033754" lon="1.4956452758487147"><ele>118.0</ele><time>2026-04-10T16:42:07Z</time></trkpt><trkpt lat="45.18252108218316" lon="1.4957596706872414"><ele>118.0</ele><time>2026-04-10T16:42:08Z</time></trkpt><trkpt lat="45.182712369394714" lon="1.495865008920354"><ele>118.0</ele><time>2026-04-10T16:42:09Z</time></trkpt><trkpt lat="45.182906069608634" lon="1.4959533881509668"><ele>118.0</ele><time>2026-04-10T16:42:10Z</time></trkpt><trkpt lat="45.18311066467478" lon="1.4960258842613579"><ele>116.66666666666667</ele><time>2026-04-10T16:42:11Z</time></trkpt><trkpt lat="45.183315198659386" lon="1.4961039636360633"><ele>115.33333333333334</ele><time>2026-04-10T16:42:12Z</time></trkpt><trkpt lat="45.18352898834017" lon="1.4961635068660644"><ele>114.0</ele><time>2026-04-10T16:42:13Z</time></trkpt><trkpt lat="45.1837737883842" lon="1.4961687581644567"><ele>114.0</ele><time>2026-04-10T16:42:14Z</time></trkpt><trkpt lat="45.183999195391635" lon="1.4961385177638686"><ele>114.0</ele><time>2026-04-10T16:42:15Z</time></trkpt><trkpt lat="45.184231141809164" lon="1.4961349392062964"><ele>113.0</ele><time>2026-04-10T16:42:16Z</time></trkpt><trkpt lat="45.18444901579914" lon="1.4961262837269484"><ele>112.0</ele><time>2026-04-10T16:42:17Z</time></trkpt><trkpt lat="45.18465391457591" lon="1.4961243774234037"><ele>111.0</ele><time>2026-04-10T16:42:18Z</time></trkpt><trkpt lat="45.184865375751684" lon="1.4961187153373317"><ele>110.66666666666666</ele><time>2026-04-10T16:42:19Z</time></trkpt><trkpt lat="45.18508120916595" lon="1.4961077285561462"><ele>110.33333333333333</ele><time>2026-04-10T16:42:20Z</time></trkpt><trkpt lat="45.18530304723795" lon="1.496098036194379"><ele>110.0</ele><time>2026-04-10T16:42:21Z</time></trkpt><trkpt lat="45.18552475314575" lon="1.4960873924098055"><ele>110.0</ele><time>2026-04-10T16:42:22Z</time></trkpt><trkpt lat="45.18572400134201" lon="1.4960697557409148"><ele>110.0</ele><time>2026-04-10T16:42:23Z</time></trkpt><trkpt lat="45.18592440377526" lon="1.496046490790926"><ele>110.0</ele><time>2026-04-10T16:42:24Z</time></trkpt><trkpt lat="45.18613261585746" lon="1.4960266652734007"><ele>110.0</ele><time>2026-04-10T16:42:25Z</time></trkpt><trkpt lat="45.18635360081139" lon="1.4960050561622715"><ele>110.0</ele><time>2026-04-10T16:42:26Z</time></trkpt><trkpt lat="45.1865800974837" lon="1.4959757910378118"><ele>110.0</ele><time>2026-04-10T16:42:27Z</time></trkpt><trkpt lat="45.18680960506865" lon="1.4959555915067924"><ele>110.33333333333333</ele><time>2026-04-10T16:42:28Z</time></trkpt><trkpt lat="45.1870324751765" lon="1.4959704773312403"><ele>110.66666666666666</ele><time>2026-04-10T16:42:29Z</time></trkpt><trkpt lat="45.18724051269932" lon="1.4960116365343632"><ele>111.0</ele><time>2026-04-10T16:42:30Z</time></trkpt><trkpt lat="45.18745063788807" lon="1.4960582366025166"><ele>110.33333333333334</ele><time>2026-04-10T16:42:31Z</time></trkpt><trkpt lat="45.187664809389894" lon="1.4961149094093065"><ele>109.66666666666667</ele><time>2026-04-10T16:42:32Z</time></trkpt><trkpt lat="45.187878082310604" lon="1.4961722918188176"><ele>109.0</ele><time>2026-04-10T16:42:33Z</time></trkpt><trkpt lat="45.18809738561914" lon="1.496222670262547"><ele>111.33333333333334</ele><time>2026-04-10T16:42:34Z</time></trkpt><trkpt lat="45.188317569680564" lon="1.4962704472893853"><ele>113.66666666666666</ele><time>2026-04-10T16:42:35Z</time></trkpt><trkpt lat="45.18853586034376" lon="1.4963155493817841"><ele>116.0</ele><time>2026-04-10T16:42:36Z</time></trkpt><trkpt lat="45.188750570367205" lon="1.4963412835839112"><ele>116.0</ele><time>2026-04-10T16:42:37Z</time></trkpt><trkpt lat="45.188965204587475" lon="1.496352444858133"><ele>116.0</ele><time>2026-04-10T16:42:38Z</time></trkpt><trkpt lat="45.189192130938515" lon="1.4963490037396037"><ele>116.0</ele><time>2026-04-10T16:42:39Z</time></trkpt><trkpt lat="45.18940609642728" lon="1.4963558438796636"><ele>116.0</ele><time>2026-04-10T16:42:40Z</time></trkpt><trkpt lat="45.18961922904448" lon="1.4963577057531903"><ele>116.0</ele><time>2026-04-10T16:42:41Z</time></trkpt><trkpt lat="45.18983968473458" lon="1.4963657851027357"><ele>116.0</ele><time>2026-04-10T16:42:42Z</time></trkpt><trkpt lat="45.19005198043173" lon="1.4963805304355988"><ele>116.0</ele><time>2026-04-10T16:42:43Z</time></trkpt><trkpt lat="45.190252670031484" lon="1.4963872359544226"><ele>116.0</ele><time>2026-04-10T16:42:44Z</time></trkpt><trkpt lat="45.19045612239473" lon="1.4963779649761502"><ele>116.0</ele><time>2026-04-10T16:42:45Z</time></trkpt><trkpt lat="45.19066769789001" lon="1.4963708567918779"><ele>116.0</ele><time>2026-04-10T16:42:46Z</time></trkpt><trkpt lat="45.190880531213956" lon="1.4963628111297578"><ele>116.0</ele><time>2026-04-10T16:42:47Z</time></trkpt><trkpt lat="45.19108511735859" lon="1.4963559105613127"><ele>116.0</ele><time>2026-04-10T16:42:48Z</time></trkpt><trkpt lat="45.191284475445656" lon="1.4963536164605002"><ele>116.0</ele><time>2026-04-10T16:42:49Z</time></trkpt><trkpt lat="45.19147568907567" lon="1.4963886210014816"><ele>116.0</ele><time>2026-04-10T16:42:50Z</time></trkpt><trkpt lat="45.19163441935742" lon="1.4964543863030169"><ele>116.0</ele><time>2026-04-10T16:42:50.999Z</time></trkpt><trkpt lat="45.19178226409328" lon="1.496550137008944"><ele>115.25</ele><time>2026-04-10T16:42:51.999Z</time></trkpt><trkpt lat="45.191918971713356" lon="1.4966299843214312"><ele>114.5</ele><time>2026-04-10T16:42:52.999Z</time></trkpt><trkpt lat="45.19204498731736" lon="1.4967277838290494"><ele>113.75</ele><time>2026-04-10T16:42:53.999Z</time></trkpt><trkpt lat="45.19216204455336" lon="1.496815341257373"><ele>113.0</ele><time>2026-04-10T16:42:54.999Z</time></trkpt><trkpt lat="45.192271442505835" lon="1.4968880386215442"><ele>113.25</ele><time>2026-04-10T16:42:55.999Z</time></trkpt><trkpt lat="45.19237834028483" lon="1.4970008873173"><ele>113.5</ele><time>2026-04-10T16:42:56.999Z</time></trkpt><trkpt lat="45.19246976051233" lon="1.4970884396534887"><ele>113.75</ele><time>2026-04-10T16:42:57.999Z</time></trkpt><trkpt lat="45.192533875336366" lon="1.4972011197319208"><ele>114.0</ele><time>2026-04-10T16:42:58.999Z</time></trkpt><trkpt lat="45.19258067146619" lon="1.4973434495700144"><ele>114.0</ele><time>2026-04-10T16:42:59.999Z</time></trkpt><trkpt lat="45.19265453082326" lon="1.4974702064833287"><ele>114.0</ele><time>2026-04-10T16:43:00.999Z</time></trkpt><trkpt lat="45.192773991453706" lon="1.497529169174551"><ele>114.0</ele><time>2026-04-10T16:43:01.999Z</time></trkpt><trkpt lat="45.192897662378684" lon="1.4976358986919238"><ele>114.0</ele><time>2026-04-10T16:43:02.999Z</time></trkpt><trkpt lat="45.19299011574379" lon="1.4977997225162563"><ele>114.33333333333334</ele><time>2026-04-10T16:43:03.999Z</time></trkpt><trkpt lat="45.193127154033036" lon="1.4979819379529205"><ele>114.66666666666667</ele><time>2026-04-10T16:43:04.999Z</time></trkpt><trkpt lat="45.19328597010171" lon="1.4981814090234826"><ele>115.0</ele><time>2026-04-10T16:43:05.999Z</time></trkpt><trkpt lat="45.19347145700086" lon="1.4983892249321136"><ele>115.0</ele><time>2026-04-10T16:43:06.999Z</time></trkpt><trkpt lat="45.19366749175517" lon="1.498641666164701"><ele>115.0</ele><time>2026-04-10T16:43:07.999Z</time></trkpt><trkpt lat="45.19387867494609" lon="1.4988917203556973"><ele>114.5</ele><time>2026-04-10T16:43:08.999Z</time></trkpt><trkpt lat="45.19407117101088" lon="1.4991608665214118"><ele>114.0</ele><time>2026-04-10T16:43:09.999Z</time></trkpt><trkpt lat="45.19428368331744" lon="1.4993116102289052"><ele>114.0</ele><time>2026-04-10T16:43:10.999Z</time></trkpt><trkpt lat="45.19444625117857" lon="1.4994937638935997"><ele>114.0</ele><time>2026-04-10T16:43:11.999Z</time></trkpt><trkpt lat="45.19457545684892" lon="1.4997421448486323"><ele>114.0</ele><time>2026-04-10T16:43:12.999Z</time></trkpt><trkpt lat="45.1947319252932" lon="1.4999525590500318"><ele>114.0</ele><time>2026-04-10T16:43:13.999Z</time></trkpt><trkpt lat="45.194905185425284" lon="1.5001798975679852"><ele>114.0</ele><time>2026-04-10T16:43:14.999Z</time></trkpt><trkpt lat="45.19507973208836" lon="1.5004024205455002"><ele>114.66666666666666</ele><time>2026-04-10T16:43:15.999Z</time></trkpt><trkpt lat="45.19525609268698" lon="1.5006155974448132"><ele>115.33333333333333</ele><time>2026-04-10T16:43:16.999Z</time></trkpt><trkpt lat="45.195418887154624" lon="1.500816531585491"><ele>116.0</ele><time>2026-04-10T16:43:17.999Z</time></trkpt><trkpt lat="45.19557510203778" lon="1.5010178397956542"><ele>115.66666666666666</ele><time>2026-04-10T16:43:18.999Z</time></trkpt><trkpt lat="45.19573938436648" lon="1.5012368695790905"><ele>115.33333333333334</ele><time>2026-04-10T16:43:19.999Z</time></trkpt><trkpt lat="45.19589163772465" lon="1.5014604506796776"><ele>115.0</ele><time>2026-04-10T16:43:20.999Z</time></trkpt><trkpt lat="45.19602326746992" lon="1.5016839495153855"><ele>115.0</ele><time>2026-04-10T16:43:21.999Z</time></trkpt><trkpt lat="45.19614203896319" lon="1.5019236818256727"><ele>115.0</ele><time>2026-04-10T16:43:22.999Z</time></trkpt><trkpt lat="45.196283833426705" lon="1.5021707997991725"><ele>115.0</ele><time>2026-04-10T16:43:23.999Z</time></trkpt><trkpt lat="45.19643928946418" lon="1.502417176170761"><ele>115.0</ele><time>2026-04-10T16:43:25Z</time></trkpt><trkpt lat="45.196566761335916" lon="1.5026457550785022"><ele>115.0</ele><time>2026-04-10T16:43:26Z</time></trkpt><trkpt lat="45.19669859870271" lon="1.5028740811330277"><ele>115.0</ele><time>2026-04-10T16:43:27Z</time></trkpt><trkpt lat="45.196830793059284" lon="1.5031162033666483"><ele>116.0</ele><time>2026-04-10T16:43:28Z</time></trkpt><trkpt lat="45.19696126353591" lon="1.503364693319871"><ele>117.0</ele><time>2026-04-10T16:43:29Z</time></trkpt><trkpt lat="45.19709371356703" lon="1.5036150665820815"><ele>118.0</ele><time>2026-04-10T16:43:30Z</time></trkpt><trkpt lat="45.197220074110064" lon="1.5038675046011087"><ele>117.33333333333334</ele><time>2026-04-10T16:43:31Z</time></trkpt><trkpt lat="45.19734611114146" lon="1.504113543595984"><ele>116.66666666666666</ele><time>2026-04-10T16:43:32Z</time></trkpt><trkpt lat="45.19747133504863" lon="1.5043406384663198"><ele>116.0</ele><time>2026-04-10T16:43:33Z</time></trkpt><trkpt lat="45.197601200454486" lon="1.5045645822125489"><ele>116.0</ele><time>2026-04-10T16:43:34Z</time></trkpt><trkpt lat="45.19773226322113" lon="1.5047915015551445"><ele>116.0</ele><time>2026-04-10T16:43:35Z</time></trkpt><trkpt lat="45.19786750059709" lon="1.5050253386982164"><ele>116.0</ele><time>2026-04-10T16:43:36Z</time></trkpt><trkpt lat="45.19800855891575" lon="1.5052682826016053"><ele>115.66666666666666</ele><time>2026-04-10T16:43:37Z</time></trkpt><trkpt lat="45.19814782207357" lon="1.505513637470631"><ele>115.33333333333334</ele><time>2026-04-10T16:43:38Z</time></trkpt><trkpt lat="45.19828550612776" lon="1.5057478632855184"><ele>115.0</ele><time>2026-04-10T16:43:39Z</time></trkpt><trkpt lat="45.198427711878935" lon="1.5059533609336673"><ele>115.0</ele><time>2026-04-10T16:43:40Z</time></trkpt><trkpt lat="45.19858071802445" lon="1.506151286141416"><ele>115.0</ele><time>2026-04-10T16:43:41Z</time></trkpt><trkpt lat="45.198722304246076" lon="1.5064002206820402"><ele>115.0</ele><time>2026-04-10T16:43:42Z</time></trkpt><trkpt lat="45.19887623075968" lon="1.506638147658946"><ele>114.66666666666667</ele><time>2026-04-10T16:43:43Z</time></trkpt><trkpt lat="45.19900691565342" lon="1.5068750031371454"><ele>114.33333333333334</ele><time>2026-04-10T16:43:44Z</time></trkpt><trkpt lat="45.19913995203134" lon="1.507092170105755"><ele>114.0</ele><time>2026-04-10T16:43:45Z</time></trkpt><trkpt lat="45.19927299424384" lon="1.5073159224405173"><ele>116.0</ele><time>2026-04-10T16:43:46Z</time></trkpt><trkpt lat="45.19939953822637" lon="1.5075539017301973"><ele>118.0</ele><time>2026-04-10T16:43:47Z</time></trkpt><trkpt lat="45.199536316902496" lon="1.5078078592012338"><ele>120.0</ele><time>2026-04-10T16:43:48Z</time></trkpt><trkpt lat="45.1996618366162" lon="1.5080509148856287"><ele>121.33333333333334</ele><time>2026-04-10T16:43:49Z</time></trkpt><trkpt lat="45.19974278517935" lon="1.508310660715855"><ele>122.66666666666667</ele><time>2026-04-10T16:43:50Z</time></trkpt><trkpt lat="45.199829269049985" lon="1.508604584726914"><ele>124.0</ele><time>2026-04-10T16:43:51Z</time></trkpt><trkpt lat="45.19990723749579" lon="1.5089482356045603"><ele>124.0</ele><time>2026-04-10T16:43:52Z</time></trkpt><trkpt lat="45.19999460195472" lon="1.509303459220795"><ele>124.0</ele><time>2026-04-10T16:43:53Z</time></trkpt><trkpt lat="45.200067188812795" lon="1.5096783636168594"><ele>127.33333333333334</ele><time>2026-04-10T16:43:54Z</time></trkpt><trkpt lat="45.20014019413311" lon="1.510000185342124"><ele>130.66666666666666</ele><time>2026-04-10T16:43:55Z</time></trkpt><trkpt lat="45.20019558670828" lon="1.5102624781114877"><ele>134.0</ele><time>2026-04-10T16:43:56Z</time></trkpt><trkpt lat="45.200248455577686" lon="1.510503823430229"><ele>138.33333333333331</ele><time>2026-04-10T16:43:57Z</time></trkpt><trkpt lat="45.20029586139997" lon="1.5107456702065654"><ele>142.66666666666666</ele><time>2026-04-10T16:43:58Z</time></trkpt><trkpt lat="45.20034059320049" lon="1.5109443508298899"><ele>147.0</ele><time>2026-04-10T16:43:59Z</time></trkpt><trkpt lat="45.200382109074745" lon="1.511125171694247"><ele>148.0</ele><time>2026-04-10T16:44:00Z</time></trkpt><trkpt lat="45.20042575009318" lon="1.5112802997873531"><ele>149.0</ele><time>2026-04-10T16:44:01Z</time></trkpt><trkpt lat="45.20049295355772" lon="1.5113954717183444"><ele>150.0</ele><time>2026-04-10T16:44:02Z</time></trkpt><trkpt lat="45.20056517255278" lon="1.5114905069610471"><ele>151.0</ele><time>2026-04-10T16:44:03Z</time></trkpt><trkpt lat="45.200625380527526" lon="1.5115740027431395"><ele>152.0</ele><time>2026-04-10T16:44:04Z</time></trkpt><trkpt lat="45.20068165457461" lon="1.511635857030624"><ele>149.66666666666666</ele><time>2026-04-10T16:44:05Z</time></trkpt><trkpt lat="45.20074867553809" lon="1.5116958106812248"><ele>147.33333333333331</ele><time>2026-04-10T16:44:06Z</time></trkpt><trkpt lat="45.2008054676438" lon="1.5117426859232153"><ele>145.0</ele><time>2026-04-10T16:44:07Z</time></trkpt><trkpt lat="45.20086514264394" lon="1.5117875608646554"><ele>142.66666666666666</ele><time>2026-04-10T16:44:09Z</time></trkpt><trkpt lat="45.20092028940501" lon="1.5118582018742026"><ele>140.33333333333334</ele><time>2026-04-10T16:44:24Z</time></trkpt><trkpt lat="45.20097862255246" lon="1.512049051408142"><ele>138.0</ele><time>2026-04-10T16:44:26Z</time></trkpt><trkpt lat="45.2010134413281" lon="1.5121748627869955"><ele>138.0</ele><time>2026-04-10T16:44:27Z</time></trkpt><trkpt lat="45.20104615908029" lon="1.5122990820357203"><ele>138.0</ele><time>2026-04-10T16:44:28Z</time></trkpt><trkpt lat="45.201041408548086" lon="1.5124571653489989"><ele>138.0</ele><time>2026-04-10T16:44:29Z</time></trkpt><trkpt lat="45.20100264311731" lon="1.5126750623843712"><ele>138.0</ele><time>2026-04-10T16:44:30Z</time></trkpt><trkpt lat="45.20093676197923" lon="1.5129453475520336"><ele>140.5</ele><time>2026-04-10T16:44:31Z</time></trkpt><trkpt lat="45.2008542634841" lon="1.51323832483867"><ele>143.0</ele><time>2026-04-10T16:44:32Z</time></trkpt><trkpt lat="45.20076630710975" lon="1.5135595565444893"><ele>152.5</ele><time>2026-04-10T16:44:33Z</time></trkpt><trkpt lat="45.200659281071914" lon="1.5139065096083486"><ele>162.0</ele><time>2026-04-10T16:44:34Z</time></trkpt><trkpt lat="45.200552368468664" lon="1.5142755378146895"><ele>162.0</ele><time>2026-04-10T16:44:35Z</time></trkpt><trkpt lat="45.20046551329254" lon="1.514647206303926"><ele>162.0</ele><time>2026-04-10T16:44:36Z</time></trkpt><trkpt lat="45.200381283712844" lon="1.5149729491822328"><ele>162.0</ele><time>2026-04-10T16:44:37Z</time></trkpt><trkpt lat="45.20029057331472" lon="1.5152707846744082"><ele>162.0</ele><time>2026-04-10T16:44:38Z</time></trkpt><trkpt lat="45.200200331083096" lon="1.5155705323684612"><ele>158.0</ele><time>2026-04-10T16:44:39Z</time></trkpt><trkpt lat="45.20011889842377" lon="1.515876812633498"><ele>154.0</ele><time>2026-04-10T16:44:40Z</time></trkpt><trkpt lat="45.2000320657286" lon="1.5162046407618588"><ele>153.5</ele><time>2026-04-10T16:44:41Z</time></trkpt><trkpt lat="45.19992804034425" lon="1.5165465184763471"><ele>153.0</ele><time>2026-04-10T16:44:42Z</time></trkpt><trkpt lat="45.19981091047845" lon="1.5168872010985086"><ele>157.5</ele><time>2026-04-10T16:44:43Z</time></trkpt><trkpt lat="45.19970749296141" lon="1.5171995241781648"><ele>162.0</ele><time>2026-04-10T16:44:44Z</time></trkpt><trkpt lat="45.19959219448544" lon="1.5174845503015832"><ele>162.0</ele><time>2026-04-10T16:44:45Z</time></trkpt><trkpt lat="45.1994749906055" lon="1.5177664242775988"><ele>162.0</ele><time>2026-04-10T16:44:46Z</time></trkpt><trkpt lat="45.19942350655659" lon="1.5180610193174955"><ele>162.0</ele><time>2026-04-10T16:44:47Z</time></trkpt><trkpt lat="45.19935593523168" lon="1.518372128814718"><ele>161.0</ele><time>2026-04-10T16:44:48Z</time></trkpt><trkpt lat="45.19926893083005" lon="1.5186964342343703"><ele>160.0</ele><time>2026-04-10T16:44:49Z</time></trkpt><trkpt lat="45.199173701488256" lon="1.519027520979813"><ele>159.0</ele><time>2026-04-10T16:44:50Z</time></trkpt><trkpt lat="45.19907061586439" lon="1.5193657847670667"><ele>158.0</ele><time>2026-04-10T16:44:51Z</time></trkpt><trkpt lat="45.19896099475617" lon="1.5197237342002778"><ele>160.0</ele><time>2026-04-10T16:44:52Z</time></trkpt><trkpt lat="45.19884689124069" lon="1.5200969679518008"><ele>162.0</ele><time>2026-04-10T16:44:53Z</time></trkpt><trkpt lat="45.198731128963615" lon="1.5204554290242354"><ele>162.0</ele><time>2026-04-10T16:44:54Z</time></trkpt><trkpt lat="45.19862051188945" lon="1.5207726746550665"><ele>162.0</ele><time>2026-04-10T16:44:55Z</time></trkpt><trkpt lat="45.19851266827842" lon="1.5210564074004587"><ele>159.0</ele><time>2026-04-10T16:44:56Z</time></trkpt><trkpt lat="45.198407122751895" lon="1.5213428473835215"><ele>156.0</ele><time>2026-04-10T16:44:57Z</time></trkpt><trkpt lat="45.19830190189777" lon="1.5216327079279057"><ele>156.0</ele><time>2026-04-10T16:44:58Z</time></trkpt><trkpt lat="45.19818341901374" lon="1.521941831048983"><ele>156.0</ele><time>2026-04-10T16:44:59Z</time></trkpt><trkpt lat="45.19806345595626" lon="1.5222546504422534"><ele>165.0</ele><time>2026-04-10T16:45:00Z</time></trkpt><trkpt lat="45.19794611021468" lon="1.5225666931907647"><ele>174.0</ele><time>2026-04-10T16:45:01Z</time></trkpt><trkpt lat="45.197825516280716" lon="1.5228773913451503"><ele>177.5</ele><time>2026-04-10T16:45:02Z</time></trkpt><trkpt lat="45.1976970855077" lon="1.5232032584441928"><ele>181.0</ele><time>2026-04-10T16:45:03Z</time></trkpt><trkpt lat="45.19756945928889" lon="1.5235425501683062"><ele>181.5</ele><time>2026-04-10T16:45:04Z</time></trkpt><trkpt lat="45.19744789798242" lon="1.523877959261801"><ele>182.0</ele><time>2026-04-10T16:45:05Z</time></trkpt><trkpt lat="45.19732965654862" lon="1.5241991565774684"><ele>193.0</ele><time>2026-04-10T16:45:06Z</time></trkpt><trkpt lat="45.197214309635505" lon="1.524504848192563"><ele>204.0</ele><time>2026-04-10T16:45:07Z</time></trkpt><trkpt lat="45.19709525109389" lon="1.5248172285439048"><ele>204.0</ele><time>2026-04-10T16:45:08Z</time></trkpt><trkpt lat="45.19697683648391" lon="1.5251355160946094"><ele>204.0</ele><time>2026-04-10T16:45:09Z</time></trkpt><trkpt lat="45.19686330976653" lon="1.5254490497852133"><ele>201.0</ele><time>2026-04-10T16:45:10Z</time></trkpt><trkpt lat="45.19675078130183" lon="1.5257450710296003"><ele>198.0</ele><time>2026-04-10T16:45:11Z</time></trkpt><trkpt lat="45.196634549554794" lon="1.5260425694990958"><ele>197.5</ele><time>2026-04-10T16:45:12Z</time></trkpt><trkpt lat="45.19651666101315" lon="1.526376523710868"><ele>197.0</ele><time>2026-04-10T16:45:13Z</time></trkpt><trkpt lat="45.19638927609144" lon="1.526723362766165"><ele>197.0</ele><time>2026-04-10T16:45:14Z</time></trkpt><trkpt lat="45.19626408844429" lon="1.5270365505732804"><ele>197.0</ele><time>2026-04-10T16:45:15Z</time></trkpt><trkpt lat="45.196138278480774" lon="1.527361292206901"><ele>197.5</ele><time>2026-04-10T16:45:16Z</time></trkpt><trkpt lat="45.19601067339658" lon="1.527718638259309"><ele>198.0</ele><time>2026-04-10T16:45:16.999Z</time></trkpt><trkpt lat="45.19587709872817" lon="1.5280935767021937"><ele>198.0</ele><time>2026-04-10T16:45:17.999Z</time></trkpt><trkpt lat="45.19574937048464" lon="1.5284900996438189"><ele>198.0</ele><time>2026-04-10T16:45:18.999Z</time></trkpt><trkpt lat="45.19561927764589" lon="1.5288882895388463"><ele>209.5</ele><time>2026-04-10T16:45:19.999Z</time></trkpt><trkpt lat="45.19548269420644" lon="1.5292983914849645"><ele>221.0</ele><time>2026-04-10T16:45:20.999Z</time></trkpt><trkpt lat="45.19538189965826" lon="1.5297459293968727"><ele>221.0</ele><time>2026-04-10T16:45:21.999Z</time></trkpt><trkpt lat="45.19527093578128" lon="1.5301363925087623"><ele>221.0</ele><time>2026-04-10T16:45:22.999Z</time></trkpt><trkpt lat="45.19519617515958" lon="1.530511154730355"><ele>219.5</ele><time>2026-04-10T16:45:23.999Z</time></trkpt><trkpt lat="45.19513401366749" lon="1.5308647794703618"><ele>218.0</ele><time>2026-04-10T16:45:24.999Z</time></trkpt><trkpt lat="45.19508342021355" lon="1.531243112396397"><ele>217.5</ele><time>2026-04-10T16:45:25.999Z</time></trkpt><trkpt lat="45.19504674694857" lon="1.5315903575043015"><ele>217.0</ele><time>2026-04-10T16:45:26.999Z</time></trkpt><trkpt lat="45.19501756855062" lon="1.5319859935697164"><ele>220.0</ele><time>2026-04-10T16:45:27.999Z</time></trkpt><trkpt lat="45.19494934620468" lon="1.5320969222135634"><ele>223.0</ele><time>2026-04-10T16:45:28.999Z</time></trkpt><trkpt lat="45.194939001250624" lon="1.5324177472201932"><ele>226.0</ele><time>2026-04-10T16:45:29.999Z</time></trkpt><trkpt lat="45.19493339890462" lon="1.5327492312210553"><ele>229.0</ele><time>2026-04-10T16:45:31Z</time></trkpt><trkpt lat="45.19494131540805" lon="1.533061469313064"><ele>232.0</ele><time>2026-04-10T16:45:32Z</time></trkpt><trkpt lat="45.19495152741889" lon="1.5333700859914008"><ele>235.0</ele><time>2026-04-10T16:45:33Z</time></trkpt><trkpt lat="45.194980133554864" lon="1.5336887443799456"><ele>236.0</ele><time>2026-04-10T16:45:34Z</time></trkpt><trkpt lat="45.195009241642865" lon="1.5339762379981003"><ele>237.0</ele><time>2026-04-10T16:45:35Z</time></trkpt><trkpt lat="45.1950386867298" lon="1.5342690194788506"><ele>238.0</ele><time>2026-04-10T16:45:36Z</time></trkpt><trkpt lat="45.19506294333837" lon="1.5345737805655737"><ele>238.0</ele><time>2026-04-10T16:45:37Z</time></trkpt><trkpt lat="45.19508925252763" lon="1.534885065878062"><ele>238.0</ele><time>2026-04-10T16:45:38Z</time></trkpt><trkpt lat="45.19511155127633" lon="1.5352012600061125"><ele>238.0</ele><time>2026-04-10T16:45:39Z</time></trkpt><trkpt lat="45.19513182067875" lon="1.5355140009318233"><ele>238.0</ele><time>2026-04-10T16:45:40Z</time></trkpt><trkpt lat="45.19515476703883" lon="1.5358208238568498"><ele>238.0</ele><time>2026-04-10T16:45:41Z</time></trkpt><trkpt lat="45.19517759442246" lon="1.536116443769665"><ele>238.0</ele><time>2026-04-10T16:45:42Z</time></trkpt><trkpt lat="45.19519973011138" lon="1.5364163262453032"><ele>239.0</ele><time>2026-04-10T16:45:43Z</time></trkpt><trkpt lat="45.19522381997574" lon="1.5367585350444348"><ele>240.0</ele><time>2026-04-10T16:45:44Z</time></trkpt><trkpt lat="45.19525359162967" lon="1.5371315934758987"><ele>241.0</ele><time>2026-04-10T16:45:45Z</time></trkpt><trkpt lat="45.19528735198305" lon="1.5375311403471277"><ele>242.0</ele><time>2026-04-10T16:45:46Z</time></trkpt><trkpt lat="45.19531995843797" lon="1.537945880437886"><ele>243.5</ele><time>2026-04-10T16:45:47Z</time></trkpt><trkpt lat="45.1953406372115" lon="1.5383666115750636"><ele>245.0</ele><time>2026-04-10T16:45:48Z</time></trkpt><trkpt lat="45.19535050025446" lon="1.5387294045574083"><ele>246.0</ele><time>2026-04-10T16:45:49Z</time></trkpt><trkpt lat="45.19535498848749" lon="1.5390645098395999"><ele>247.0</ele><time>2026-04-10T16:45:50Z</time></trkpt><trkpt lat="45.19535902990783" lon="1.53930959542465"><ele>248.0</ele><time>2026-04-10T16:45:51Z</time></trkpt><trkpt lat="45.195372166439924" lon="1.5395483541090833"><ele>249.33333333333334</ele><time>2026-04-10T16:45:52Z</time></trkpt><trkpt lat="45.195379728333315" lon="1.5397695263798103"><ele>250.66666666666669</ele><time>2026-04-10T16:45:53Z</time></trkpt><trkpt lat="45.19539086493325" lon="1.5399773493846516"><ele>252.0</ele><time>2026-04-10T16:45:54Z</time></trkpt><trkpt lat="45.19539651399728" lon="1.5401961347249309"><ele>253.25</ele><time>2026-04-10T16:45:55Z</time></trkpt><trkpt lat="45.195408455824015" lon="1.5403906699001508"><ele>254.5</ele><time>2026-04-10T16:45:56Z</time></trkpt><trkpt lat="45.19541452698706" lon="1.540560040301426"><ele>255.75</ele><time>2026-04-10T16:45:57Z</time></trkpt><trkpt lat="45.195423467900525" lon="1.540731048635111"><ele>257.0</ele><time>2026-04-10T16:45:58Z</time></trkpt><trkpt lat="45.195415634121204" lon="1.5409200158503746"><ele>257.0</ele><time>2026-04-10T16:45:59Z</time></trkpt><trkpt lat="45.1953971108149" lon="1.5410841213372353"><ele>257.0</ele><time>2026-04-10T16:46:00Z</time></trkpt><trkpt lat="45.19537276122253" lon="1.541227467688349"><ele>257.0</ele><time>2026-04-10T16:46:01Z</time></trkpt><trkpt lat="45.19532792607868" lon="1.5413545022575585"><ele>257.0</ele><time>2026-04-10T16:46:02Z</time></trkpt><trkpt lat="45.195322549821334" lon="1.5414909109106998"><ele>257.0</ele><time>2026-04-10T16:46:03Z</time></trkpt><trkpt lat="45.19538227118274" lon="1.5416278933257042"><ele>256.75</ele><time>2026-04-10T16:46:04Z</time></trkpt><trkpt lat="45.19546619612423" lon="1.5417541232816467"><ele>256.5</ele><time>2026-04-10T16:46:05Z</time></trkpt><trkpt lat="45.195541046597704" lon="1.541877287664943"><ele>256.25</ele><time>2026-04-10T16:46:06Z</time></trkpt><trkpt lat="45.19557430589649" lon="1.542057469786257"><ele>256.0</ele><time>2026-04-10T16:46:07Z</time></trkpt><trkpt lat="45.19558240008186" lon="1.5422995652689613"><ele>256.0</ele><time>2026-04-10T16:46:08Z</time></trkpt><trkpt lat="45.195595785861215" lon="1.542536432478214"><ele>256.0</ele><time>2026-04-10T16:46:09Z</time></trkpt><trkpt lat="45.19561733218241" lon="1.5427633649466879"><ele>256.0</ele><time>2026-04-10T16:46:10Z</time></trkpt><trkpt lat="45.19562141766894" lon="1.5430228753301274"><ele>254.33333333333331</ele><time>2026-04-10T16:46:11Z</time></trkpt><trkpt lat="45.19563620726738" lon="1.543260425271916"><ele>252.66666666666669</ele><time>2026-04-10T16:46:12Z</time></trkpt><trkpt lat="45.19564868283498" lon="1.543510986792596"><ele>251.0</ele><time>2026-04-10T16:46:13Z</time></trkpt><trkpt lat="45.19566806170381" lon="1.5438020355813513"><ele>249.33333333333334</ele><time>2026-04-10T16:46:14Z</time></trkpt><trkpt lat="45.195685884323275" lon="1.5440959309805178"><ele>247.66666666666669</ele><time>2026-04-10T16:46:15Z</time></trkpt><trkpt lat="45.19570573884885" lon="1.5443666092913313"><ele>246.0</ele><time>2026-04-10T16:46:16Z</time></trkpt><trkpt lat="45.19572696255629" lon="1.5446221673204816"><ele>246.0</ele><time>2026-04-10T16:46:17Z</time></trkpt><trkpt lat="45.195744342383676" lon="1.5448849249985641"><ele>246.0</ele><time>2026-04-10T16:46:18Z</time></trkpt><trkpt lat="45.19576043052219" lon="1.5451404239742472"><ele>246.0</ele><time>2026-04-10T16:46:19Z</time></trkpt><trkpt lat="45.195774698155226" lon="1.5453801419660544"><ele>246.5</ele><time>2026-04-10T16:46:20Z</time></trkpt><trkpt lat="45.195784499856586" lon="1.5456117338212099"><ele>247.0</ele><time>2026-04-10T16:46:21Z</time></trkpt><trkpt lat="45.19579348991069" lon="1.5458235040348662"><ele>247.5</ele><time>2026-04-10T16:46:22Z</time></trkpt><trkpt lat="45.195806880253365" lon="1.546010527072464"><ele>248.0</ele><time>2026-04-10T16:46:23Z</time></trkpt><trkpt lat="45.19581675745316" lon="1.5461924251517258"><ele>249.75</ele><time>2026-04-10T16:46:24Z</time></trkpt><trkpt lat="45.195824528817646" lon="1.5463585460168106"><ele>251.5</ele><time>2026-04-10T16:46:25Z</time></trkpt><trkpt lat="45.195834098604955" lon="1.5465220652925948"><ele>253.25</ele><time>2026-04-10T16:46:26Z</time></trkpt><trkpt lat="45.195842783237396" lon="1.5467037827966825"><ele>255.0</ele><time>2026-04-10T16:46:27Z</time></trkpt><trkpt lat="45.19585681630008" lon="1.5468999855961667"><ele>256.25</ele><time>2026-04-10T16:46:28Z</time></trkpt><trkpt lat="45.19586547292242" lon="1.5471023615079098"><ele>257.5</ele><time>2026-04-10T16:46:29Z</time></trkpt><trkpt lat="45.19587641348924" lon="1.547295984302641"><ele>258.75</ele><time>2026-04-10T16:46:30Z</time></trkpt><trkpt lat="45.195885954773736" lon="1.5474963013619851"><ele>260.0</ele><time>2026-04-10T16:46:31Z</time></trkpt><trkpt lat="45.195895894162284" lon="1.5476929149257557"><ele>260.0</ele><time>2026-04-10T16:46:32Z</time></trkpt><trkpt lat="45.195899145677494" lon="1.5478706793979222"><ele>260.0</ele><time>2026-04-10T16:46:33Z</time></trkpt><trkpt lat="45.195904405693625" lon="1.5480484258099034"><ele>260.0</ele><time>2026-04-10T16:46:34Z</time></trkpt><trkpt lat="45.1959069836304" lon="1.548219665206594"><ele>260.0</ele><time>2026-04-10T16:46:35Z</time></trkpt><trkpt lat="45.195908397381636" lon="1.548397366098976"><ele>258.75</ele><time>2026-04-10T16:46:36Z</time></trkpt><trkpt lat="45.19590257684929" lon="1.5485890204421011"><ele>257.5</ele><time>2026-04-10T16:46:37Z</time></trkpt><trkpt lat="45.195893409727425" lon="1.5487903233230413"><ele>256.25</ele><time>2026-04-10T16:46:38Z</time></trkpt><trkpt lat="45.19588871586648" lon="1.548994380116477"><ele>255.0</ele><time>2026-04-10T16:46:39Z</time></trkpt><trkpt lat="45.195875213718736" lon="1.549195827654604"><ele>251.0</ele><time>2026-04-10T16:46:40Z</time></trkpt><trkpt lat="45.19585842064189" lon="1.549405275216142"><ele>247.0</ele><time>2026-04-10T16:46:41Z</time></trkpt><trkpt lat="45.19583787388349" lon="1.5496283441314744"><ele>243.0</ele><time>2026-04-10T16:46:42Z</time></trkpt><trkpt lat="45.19582367693788" lon="1.5498362575720277"><ele>240.75</ele><time>2026-04-10T16:46:43Z</time></trkpt><trkpt lat="45.19580032063253" lon="1.5500362132164862"><ele>238.5</ele><time>2026-04-10T16:46:44Z</time></trkpt><trkpt lat="45.1957719059886" lon="1.5502410213536477"><ele>236.25</ele><time>2026-04-10T16:46:45Z</time></trkpt><trkpt lat="45.195741111980446" lon="1.5504575806415593"><ele>234.0</ele><time>2026-04-10T16:46:46Z</time></trkpt><trkpt lat="45.19570431209217" lon="1.5506791030233371"><ele>234.0</ele><time>2026-04-10T16:46:47Z</time></trkpt><trkpt lat="45.19567342505886" lon="1.5509042914332047"><ele>234.0</ele><time>2026-04-10T16:46:48Z</time></trkpt><trkpt lat="45.195639001810854" lon="1.5511293589674844"><ele>234.0</ele><time>2026-04-10T16:46:49Z</time></trkpt><trkpt lat="45.195595709637615" lon="1.5513567348724615"><ele>242.0</ele><time>2026-04-10T16:46:50Z</time></trkpt><trkpt lat="45.19555495863447" lon="1.5515725348226033"><ele>250.0</ele><time>2026-04-10T16:46:51Z</time></trkpt><trkpt lat="45.19551294546542" lon="1.5517750497492995"><ele>258.0</ele><time>2026-04-10T16:46:52Z</time></trkpt><trkpt lat="45.195467194296505" lon="1.5519710189735758"><ele>259.0</ele><time>2026-04-10T16:46:53Z</time></trkpt><trkpt lat="45.195416912465554" lon="1.552172698175503"><ele>260.0</ele><time>2026-04-10T16:46:54Z</time></trkpt><trkpt lat="45.19536724401522" lon="1.552386318386412"><ele>261.0</ele><time>2026-04-10T16:46:55Z</time></trkpt><trkpt lat="45.19530164412361" lon="1.5526085017101432"><ele>261.0</ele><time>2026-04-10T16:46:56Z</time></trkpt><trkpt lat="45.19522732143431" lon="1.5528324565212666"><ele>261.0</ele><time>2026-04-10T16:46:57Z</time></trkpt><trkpt lat="45.19516502067889" lon="1.5530428674629742"><ele>261.0</ele><time>2026-04-10T16:46:58Z</time></trkpt><trkpt lat="45.19510295118787" lon="1.553256920983201"><ele>257.6666666666667</ele><time>2026-04-10T16:46:59Z</time></trkpt><trkpt lat="45.19503706940065" lon="1.5534590612583206"><ele>254.33333333333334</ele><time>2026-04-10T16:47:00Z</time></trkpt><trkpt lat="45.19495615385355" lon="1.5536656788511578"><ele>251.0</ele><time>2026-04-10T16:47:01Z</time></trkpt><trkpt lat="45.194881597647" lon="1.5538749983597442"><ele>253.33333333333334</ele><time>2026-04-10T16:47:02Z</time></trkpt><trkpt lat="45.19478877334856" lon="1.5540800588220334"><ele>255.66666666666669</ele><time>2026-04-10T16:47:03Z</time></trkpt><trkpt lat="45.19470394129305" lon="1.5542863050516362"><ele>258.0</ele><time>2026-04-10T16:47:04Z</time></trkpt><trkpt lat="45.19461821104997" lon="1.5544836258340144"><ele>254.0</ele><time>2026-04-10T16:47:05Z</time></trkpt><trkpt lat="45.194525213814835" lon="1.554672012195859"><ele>250.0</ele><time>2026-04-10T16:47:06Z</time></trkpt><trkpt lat="45.19443446014895" lon="1.5548572630211779"><ele>246.0</ele><time>2026-04-10T16:47:07Z</time></trkpt><trkpt lat="45.194341139303575" lon="1.5550478007441868"><ele>246.0</ele><time>2026-04-10T16:47:08Z</time></trkpt><trkpt lat="45.19424057372591" lon="1.5552481416835995"><ele>246.0</ele><time>2026-04-10T16:47:09Z</time></trkpt><trkpt lat="45.19414279474371" lon="1.5554469567541338"><ele>246.0</ele><time>2026-04-10T16:47:10Z</time></trkpt><trkpt lat="45.194041502088155" lon="1.5556482996221868"><ele>243.0</ele><time>2026-04-10T16:47:11Z</time></trkpt><trkpt lat="45.1939323322193" lon="1.5558601681675917"><ele>240.0</ele><time>2026-04-10T16:47:12Z</time></trkpt><trkpt lat="45.193818963772024" lon="1.5560848703537689"><ele>237.0</ele><time>2026-04-10T16:47:13Z</time></trkpt><trkpt lat="45.19370004104328" lon="1.5563199690219192"><ele>232.33333333333331</ele><time>2026-04-10T16:47:14Z</time></trkpt><trkpt lat="45.19358227500214" lon="1.5565523692868737"><ele>227.66666666666666</ele><time>2026-04-10T16:47:14.999Z</time></trkpt><trkpt lat="45.19346553979051" lon="1.5567930916604613"><ele>223.0</ele><time>2026-04-10T16:47:15.999Z</time></trkpt><trkpt lat="45.1933428449663" lon="1.5570440737566071"><ele>221.66666666666666</ele><time>2026-04-10T16:47:16.999Z</time></trkpt><trkpt lat="45.19322417648667" lon="1.55728416353888"><ele>220.33333333333331</ele><time>2026-04-10T16:47:17.999Z</time></trkpt><trkpt lat="45.19310474444929" lon="1.5575138376767017"><ele>219.0</ele><time>2026-04-10T16:47:18.999Z</time></trkpt><trkpt lat="45.19298275611327" lon="1.557749779558946"><ele>214.0</ele><time>2026-04-10T16:47:19.999Z</time></trkpt><trkpt lat="45.19286294431731" lon="1.5579913334512072"><ele>209.0</ele><time>2026-04-10T16:47:20.999Z</time></trkpt><trkpt lat="45.192741487411595" lon="1.5582330711898513"><ele>204.0</ele><time>2026-04-10T16:47:21.999Z</time></trkpt><trkpt lat="45.19262205880508" lon="1.5584626352975888"><ele>204.0</ele><time>2026-04-10T16:47:22.999Z</time></trkpt><trkpt lat="45.19250555168364" lon="1.5586917299013077"><ele>204.0</ele><time>2026-04-10T16:47:23.999Z</time></trkpt><trkpt lat="45.19238826417907" lon="1.5589277409278877"><ele>204.0</ele><time>2026-04-10T16:47:24.999Z</time></trkpt><trkpt lat="45.19226986914099" lon="1.5591715474794157"><ele>206.0</ele><time>2026-04-10T16:47:25.999Z</time></trkpt><trkpt lat="45.19214570654465" lon="1.5594129378508705"><ele>208.0</ele><time>2026-04-10T16:47:26.999Z</time></trkpt><trkpt lat="45.19202667439345" lon="1.5596424732977774"><ele>210.0</ele><time>2026-04-10T16:47:27.999Z</time></trkpt><trkpt lat="45.191908437938395" lon="1.5598694370438053"><ele>210.0</ele><time>2026-04-10T16:47:28.999Z</time></trkpt><trkpt lat="45.19179242608866" lon="1.5601012570823827"><ele>210.0</ele><time>2026-04-10T16:47:29.999Z</time></trkpt><trkpt lat="45.19167826859459" lon="1.5603326695215995"><ele>210.0</ele><time>2026-04-10T16:47:30.999Z</time></trkpt><trkpt lat="45.19156451861498" lon="1.5605673279836867"><ele>211.66666666666669</ele><time>2026-04-10T16:47:31.999Z</time></trkpt><trkpt lat="45.191447027478574" lon="1.5608012305903305"><ele>213.33333333333334</ele><time>2026-04-10T16:47:32.999Z</time></trkpt><trkpt lat="45.19133258913956" lon="1.5610322236483893"><ele>215.0</ele><time>2026-04-10T16:47:33.999Z</time></trkpt><trkpt lat="45.1912156082422" lon="1.5612642890536017"><ele>215.0</ele><time>2026-04-10T16:47:34.999Z</time></trkpt><trkpt lat="45.191098853820144" lon="1.561495566939046"><ele>215.0</ele><time>2026-04-10T16:47:35.999Z</time></trkpt><trkpt lat="45.1909872815072" lon="1.5617327857362555"><ele>215.0</ele><time>2026-04-10T16:47:37Z</time></trkpt><trkpt lat="45.19087605313606" lon="1.5619759269205022"><ele>213.33333333333334</ele><time>2026-04-10T16:47:38Z</time></trkpt><trkpt lat="45.19076245890874" lon="1.562230376304608"><ele>211.66666666666669</ele><time>2026-04-10T16:47:39Z</time></trkpt><trkpt lat="45.19064761773916" lon="1.5624842891765984"><ele>210.0</ele><time>2026-04-10T16:47:40Z</time></trkpt><trkpt lat="45.19054589300893" lon="1.5627290245549905"><ele>202.33333333333334</ele><time>2026-04-10T16:47:41Z</time></trkpt><trkpt lat="45.190440175933325" lon="1.5629791566052857"><ele>194.66666666666669</ele><time>2026-04-10T16:47:42Z</time></trkpt><trkpt lat="45.19034052687782" lon="1.563235814995288"><ele>187.0</ele><time>2026-04-10T16:47:43Z</time></trkpt><trkpt lat="45.19024868962554" lon="1.5634944565148126"><ele>180.33333333333334</ele><time>2026-04-10T16:47:44Z</time></trkpt><trkpt lat="45.190158093539985" lon="1.5637436424217799"><ele>173.66666666666666</ele><time>2026-04-10T16:47:45Z</time></trkpt><trkpt lat="45.190072903960775" lon="1.5639928870923687"><ele>167.0</ele><time>2026-04-10T16:47:46Z</time></trkpt><trkpt lat="45.189989137353066" lon="1.5642450413726763"><ele>167.0</ele><time>2026-04-10T16:47:47Z</time></trkpt><trkpt lat="45.18990382999547" lon="1.5644982948636175"><ele>167.0</ele><time>2026-04-10T16:47:48Z</time></trkpt><trkpt lat="45.18982302414746" lon="1.5647630569815019"><ele>167.0</ele><time>2026-04-10T16:47:49Z</time></trkpt><trkpt lat="45.18973958371567" lon="1.5650409275190449"><ele>164.33333333333331</ele><time>2026-04-10T16:47:50Z</time></trkpt><trkpt lat="45.18965949181734" lon="1.5653270511425432"><ele>161.66666666666666</ele><time>2026-04-10T16:47:51Z</time></trkpt><trkpt lat="45.189588199172924" lon="1.5656026745583878"><ele>159.0</ele><time>2026-04-10T16:47:52Z</time></trkpt><trkpt lat="45.18951506421436" lon="1.565893162595674"><ele>154.0</ele><time>2026-04-10T16:47:53Z</time></trkpt><trkpt lat="45.18944624420953" lon="1.5661789455284474"><ele>149.0</ele><time>2026-04-10T16:47:54Z</time></trkpt><trkpt lat="45.18938390887184" lon="1.5664485828915202"><ele>144.0</ele><time>2026-04-10T16:47:55Z</time></trkpt><trkpt lat="45.189328570952625" lon="1.5667130785015444"><ele>142.0</ele><time>2026-04-10T16:47:56Z</time></trkpt><trkpt lat="45.18926829943633" lon="1.5669893554245284"><ele>140.0</ele><time>2026-04-10T16:47:57Z</time></trkpt><trkpt lat="45.18921439111857" lon="1.5672565802716993"><ele>138.0</ele><time>2026-04-10T16:47:58Z</time></trkpt><trkpt lat="45.18916672541265" lon="1.567513918223148"><ele>137.0</ele><time>2026-04-10T16:47:59Z</time></trkpt><trkpt lat="45.1891195562461" lon="1.567778349722434"><ele>136.0</ele><time>2026-04-10T16:48:00Z</time></trkpt><trkpt lat="45.18907151965217" lon="1.5680759965753615"><ele>135.0</ele><time>2026-04-10T16:48:01Z</time></trkpt><trkpt lat="45.18901833528431" lon="1.568427307718064"><ele>142.0</ele><time>2026-04-10T16:48:02Z</time></trkpt><trkpt lat="45.18896765461123" lon="1.5687853626393564"><ele>149.0</ele><time>2026-04-10T16:48:03Z</time></trkpt><trkpt lat="45.18893218681767" lon="1.569101325162952"><ele>149.0</ele><time>2026-04-10T16:48:04Z</time></trkpt><trkpt lat="45.18889655704466" lon="1.5694054739732353"><ele>149.0</ele><time>2026-04-10T16:48:05Z</time></trkpt><trkpt lat="45.18886582719581" lon="1.5696979867484668"><ele>149.0</ele><time>2026-04-10T16:48:06Z</time></trkpt><trkpt lat="45.18883767826577" lon="1.5699989205440206"><ele>154.33333333333331</ele><time>2026-04-10T16:48:07Z</time></trkpt><trkpt lat="45.18881358918564" lon="1.5702895903230651"><ele>159.66666666666666</ele><time>2026-04-10T16:48:08Z</time></trkpt><trkpt lat="45.188797219821595" lon="1.5705889395110975"><ele>165.0</ele><time>2026-04-10T16:48:09Z</time></trkpt><trkpt lat="45.188780529854185" lon="1.570888544263406"><ele>169.33333333333334</ele><time>2026-04-10T16:48:10Z</time></trkpt><trkpt lat="45.18876170916094" lon="1.5711756937213426"><ele>173.66666666666669</ele><time>2026-04-10T16:48:11Z</time></trkpt><trkpt lat="45.188732058633136" lon="1.5714493001700387"><ele>178.0</ele><time>2026-04-10T16:48:12Z</time></trkpt><trkpt lat="45.18871442850185" lon="1.5717146033203102"><ele>182.33333333333334</ele><time>2026-04-10T16:48:13Z</time></trkpt><trkpt lat="45.18869725654059" lon="1.5719730117758646"><ele>186.66666666666666</ele><time>2026-04-10T16:48:14Z</time></trkpt><trkpt lat="45.18868164896048" lon="1.5722357202152044"><ele>191.0</ele><time>2026-04-10T16:48:15Z</time></trkpt><trkpt lat="45.1886813366195" lon="1.572505066417409"><ele>189.66666666666666</ele><time>2026-04-10T16:48:16Z</time></trkpt><trkpt lat="45.188659529672655" lon="1.5727796012438748"><ele>188.33333333333334</ele><time>2026-04-10T16:48:17Z</time></trkpt><trkpt lat="45.188637454233536" lon="1.5730604216342174"><ele>187.0</ele><time>2026-04-10T16:48:18Z</time></trkpt><trkpt lat="45.18862327716809" lon="1.5733194718043213"><ele>187.0</ele><time>2026-04-10T16:48:19Z</time></trkpt><trkpt lat="45.18860656730258" lon="1.5736014255616966"><ele>187.0</ele><time>2026-04-10T16:48:20Z</time></trkpt><trkpt lat="45.18859281312401" lon="1.5738451861113683"><ele>187.0</ele><time>2026-04-10T16:48:21Z</time></trkpt><trkpt lat="45.18857554739027" lon="1.5740716905043097"><ele>184.0</ele><time>2026-04-10T16:48:22Z</time></trkpt><trkpt lat="45.188559137124095" lon="1.5742841739213822"><ele>181.0</ele><time>2026-04-10T16:48:23Z</time></trkpt><trkpt lat="45.18854364486654" lon="1.574480404988156"><ele>178.0</ele><time>2026-04-10T16:48:24Z</time></trkpt><trkpt lat="45.18852903208158" lon="1.5746799805002416"><ele>175.0</ele><time>2026-04-10T16:48:25Z</time></trkpt><trkpt lat="45.188515693783295" lon="1.5748899382811175"><ele>175.0</ele><time>2026-04-10T16:48:26Z</time></trkpt><trkpt lat="45.18850733032826" lon="1.5751035146493542"><ele>175.0</ele><time>2026-04-10T16:48:27Z</time></trkpt><trkpt lat="45.188497569578914" lon="1.5753226483346068"><ele>175.0</ele><time>2026-04-10T16:48:28Z</time></trkpt><trkpt lat="45.18848638893251" lon="1.5755442096279928"><ele>176.75</ele><time>2026-04-10T16:48:29Z</time></trkpt><trkpt lat="45.188473418461555" lon="1.5757622656569308"><ele>178.5</ele><time>2026-04-10T16:48:30Z</time></trkpt><trkpt lat="45.18845918406268" lon="1.5759666363081124"><ele>180.25</ele><time>2026-04-10T16:48:31Z</time></trkpt><trkpt lat="45.18844677715065" lon="1.5761635031372285"><ele>182.0</ele><time>2026-04-10T16:48:32Z</time></trkpt><trkpt lat="45.18843617256039" lon="1.5763524764520123"><ele>184.75</ele><time>2026-04-10T16:48:33Z</time></trkpt><trkpt lat="45.188425093778164" lon="1.5765460821664137"><ele>187.5</ele><time>2026-04-10T16:48:34Z</time></trkpt><trkpt lat="45.18841637151813" lon="1.5767236866092442"><ele>190.25</ele><time>2026-04-10T16:48:35Z</time></trkpt><trkpt lat="45.18840805849045" lon="1.5768776140005552"><ele>193.0</ele><time>2026-04-10T16:48:36Z</time></trkpt><trkpt lat="45.18840064727649" lon="1.5770498450164308"><ele>195.75</ele><time>2026-04-10T16:48:37Z</time></trkpt><trkpt lat="45.18837464920588" lon="1.5772427624320784"><ele>198.5</ele><time>2026-04-10T16:48:38Z</time></trkpt><trkpt lat="45.18837269239761" lon="1.5774295361622421"><ele>201.25</ele><time>2026-04-10T16:48:39Z</time></trkpt><trkpt lat="45.188356847777996" lon="1.577603659957048"><ele>204.0</ele><time>2026-04-10T16:48:40Z</time></trkpt><trkpt lat="45.18834548294388" lon="1.5777816769311384"><ele>204.6</ele><time>2026-04-10T16:48:41Z</time></trkpt><trkpt lat="45.188335407471335" lon="1.5779530633353005"><ele>205.2</ele><time>2026-04-10T16:48:42Z</time></trkpt><trkpt lat="45.188325034648955" lon="1.5781192384602818"><ele>205.79999999999998</ele><time>2026-04-10T16:48:43Z</time></trkpt><trkpt lat="45.188314090586715" lon="1.5782574917665921"><ele>206.39999999999998</ele><time>2026-04-10T16:48:44Z</time></trkpt><trkpt lat="45.18830872698034" lon="1.5783811755861452"><ele>207.0</ele><time>2026-04-10T16:48:45Z</time></trkpt><trkpt lat="45.18829862885938" lon="1.5785281308953667"><ele>207.0</ele><time>2026-04-10T16:48:46Z</time></trkpt><trkpt lat="45.18829173459931" lon="1.578661646815797"><ele>207.0</ele><time>2026-04-10T16:48:47Z</time></trkpt><trkpt lat="45.188284429567574" lon="1.5787819395545664"><ele>207.0</ele><time>2026-04-10T16:48:48Z</time></trkpt><trkpt lat="45.188277068721895" lon="1.5788947544964065"><ele>207.0</ele><time>2026-04-10T16:48:49Z</time></trkpt><trkpt lat="45.18827217440193" lon="1.5790087939707986"><ele>207.0</ele><time>2026-04-10T16:48:50Z</time></trkpt><trkpt lat="45.18826238154457" lon="1.5791003519090927"><ele>207.0</ele><time>2026-04-10T16:48:51Z</time></trkpt><trkpt lat="45.18825406628731" lon="1.5792072914692108"><ele>207.39999999999998</ele><time>2026-04-10T16:48:52Z</time></trkpt><trkpt lat="45.188247341529475" lon="1.5793360593252783"><ele>207.79999999999998</ele><time>2026-04-10T16:48:53Z</time></trkpt><trkpt lat="45.188237244489635" lon="1.5794487325328044"><ele>208.2</ele><time>2026-04-10T16:48:54Z</time></trkpt><trkpt lat="45.18821947105573" lon="1.5796002666439986"><ele>208.6</ele><time>2026-04-10T16:48:56Z</time></trkpt><trkpt lat="45.18820990781071" lon="1.579688580807831"><ele>209.0</ele><time>2026-04-10T16:48:57Z</time></trkpt><trkpt lat="45.18815459120294" lon="1.5798616772075127"><ele>209.75</ele><time>2026-04-10T16:48:59Z</time></trkpt><trkpt lat="45.188104489056855" lon="1.579992182031103"><ele>210.5</ele><time>2026-04-10T16:49:00Z</time></trkpt><trkpt lat="45.18799844760286" lon="1.5801163299958023"><ele>211.25</ele><time>2026-04-10T16:49:01Z</time></trkpt><trkpt lat="45.18790745765048" lon="1.5802280718819932"><ele>212.0</ele><time>2026-04-10T16:49:02Z</time></trkpt><trkpt lat="45.187887624720894" lon="1.5804055353497057"><ele>212.0</ele><time>2026-04-10T16:49:03Z</time></trkpt><trkpt lat="45.18791516260755" lon="1.5805362055155205"><ele>212.0</ele><time>2026-04-10T16:49:04Z</time></trkpt><trkpt lat="45.187968846345825" lon="1.5805907604727445"><ele>212.0</ele><time>2026-04-10T16:49:05Z</time></trkpt><trkpt lat="45.188068565767814" lon="1.5807091677103813"><ele>212.0</ele><time>2026-04-10T16:49:06Z</time></trkpt><trkpt lat="45.188081489693744" lon="1.58094917280592"><ele>212.0</ele><time>2026-04-10T16:49:07Z</time></trkpt><trkpt lat="45.18810787200388" lon="1.581143118720784"><ele>212.0</ele><time>2026-04-10T16:49:08Z</time></trkpt><trkpt lat="45.188081943690115" lon="1.581319019693676"><ele>212.0</ele><time>2026-04-10T16:49:09Z</time></trkpt><trkpt lat="45.18807487435239" lon="1.581502883516647"><ele>212.0</ele><time>2026-04-10T16:49:10Z</time></trkpt><trkpt lat="45.188085094659215" lon="1.5816882755161354"><ele>213.75</ele><time>2026-04-10T16:49:11Z</time></trkpt><trkpt lat="45.188070633408636" lon="1.581886621944651"><ele>215.5</ele><time>2026-04-10T16:49:12Z</time></trkpt><trkpt lat="45.18806857933452" lon="1.5821064295961957"><ele>217.25</ele><time>2026-04-10T16:49:13Z</time></trkpt><trkpt lat="45.18807253474015" lon="1.5823001447277338"><ele>219.0</ele><time>2026-04-10T16:49:14Z</time></trkpt><trkpt lat="45.18806008691838" lon="1.582484288173175"><ele>219.25</ele><time>2026-04-10T16:49:15Z</time></trkpt><trkpt lat="45.18802557378748" lon="1.5826857841489403"><ele>219.5</ele><time>2026-04-10T16:49:16Z</time></trkpt><trkpt lat="45.18800090935908" lon="1.5828897164757307"><ele>219.75</ele><time>2026-04-10T16:49:17Z</time></trkpt><trkpt lat="45.18799338850207" lon="1.5830832766815575"><ele>220.0</ele><time>2026-04-10T16:49:17.999Z</time></trkpt><trkpt lat="45.18798137710711" lon="1.583294876942111"><ele>218.33333333333331</ele><time>2026-04-10T16:49:18.999Z</time></trkpt><trkpt lat="45.1879670964292" lon="1.5835119227227172"><ele>216.66666666666669</ele><time>2026-04-10T16:49:19.999Z</time></trkpt><trkpt lat="45.18795281317833" lon="1.5837336465786285"><ele>215.0</ele><time>2026-04-10T16:49:20.999Z</time></trkpt><trkpt lat="45.187936167956465" lon="1.5839438809468038"><ele>213.75</ele><time>2026-04-10T16:49:21.999Z</time></trkpt><trkpt lat="45.18792704907098" lon="1.5841067958397974"><ele>212.5</ele><time>2026-04-10T16:49:22.999Z</time></trkpt><trkpt lat="45.18791868036838" lon="1.5842678482213053"><ele>211.25</ele><time>2026-04-10T16:49:23.999Z</time></trkpt><trkpt lat="45.18791310282403" lon="1.584454262542496"><ele>210.0</ele><time>2026-04-10T16:49:24.999Z</time></trkpt><trkpt lat="45.187903063475844" lon="1.5846590761872175"><ele>207.66666666666669</ele><time>2026-04-10T16:49:25.999Z</time></trkpt><trkpt lat="45.18787845688594" lon="1.5848785749182217"><ele>205.33333333333334</ele><time>2026-04-10T16:49:26.999Z</time></trkpt><trkpt lat="45.187847819304785" lon="1.5851235522316616"><ele>203.0</ele><time>2026-04-10T16:49:27.999Z</time></trkpt><trkpt lat="45.187809695659226" lon="1.585400502406202"><ele>201.66666666666669</ele><time>2026-04-10T16:49:28.999Z</time></trkpt><trkpt lat="45.18776412008435" lon="1.5856589034393098"><ele>200.33333333333331</ele><time>2026-04-10T16:49:29.999Z</time></trkpt><trkpt lat="45.18770924238031" lon="1.585896784050879"><ele>199.0</ele><time>2026-04-10T16:49:30.999Z</time></trkpt><trkpt lat="45.18764888325419" lon="1.5861267531450907"><ele>201.66666666666666</ele><time>2026-04-10T16:49:31.999Z</time></trkpt><trkpt lat="45.18758016972142" lon="1.5863653291426258"><ele>204.33333333333331</ele><time>2026-04-10T16:49:32.999Z</time></trkpt><trkpt lat="45.187498130000904" lon="1.586604920610172"><ele>207.0</ele><time>2026-04-10T16:49:33.999Z</time></trkpt><trkpt lat="45.18741564182937" lon="1.5868349300818374"><ele>201.0</ele><time>2026-04-10T16:49:34.999Z</time></trkpt><trkpt lat="45.18734113289006" lon="1.5870614889697015"><ele>195.0</ele><time>2026-04-10T16:49:35.999Z</time></trkpt><trkpt lat="45.18726235666506" lon="1.5872764040388663"><ele>189.0</ele><time>2026-04-10T16:49:36.999Z</time></trkpt><trkpt lat="45.187182352116565" lon="1.5874833116906082"><ele>189.0</ele><time>2026-04-10T16:49:37.999Z</time></trkpt><trkpt lat="45.187107384612936" lon="1.5876894797956158"><ele>189.0</ele><time>2026-04-10T16:49:38.999Z</time></trkpt><trkpt lat="45.187036577668735" lon="1.5878929539429476"><ele>189.0</ele><time>2026-04-10T16:49:39.999Z</time></trkpt><trkpt lat="45.1869640391029" lon="1.5880947136439192"><ele>190.0</ele><time>2026-04-10T16:49:40.999Z</time></trkpt><trkpt lat="45.186883991471966" lon="1.5883102988285434"><ele>191.0</ele><time>2026-04-10T16:49:41.999Z</time></trkpt><trkpt lat="45.18679955505746" lon="1.5885296724085607"><ele>192.0</ele><time>2026-04-10T16:49:43Z</time></trkpt><trkpt lat="45.18671969073908" lon="1.5887439407906387"><ele>195.0</ele><time>2026-04-10T16:49:44Z</time></trkpt><trkpt lat="45.18664143799483" lon="1.588951735869326"><ele>198.0</ele><time>2026-04-10T16:49:45Z</time></trkpt><trkpt lat="45.18656149962446" lon="1.5891608054378044"><ele>201.0</ele><time>2026-04-10T16:49:46Z</time></trkpt><trkpt lat="45.186476691281165" lon="1.5893846188142184"><ele>197.0</ele><time>2026-04-10T16:49:47Z</time></trkpt><trkpt lat="45.186398918615254" lon="1.5896039558660608"><ele>193.0</ele><time>2026-04-10T16:49:48Z</time></trkpt><trkpt lat="45.18632337520196" lon="1.5898089100844732"><ele>189.0</ele><time>2026-04-10T16:49:49Z</time></trkpt><trkpt lat="45.18625134597731" lon="1.5899958779376386"><ele>189.0</ele><time>2026-04-10T16:49:50Z</time></trkpt><trkpt lat="45.18617448393184" lon="1.590176546825355"><ele>189.0</ele><time>2026-04-10T16:49:51Z</time></trkpt><trkpt lat="45.18609608896296" lon="1.5903511455331882"><ele>189.0</ele><time>2026-04-10T16:49:52Z</time></trkpt><trkpt lat="45.186014938698676" lon="1.5905364904974293"><ele>189.0</ele><time>2026-04-10T16:49:53Z</time></trkpt><trkpt lat="45.185930914646974" lon="1.5907455068868"><ele>188.66666666666666</ele><time>2026-04-10T16:49:54Z</time></trkpt><trkpt lat="45.18584967068259" lon="1.5909522310237894"><ele>188.33333333333331</ele><time>2026-04-10T16:49:55Z</time></trkpt><trkpt lat="45.18576798270333" lon="1.5911853786332297"><ele>188.0</ele><time>2026-04-10T16:49:56Z</time></trkpt><trkpt lat="45.18569198429119" lon="1.5914052063433184"><ele>181.0</ele><time>2026-04-10T16:49:57Z</time></trkpt><trkpt lat="45.18560931295685" lon="1.5916145436991522"><ele>174.0</ele><time>2026-04-10T16:49:58Z</time></trkpt><trkpt lat="45.18553045538519" lon="1.5918371161882"><ele>167.0</ele><time>2026-04-10T16:49:59Z</time></trkpt><trkpt lat="45.185439124981166" lon="1.5920722717689115"><ele>162.33333333333331</ele><time>2026-04-10T16:50:00Z</time></trkpt><trkpt lat="45.18533237057159" lon="1.592275923127194"><ele>157.66666666666666</ele><time>2026-04-10T16:50:01Z</time></trkpt><trkpt lat="45.18523062892211" lon="1.5924650970758718"><ele>153.0</ele><time>2026-04-10T16:50:02Z</time></trkpt><trkpt lat="45.18513452072237" lon="1.5926609022312455"><ele>147.66666666666666</ele><time>2026-04-10T16:50:03Z</time></trkpt><trkpt lat="45.18504631048542" lon="1.5928602489427433"><ele>142.33333333333331</ele><time>2026-04-10T16:50:04Z</time></trkpt><trkpt lat="45.18498299365326" lon="1.593046144577866"><ele>137.0</ele><time>2026-04-10T16:50:05Z</time></trkpt><trkpt lat="45.184894799073575" lon="1.5932244917148204"><ele>136.33333333333331</ele><time>2026-04-10T16:50:06Z</time></trkpt><trkpt lat="45.184778153639726" lon="1.5934055233472253"><ele>135.66666666666666</ele><time>2026-04-10T16:50:07Z</time></trkpt><trkpt lat="45.18464954201455" lon="1.5935850764201476"><ele>135.0</ele><time>2026-04-10T16:50:08Z</time></trkpt><trkpt lat="45.184499295577204" lon="1.5937332495988827"><ele>137.33333333333334</ele><time>2026-04-10T16:50:09Z</time></trkpt><trkpt lat="45.18436509865493" lon="1.593874989181577"><ele>139.66666666666669</ele><time>2026-04-10T16:50:10Z</time></trkpt><trkpt lat="45.18423381485538" lon="1.5940037975857382"><ele>142.0</ele><time>2026-04-10T16:50:11Z</time></trkpt><trkpt lat="45.18409589758218" lon="1.5941262166041423"><ele>140.66666666666669</ele><time>2026-04-10T16:50:12Z</time></trkpt><trkpt lat="45.183958080745235" lon="1.5942388113837718"><ele>139.33333333333334</ele><time>2026-04-10T16:50:13Z</time></trkpt><trkpt lat="45.18382336411848" lon="1.5943388406393115"><ele>138.0</ele><time>2026-04-10T16:50:14Z</time></trkpt><trkpt lat="45.18367206973665" lon="1.594434962930891"><ele>142.66666666666666</ele><time>2026-04-10T16:50:15Z</time></trkpt><trkpt lat="45.18350715313511" lon="1.5945248084629404"><ele>147.33333333333331</ele><time>2026-04-10T16:50:16Z</time></trkpt><trkpt lat="45.18336005969705" lon="1.5945954703839191"><ele>152.0</ele><time>2026-04-10T16:50:17Z</time></trkpt><trkpt lat="45.18319634446056" lon="1.5946647390855133"><ele>146.66666666666666</ele><time>2026-04-10T16:50:18Z</time></trkpt><trkpt lat="45.183025346017935" lon="1.5947218957596772"><ele>141.33333333333334</ele><time>2026-04-10T16:50:19Z</time></trkpt><trkpt lat="45.182843475212394" lon="1.5947704506348868"><ele>136.0</ele><time>2026-04-10T16:50:20Z</time></trkpt><trkpt lat="45.18266569152836" lon="1.5948053299817102"><ele>136.0</ele><time>2026-04-10T16:50:21Z</time></trkpt><trkpt lat="45.18249099648155" lon="1.5948253690057275"><ele>136.0</ele><time>2026-04-10T16:50:22Z</time></trkpt><trkpt lat="45.182295304488555" lon="1.59485416822312"><ele>136.0</ele><time>2026-04-10T16:50:23Z</time></trkpt><trkpt lat="45.18210052960307" lon="1.5948506380110834"><ele>135.33333333333334</ele><time>2026-04-10T16:50:24Z</time></trkpt><trkpt lat="45.181909845448246" lon="1.5948269838608884"><ele>134.66666666666666</ele><time>2026-04-10T16:50:25Z</time></trkpt><trkpt lat="45.1817279746395" lon="1.594798203174105"><ele>134.0</ele><time>2026-04-10T16:50:26Z</time></trkpt><trkpt lat="45.181562829463914" lon="1.5947366570964245"><ele>133.0</ele><time>2026-04-10T16:50:27Z</time></trkpt><trkpt lat="45.18140366595654" lon="1.5946853553806017"><ele>132.0</ele><time>2026-04-10T16:50:28Z</time></trkpt><trkpt lat="45.181241541959466" lon="1.5946453398064604"><ele>131.0</ele><time>2026-04-10T16:50:29Z</time></trkpt><trkpt lat="45.181088916757666" lon="1.5945733406266052"><ele>128.66666666666666</ele><time>2026-04-10T16:50:30Z</time></trkpt><trkpt lat="45.18094407740362" lon="1.59449668546544"><ele>126.33333333333334</ele><time>2026-04-10T16:50:31Z</time></trkpt><trkpt lat="45.18080494390988" lon="1.5944214034374395"><ele>124.0</ele><time>2026-04-10T16:50:32Z</time></trkpt><trkpt lat="45.18066717157468" lon="1.5943388692512601"><ele>123.33333333333334</ele><time>2026-04-10T16:50:33Z</time></trkpt><trkpt lat="45.18051789190725" lon="1.5942582407429413"><ele>122.66666666666666</ele><time>2026-04-10T16:50:34Z</time></trkpt><trkpt lat="45.180371186642574" lon="1.5941579600830118"><ele>122.0</ele><time>2026-04-10T16:50:35Z</time></trkpt><trkpt lat="45.18022447966807" lon="1.5940744745184876"><ele>122.0</ele><time>2026-04-10T16:50:36Z</time></trkpt><trkpt lat="45.180080140929775" lon="1.594000805134511"><ele>122.0</ele><time>2026-04-10T16:50:37Z</time></trkpt><trkpt lat="45.17993408769161" lon="1.5939353556118474"><ele>122.0</ele><time>2026-04-10T16:50:38Z</time></trkpt><trkpt lat="45.17980227472105" lon="1.5938781319338857"><ele>122.0</ele><time>2026-04-10T16:50:39Z</time></trkpt><trkpt lat="45.179663041047796" lon="1.5938440964740863"><ele>121.75</ele><time>2026-04-10T16:50:40Z</time></trkpt><trkpt lat="45.17953157731744" lon="1.59382260225883"><ele>121.5</ele><time>2026-04-10T16:50:41Z</time></trkpt><trkpt lat="45.17939062554925" lon="1.5938124600541674"><ele>121.25</ele><time>2026-04-10T16:50:42Z</time></trkpt><trkpt lat="45.179249387200784" lon="1.5938144814369768"><ele>121.0</ele><time>2026-04-10T16:50:43Z</time></trkpt><trkpt lat="45.17912735556324" lon="1.5938267378862996"><ele>121.00000000000001</ele><time>2026-04-10T16:50:44Z</time></trkpt><trkpt lat="45.179013622545305" lon="1.5938510552085436"><ele>121.0</ele><time>2026-04-10T16:50:45Z</time></trkpt><trkpt lat="45.17891105123921" lon="1.5938721380857024"><ele>121.0</ele><time>2026-04-10T16:50:46Z</time></trkpt><trkpt lat="45.178825885705166" lon="1.593890256392648"><ele>121.0</ele><time>2026-04-10T16:50:47Z</time></trkpt><trkpt lat="45.178754407547856" lon="1.5939094924696136"><ele>121.00000000000001</ele><time>2026-04-10T16:50:48Z</time></trkpt><trkpt lat="45.17868383657934" lon="1.5939262158417984"><ele>121.0</ele><time>2026-04-10T16:50:49Z</time></trkpt><trkpt lat="45.17858223351611" lon="1.593930241775436"><ele>121.00000000000001</ele><time>2026-04-10T16:50:51Z</time></trkpt><trkpt lat="45.178460440434115" lon="1.593921230196929"><ele>121.0</ele><time>2026-04-10T16:50:53Z</time></trkpt><trkpt lat="45.17839900911502" lon="1.5938878417206834"><ele>121.0</ele><time>2026-04-10T16:50:54Z</time></trkpt><trkpt lat="45.178330200735914" lon="1.5938069144218387"><ele>121.0</ele><time>2026-04-10T16:50:55Z</time></trkpt><trkpt lat="45.17824751901945" lon="1.5937509085049077"><ele>121.00000000000001</ele><time>2026-04-10T16:50:56Z</time></trkpt><trkpt lat="45.17817048906162" lon="1.5937653017935305"><ele>121.0</ele><time>2026-04-10T16:50:57Z</time></trkpt><trkpt lat="45.17809225793778" lon="1.5938229207003034"><ele>120.75</ele><time>2026-04-10T16:50:58Z</time></trkpt><trkpt lat="45.1780194765666" lon="1.5939314161289344"><ele>120.5</ele><time>2026-04-10T16:50:59Z</time></trkpt><trkpt lat="45.177930971245594" lon="1.5940389196091689"><ele>120.25</ele><time>2026-04-10T16:51:00Z</time></trkpt><trkpt lat="45.177809189318644" lon="1.5940857767400531"><ele>120.0</ele><time>2026-04-10T16:51:01Z</time></trkpt><trkpt lat="45.17768203391368" lon="1.594101328642366"><ele>120.0</ele><time>2026-04-10T16:51:02Z</time></trkpt><trkpt lat="45.177559893685725" lon="1.5940984373397502"><ele>120.0</ele><time>2026-04-10T16:51:03Z</time></trkpt><trkpt lat="45.17743110034754" lon="1.594106472674862"><ele>120.0</ele><time>2026-04-10T16:51:04Z</time></trkpt><trkpt lat="45.17730613993321" lon="1.5941220437963866"><ele>120.0</ele><time>2026-04-10T16:51:05Z</time></trkpt><trkpt lat="45.17718409239547" lon="1.5941459081604996"><ele>119.8</ele><time>2026-04-10T16:51:06Z</time></trkpt><trkpt lat="45.17706914038797" lon="1.5941652927355594"><ele>119.6</ele><time>2026-04-10T16:51:07Z</time></trkpt><trkpt lat="45.17695930917621" lon="1.5941878760526151"><ele>119.4</ele><time>2026-04-10T16:51:07.999Z</time></trkpt><trkpt lat="45.17685249807551" lon="1.5942128852883355"><ele>119.2</ele><time>2026-04-10T16:51:08.999Z</time></trkpt><trkpt lat="45.17673873601387" lon="1.594230786422773"><ele>119.0</ele><time>2026-04-10T16:51:09.999Z</time></trkpt><trkpt lat="45.17662220912451" lon="1.5942524323556573"><ele>119.2</ele><time>2026-04-10T16:51:10.999Z</time></trkpt><trkpt lat="45.17650690829096" lon="1.594263523748266"><ele>119.4</ele><time>2026-04-10T16:51:11.999Z</time></trkpt><trkpt lat="45.17640531910709" lon="1.5942804012572798"><ele>119.6</ele><time>2026-04-10T16:51:12.999Z</time></trkpt><trkpt lat="45.17631990455452" lon="1.5942971692568717"><ele>119.8</ele><time>2026-04-10T16:51:13.999Z</time></trkpt><trkpt lat="45.17621797418606" lon="1.5943174731983667"><ele>120.0</ele><time>2026-04-10T16:51:14.999Z</time></trkpt><trkpt lat="45.17610517481437" lon="1.5943326109725344"><ele>120.0</ele><time>2026-04-10T16:51:15.999Z</time></trkpt><trkpt lat="45.17598672591295" lon="1.5943517051615201"><ele>120.0</ele><time>2026-04-10T16:51:16.999Z</time></trkpt><trkpt lat="45.175844325215785" lon="1.594373955075442"><ele>120.0</ele><time>2026-04-10T16:51:17.999Z</time></trkpt><trkpt lat="45.1757324860771" lon="1.5943909714237636"><ele>120.0</ele><time>2026-04-10T16:51:18.999Z</time></trkpt><trkpt lat="45.17562757427934" lon="1.5944081532481105"><ele>120.0</ele><time>2026-04-10T16:51:19.999Z</time></trkpt><trkpt lat="45.175512567452905" lon="1.594427135278231"><ele>120.0</ele><time>2026-04-10T16:51:20.999Z</time></trkpt><trkpt lat="45.17539213754676" lon="1.5944488212735495"><ele>120.0</ele><time>2026-04-10T16:51:21.999Z</time></trkpt><trkpt lat="45.1752697973671" lon="1.5944704800727505"><ele>120.0</ele><time>2026-04-10T16:51:22.999Z</time></trkpt><trkpt lat="45.1751506278473" lon="1.5944864342346778"><ele>120.0</ele><time>2026-04-10T16:51:23.999Z</time></trkpt><trkpt lat="45.17503536559027" lon="1.5945000238407487"><ele>120.0</ele><time>2026-04-10T16:51:24.999Z</time></trkpt><trkpt lat="45.17491674031705" lon="1.5945132187243656"><ele>120.0</ele><time>2026-04-10T16:51:25.999Z</time></trkpt><trkpt lat="45.17479158719444" lon="1.5945201644889595"><ele>120.0</ele><time>2026-04-10T16:51:26.999Z</time></trkpt><trkpt lat="45.17466509073347" lon="1.5945161394187088"><ele>123.0</ele><time>2026-04-10T16:51:27.999Z</time></trkpt><trkpt lat="45.17454346169048" lon="1.594487643557366"><ele>126.0</ele><time>2026-04-10T16:51:28.999Z</time></trkpt><trkpt lat="45.17442994229638" lon="1.5944306009615765"><ele>129.0</ele><time>2026-04-10T16:51:29.999Z</time></trkpt><trkpt lat="45.17432022375223" lon="1.5943621623226152"><ele>132.0</ele><time>2026-04-10T16:51:30.999Z</time></trkpt><trkpt lat="45.174208141313066" lon="1.5942759367742685"><ele>132.0</ele><time>2026-04-10T16:51:31.999Z</time></trkpt><trkpt lat="45.17410075222819" lon="1.594156954317289"><ele>132.0</ele><time>2026-04-10T16:51:32.999Z</time></trkpt><trkpt lat="45.17399993521594" lon="1.5940147633919275"><ele>132.0</ele><time>2026-04-10T16:51:33.999Z</time></trkpt><trkpt lat="45.17392282660568" lon="1.5938355289722481"><ele>132.0</ele><time>2026-04-10T16:51:34.999Z</time></trkpt><trkpt lat="45.17385627243311" lon="1.5936747725329348"><ele>135.0</ele><time>2026-04-10T16:51:35.999Z</time></trkpt><trkpt lat="45.17379991400704" lon="1.593476377239207"><ele>138.0</ele><time>2026-04-10T16:51:36.999Z</time></trkpt><trkpt lat="45.17375662516756" lon="1.5931992497174634"><ele>141.0</ele><time>2026-04-10T16:51:37.999Z</time></trkpt><trkpt lat="45.17372962333537" lon="1.592882842051376"><ele>142.5</ele><time>2026-04-10T16:51:38.999Z</time></trkpt><trkpt lat="45.17371041548555" lon="1.5925283676131958"><ele>144.0</ele><time>2026-04-10T16:51:39.999Z</time></trkpt><trkpt lat="45.17369142800337" lon="1.5921418006609616"><ele>145.0</ele><time>2026-04-10T16:51:40.999Z</time></trkpt><trkpt lat="45.1736571859954" lon="1.5917669574516102"><ele>146.0</ele><time>2026-04-10T16:51:41.999Z</time></trkpt><trkpt lat="45.173645796778025" lon="1.5913938437841204"><ele>148.5</ele><time>2026-04-10T16:51:42.999Z</time></trkpt><trkpt lat="45.17360029411935" lon="1.5910115967140066"><ele>151.0</ele><time>2026-04-10T16:51:43.999Z</time></trkpt><trkpt lat="45.17355855794679" lon="1.5906277192321985"><ele>152.0</ele><time>2026-04-10T16:51:44.999Z</time></trkpt><trkpt lat="45.17348035992723" lon="1.5902466821685808"><ele>153.0</ele><time>2026-04-10T16:51:45.999Z</time></trkpt><trkpt lat="45.17338505621745" lon="1.5899194990306678"><ele>153.0</ele><time>2026-04-10T16:51:46.999Z</time></trkpt><trkpt lat="45.17328335540689" lon="1.5896386125934345"><ele>153.0</ele><time>2026-04-10T16:51:47.999Z</time></trkpt><trkpt lat="45.17317478354827" lon="1.5893772387322387"><ele>153.0</ele><time>2026-04-10T16:51:49Z</time></trkpt><trkpt lat="45.17305563781084" lon="1.5891215261604412"><ele>149.66666666666666</ele><time>2026-04-10T16:51:50Z</time></trkpt><trkpt lat="45.17292589449753" lon="1.588871624154101"><ele>146.33333333333331</ele><time>2026-04-10T16:51:51Z</time></trkpt><trkpt lat="45.17278827928076" lon="1.5886278182512934"><ele>143.0</ele><time>2026-04-10T16:51:52Z</time></trkpt><trkpt lat="45.172622281161885" lon="1.5884048476042034"><ele>145.5</ele><time>2026-04-10T16:51:53Z</time></trkpt><trkpt lat="45.172451578948085" lon="1.5881840226926345"><ele>148.0</ele><time>2026-04-10T16:51:54Z</time></trkpt><trkpt lat="45.17227194145505" lon="1.5879742336233935"><ele>147.5</ele><time>2026-04-10T16:51:55Z</time></trkpt><trkpt lat="45.17207960310592" lon="1.587792963101558"><ele>147.0</ele><time>2026-04-10T16:51:56Z</time></trkpt><trkpt lat="45.17187730824574" lon="1.5876410183308312"><ele>147.0</ele><time>2026-04-10T16:51:57Z</time></trkpt><trkpt lat="45.17166778091791" lon="1.5874996136981758"><ele>147.0</ele><time>2026-04-10T16:51:58Z</time></trkpt><trkpt lat="45.171455797476696" lon="1.5873707694377261"><ele>148.5</ele><time>2026-04-10T16:51:59Z</time></trkpt><trkpt lat="45.171241219949316" lon="1.5872629306649846"><ele>150.0</ele><time>2026-04-10T16:52:00Z</time></trkpt><trkpt lat="45.17101681090823" lon="1.587182571640957"><ele>150.0</ele><time>2026-04-10T16:52:01Z</time></trkpt><trkpt lat="45.17079169339239" lon="1.587127961859753"><ele>150.0</ele><time>2026-04-10T16:52:02Z</time></trkpt><trkpt lat="45.170567556786914" lon="1.5870939538195665"><ele>150.33333333333334</ele><time>2026-04-10T16:52:03Z</time></trkpt><trkpt lat="45.17035109663942" lon="1.5870760165354718"><ele>150.66666666666669</ele><time>2026-04-10T16:52:04Z</time></trkpt><trkpt lat="45.17013401061183" lon="1.5870873564977923"><ele>151.0</ele><time>2026-04-10T16:52:05Z</time></trkpt><trkpt lat="45.16991136943172" lon="1.5871181612078478"><ele>147.0</ele><time>2026-04-10T16:52:06Z</time></trkpt><trkpt lat="45.16968625676232" lon="1.5871627835742779"><ele>143.0</ele><time>2026-04-10T16:52:07Z</time></trkpt><trkpt lat="45.169463412920216" lon="1.5872229854226991"><ele>143.0</ele><time>2026-04-10T16:52:08Z</time></trkpt><trkpt lat="45.16924101095398" lon="1.5873164317639847"><ele>143.0</ele><time>2026-04-10T16:52:09Z</time></trkpt><trkpt lat="45.169027927779524" lon="1.587434583051038"><ele>142.0</ele><time>2026-04-10T16:52:10Z</time></trkpt><trkpt lat="45.168830870240186" lon="1.587559190459532"><ele>141.0</ele><time>2026-04-10T16:52:11Z</time></trkpt><trkpt lat="45.168632955220524" lon="1.587689476980947"><ele>140.0</ele><time>2026-04-10T16:52:12Z</time></trkpt><trkpt lat="45.16842763363522" lon="1.587799784568823"><ele>141.5</ele><time>2026-04-10T16:52:13Z</time></trkpt><trkpt lat="45.16822243965007" lon="1.5879568256206946"><ele>143.0</ele><time>2026-04-10T16:52:14Z</time></trkpt><trkpt lat="45.16800702659548" lon="1.588090217967417"><ele>137.0</ele><time>2026-04-10T16:52:15Z</time></trkpt><trkpt lat="45.16779418376246" lon="1.5882201898045842"><ele>131.0</ele><time>2026-04-10T16:52:16Z</time></trkpt><trkpt lat="45.16759250468207" lon="1.588343808302927"><ele>131.0</ele><time>2026-04-10T16:52:17Z</time></trkpt><trkpt lat="45.167391163268654" lon="1.5884832260010917"><ele>131.0</ele><time>2026-04-10T16:52:18Z</time></trkpt><trkpt lat="45.167192737963425" lon="1.5886150793088942"><ele>131.0</ele><time>2026-04-10T16:52:19Z</time></trkpt><trkpt lat="45.16699358436812" lon="1.5887386821956324"><ele>130.33333333333331</ele><time>2026-04-10T16:52:20Z</time></trkpt><trkpt lat="45.16681046227143" lon="1.5888386234100835"><ele>129.66666666666666</ele><time>2026-04-10T16:52:21Z</time></trkpt><trkpt lat="45.16661437920144" lon="1.5888945981415203"><ele>129.0</ele><time>2026-04-10T16:52:22Z</time></trkpt><trkpt lat="45.16639441097078" lon="1.588980069903516"><ele>129.0</ele><time>2026-04-10T16:52:23Z</time></trkpt><trkpt lat="45.16614810405703" lon="1.5890049389635414"><ele>129.0</ele><time>2026-04-10T16:52:24Z</time></trkpt><trkpt lat="45.16592898119892" lon="1.5890594976354075"><ele>129.0</ele><time>2026-04-10T16:52:25Z</time></trkpt><trkpt lat="45.165734723328725" lon="1.5891023120887668"><ele>129.0</ele><time>2026-04-10T16:52:26Z</time></trkpt><trkpt lat="45.165540291545426" lon="1.588901403884375"><ele>129.0</ele><time>2026-04-10T16:52:27Z</time></trkpt><trkpt lat="45.165383558187536" lon="1.5888304299819673"><ele>128.25</ele><time>2026-04-10T16:52:28Z</time></trkpt><trkpt lat="45.16524699789453" lon="1.5887652302471933"><ele>127.5</ele><time>2026-04-10T16:52:29Z</time></trkpt><trkpt lat="45.16512961158929" lon="1.5886887173933948"><ele>126.75</ele><time>2026-04-10T16:52:30Z</time></trkpt><trkpt lat="45.16501847945479" lon="1.588618006030481"><ele>126.0</ele><time>2026-04-10T16:52:31Z</time></trkpt><trkpt lat="45.164919669939195" lon="1.5885571259284446"><ele>128.16666666666666</ele><time>2026-04-10T16:52:32Z</time></trkpt><trkpt lat="45.16483003482415" lon="1.588511336743716"><ele>130.33333333333334</ele><time>2026-04-10T16:52:33Z</time></trkpt><trkpt lat="45.16475667846438" lon="1.5884676678315466"><ele>132.5</ele><time>2026-04-10T16:52:34Z</time></trkpt><trkpt lat="45.164700254550795" lon="1.5884167831147413"><ele>134.66666666666669</ele><time>2026-04-10T16:52:35Z</time></trkpt><trkpt lat="45.16465766402628" lon="1.5883496250218492"><ele>136.83333333333334</ele><time>2026-04-10T16:52:36Z</time></trkpt><trkpt lat="45.164618385784415" lon="1.5882554372312268"><ele>139.0</ele><time>2026-04-10T16:52:37Z</time></trkpt><trkpt lat="45.16456771218014" lon="1.5881627844679236"><ele>139.0</ele><time>2026-04-10T16:52:38Z</time></trkpt><trkpt lat="45.16449161121332" lon="1.5881394952996435"><ele>139.0</ele><time>2026-04-10T16:52:39Z</time></trkpt><trkpt lat="45.16441617952802" lon="1.5881961273144296"><ele>139.0</ele><time>2026-04-10T16:52:40Z</time></trkpt><trkpt lat="45.16435231877671" lon="1.5883053832652447"><ele>139.0</ele><time>2026-04-10T16:52:41Z</time></trkpt><trkpt lat="45.164327631969805" lon="1.588437122644768"><ele>139.0</ele><time>2026-04-10T16:52:42Z</time></trkpt><trkpt lat="45.164315568803154" lon="1.5885704891541936"><ele>139.0</ele><time>2026-04-10T16:52:43Z</time></trkpt><trkpt lat="45.164279495748644" lon="1.5886760397631687"><ele>139.0</ele><time>2026-04-10T16:52:44Z</time></trkpt><trkpt lat="45.164232135443086" lon="1.5887682417191245"><ele>139.0</ele><time>2026-04-10T16:52:45Z</time></trkpt><trkpt lat="45.16419253756113" lon="1.5888781449190208"><ele>139.0</ele><time>2026-04-10T16:52:46Z</time></trkpt><trkpt lat="45.16414123174574" lon="1.5890107807847498"><ele>139.0</ele><time>2026-04-10T16:52:47Z</time></trkpt><trkpt lat="45.16407683022056" lon="1.5891658295480238"><ele>141.5</ele><time>2026-04-10T16:52:48Z</time></trkpt><trkpt lat="45.16401949185924" lon="1.5893496821093462"><ele>144.0</ele><time>2026-04-10T16:52:49Z</time></trkpt><trkpt lat="45.16397020016124" lon="1.5895240985067347"><ele>146.5</ele><time>2026-04-10T16:52:50Z</time></trkpt><trkpt lat="45.16392189154856" lon="1.5896889899675144"><ele>149.0</ele><time>2026-04-10T16:52:51Z</time></trkpt><trkpt lat="45.16386001307633" lon="1.5898926311522446"><ele>149.0</ele><time>2026-04-10T16:52:52Z</time></trkpt><trkpt lat="45.163809494189046" lon="1.5900609529244534"><ele>149.0</ele><time>2026-04-10T16:52:53Z</time></trkpt><trkpt lat="45.163763475284746" lon="1.5902091530183347"><ele>149.0</ele><time>2026-04-10T16:52:54Z</time></trkpt><trkpt lat="45.16371413368276" lon="1.590360281014628"><ele>149.0</ele><time>2026-04-10T16:52:55Z</time></trkpt><trkpt lat="45.16366031132012" lon="1.590510747959962"><ele>148.2</ele><time>2026-04-10T16:52:56Z</time></trkpt><trkpt lat="45.16361346689102" lon="1.5906505632552475"><ele>147.4</ele><time>2026-04-10T16:52:57Z</time></trkpt><trkpt lat="45.16356444303222" lon="1.5907973336874066"><ele>146.6</ele><time>2026-04-10T16:52:58Z</time></trkpt><trkpt lat="45.163508639187114" lon="1.5909342609960775"><ele>145.8</ele><time>2026-04-10T16:52:59Z</time></trkpt><trkpt lat="45.16346827059021" lon="1.5910654498911907"><ele>145.0</ele><time>2026-04-10T16:53:00Z</time></trkpt><trkpt lat="45.16342922580328" lon="1.5911836815221816"><ele>143.33333333333334</ele><time>2026-04-10T16:53:01Z</time></trkpt><trkpt lat="45.16339170323243" lon="1.5912926889773358"><ele>141.66666666666669</ele><time>2026-04-10T16:53:02Z</time></trkpt><trkpt lat="45.16335894408533" lon="1.5913872341968274"><ele>140.0</ele><time>2026-04-10T16:53:03Z</time></trkpt><trkpt lat="45.16332956404644" lon="1.5914744676468895"><ele>138.33333333333334</ele><time>2026-04-10T16:53:04Z</time></trkpt><trkpt lat="45.16329550505423" lon="1.5915734503140284"><ele>136.66666666666666</ele><time>2026-04-10T16:53:05Z</time></trkpt><trkpt lat="45.16325865258251" lon="1.5916859658318865"><ele>135.0</ele><time>2026-04-10T16:53:06Z</time></trkpt><trkpt lat="45.1632105349413" lon="1.5918188492732648"><ele>137.4</ele><time>2026-04-10T16:53:07Z</time></trkpt><trkpt lat="45.163153431376365" lon="1.5919797523019747"><ele>139.8</ele><time>2026-04-10T16:53:08Z</time></trkpt><trkpt lat="45.1630839126316" lon="1.5921309139816142"><ele>142.2</ele><time>2026-04-10T16:53:09Z</time></trkpt><trkpt lat="45.16302375518242" lon="1.5922418249980574"><ele>144.6</ele><time>2026-04-10T16:53:10Z</time></trkpt><trkpt lat="45.16296225901903" lon="1.5923471974289318"><ele>147.0</ele><time>2026-04-10T16:53:11Z</time></trkpt><trkpt lat="45.16288642194008" lon="1.5924697504083982"><ele>147.0</ele><time>2026-04-10T16:53:12Z</time></trkpt><trkpt lat="45.16278722497244" lon="1.5925863476380409"><ele>147.0</ele><time>2026-04-10T16:53:13Z</time></trkpt><trkpt lat="45.16270303266593" lon="1.5926738807824807"><ele>147.0</ele><time>2026-04-10T16:53:13.999Z</time></trkpt><trkpt lat="45.16261998478733" lon="1.5927525698734557"><ele>147.0</ele><time>2026-04-10T16:53:14.999Z</time></trkpt><trkpt lat="45.162528662255546" lon="1.592834956412301"><ele>147.0</ele><time>2026-04-10T16:53:15.999Z</time></trkpt><trkpt lat="45.16243188297146" lon="1.5929218307436555"><ele>147.75</ele><time>2026-04-10T16:53:16.999Z</time></trkpt><trkpt lat="45.162334049055545" lon="1.5930157255144435"><ele>148.5</ele><time>2026-04-10T16:53:17.999Z</time></trkpt><trkpt lat="45.16224298812228" lon="1.5931103213126387"><ele>149.25</ele><time>2026-04-10T16:53:18.999Z</time></trkpt><trkpt lat="45.162150346850304" lon="1.593188038917728"><ele>150.0</ele><time>2026-04-10T16:53:19.999Z</time></trkpt><trkpt lat="45.16205297051316" lon="1.593276296723006"><ele>150.0</ele><time>2026-04-10T16:53:20.999Z</time></trkpt><trkpt lat="45.161918913769874" lon="1.593396313833794"><ele>150.0</ele><time>2026-04-10T16:53:21.999Z</time></trkpt><trkpt lat="45.16179761425436" lon="1.5935117279781295"><ele>150.0</ele><time>2026-04-10T16:53:22.999Z</time></trkpt><trkpt lat="45.161652334579" lon="1.5936455331604191"><ele>151.25</ele><time>2026-04-10T16:53:23.999Z</time></trkpt><trkpt lat="45.16150416789758" lon="1.5937873927646669"><ele>152.5</ele><time>2026-04-10T16:53:24.999Z</time></trkpt><trkpt lat="45.16139613216368" lon="1.5939154479553739"><ele>153.75</ele><time>2026-04-10T16:53:25.999Z</time></trkpt><trkpt lat="45.16131138326741" lon="1.5940173774445399"><ele>155.0</ele><time>2026-04-10T16:53:26.999Z</time></trkpt><trkpt lat="45.161230378655645" lon="1.594123048789395"><ele>155.0</ele><time>2026-04-10T16:53:27.999Z</time></trkpt><trkpt lat="45.161161016987656" lon="1.594233038506014"><ele>155.0</ele><time>2026-04-10T16:53:28.999Z</time></trkpt><trkpt lat="45.16108685372214" lon="1.5943687002337346"><ele>155.0</ele><time>2026-04-10T16:53:29.999Z</time></trkpt><trkpt lat="45.160998211680614" lon="1.5945058960436123"><ele>155.0</ele><time>2026-04-10T16:53:30.999Z</time></trkpt><trkpt lat="45.16090341509612" lon="1.5946629025616503"><ele>155.33333333333331</ele><time>2026-04-10T16:53:31.999Z</time></trkpt><trkpt lat="45.16080072789585" lon="1.5948223302465327"><ele>155.66666666666666</ele><time>2026-04-10T16:53:32.999Z</time></trkpt><trkpt lat="45.160695583744875" lon="1.5949828583185388"><ele>156.0</ele><time>2026-04-10T16:53:33.999Z</time></trkpt><trkpt lat="45.16059643783247" lon="1.5951519393610958"><ele>152.66666666666666</ele><time>2026-04-10T16:53:34.999Z</time></trkpt><trkpt lat="45.16048889506277" lon="1.5953557367549527"><ele>149.33333333333331</ele><time>2026-04-10T16:53:35.999Z</time></trkpt><trkpt lat="45.16036757337773" lon="1.5955829230234662"><ele>146.0</ele><time>2026-04-10T16:53:36.999Z</time></trkpt><trkpt lat="45.160277408329286" lon="1.5958164115242006"><ele>146.0</ele><time>2026-04-10T16:53:37.999Z</time></trkpt><trkpt lat="45.16021798242422" lon="1.5960399709067723"><ele>146.0</ele><time>2026-04-10T16:53:38.999Z</time></trkpt><trkpt lat="45.16017846759041" lon="1.5962552967301435"><ele>146.0</ele><time>2026-04-10T16:53:39.999Z</time></trkpt><trkpt lat="45.16015824185985" lon="1.5964642323199898"><ele>143.33333333333331</ele><time>2026-04-10T16:53:40.999Z</time></trkpt><trkpt lat="45.160139156336875" lon="1.5966852848573763"><ele>140.66666666666666</ele><time>2026-04-10T16:53:41.999Z</time></trkpt><trkpt lat="45.160116907531986" lon="1.596913167486282"><ele>138.0</ele><time>2026-04-10T16:53:42.999Z</time></trkpt><trkpt lat="45.16007906940739" lon="1.5971351988739804"><ele>137.33333333333334</ele><time>2026-04-10T16:53:43.999Z</time></trkpt><trkpt lat="45.16003837574344" lon="1.5973552978532113"><ele>136.66666666666669</ele><time>2026-04-10T16:53:44.999Z</time></trkpt><trkpt lat="45.1599926231913" lon="1.597607989621591"><ele>136.0</ele><time>2026-04-10T16:53:45.999Z</time></trkpt><trkpt lat="45.1599261528306" lon="1.5978522583538124"><ele>136.33333333333334</ele><time>2026-04-10T16:53:46.999Z</time></trkpt><trkpt lat="45.159815693136544" lon="1.5980870371277045"><ele>136.66666666666666</ele><time>2026-04-10T16:53:47.999Z</time></trkpt><trkpt lat="45.15964829656482" lon="1.5983204175538794"><ele>137.0</ele><time>2026-04-10T16:53:48.999Z</time></trkpt><trkpt lat="45.15944656446941" lon="1.5985276048632364"><ele>137.5</ele><time>2026-04-10T16:53:49.999Z</time></trkpt><trkpt lat="45.15921826120568" lon="1.5987248808060366"><ele>138.0</ele><time>2026-04-10T16:53:50.999Z</time></trkpt><trkpt lat="45.15897608955687" lon="1.5989209957587918"><ele>138.0</ele><time>2026-04-10T16:53:51.999Z</time></trkpt><trkpt lat="45.15877638932472" lon="1.599092446954534"><ele>138.0</ele><time>2026-04-10T16:53:52.999Z</time></trkpt><trkpt lat="45.15862937900196" lon="1.5992564816723795"><ele>138.0</ele><time>2026-04-10T16:53:53.999Z</time></trkpt><trkpt lat="45.15850553928738" lon="1.599447751710281"><ele>137.66666666666666</ele><time>2026-04-10T16:53:55Z</time></trkpt><trkpt lat="45.1583866135839" lon="1.5996982505829738"><ele>137.33333333333331</ele><time>2026-04-10T16:53:56Z</time></trkpt><trkpt lat="45.1582850270988" lon="1.5999407392030893"><ele>137.0</ele><time>2026-04-10T16:53:57Z</time></trkpt><trkpt lat="45.15818531948454" lon="1.6001648102196815"><ele>136.66666666666666</ele><time>2026-04-10T16:53:58Z</time></trkpt><trkpt lat="45.158082679137166" lon="1.6004015046619988"><ele>136.33333333333334</ele><time>2026-04-10T16:53:59Z</time></trkpt><trkpt lat="45.15798137439524" lon="1.6006537607120457"><ele>136.0</ele><time>2026-04-10T16:54:00Z</time></trkpt><trkpt lat="45.15787839324266" lon="1.6009124238304062"><ele>136.66666666666669</ele><time>2026-04-10T16:54:01Z</time></trkpt><trkpt lat="45.15777336913508" lon="1.6011720866531787"><ele>137.33333333333334</ele><time>2026-04-10T16:54:02Z</time></trkpt><trkpt lat="45.157663670790946" lon="1.6014228755981232"><ele>138.0</ele><time>2026-04-10T16:54:03Z</time></trkpt><trkpt lat="45.15755670357373" lon="1.6016599916856455"><ele>138.0</ele><time>2026-04-10T16:54:04Z</time></trkpt><trkpt lat="45.15745911483306" lon="1.601898134920558"><ele>138.0</ele><time>2026-04-10T16:54:05Z</time></trkpt><trkpt lat="45.157363095561585" lon="1.6021455595288667"><ele>138.0</ele><time>2026-04-10T16:54:06Z</time></trkpt><trkpt lat="45.15727401196316" lon="1.602388905472369"><ele>142.0</ele><time>2026-04-10T16:54:07Z</time></trkpt><trkpt lat="45.15720688056271" lon="1.6026282056216608"><ele>146.0</ele><time>2026-04-10T16:54:08Z</time></trkpt><trkpt lat="45.157151857141436" lon="1.6028765692968399"><ele>150.0</ele><time>2026-04-10T16:54:09Z</time></trkpt><trkpt lat="45.15710326911122" lon="1.6031295819513265"><ele>150.66666666666666</ele><time>2026-04-10T16:54:10Z</time></trkpt><trkpt lat="45.15706243634512" lon="1.6034107560838704"><ele>151.33333333333331</ele><time>2026-04-10T16:54:11Z</time></trkpt><trkpt lat="45.15704199611106" lon="1.6037008505354609"><ele>152.0</ele><time>2026-04-10T16:54:12Z</time></trkpt><trkpt lat="45.15703387057052" lon="1.6039898046288799"><ele>152.0</ele><time>2026-04-10T16:54:13Z</time></trkpt><trkpt lat="45.157051973791404" lon="1.604267616378274"><ele>152.0</ele><time>2026-04-10T16:54:14Z</time></trkpt><trkpt lat="45.15708519635626" lon="1.604556185121349"><ele>152.0</ele><time>2026-04-10T16:54:15Z</time></trkpt><trkpt lat="45.157109370079276" lon="1.6048252229520452"><ele>153.33333333333331</ele><time>2026-04-10T16:54:16Z</time></trkpt><trkpt lat="45.157127877520246" lon="1.6050771770670085"><ele>154.66666666666666</ele><time>2026-04-10T16:54:17Z</time></trkpt><trkpt lat="45.1571373041665" lon="1.60534088343045"><ele>156.0</ele><time>2026-04-10T16:54:18Z</time></trkpt><trkpt lat="45.157130291942714" lon="1.6056115157106932"><ele>156.33333333333334</ele><time>2026-04-10T16:54:19Z</time></trkpt><trkpt lat="45.15709851951297" lon="1.6058913470792955"><ele>156.66666666666669</ele><time>2026-04-10T16:54:20Z</time></trkpt><trkpt lat="45.15704226823597" lon="1.6061668276550607"><ele>157.0</ele><time>2026-04-10T16:54:21Z</time></trkpt><trkpt lat="45.15697479179752" lon="1.6064273443324801"><ele>155.66666666666669</ele><time>2026-04-10T16:54:22Z</time></trkpt><trkpt lat="45.15689054089489" lon="1.6066784000536272"><ele>154.33333333333334</ele><time>2026-04-10T16:54:23Z</time></trkpt><trkpt lat="45.15680259878715" lon="1.6069249035583406"><ele>153.0</ele><time>2026-04-10T16:54:24Z</time></trkpt><trkpt lat="45.15671304380321" lon="1.6071789273590331"><ele>151.0</ele><time>2026-04-10T16:54:25Z</time></trkpt><trkpt lat="45.15662598647383" lon="1.6074391104842105"><ele>149.0</ele><time>2026-04-10T16:54:26Z</time></trkpt><trkpt lat="45.1565365779221" lon="1.6076826293211612"><ele>147.0</ele><time>2026-04-10T16:54:27Z</time></trkpt><trkpt lat="45.1564479179188" lon="1.6079322333410848"><ele>147.0</ele><time>2026-04-10T16:54:28Z</time></trkpt><trkpt lat="45.15635867469967" lon="1.6081883370245607"><ele>147.0</ele><time>2026-04-10T16:54:29Z</time></trkpt><trkpt lat="45.15626311608982" lon="1.60844553185583"><ele>147.0</ele><time>2026-04-10T16:54:30Z</time></trkpt><trkpt lat="45.15617466026359" lon="1.6086935448985102"><ele>145.33333333333334</ele><time>2026-04-10T16:54:31Z</time></trkpt><trkpt lat="45.15609695209313" lon="1.6089439793528966"><ele>143.66666666666669</ele><time>2026-04-10T16:54:32Z</time></trkpt><trkpt lat="45.156008615362815" lon="1.6091878378785212"><ele>142.0</ele><time>2026-04-10T16:54:33Z</time></trkpt><trkpt lat="45.15591978239484" lon="1.6094354457218893"><ele>141.33333333333334</ele><time>2026-04-10T16:54:34Z</time></trkpt><trkpt lat="45.155833162387154" lon="1.6096907095635793"><ele>140.66666666666666</ele><time>2026-04-10T16:54:35Z</time></trkpt><trkpt lat="45.15574789891722" lon="1.6099531297611693"><ele>140.0</ele><time>2026-04-10T16:54:36Z</time></trkpt><trkpt lat="45.1556621309986" lon="1.6102129638379292"><ele>143.0</ele><time>2026-04-10T16:54:37Z</time></trkpt><trkpt lat="45.155585870208874" lon="1.6104740970526443"><ele>146.0</ele><time>2026-04-10T16:54:38Z</time></trkpt><trkpt lat="45.155516776497194" lon="1.6107468070713244"><ele>149.0</ele><time>2026-04-10T16:54:39Z</time></trkpt><trkpt lat="45.155444498684325" lon="1.611026277419961"><ele>147.0</ele><time>2026-04-10T16:54:40Z</time></trkpt><trkpt lat="45.15536906060182" lon="1.6112945786537811"><ele>145.0</ele><time>2026-04-10T16:54:41Z</time></trkpt><trkpt lat="45.1552969472327" lon="1.6115459161734695"><ele>143.0</ele><time>2026-04-10T16:54:42Z</time></trkpt><trkpt lat="45.155220048858496" lon="1.6117971684636665"><ele>142.0</ele><time>2026-04-10T16:54:43Z</time></trkpt><trkpt lat="45.155122980910804" lon="1.6120413953433368"><ele>141.0</ele><time>2026-04-10T16:54:44Z</time></trkpt><trkpt lat="45.15499764862364" lon="1.6122570318326854"><ele>140.0</ele><time>2026-04-10T16:54:45Z</time></trkpt><trkpt lat="45.15485910832671" lon="1.6124580961703447"><ele>140.0</ele><time>2026-04-10T16:54:46Z</time></trkpt><trkpt lat="45.15471401880614" lon="1.6126466161809505"><ele>140.0</ele><time>2026-04-10T16:54:47Z</time></trkpt><trkpt lat="45.15457348891047" lon="1.612835656357879"><ele>140.0</ele><time>2026-04-10T16:54:48Z</time></trkpt><trkpt lat="45.1544417940006" lon="1.6130247570464538"><ele>140.0</ele><time>2026-04-10T16:54:49Z</time></trkpt><trkpt lat="45.154318216868745" lon="1.613220715863188"><ele>140.0</ele><time>2026-04-10T16:54:50Z</time></trkpt><trkpt lat="45.15421077664909" lon="1.6134370068642148"><ele>140.0</ele><time>2026-04-10T16:54:51Z</time></trkpt><trkpt lat="45.154120531127084" lon="1.6136771008358535"><ele>140.0</ele><time>2026-04-10T16:54:52Z</time></trkpt><trkpt lat="45.154052483566765" lon="1.6139333869373282"><ele>140.0</ele><time>2026-04-10T16:54:53Z</time></trkpt><trkpt lat="45.15401369902513" lon="1.6142090750334257"><ele>140.0</ele><time>2026-04-10T16:54:54Z</time></trkpt><trkpt lat="45.153993330052316" lon="1.614502366829765"><ele>143.0</ele><time>2026-04-10T16:54:55Z</time></trkpt><trkpt lat="45.153974909037764" lon="1.6148195792887863"><ele>146.0</ele><time>2026-04-10T16:54:56Z</time></trkpt><trkpt lat="45.153944519417294" lon="1.615142939198086"><ele>147.5</ele><time>2026-04-10T16:54:57Z</time></trkpt><trkpt lat="45.153913547847196" lon="1.6154741065856706"><ele>149.0</ele><time>2026-04-10T16:54:58Z</time></trkpt><trkpt lat="45.153884588904674" lon="1.6158386966123461"><ele>150.0</ele><time>2026-04-10T16:54:59Z</time></trkpt><trkpt lat="45.1538560244079" lon="1.6162331457054833"><ele>151.0</ele><time>2026-04-10T16:55:00Z</time></trkpt><trkpt lat="45.15381694837968" lon="1.6166406705040146"><ele>151.5</ele><time>2026-04-10T16:55:01Z</time></trkpt><trkpt lat="45.15378879356245" lon="1.6170602022933298"><ele>152.0</ele><time>2026-04-10T16:55:02Z</time></trkpt><trkpt lat="45.153774910190585" lon="1.6174953271414154"><ele>153.5</ele><time>2026-04-10T16:55:03Z</time></trkpt><trkpt lat="45.153765368895726" lon="1.6179426479375738"><ele>155.0</ele><time>2026-04-10T16:55:04Z</time></trkpt><trkpt lat="45.153748731788106" lon="1.618380930200304"><ele>157.5</ele><time>2026-04-10T16:55:05Z</time></trkpt><trkpt lat="45.15372721608106" lon="1.6187785255727556"><ele>160.0</ele><time>2026-04-10T16:55:06Z</time></trkpt><trkpt lat="45.15370887616708" lon="1.6191425929588068"><ele>163.5</ele><time>2026-04-10T16:55:07Z</time></trkpt><trkpt lat="45.15368004072338" lon="1.6195037900620548"><ele>167.0</ele><time>2026-04-10T16:55:08Z</time></trkpt><trkpt lat="45.153628016927755" lon="1.6198601112688078"><ele>167.0</ele><time>2026-04-10T16:55:09Z</time></trkpt><trkpt lat="45.15355040692377" lon="1.620221002840868"><ele>167.0</ele><time>2026-04-10T16:55:10Z</time></trkpt><trkpt lat="45.15345680971856" lon="1.6205803144889042"><ele>167.5</ele><time>2026-04-10T16:55:10.999Z</time></trkpt><trkpt lat="45.15334633011785" lon="1.6209337101849315"><ele>168.0</ele><time>2026-04-10T16:55:11.999Z</time></trkpt><trkpt lat="45.153240677913494" lon="1.6212725639136942"><ele>176.0</ele><time>2026-04-10T16:55:12.999Z</time></trkpt><trkpt lat="45.15313680547555" lon="1.6216039985001085"><ele>184.0</ele><time>2026-04-10T16:55:13.999Z</time></trkpt><trkpt lat="45.15304830891149" lon="1.621952027001767"><ele>184.5</ele><time>2026-04-10T16:55:14.999Z</time></trkpt><trkpt lat="45.15299664785847" lon="1.6223252779698694"><ele>185.0</ele><time>2026-04-10T16:55:15.999Z</time></trkpt><trkpt lat="45.15297424136118" lon="1.6226900614133999"><ele>187.0</ele><time>2026-04-10T16:55:16.999Z</time></trkpt><trkpt lat="45.15297754591297" lon="1.6230306022454237"><ele>189.0</ele><time>2026-04-10T16:55:17.999Z</time></trkpt><trkpt lat="45.153006741096135" lon="1.6233744238644863"><ele>191.5</ele><time>2026-04-10T16:55:18.999Z</time></trkpt><trkpt lat="45.15305766024044" lon="1.6237310131171077"><ele>194.0</ele><time>2026-04-10T16:55:19.999Z</time></trkpt><trkpt lat="45.15313310773015" lon="1.6240956382201823"><ele>184.5</ele><time>2026-04-10T16:55:20.999Z</time></trkpt><trkpt lat="45.15320949665211" lon="1.6244579613326884"><ele>175.0</ele><time>2026-04-10T16:55:21.999Z</time></trkpt><trkpt lat="45.153288364511724" lon="1.6248151961042008"><ele>175.0</ele><time>2026-04-10T16:55:22.999Z</time></trkpt><trkpt lat="45.153357486649426" lon="1.6251685830252105"><ele>175.0</ele><time>2026-04-10T16:55:23.999Z</time></trkpt><trkpt lat="45.153424032714526" lon="1.6255133690697894"><ele>174.5</ele><time>2026-04-10T16:55:24.999Z</time></trkpt><trkpt lat="45.15349109691853" lon="1.6258519705627934"><ele>174.0</ele><time>2026-04-10T16:55:25.999Z</time></trkpt><trkpt lat="45.15355944311953" lon="1.6261772111444217"><ele>174.0</ele><time>2026-04-10T16:55:26.999Z</time></trkpt><trkpt lat="45.15362695918702" lon="1.6265076605385576"><ele>174.0</ele><time>2026-04-10T16:55:27.999Z</time></trkpt><trkpt lat="45.15367843899681" lon="1.6268425428401987"><ele>176.0</ele><time>2026-04-10T16:55:28.999Z</time></trkpt><trkpt lat="45.153711433941126" lon="1.6271859838837732"><ele>178.0</ele><time>2026-04-10T16:55:29.999Z</time></trkpt><trkpt lat="45.15373463490903" lon="1.6275306995938912"><ele>181.0</ele><time>2026-04-10T16:55:30.999Z</time></trkpt><trkpt lat="45.153741854028766" lon="1.6278769945375469"><ele>184.0</ele><time>2026-04-10T16:55:31.999Z</time></trkpt><trkpt lat="45.15373343542264" lon="1.6282353799336626"><ele>184.0</ele><time>2026-04-10T16:55:32.999Z</time></trkpt><trkpt lat="45.153717903254595" lon="1.6286065713595375"><ele>184.0</ele><time>2026-04-10T16:55:33.999Z</time></trkpt><trkpt lat="45.15369785339459" lon="1.628974921594677"><ele>182.5</ele><time>2026-04-10T16:55:34.999Z</time></trkpt><trkpt lat="45.153664054734264" lon="1.6293386100174208"><ele>181.0</ele><time>2026-04-10T16:55:35.999Z</time></trkpt><trkpt lat="45.15361854993577" lon="1.629700550450019"><ele>179.5</ele><time>2026-04-10T16:55:36.999Z</time></trkpt><trkpt lat="45.153562269712694" lon="1.6300518399646282"><ele>178.0</ele><time>2026-04-10T16:55:37.999Z</time></trkpt><trkpt lat="45.15349609193945" lon="1.630394409466631"><ele>176.5</ele><time>2026-04-10T16:55:38.999Z</time></trkpt><trkpt lat="45.153427184841085" lon="1.6307284063259564"><ele>175.0</ele><time>2026-04-10T16:55:39.999Z</time></trkpt><trkpt lat="45.15335150091651" lon="1.6310555742144215"><ele>171.5</ele><time>2026-04-10T16:55:40.999Z</time></trkpt><trkpt lat="45.153267207236354" lon="1.631380235943086"><ele>168.0</ele><time>2026-04-10T16:55:41.999Z</time></trkpt><trkpt lat="45.1531903555044" lon="1.6317110442433351"><ele>173.5</ele><time>2026-04-10T16:55:42.999Z</time></trkpt><trkpt lat="45.15310983738035" lon="1.6320421816381678"><ele>179.0</ele><time>2026-04-10T16:55:43.999Z</time></trkpt><trkpt lat="45.15302969137149" lon="1.6323816700466534"><ele>179.0</ele><time>2026-04-10T16:55:44.999Z</time></trkpt><trkpt lat="45.15295066630364" lon="1.6327243923074055"><ele>179.0</ele><time>2026-04-10T16:55:45.999Z</time></trkpt><trkpt lat="45.15286360284161" lon="1.633084044231095"><ele>175.0</ele><time>2026-04-10T16:55:46.999Z</time></trkpt><trkpt lat="45.152767765682434" lon="1.633429490012631"><ele>171.0</ele><time>2026-04-10T16:55:47.999Z</time></trkpt><trkpt lat="45.15265395851131" lon="1.6337622932522187"><ele>168.0</ele><time>2026-04-10T16:55:48.999Z</time></trkpt><trkpt lat="45.15254476605627" lon="1.6340754407633862"><ele>165.0</ele><time>2026-04-10T16:55:49.999Z</time></trkpt><trkpt lat="45.15243704659025" lon="1.634368152944733"><ele>169.5</ele><time>2026-04-10T16:55:50.999Z</time></trkpt><trkpt lat="45.152315688532205" lon="1.6346647620704897"><ele>174.0</ele><time>2026-04-10T16:55:51.999Z</time></trkpt><trkpt lat="45.15216639489756" lon="1.6349499985504625"><ele>174.0</ele><time>2026-04-10T16:55:52.999Z</time></trkpt><trkpt lat="45.15195862649527" lon="1.6352004960373023"><ele>174.0</ele><time>2026-04-10T16:55:53.999Z</time></trkpt><trkpt lat="45.15172197568481" lon="1.6354379990823673"><ele>172.0</ele><time>2026-04-10T16:55:54.999Z</time></trkpt><trkpt lat="45.15145442494398" lon="1.6356212010937277"><ele>170.0</ele><time>2026-04-10T16:55:55.999Z</time></trkpt><trkpt lat="45.151153257477745" lon="1.6357390548054889"><ele>170.0</ele><time>2026-04-10T16:55:56.999Z</time></trkpt><trkpt lat="45.15084187240093" lon="1.635847632010856"><ele>170.0</ele><time>2026-04-10T16:55:57.999Z</time></trkpt><trkpt lat="45.150528522900125" lon="1.6359694181931288"><ele>170.0</ele><time>2026-04-10T16:55:58.999Z</time></trkpt><trkpt lat="45.1502308822973" lon="1.6360765691487946"><ele>170.0</ele><time>2026-04-10T16:55:59.999Z</time></trkpt><trkpt lat="45.14993975855156" lon="1.6361507878779127"><ele>170.0</ele><time>2026-04-10T16:56:01Z</time></trkpt><trkpt lat="45.149651141671754" lon="1.636162007397438"><ele>170.0</ele><time>2026-04-10T16:56:02Z</time></trkpt><trkpt lat="45.14936843979233" lon="1.6360997516607767"><ele>170.0</ele><time>2026-04-10T16:56:03Z</time></trkpt><trkpt lat="45.14908392766474" lon="1.6359651863246438"><ele>170.0</ele><time>2026-04-10T16:56:04Z</time></trkpt><trkpt lat="45.14880212645955" lon="1.6358115073763415"><ele>171.0</ele><time>2026-04-10T16:56:05Z</time></trkpt><trkpt lat="45.14851274341465" lon="1.6356780568742713"><ele>172.0</ele><time>2026-04-10T16:56:06Z</time></trkpt><trkpt lat="45.14822058225443" lon="1.6355714821556517"><ele>173.5</ele><time>2026-04-10T16:56:07Z</time></trkpt><trkpt lat="45.14791373269038" lon="1.635512379943369"><ele>175.0</ele><time>2026-04-10T16:56:08Z</time></trkpt><trkpt lat="45.147599885516826" lon="1.6354926010681097"><ele>179.5</ele><time>2026-04-10T16:56:09Z</time></trkpt><trkpt lat="45.14727582086113" lon="1.6354931097882346"><ele>184.0</ele><time>2026-04-10T16:56:10Z</time></trkpt><trkpt lat="45.14694256458253" lon="1.6355029186588903"><ele>184.0</ele><time>2026-04-10T16:56:11Z</time></trkpt><trkpt lat="45.14661621242953" lon="1.6355201743599377"><ele>184.0</ele><time>2026-04-10T16:56:12Z</time></trkpt><trkpt lat="45.146298685908214" lon="1.6355417839819264"><ele>182.5</ele><time>2026-04-10T16:56:13Z</time></trkpt><trkpt lat="45.14598342086035" lon="1.6355913329868161"><ele>181.0</ele><time>2026-04-10T16:56:14Z</time></trkpt><trkpt lat="45.14565957767828" lon="1.6356882938544168"><ele>180.5</ele><time>2026-04-10T16:56:15Z</time></trkpt><trkpt lat="45.145343289322064" lon="1.6358148200929945"><ele>180.0</ele><time>2026-04-10T16:56:16Z</time></trkpt><trkpt lat="45.14505562540389" lon="1.635927130414745"><ele>180.0</ele><time>2026-04-10T16:56:17Z</time></trkpt><trkpt lat="45.144786038626826" lon="1.636021851494563"><ele>180.0</ele><time>2026-04-10T16:56:18Z</time></trkpt><trkpt lat="45.14453616475525" lon="1.6361154918294492"><ele>187.5</ele><time>2026-04-10T16:56:19Z</time></trkpt><trkpt lat="45.144281164523704" lon="1.636210961884189"><ele>195.0</ele><time>2026-04-10T16:56:20Z</time></trkpt><trkpt lat="45.144017348345116" lon="1.6362979597795946"><ele>195.0</ele><time>2026-04-10T16:56:21Z</time></trkpt><trkpt lat="45.14375554856067" lon="1.6363397860525797"><ele>195.0</ele><time>2026-04-10T16:56:22Z</time></trkpt><trkpt lat="45.14350920022754" lon="1.6362898359208418"><ele>195.0</ele><time>2026-04-10T16:56:23Z</time></trkpt><trkpt lat="45.14328622602655" lon="1.6362403064294193"><ele>195.0</ele><time>2026-04-10T16:56:24Z</time></trkpt><trkpt lat="45.143082096211714" lon="1.6362926439396686"><ele>195.0</ele><time>2026-04-10T16:56:25Z</time></trkpt><trkpt lat="45.14285414523447" lon="1.6364402004348362"><ele>191.0</ele><time>2026-04-10T16:56:26Z</time></trkpt><trkpt lat="45.142626457322486" lon="1.6366229850169094"><ele>187.0</ele><time>2026-04-10T16:56:27Z</time></trkpt><trkpt lat="45.14241732520176" lon="1.6368477413237754"><ele>190.5</ele><time>2026-04-10T16:56:28Z</time></trkpt><trkpt lat="45.142216622598546" lon="1.6371517764827643"><ele>194.0</ele><time>2026-04-10T16:56:29Z</time></trkpt><trkpt lat="45.14200567268175" lon="1.6373966697697473"><ele>194.0</ele><time>2026-04-10T16:56:30Z</time></trkpt><trkpt lat="45.14176620646046" lon="1.6375707236477224"><ele>194.0</ele><time>2026-04-10T16:56:31Z</time></trkpt><trkpt lat="45.14157353455983" lon="1.6377960046831235"><ele>193.5</ele><time>2026-04-10T16:56:32Z</time></trkpt><trkpt lat="45.14141268700847" lon="1.6380959602002714"><ele>193.0</ele><time>2026-04-10T16:56:33Z</time></trkpt><trkpt lat="45.14120453386437" lon="1.6383292500478375"><ele>193.0</ele><time>2026-04-10T16:56:34Z</time></trkpt><trkpt lat="45.140958563240645" lon="1.638476059979634"><ele>193.0</ele><time>2026-04-10T16:56:35Z</time></trkpt><trkpt lat="45.140745700905704" lon="1.6386152853422074"><ele>195.66666666666666</ele><time>2026-04-10T16:56:36Z</time></trkpt><trkpt lat="45.14059783278069" lon="1.6387951582263574"><ele>198.33333333333331</ele><time>2026-04-10T16:56:37Z</time></trkpt><trkpt lat="45.140467837751096" lon="1.6390789652078475"><ele>201.0</ele><time>2026-04-10T16:56:38Z</time></trkpt><trkpt lat="45.140362713706246" lon="1.639421434002237"><ele>200.5</ele><time>2026-04-10T16:56:39Z</time></trkpt><trkpt lat="45.140273882251435" lon="1.6397920434885382"><ele>200.0</ele><time>2026-04-10T16:56:40Z</time></trkpt><trkpt lat="45.140191107162515" lon="1.6401870626469508"><ele>202.0</ele><time>2026-04-10T16:56:41Z</time></trkpt><trkpt lat="45.14014489057964" lon="1.640585164745827"><ele>204.0</ele><time>2026-04-10T16:56:42Z</time></trkpt><trkpt lat="45.140147351767325" lon="1.6410090005476206"><ele>205.0</ele><time>2026-04-10T16:56:43Z</time></trkpt><trkpt lat="45.140163986293175" lon="1.6414406328525657"><ele>206.0</ele><time>2026-04-10T16:56:44Z</time></trkpt><trkpt lat="45.14016305367331" lon="1.6418497812112758"><ele>207.0</ele><time>2026-04-10T16:56:45Z</time></trkpt><trkpt lat="45.14013954362955" lon="1.6422106473853366"><ele>208.0</ele><time>2026-04-10T16:56:46Z</time></trkpt><trkpt lat="45.14004335305211" lon="1.6425414072600193"><ele>208.5</ele><time>2026-04-10T16:56:47Z</time></trkpt><trkpt lat="45.139904753241886" lon="1.6428619275488945"><ele>209.0</ele><time>2026-04-10T16:56:48Z</time></trkpt><trkpt lat="45.13972262608831" lon="1.6431532253058065"><ele>209.0</ele><time>2026-04-10T16:56:49Z</time></trkpt><trkpt lat="45.13952305501089" lon="1.6434163092480873"><ele>209.0</ele><time>2026-04-10T16:56:50Z</time></trkpt><trkpt lat="45.13934931181342" lon="1.6436201507658867"><ele>209.66666666666669</ele><time>2026-04-10T16:56:51Z</time></trkpt><trkpt lat="45.13920269637709" lon="1.6437963462046286"><ele>210.33333333333331</ele><time>2026-04-10T16:56:52Z</time></trkpt><trkpt lat="45.139054937957624" lon="1.6439980898747824"><ele>211.0</ele><time>2026-04-10T16:56:53Z</time></trkpt><trkpt lat="45.13890332359131" lon="1.644203905163757"><ele>211.0</ele><time>2026-04-10T16:56:54Z</time></trkpt><trkpt lat="45.138754310744496" lon="1.644406619366911"><ele>211.0</ele><time>2026-04-10T16:56:55Z</time></trkpt><trkpt lat="45.13861549621173" lon="1.6445933663514973"><ele>211.0</ele><time>2026-04-10T16:56:56Z</time></trkpt><trkpt lat="45.13848325891873" lon="1.6447729062510972"><ele>212.0</ele><time>2026-04-10T16:56:57Z</time></trkpt><trkpt lat="45.13834419165391" lon="1.6449447020725056"><ele>213.0</ele><time>2026-04-10T16:56:58Z</time></trkpt><trkpt lat="45.1381835103102" lon="1.645095177017992"><ele>214.0</ele><time>2026-04-10T16:56:59Z</time></trkpt><trkpt lat="45.138001006001254" lon="1.64521966392259"><ele>214.33333333333331</ele><time>2026-04-10T16:57:00Z</time></trkpt><trkpt lat="45.13780288165288" lon="1.6453159759175093"><ele>214.66666666666669</ele><time>2026-04-10T16:57:01Z</time></trkpt><trkpt lat="45.137587861531706" lon="1.6453913976405663"><ele>215.0</ele><time>2026-04-10T16:57:02Z</time></trkpt><trkpt lat="45.13737404897556" lon="1.6454517730104476"><ele>215.0</ele><time>2026-04-10T16:57:03Z</time></trkpt><trkpt lat="45.13718296937799" lon="1.6455289058765294"><ele>215.0</ele><time>2026-04-10T16:57:04Z</time></trkpt><trkpt lat="45.13699842557098" lon="1.645627653151308"><ele>215.0</ele><time>2026-04-10T16:57:05Z</time></trkpt><trkpt lat="45.13681810791078" lon="1.6457603604010487"><ele>215.0</ele><time>2026-04-10T16:57:06Z</time></trkpt><trkpt lat="45.13665598254626" lon="1.6459212039217832"><ele>215.0</ele><time>2026-04-10T16:57:07Z</time></trkpt><trkpt lat="45.13651145410119" lon="1.646108874943059"><ele>215.0</ele><time>2026-04-10T16:57:08Z</time></trkpt><trkpt lat="45.13637062928156" lon="1.6463070135740856"><ele>213.66666666666669</ele><time>2026-04-10T16:57:09Z</time></trkpt><trkpt lat="45.13623255247489" lon="1.6465171287308198"><ele>212.33333333333331</ele><time>2026-04-10T16:57:10Z</time></trkpt><trkpt lat="45.13609030611358" lon="1.6467110050710418"><ele>211.0</ele><time>2026-04-10T16:57:11Z</time></trkpt><trkpt lat="45.135953097035724" lon="1.6469172538055752"><ele>210.33333333333331</ele><time>2026-04-10T16:57:12Z</time></trkpt><trkpt lat="45.13582492490373" lon="1.6471421153996133"><ele>209.66666666666669</ele><time>2026-04-10T16:57:13Z</time></trkpt><trkpt lat="45.1356832389759" lon="1.647351579373625"><ele>209.0</ele><time>2026-04-10T16:57:14Z</time></trkpt><trkpt lat="45.13554580293571" lon="1.6475579651919219"><ele>208.33333333333334</ele><time>2026-04-10T16:57:14.999Z</time></trkpt><trkpt lat="45.13541317020228" lon="1.6477586457127493"><ele>207.66666666666669</ele><time>2026-04-10T16:57:15.999Z</time></trkpt><trkpt lat="45.135286067059646" lon="1.6479530723941567"><ele>207.0</ele><time>2026-04-10T16:57:16.999Z</time></trkpt><trkpt lat="45.13518276532109" lon="1.648125362445344"><ele>207.0</ele><time>2026-04-10T16:57:17.999Z</time></trkpt><trkpt lat="45.135093001356" lon="1.6483115719229267"><ele>207.0</ele><time>2026-04-10T16:57:18.999Z</time></trkpt><trkpt lat="45.135006756557445" lon="1.6485221782868988"><ele>207.0</ele><time>2026-04-10T16:57:19.999Z</time></trkpt><trkpt lat="45.13494684808432" lon="1.6487394171765555"><ele>207.0</ele><time>2026-04-10T16:57:20.999Z</time></trkpt><trkpt lat="45.134924004848386" lon="1.6489639654685158"><ele>207.0</ele><time>2026-04-10T16:57:21.999Z</time></trkpt><trkpt lat="45.13492734417019" lon="1.6491853161497625"><ele>207.0</ele><time>2026-04-10T16:57:22.999Z</time></trkpt><trkpt lat="45.13493334628105" lon="1.6494218246701116"><ele>209.66666666666669</ele><time>2026-04-10T16:57:23.999Z</time></trkpt><trkpt lat="45.13497365990934" lon="1.649657676454483"><ele>212.33333333333334</ele><time>2026-04-10T16:57:24.999Z</time></trkpt><trkpt lat="45.13501784408389" lon="1.64988624681573"><ele>215.0</ele><time>2026-04-10T16:57:25.999Z</time></trkpt><trkpt lat="45.13506898897253" lon="1.650101693004567"><ele>213.33333333333334</ele><time>2026-04-10T16:57:26.999Z</time></trkpt><trkpt lat="45.13510503157507" lon="1.6503461608992271"><ele>211.66666666666669</ele><time>2026-04-10T16:57:27.999Z</time></trkpt><trkpt lat="45.135134835437455" lon="1.6505983823066863"><ele>210.0</ele><time>2026-04-10T16:57:28.999Z</time></trkpt><trkpt lat="45.13516182700056" lon="1.650854057046324"><ele>210.0</ele><time>2026-04-10T16:57:29.999Z</time></trkpt><trkpt lat="45.13517356470058" lon="1.6511196569260826"><ele>210.0</ele><time>2026-04-10T16:57:30.999Z</time></trkpt><trkpt lat="45.135185871930645" lon="1.6513731046138813"><ele>210.0</ele><time>2026-04-10T16:57:31.999Z</time></trkpt><trkpt lat="45.13520691730341" lon="1.6516168820654933"><ele>206.66666666666669</ele><time>2026-04-10T16:57:32.999Z</time></trkpt><trkpt lat="45.13523051733741" lon="1.6518581229058"><ele>203.33333333333334</ele><time>2026-04-10T16:57:33.999Z</time></trkpt><trkpt lat="45.13525783354468" lon="1.652093582357018"><ele>200.0</ele><time>2026-04-10T16:57:34.999Z</time></trkpt><trkpt lat="45.135289050469105" lon="1.6523326583037463"><ele>199.66666666666669</ele><time>2026-04-10T16:57:35.999Z</time></trkpt><trkpt lat="45.13531326705753" lon="1.6525705741035366"><ele>199.33333333333331</ele><time>2026-04-10T16:57:36.999Z</time></trkpt><trkpt lat="45.13533567677251" lon="1.6527890475374638"><ele>199.0</ele><time>2026-04-10T16:57:37.999Z</time></trkpt><trkpt lat="45.135341853519535" lon="1.653006779825064"><ele>198.66666666666666</ele><time>2026-04-10T16:57:38.999Z</time></trkpt><trkpt lat="45.13533373421938" lon="1.6532287938698085"><ele>198.33333333333331</ele><time>2026-04-10T16:57:39.999Z</time></trkpt><trkpt lat="45.13529870935402" lon="1.653457754232032"><ele>198.0</ele><time>2026-04-10T16:57:40.999Z</time></trkpt><trkpt lat="45.135219174951764" lon="1.6536668351076431"><ele>196.33333333333331</ele><time>2026-04-10T16:57:41.999Z</time></trkpt><trkpt lat="45.13514224188187" lon="1.6538760821350065"><ele>194.66666666666666</ele><time>2026-04-10T16:57:42.999Z</time></trkpt><trkpt lat="45.135027042276505" lon="1.6540548169672669"><ele>193.0</ele><time>2026-04-10T16:57:43.999Z</time></trkpt><trkpt lat="45.134899754700164" lon="1.6542135050669247"><ele>192.66666666666666</ele><time>2026-04-10T16:57:44.999Z</time></trkpt><trkpt lat="45.13476441525767" lon="1.6543594335823133"><ele>192.33333333333331</ele><time>2026-04-10T16:57:45.999Z</time></trkpt><trkpt lat="45.13463890782963" lon="1.654507061934812"><ele>192.0</ele><time>2026-04-10T16:57:46.999Z</time></trkpt><trkpt lat="45.134515176336116" lon="1.6546505740879054"><ele>192.0</ele><time>2026-04-10T16:57:47.999Z</time></trkpt><trkpt lat="45.13439035099005" lon="1.6547916870719936"><ele>192.0</ele><time>2026-04-10T16:57:48.999Z</time></trkpt><trkpt lat="45.13426182878441" lon="1.6549372841228243"><ele>192.0</ele><time>2026-04-10T16:57:49.999Z</time></trkpt><trkpt lat="45.13411946123792" lon="1.6550975123891172"><ele>192.0</ele><time>2026-04-10T16:57:50.999Z</time></trkpt><trkpt lat="45.1339855917143" lon="1.655238744369121"><ele>192.0</ele><time>2026-04-10T16:57:51.999Z</time></trkpt><trkpt lat="45.133847268556366" lon="1.6553477140844595"><ele>192.0</ele><time>2026-04-10T16:57:52.999Z</time></trkpt><trkpt lat="45.13369646736224" lon="1.6554449263446624"><ele>192.0</ele><time>2026-04-10T16:57:53.999Z</time></trkpt><trkpt lat="45.1335367614449" lon="1.655509056615913"><ele>192.0</ele><time>2026-04-10T16:57:54.999Z</time></trkpt><trkpt lat="45.13338366389557" lon="1.6555629554093472"><ele>192.0</ele><time>2026-04-10T16:57:55.999Z</time></trkpt><trkpt lat="45.13323538914534" lon="1.6556151989040497"><ele>196.33333333333331</ele><time>2026-04-10T16:57:56.999Z</time></trkpt><trkpt lat="45.13309340627648" lon="1.6556746826434277"><ele>200.66666666666666</ele><time>2026-04-10T16:57:57.999Z</time></trkpt><trkpt lat="45.132947233887926" lon="1.6557313030748977"><ele>205.0</ele><time>2026-04-10T16:57:58.999Z</time></trkpt><trkpt lat="45.13279819783756" lon="1.655820984875615"><ele>205.0</ele><time>2026-04-10T16:57:59.999Z</time></trkpt><trkpt lat="45.132650479309866" lon="1.6559453389794576"><ele>205.0</ele><time>2026-04-10T16:58:00.999Z</time></trkpt><trkpt lat="45.13249527402588" lon="1.6560717514975474"><ele>205.0</ele><time>2026-04-10T16:58:01.999Z</time></trkpt><trkpt lat="45.13233722950006" lon="1.6562035203141192"><ele>202.0</ele><time>2026-04-10T16:58:02.999Z</time></trkpt><trkpt lat="45.13218842180756" lon="1.6563276996308425"><ele>199.0</ele><time>2026-04-10T16:58:03.999Z</time></trkpt><trkpt lat="45.13204842066394" lon="1.6564444498857018"><ele>196.0</ele><time>2026-04-10T16:58:04.999Z</time></trkpt><trkpt lat="45.13191522487462" lon="1.6565486166790626"><ele>196.0</ele><time>2026-04-10T16:58:05.999Z</time></trkpt><trkpt lat="45.131795559040974" lon="1.6566464810289403"><ele>196.0</ele><time>2026-04-10T16:58:07Z</time></trkpt><trkpt lat="45.131687006240874" lon="1.6567378327253641"><ele>196.0</ele><time>2026-04-10T16:58:08Z</time></trkpt><trkpt lat="45.131576734010515" lon="1.656809796947099"><ele>196.0</ele><time>2026-04-10T16:58:09Z</time></trkpt><trkpt lat="45.1314784002403" lon="1.656890323221095"><ele>194.8</ele><time>2026-04-10T16:58:10Z</time></trkpt><trkpt lat="45.131425150772245" lon="1.6570728525802108"><ele>193.60000000000002</ele><time>2026-04-10T16:58:11Z</time></trkpt><trkpt lat="45.131343482914545" lon="1.6571642196349348"><ele>192.4</ele><time>2026-04-10T16:58:12Z</time></trkpt><trkpt lat="45.13126707434527" lon="1.6572319775093816"><ele>191.2</ele><time>2026-04-10T16:58:13Z</time></trkpt><trkpt lat="45.131192529190685" lon="1.6572843618234014"><ele>190.0</ele><time>2026-04-10T16:58:14Z</time></trkpt><trkpt lat="45.13113047720054" lon="1.6573353889987446"><ele>190.0</ele><time>2026-04-10T16:58:15Z</time></trkpt><trkpt lat="45.13103521600042" lon="1.657390124548866"><ele>190.0</ele><time>2026-04-10T16:58:17Z</time></trkpt><trkpt lat="45.13094721332117" lon="1.657343466362185"><ele>190.0</ele><time>2026-04-10T16:59:02Z</time></trkpt><trkpt lat="45.13077147769416" lon="1.6574295379022974"><ele>190.0</ele><time>2026-04-10T16:59:04Z</time></trkpt><trkpt lat="45.13062820144454" lon="1.657541060922793"><ele>190.0</ele><time>2026-04-10T16:59:05Z</time></trkpt><trkpt lat="45.13050949963701" lon="1.6576484245767389"><ele>190.0</ele><time>2026-04-10T16:59:06Z</time></trkpt><trkpt lat="45.13040108140089" lon="1.6578126637449218"><ele>190.0</ele><time>2026-04-10T16:59:07Z</time></trkpt><trkpt lat="45.130330498305675" lon="1.6580051853644657"><ele>190.0</ele><time>2026-04-10T16:59:08Z</time></trkpt><trkpt lat="45.13027796277762" lon="1.6581722785058792"><ele>190.0</ele><time>2026-04-10T16:59:09Z</time></trkpt><trkpt lat="45.130216760339216" lon="1.6583213367754723"><ele>190.0</ele><time>2026-04-10T16:59:10Z</time></trkpt><trkpt lat="45.130174275983045" lon="1.6584682135592326"><ele>190.0</ele><time>2026-04-10T16:59:11Z</time></trkpt><trkpt lat="45.130122054047305" lon="1.6586000797804523"><ele>189.66666666666669</ele><time>2026-04-10T16:59:12Z</time></trkpt><trkpt lat="45.13006159423928" lon="1.658723524149371"><ele>189.33333333333334</ele><time>2026-04-10T16:59:13Z</time></trkpt><trkpt lat="45.13000621274816" lon="1.6588367215429947"><ele>189.0</ele><time>2026-04-10T16:59:14Z</time></trkpt><trkpt lat="45.12995376479308" lon="1.6589415006829784"><ele>188.66666666666666</ele><time>2026-04-10T16:59:14.999Z</time></trkpt><trkpt lat="45.1299018238961" lon="1.6590290778526884"><ele>188.33333333333331</ele><time>2026-04-10T16:59:15.999Z</time></trkpt><trkpt lat="45.12985523591794" lon="1.6591082184929915"><ele>188.0</ele><time>2026-04-10T16:59:16.999Z</time></trkpt><trkpt lat="45.129812257872366" lon="1.65918284091012"><ele>188.4</ele><time>2026-04-10T16:59:17.999Z</time></trkpt><trkpt lat="45.129770004726424" lon="1.6592547939435267"><ele>188.8</ele><time>2026-04-10T16:59:18.999Z</time></trkpt><trkpt lat="45.12971906929079" lon="1.659341098416561"><ele>189.2</ele><time>2026-04-10T16:59:19.999Z</time></trkpt><trkpt lat="45.12965125008107" lon="1.659459104084423"><ele>189.6</ele><time>2026-04-10T16:59:20.999Z</time></trkpt><trkpt lat="45.12956828060643" lon="1.6595878376172626"><ele>190.0</ele><time>2026-04-10T16:59:21.999Z</time></trkpt><trkpt lat="45.12948757158334" lon="1.6596994153272737"><ele>190.0</ele><time>2026-04-10T16:59:22.999Z</time></trkpt><trkpt lat="45.12940848763823" lon="1.6598128075576721"><ele>190.0</ele><time>2026-04-10T16:59:23.999Z</time></trkpt><trkpt lat="45.129337166418274" lon="1.6599252642509583"><ele>190.0</ele><time>2026-04-10T16:59:24.999Z</time></trkpt><trkpt lat="45.12927108988796" lon="1.6600282227372312"><ele>190.0</ele><time>2026-04-10T16:59:25.999Z</time></trkpt><trkpt lat="45.12920538406146" lon="1.6601241486511586"><ele>190.0</ele><time>2026-04-10T16:59:26.999Z</time></trkpt><trkpt lat="45.12914554806994" lon="1.6602115932284656"><ele>190.0</ele><time>2026-04-10T16:59:27.999Z</time></trkpt><trkpt lat="45.129095824508546" lon="1.6603135954628259"><ele>190.0</ele><time>2026-04-10T16:59:28.999Z</time></trkpt><trkpt lat="45.12903517910966" lon="1.6604196899137742"><ele>190.0</ele><time>2026-04-10T16:59:29.999Z</time></trkpt><trkpt lat="45.128968213370314" lon="1.6605428501836716"><ele>190.0</ele><time>2026-04-10T16:59:30.999Z</time></trkpt><trkpt lat="45.12891258262582" lon="1.660668756826225"><ele>190.0</ele><time>2026-04-10T16:59:31.999Z</time></trkpt><trkpt lat="45.12886903628809" lon="1.6607784738124256"><ele>190.0</ele><time>2026-04-10T16:59:32.999Z</time></trkpt><trkpt lat="45.12882660055233" lon="1.6608754282727383"><ele>190.0</ele><time>2026-04-10T16:59:33.999Z</time></trkpt><trkpt lat="45.12876656813024" lon="1.6609883723865857"><ele>190.0</ele><time>2026-04-10T16:59:34.999Z</time></trkpt><trkpt lat="45.12869485165816" lon="1.6611302375338306"><ele>190.0</ele><time>2026-04-10T16:59:35.999Z</time></trkpt><trkpt lat="45.12864900046362" lon="1.6612710479266244"><ele>190.0</ele><time>2026-04-10T16:59:36.999Z</time></trkpt><trkpt lat="45.12859377737088" lon="1.6613911576673641"><ele>190.25</ele><time>2026-04-10T16:59:37.999Z</time></trkpt><trkpt lat="45.12853074005605" lon="1.661531157216747"><ele>190.5</ele><time>2026-04-10T16:59:38.999Z</time></trkpt><trkpt lat="45.12846065859978" lon="1.661676454055443"><ele>190.75</ele><time>2026-04-10T16:59:39.999Z</time></trkpt><trkpt lat="45.12839444180666" lon="1.6618136607470164"><ele>191.0</ele><time>2026-04-10T16:59:40.999Z</time></trkpt><trkpt lat="45.128324750407884" lon="1.6619491440078202"><ele>191.25</ele><time>2026-04-10T16:59:41.999Z</time></trkpt><trkpt lat="45.128252982331105" lon="1.6620964380083498"><ele>191.5</ele><time>2026-04-10T16:59:42.999Z</time></trkpt><trkpt lat="45.12818560502512" lon="1.6622565748945908"><ele>191.75</ele><time>2026-04-10T16:59:43.999Z</time></trkpt><trkpt lat="45.1281257866076" lon="1.6624207348408426"><ele>192.0</ele><time>2026-04-10T16:59:44.999Z</time></trkpt><trkpt lat="45.12807474221098" lon="1.6625995708746903"><ele>191.75</ele><time>2026-04-10T16:59:45.999Z</time></trkpt><trkpt lat="45.12803145581327" lon="1.662785985547609"><ele>191.5</ele><time>2026-04-10T16:59:46.999Z</time></trkpt><trkpt lat="45.12798958878449" lon="1.6629732305562175"><ele>191.25</ele><time>2026-04-10T16:59:47.999Z</time></trkpt><trkpt lat="45.12795491526922" lon="1.6631541688059561"><ele>191.0</ele><time>2026-04-10T16:59:48.999Z</time></trkpt><trkpt lat="45.12791530790162" lon="1.6633407144515555"><ele>191.0</ele><time>2026-04-10T16:59:49.999Z</time></trkpt><trkpt lat="45.12787811285226" lon="1.6635349649310516"><ele>191.0</ele><time>2026-04-10T16:59:50.999Z</time></trkpt><trkpt lat="45.127842372355865" lon="1.6637330565449457"><ele>191.0</ele><time>2026-04-10T16:59:51.999Z</time></trkpt><trkpt lat="45.12780528962897" lon="1.6639170326145354"><ele>191.0</ele><time>2026-04-10T16:59:52.999Z</time></trkpt><trkpt lat="45.127773676651174" lon="1.6640999997500359"><ele>191.25</ele><time>2026-04-10T16:59:53.999Z</time></trkpt><trkpt lat="45.12774863415696" lon="1.6643013109514242"><ele>191.5</ele><time>2026-04-10T16:59:54.999Z</time></trkpt><trkpt lat="45.12772769176476" lon="1.664510525242028"><ele>191.75</ele><time>2026-04-10T16:59:55.999Z</time></trkpt><trkpt lat="45.127713136948294" lon="1.6646990955688652"><ele>192.0</ele><time>2026-04-10T16:59:56.999Z</time></trkpt><trkpt lat="45.127712877699174" lon="1.6648862005390865"><ele>192.33333333333331</ele><time>2026-04-10T16:59:57.999Z</time></trkpt><trkpt lat="45.127755486976426" lon="1.6650921852094163"><ele>192.66666666666666</ele><time>2026-04-10T16:59:58.999Z</time></trkpt><trkpt lat="45.12784037385483" lon="1.6653330149768109"><ele>193.0</ele><time>2026-04-10T16:59:59.999Z</time></trkpt><trkpt lat="45.12795483349085" lon="1.6655966708826213"><ele>193.5</ele><time>2026-04-10T17:00:00.999Z</time></trkpt><trkpt lat="45.12806760912641" lon="1.6658976328444028"><ele>194.0</ele><time>2026-04-10T17:00:01.999Z</time></trkpt><trkpt lat="45.12817845494262" lon="1.6662191308537793"><ele>198.5</ele><time>2026-04-10T17:00:02.999Z</time></trkpt><trkpt lat="45.12829877166537" lon="1.6665608456672116"><ele>203.0</ele><time>2026-04-10T17:00:03.999Z</time></trkpt><trkpt lat="45.12842170113774" lon="1.6669191620366806"><ele>206.0</ele><time>2026-04-10T17:00:04.999Z</time></trkpt><trkpt lat="45.12853283248271" lon="1.6672487255093908"><ele>209.0</ele><time>2026-04-10T17:00:05.999Z</time></trkpt><trkpt lat="45.12863195965334" lon="1.6675512360041327"><ele>212.5</ele><time>2026-04-10T17:00:06.999Z</time></trkpt><trkpt lat="45.12873545141715" lon="1.667851579095292"><ele>216.0</ele><time>2026-04-10T17:00:07.999Z</time></trkpt><trkpt lat="45.12883221263564" lon="1.6681617352564881"><ele>216.0</ele><time>2026-04-10T17:00:08.999Z</time></trkpt><trkpt lat="45.1289181391327" lon="1.6684757964514276"><ele>216.0</ele><time>2026-04-10T17:00:09.999Z</time></trkpt><trkpt lat="45.12897379003322" lon="1.668819419820204"><ele>223.0</ele><time>2026-04-10T17:00:10.999Z</time></trkpt><trkpt lat="45.129018315692605" lon="1.6691905976039991"><ele>230.0</ele><time>2026-04-10T17:00:11.999Z</time></trkpt><trkpt lat="45.12905821028136" lon="1.6695409906808318"><ele>233.0</ele><time>2026-04-10T17:00:13Z</time></trkpt><trkpt lat="45.129132584953076" lon="1.6698293168273644"><ele>236.0</ele><time>2026-04-10T17:00:14Z</time></trkpt><trkpt lat="45.12927065081091" lon="1.6700907432718175"><ele>239.0</ele><time>2026-04-10T17:00:15Z</time></trkpt><trkpt lat="45.12946359304593" lon="1.6703233154693704"><ele>239.0</ele><time>2026-04-10T17:00:16Z</time></trkpt><trkpt lat="45.12969670653801" lon="1.67052310580397"><ele>239.0</ele><time>2026-04-10T17:00:17Z</time></trkpt><trkpt lat="45.12993179131071" lon="1.670718526405993"><ele>244.5</ele><time>2026-04-10T17:00:18Z</time></trkpt><trkpt lat="45.130167990879315" lon="1.670921889488959"><ele>250.0</ele><time>2026-04-10T17:00:19Z</time></trkpt><trkpt lat="45.130397377574624" lon="1.671141463860162"><ele>250.0</ele><time>2026-04-10T17:00:20Z</time></trkpt><trkpt lat="45.13060071901048" lon="1.6713541402839527"><ele>250.0</ele><time>2026-04-10T17:00:21Z</time></trkpt><trkpt lat="45.13076590171296" lon="1.6716261447673126"><ele>248.5</ele><time>2026-04-10T17:00:22Z</time></trkpt><trkpt lat="45.13091086538028" lon="1.6719506691658967"><ele>247.0</ele><time>2026-04-10T17:00:23Z</time></trkpt><trkpt lat="45.13104797682414" lon="1.6722366422483252"><ele>247.0</ele><time>2026-04-10T17:00:24Z</time></trkpt><trkpt lat="45.13121346735373" lon="1.6724869425005697"><ele>247.0</ele><time>2026-04-10T17:00:25Z</time></trkpt><trkpt lat="45.131389332475194" lon="1.672714274009847"><ele>240.0</ele><time>2026-04-10T17:00:26Z</time></trkpt><trkpt lat="45.13160318374968" lon="1.6729437515789036"><ele>233.0</ele><time>2026-04-10T17:00:27Z</time></trkpt><trkpt lat="45.13183059996012" lon="1.6731739084469928"><ele>233.0</ele><time>2026-04-10T17:00:28Z</time></trkpt><trkpt lat="45.13204582920433" lon="1.6734025969077708"><ele>233.0</ele><time>2026-04-10T17:00:29Z</time></trkpt><trkpt lat="45.132238327746045" lon="1.6736147396451044"><ele>230.66666666666669</ele><time>2026-04-10T17:00:30Z</time></trkpt><trkpt lat="45.13242314169199" lon="1.673817049595548"><ele>228.33333333333331</ele><time>2026-04-10T17:00:31Z</time></trkpt><trkpt lat="45.132574530806366" lon="1.6739901191685627"><ele>226.0</ele><time>2026-04-10T17:00:32Z</time></trkpt><trkpt lat="45.13268337416805" lon="1.6741968182404736"><ele>229.33333333333331</ele><time>2026-04-10T17:00:33Z</time></trkpt><trkpt lat="45.13275727017093" lon="1.6744807411929432"><ele>232.66666666666669</ele><time>2026-04-10T17:00:34Z</time></trkpt><trkpt lat="45.13277606585223" lon="1.6747933642711914"><ele>236.0</ele><time>2026-04-10T17:00:35Z</time></trkpt><trkpt lat="45.132721611734546" lon="1.6750849750558465"><ele>229.0</ele><time>2026-04-10T17:00:36Z</time></trkpt><trkpt lat="45.13262197555172" lon="1.6753870380879894"><ele>222.0</ele><time>2026-04-10T17:00:37Z</time></trkpt><trkpt lat="45.13248749257798" lon="1.6756835319243226"><ele>229.0</ele><time>2026-04-10T17:00:38Z</time></trkpt><trkpt lat="45.13230027303903" lon="1.6759671005991086"><ele>236.0</ele><time>2026-04-10T17:00:39Z</time></trkpt><trkpt lat="45.132084898360624" lon="1.6762242703412857"><ele>236.0</ele><time>2026-04-10T17:00:40Z</time></trkpt><trkpt lat="45.13186502839711" lon="1.6764946525483597"><ele>236.0</ele><time>2026-04-10T17:00:41Z</time></trkpt><trkpt lat="45.13165057464858" lon="1.6767945736903498"><ele>244.5</ele><time>2026-04-10T17:00:42Z</time></trkpt><trkpt lat="45.13144623500173" lon="1.677064117460277"><ele>253.0</ele><time>2026-04-10T17:00:43Z</time></trkpt><trkpt lat="45.13127397872239" lon="1.6773391555848043"><ele>253.0</ele><time>2026-04-10T17:00:44Z</time></trkpt><trkpt lat="45.13112626922637" lon="1.6776696433939304"><ele>253.0</ele><time>2026-04-10T17:00:45Z</time></trkpt><trkpt lat="45.13101035602727" lon="1.6779904885917656"><ele>246.0</ele><time>2026-04-10T17:00:46Z</time></trkpt><trkpt lat="45.130911055967346" lon="1.6782913823718972"><ele>239.0</ele><time>2026-04-10T17:00:47Z</time></trkpt><trkpt lat="45.13080878258913" lon="1.6785463274508632"><ele>232.0</ele><time>2026-04-10T17:00:48Z</time></trkpt><trkpt lat="45.13072947162296" lon="1.6788536827330314"><ele>243.5</ele><time>2026-04-10T17:00:49Z</time></trkpt><trkpt lat="45.130670238223644" lon="1.679201039258949"><ele>255.0</ele><time>2026-04-10T17:00:50Z</time></trkpt><trkpt lat="45.13063414783564" lon="1.6795581773387447"><ele>255.0</ele><time>2026-04-10T17:00:51Z</time></trkpt><trkpt lat="45.130586334578176" lon="1.6798720760152852"><ele>255.0</ele><time>2026-04-10T17:00:52Z</time></trkpt><trkpt lat="45.13054996646528" lon="1.6802019093739085"><ele>251.0</ele><time>2026-04-10T17:00:53Z</time></trkpt><trkpt lat="45.13049556764408" lon="1.680490724581399"><ele>247.0</ele><time>2026-04-10T17:00:54Z</time></trkpt><trkpt lat="45.13041916557961" lon="1.6807416420367436"><ele>243.0</ele><time>2026-04-10T17:00:55Z</time></trkpt><trkpt lat="45.13032786655045" lon="1.68099918787276"><ele>234.5</ele><time>2026-04-10T17:00:56Z</time></trkpt><trkpt lat="45.13021973207109" lon="1.6812569309864354"><ele>226.0</ele><time>2026-04-10T17:00:57Z</time></trkpt><trkpt lat="45.13003394363654" lon="1.6816296030533053"><ele>230.5</ele><time>2026-04-10T17:00:58Z</time></trkpt><trkpt lat="45.12988899297029" lon="1.6818799388098664"><ele>235.0</ele><time>2026-04-10T17:00:59Z</time></trkpt><trkpt lat="45.12972620602162" lon="1.6821087754080388"><ele>235.0</ele><time>2026-04-10T17:01:00Z</time></trkpt><trkpt lat="45.129549811031445" lon="1.682341891991405"><ele>235.0</ele><time>2026-04-10T17:01:01Z</time></trkpt><trkpt lat="45.129375855783834" lon="1.682580077462804"><ele>231.66666666666666</ele><time>2026-04-10T17:01:02Z</time></trkpt><trkpt lat="45.129227267264746" lon="1.6828066176266285"><ele>228.33333333333331</ele><time>2026-04-10T17:01:03Z</time></trkpt><trkpt lat="45.12909266753899" lon="1.683048063168812"><ele>225.0</ele><time>2026-04-10T17:01:04Z</time></trkpt><trkpt lat="45.128963566226076" lon="1.6832700594263725"><ele>227.0</ele><time>2026-04-10T17:01:05Z</time></trkpt><trkpt lat="45.128823618984974" lon="1.6834889101110322"><ele>229.0</ele><time>2026-04-10T17:01:06Z</time></trkpt><trkpt lat="45.12867670966925" lon="1.6837151444366107"><ele>231.0</ele><time>2026-04-10T17:01:07Z</time></trkpt><trkpt lat="45.12850922143231" lon="1.683929031379019"><ele>231.0</ele><time>2026-04-10T17:01:08Z</time></trkpt><trkpt lat="45.128306011021934" lon="1.684120063986421"><ele>231.0</ele><time>2026-04-10T17:01:09Z</time></trkpt><trkpt lat="45.12808500307214" lon="1.6843064101658416"><ele>232.33333333333331</ele><time>2026-04-10T17:01:10Z</time></trkpt><trkpt lat="45.12788964415821" lon="1.684484547736009"><ele>233.66666666666666</ele><time>2026-04-10T17:01:11Z</time></trkpt><trkpt lat="45.12771478012667" lon="1.6846545275077545"><ele>235.0</ele><time>2026-04-10T17:01:12Z</time></trkpt><trkpt lat="45.127542639982074" lon="1.684816342028699"><ele>233.66666666666666</ele><time>2026-04-10T17:01:13Z</time></trkpt><trkpt lat="45.127360229361344" lon="1.6849937177988545"><ele>232.33333333333331</ele><time>2026-04-10T17:01:14Z</time></trkpt><trkpt lat="45.12717896867818" lon="1.6851718318383389"><ele>231.0</ele><time>2026-04-10T17:01:15Z</time></trkpt><trkpt lat="45.12699836526398" lon="1.6853498391910526"><ele>231.0</ele><time>2026-04-10T17:01:16Z</time></trkpt><trkpt lat="45.126826591013085" lon="1.685529457076968"><ele>231.0</ele><time>2026-04-10T17:01:17Z</time></trkpt><trkpt lat="45.12668596761313" lon="1.685737688481057"><ele>231.0</ele><time>2026-04-10T17:01:18Z</time></trkpt><trkpt lat="45.12656745704029" lon="1.6860075335520384"><ele>237.5</ele><time>2026-04-10T17:01:19Z</time></trkpt><trkpt lat="45.12645789272906" lon="1.6863261738706166"><ele>244.0</ele><time>2026-04-10T17:01:20Z</time></trkpt><trkpt lat="45.126353953260214" lon="1.686625671013609"><ele>244.0</ele><time>2026-04-10T17:01:21Z</time></trkpt><trkpt lat="45.12623056745259" lon="1.6868675676400433"><ele>244.0</ele><time>2026-04-10T17:01:21.999Z</time></trkpt><trkpt lat="45.12608323555124" lon="1.6870761066346618"><ele>244.0</ele><time>2026-04-10T17:01:22.999Z</time></trkpt><trkpt lat="45.125919716550186" lon="1.687287512391211"><ele>239.5</ele><time>2026-04-10T17:01:23.999Z</time></trkpt><trkpt lat="45.12575486774839" lon="1.6875356483052344"><ele>235.0</ele><time>2026-04-10T17:01:24.999Z</time></trkpt><trkpt lat="45.12563480332307" lon="1.6878029334842668"><ele>242.33333333333331</ele><time>2026-04-10T17:01:25.999Z</time></trkpt><trkpt lat="45.12552973052711" lon="1.6880489220577992"><ele>249.66666666666669</ele><time>2026-04-10T17:01:26.999Z</time></trkpt><trkpt lat="45.1253941283536" lon="1.688266325090564"><ele>257.0</ele><time>2026-04-10T17:01:27.999Z</time></trkpt><trkpt lat="45.125214573230856" lon="1.6884603923620716"><ele>247.5</ele><time>2026-04-10T17:01:28.999Z</time></trkpt><trkpt lat="45.12505258099709" lon="1.6886826373763155"><ele>238.0</ele><time>2026-04-10T17:01:29.999Z</time></trkpt><trkpt lat="45.12490074622183" lon="1.6889282480258303"><ele>242.66666666666666</ele><time>2026-04-10T17:01:30.999Z</time></trkpt><trkpt lat="45.1247260677108" lon="1.6891398448247203"><ele>247.33333333333331</ele><time>2026-04-10T17:01:31.999Z</time></trkpt><trkpt lat="45.12455260498564" lon="1.689330703163562"><ele>252.0</ele><time>2026-04-10T17:01:32.999Z</time></trkpt><trkpt lat="45.124384744990856" lon="1.6895232905009372"><ele>252.0</ele><time>2026-04-10T17:01:33.999Z</time></trkpt><trkpt lat="45.1242374945076" lon="1.689756468455495"><ele>252.0</ele><time>2026-04-10T17:01:34.999Z</time></trkpt><trkpt lat="45.124110041196566" lon="1.6900273563058812"><ele>266.0</ele><time>2026-04-10T17:01:35.999Z</time></trkpt><trkpt lat="45.12402037775223" lon="1.690337964982509"><ele>280.0</ele><time>2026-04-10T17:01:36.999Z</time></trkpt><trkpt lat="45.1239402180884" lon="1.6906225792259602"><ele>280.0</ele><time>2026-04-10T17:01:37.999Z</time></trkpt><trkpt lat="45.12386147287691" lon="1.6909081964815984"><ele>280.0</ele><time>2026-04-10T17:01:38.999Z</time></trkpt><trkpt lat="45.12381000942224" lon="1.691235484694478"><ele>280.0</ele><time>2026-04-10T17:01:39.999Z</time></trkpt><trkpt lat="45.12381627130069" lon="1.6916149681143067"><ele>280.0</ele><time>2026-04-10T17:01:40.999Z</time></trkpt><trkpt lat="45.123845942222424" lon="1.6920160247939453"><ele>278.5</ele><time>2026-04-10T17:01:41.999Z</time></trkpt><trkpt lat="45.1238445606668" lon="1.6923932417360328"><ele>277.0</ele><time>2026-04-10T17:01:42.999Z</time></trkpt><trkpt lat="45.123827041489335" lon="1.6927308500733704"><ele>273.5</ele><time>2026-04-10T17:01:43.999Z</time></trkpt><trkpt lat="45.1237785906086" lon="1.6930726769681357"><ele>270.0</ele><time>2026-04-10T17:01:44.999Z</time></trkpt><trkpt lat="45.1237111079543" lon="1.693389370838608"><ele>266.6666666666667</ele><time>2026-04-10T17:01:45.999Z</time></trkpt><trkpt lat="45.12364446131012" lon="1.6936938994338417"><ele>263.33333333333337</ele><time>2026-04-10T17:01:46.999Z</time></trkpt><trkpt lat="45.12358936091919" lon="1.6939956727305205"><ele>260.0</ele><time>2026-04-10T17:01:47.999Z</time></trkpt><trkpt lat="45.12356037054689" lon="1.6943056724005978"><ele>260.6666666666667</ele><time>2026-04-10T17:01:48.999Z</time></trkpt><trkpt lat="45.123555503465795" lon="1.694594697175786"><ele>261.3333333333333</ele><time>2026-04-10T17:01:49.999Z</time></trkpt><trkpt lat="45.1235434063832" lon="1.6948645503020463"><ele>262.0</ele><time>2026-04-10T17:01:50.999Z</time></trkpt><trkpt lat="45.123508948054464" lon="1.6951095802137939"><ele>256.0</ele><time>2026-04-10T17:01:51.999Z</time></trkpt><trkpt lat="45.12340995270676" lon="1.6953818898881416"><ele>250.0</ele><time>2026-04-10T17:01:52.999Z</time></trkpt><trkpt lat="45.12325257881693" lon="1.6956566274040878"><ele>258.5</ele><time>2026-04-10T17:01:53.999Z</time></trkpt><trkpt lat="45.12310966983794" lon="1.6959411129181732"><ele>267.0</ele><time>2026-04-10T17:01:54.999Z</time></trkpt><trkpt lat="45.12297317699458" lon="1.6962288318728191"><ele>267.0</ele><time>2026-04-10T17:01:55.999Z</time></trkpt><trkpt lat="45.12283877818454" lon="1.6965264977725052"><ele>267.0</ele><time>2026-04-10T17:01:56.999Z</time></trkpt><trkpt lat="45.122715126978726" lon="1.6968162149325643"><ele>261.6666666666667</ele><time>2026-04-10T17:01:57.999Z</time></trkpt><trkpt lat="45.12259740904789" lon="1.6970821077130362"><ele>256.33333333333337</ele><time>2026-04-10T17:01:58.999Z</time></trkpt><trkpt lat="45.12247467011657" lon="1.6973319580318693"><ele>251.0</ele><time>2026-04-10T17:01:59.999Z</time></trkpt><trkpt lat="45.12233646456715" lon="1.6975829341751696"><ele>260.5</ele><time>2026-04-10T17:02:00.999Z</time></trkpt><trkpt lat="45.1221928324209" lon="1.6978398300762247"><ele>270.0</ele><time>2026-04-10T17:02:01.999Z</time></trkpt><trkpt lat="45.122059741154054" lon="1.6981120101846485"><ele>270.0</ele><time>2026-04-10T17:02:02.999Z</time></trkpt><trkpt lat="45.12194140462181" lon="1.698387908798328"><ele>270.0</ele><time>2026-04-10T17:02:03.999Z</time></trkpt><trkpt lat="45.12183802325561" lon="1.6986455328705674"><ele>270.0</ele><time>2026-04-10T17:02:04.999Z</time></trkpt><trkpt lat="45.12173369209333" lon="1.6988951534499226"><ele>271.5</ele><time>2026-04-10T17:02:05.999Z</time></trkpt><trkpt lat="45.12162960718608" lon="1.6991593298445524"><ele>273.0</ele><time>2026-04-10T17:02:06.999Z</time></trkpt><trkpt lat="45.12152141536219" lon="1.699491683357327"><ele>273.0</ele><time>2026-04-10T17:02:07.999Z</time></trkpt><trkpt lat="45.121407175193816" lon="1.6997898686910062"><ele>273.0</ele><time>2026-04-10T17:02:08.999Z</time></trkpt><trkpt lat="45.12128698996492" lon="1.7000687487703203"><ele>264.5</ele><time>2026-04-10T17:02:09.999Z</time></trkpt><trkpt lat="45.12115141810223" lon="1.7003378779680054"><ele>256.0</ele><time>2026-04-10T17:02:10.999Z</time></trkpt><trkpt lat="45.12100625337068" lon="1.7006046721264942"><ele>256.0</ele><time>2026-04-10T17:02:11.999Z</time></trkpt><trkpt lat="45.12086593668336" lon="1.7008522826322836"><ele>256.0</ele><time>2026-04-10T17:02:12.999Z</time></trkpt><trkpt lat="45.12074426261005" lon="1.701093242317961"><ele>256.0</ele><time>2026-04-10T17:02:13.999Z</time></trkpt><trkpt lat="45.12062562000026" lon="1.7013135895536156"><ele>256.0</ele><time>2026-04-10T17:02:14.999Z</time></trkpt><trkpt lat="45.12053672462532" lon="1.701540697679547"><ele>256.0</ele><time>2026-04-10T17:02:15.999Z</time></trkpt><trkpt lat="45.12045869615205" lon="1.7017592685753846"><ele>256.0</ele><time>2026-04-10T17:02:16.999Z</time></trkpt><trkpt lat="45.12036741505618" lon="1.7019828866735833"><ele>256.0</ele><time>2026-04-10T17:02:17.999Z</time></trkpt><trkpt lat="45.12027267243174" lon="1.7022133766908658"><ele>256.0</ele><time>2026-04-10T17:02:19Z</time></trkpt><trkpt lat="45.12017657262933" lon="1.7024500543126921"><ele>256.0</ele><time>2026-04-10T17:02:20Z</time></trkpt><trkpt lat="45.12008139533842" lon="1.7026768779981654"><ele>254.66666666666666</ele><time>2026-04-10T17:02:21Z</time></trkpt><trkpt lat="45.11999622679545" lon="1.7029102512747891"><ele>253.33333333333331</ele><time>2026-04-10T17:02:22Z</time></trkpt><trkpt lat="45.1199227155349" lon="1.7031128403245277"><ele>252.0</ele><time>2026-04-10T17:02:23Z</time></trkpt><trkpt lat="45.11985030210801" lon="1.7032942218365517"><ele>258.25</ele><time>2026-04-10T17:02:24Z</time></trkpt><trkpt lat="45.11983868170979" lon="1.703454967310576"><ele>264.5</ele><time>2026-04-10T17:02:25Z</time></trkpt><trkpt lat="45.119849039927395" lon="1.70359282239721"><ele>270.75</ele><time>2026-04-10T17:02:26Z</time></trkpt><trkpt lat="45.11984273342529" lon="1.7037585664104822"><ele>277.0</ele><time>2026-04-10T17:02:27Z</time></trkpt><trkpt lat="45.11985407638163" lon="1.7039619595814397"><ele>278.66666666666663</ele><time>2026-04-10T17:02:28Z</time></trkpt><trkpt lat="45.11987937559302" lon="1.7042009419359159"><ele>280.3333333333333</ele><time>2026-04-10T17:02:29Z</time></trkpt><trkpt lat="45.11990907699934" lon="1.7044967683420844"><ele>282.0</ele><time>2026-04-10T17:02:30Z</time></trkpt><trkpt lat="45.1199425281082" lon="1.7048341062779904"><ele>272.5</ele><time>2026-04-10T17:02:31Z</time></trkpt><trkpt lat="45.1199744970766" lon="1.705174655331326"><ele>263.0</ele><time>2026-04-10T17:02:32Z</time></trkpt><trkpt lat="45.119974348706364" lon="1.7055391540125648"><ele>262.0</ele><time>2026-04-10T17:02:33Z</time></trkpt><trkpt lat="45.11992824990259" lon="1.7059246665560022"><ele>261.0</ele><time>2026-04-10T17:02:34Z</time></trkpt><trkpt lat="45.119825312512724" lon="1.706259046888051"><ele>265.0</ele><time>2026-04-10T17:02:35Z</time></trkpt><trkpt lat="45.119670936187916" lon="1.7065380761156532"><ele>269.0</ele><time>2026-04-10T17:02:36Z</time></trkpt><trkpt lat="45.11948442571023" lon="1.706769684400689"><ele>266.0</ele><time>2026-04-10T17:02:37Z</time></trkpt><trkpt lat="45.11926642843456" lon="1.706932933973598"><ele>263.0</ele><time>2026-04-10T17:02:38Z</time></trkpt><trkpt lat="45.11909795164812" lon="1.7070684705380519"><ele>260.0</ele><time>2026-04-10T17:02:39Z</time></trkpt><trkpt lat="45.11896431624128" lon="1.7071845368232206"><ele>264.5</ele><time>2026-04-10T17:02:40Z</time></trkpt><trkpt lat="45.118847870391406" lon="1.7073245438869178"><ele>269.0</ele><time>2026-04-10T17:02:41Z</time></trkpt><trkpt lat="45.11875846734817" lon="1.7074816777677064"><ele>273.5</ele><time>2026-04-10T17:02:42Z</time></trkpt><trkpt lat="45.11871602740278" lon="1.7076871680631611"><ele>278.0</ele><time>2026-04-10T17:02:43Z</time></trkpt><trkpt lat="45.118719930729036" lon="1.7078895900056612"><ele>280.5</ele><time>2026-04-10T17:02:44Z</time></trkpt><trkpt lat="45.118776766862716" lon="1.7080604588740125"><ele>283.0</ele><time>2026-04-10T17:02:45Z</time></trkpt><trkpt lat="45.118843435798745" lon="1.7081808615971341"><ele>285.5</ele><time>2026-04-10T17:02:46Z</time></trkpt><trkpt lat="45.11896766411545" lon="1.7082879556816266"><ele>288.0</ele><time>2026-04-10T17:02:47Z</time></trkpt><trkpt lat="45.11907762667865" lon="1.7083618181801978"><ele>283.2</ele><time>2026-04-10T17:02:48Z</time></trkpt><trkpt lat="45.119192628423924" lon="1.7083617055391467"><ele>278.4</ele><time>2026-04-10T17:02:49Z</time></trkpt><trkpt lat="45.1193072614527" lon="1.7083724771791056"><ele>273.59999999999997</ele><time>2026-04-10T17:02:50Z</time></trkpt><trkpt lat="45.119398212495454" lon="1.7083127009449026"><ele>268.8</ele><time>2026-04-10T17:02:51Z</time></trkpt><trkpt lat="45.119463311602104" lon="1.7082584961682825"><ele>264.0</ele><time>2026-04-10T17:02:52Z</time></trkpt><trkpt lat="45.11950567164958" lon="1.7081776094298071"><ele>264.0</ele><time>2026-04-10T17:02:53Z</time></trkpt><trkpt lat="45.11958493711436" lon="1.7080416820012658"><ele>264.0</ele><time>2026-04-10T17:02:55Z</time></trkpt><trkpt lat="45.119634939082445" lon="1.7079617893889196"><ele>264.0</ele><time>2026-04-10T17:02:56Z</time></trkpt><trkpt lat="45.11968031926904" lon="1.7078884155115144"><ele>264.0</ele><time>2026-04-10T17:02:57Z</time></trkpt><trkpt lat="45.11972887629776" lon="1.707828578964559"><ele>264.0</ele><time>2026-04-10T17:02:58Z</time></trkpt><trkpt lat="45.11978760786769" lon="1.7077443288355276"><ele>264.0</ele><time>2026-04-10T17:02:59Z</time></trkpt><trkpt lat="45.11985042309362" lon="1.707658379394407"><ele>264.6666666666667</ele><time>2026-04-10T17:03:00Z</time></trkpt><trkpt lat="45.119914415027395" lon="1.7075671001216735"><ele>265.3333333333333</ele><time>2026-04-10T17:03:01Z</time></trkpt><trkpt lat="45.119970784527645" lon="1.707487707840426"><ele>266.0</ele><time>2026-04-10T17:03:02Z</time></trkpt><trkpt lat="45.120022898738426" lon="1.7074058137025259"><ele>266.66666666666663</ele><time>2026-04-10T17:03:03Z</time></trkpt><trkpt lat="45.120077043114556" lon="1.7073392904262592"><ele>267.3333333333333</ele><time>2026-04-10T17:03:04Z</time></trkpt><trkpt lat="45.12013882155725" lon="1.7072716831711532"><ele>268.0</ele><time>2026-04-10T17:03:05Z</time></trkpt><trkpt lat="45.12021920863637" lon="1.7071927802990319"><ele>268.0</ele><time>2026-04-10T17:03:06Z</time></trkpt><trkpt lat="45.12031643711" lon="1.7071276419365042"><ele>268.0</ele><time>2026-04-10T17:03:07Z</time></trkpt><trkpt lat="45.12042664658333" lon="1.707063604183272"><ele>268.0</ele><time>2026-04-10T17:03:08Z</time></trkpt><trkpt lat="45.12057418037198" lon="1.7069713702268006"><ele>268.0</ele><time>2026-04-10T17:03:09Z</time></trkpt><trkpt lat="45.12076913632079" lon="1.7068762659571755"><ele>269.0</ele><time>2026-04-10T17:03:10Z</time></trkpt><trkpt lat="45.12095558806546" lon="1.7067922188297668"><ele>270.0</ele><time>2026-04-10T17:03:11Z</time></trkpt><trkpt lat="45.12111594083214" lon="1.7067467453557545"><ele>271.0</ele><time>2026-04-10T17:03:12Z</time></trkpt><trkpt lat="45.12126986502787" lon="1.7067349701895067"><ele>271.0</ele><time>2026-04-10T17:03:13Z</time></trkpt><trkpt lat="45.12143053873093" lon="1.7067584678263248"><ele>271.0</ele><time>2026-04-10T17:03:14Z</time></trkpt><trkpt lat="45.121596694455214" lon="1.7068105841363055"><ele>271.0</ele><time>2026-04-10T17:03:15Z</time></trkpt><trkpt lat="45.12177584644613" lon="1.7069031313274567"><ele>284.0</ele><time>2026-04-10T17:03:16Z</time></trkpt><trkpt lat="45.1219685251027" lon="1.7070576785696683"><ele>297.0</ele><time>2026-04-10T17:03:17Z</time></trkpt><trkpt lat="45.12216803432469" lon="1.7072639321138283"><ele>297.0</ele><time>2026-04-10T17:03:18Z</time></trkpt><trkpt lat="45.12236667000289" lon="1.7074663552662166"><ele>297.0</ele><time>2026-04-10T17:03:19Z</time></trkpt><trkpt lat="45.122575104115654" lon="1.7076609176180122"><ele>304.0</ele><time>2026-04-10T17:03:20Z</time></trkpt><trkpt lat="45.122802263015934" lon="1.7078703301641813"><ele>311.0</ele><time>2026-04-10T17:03:21Z</time></trkpt><trkpt lat="45.123031046073145" lon="1.7080965534019596"><ele>298.5</ele><time>2026-04-10T17:03:22Z</time></trkpt><trkpt lat="45.1232610034391" lon="1.7083239247942978"><ele>286.0</ele><time>2026-04-10T17:03:23Z</time></trkpt><trkpt lat="45.12347712999726" lon="1.708557110938475"><ele>294.0</ele><time>2026-04-10T17:03:24Z</time></trkpt><trkpt lat="45.1236685348884" lon="1.7088244448644727"><ele>302.0</ele><time>2026-04-10T17:03:25Z</time></trkpt><trkpt lat="45.12382043712975" lon="1.709136938984753"><ele>306.5</ele><time>2026-04-10T17:03:26Z</time></trkpt><trkpt lat="45.12391392059724" lon="1.709453546024997"><ele>311.0</ele><time>2026-04-10T17:03:27Z</time></trkpt><trkpt lat="45.12396807627751" lon="1.7098122284133528"><ele>311.0</ele><time>2026-04-10T17:03:27.999Z</time></trkpt><trkpt lat="45.12394406055427" lon="1.7101853512887573"><ele>311.0</ele><time>2026-04-10T17:03:28.999Z</time></trkpt><trkpt lat="45.12388060531012" lon="1.7105626278863666"><ele>311.0</ele><time>2026-04-10T17:03:29.999Z</time></trkpt><trkpt lat="45.12380374420596" lon="1.7109407945876096"><ele>311.0</ele><time>2026-04-10T17:03:30.999Z</time></trkpt><trkpt lat="45.12373737365762" lon="1.711322991065298"><ele>311.5</ele><time>2026-04-10T17:03:31.999Z</time></trkpt><trkpt lat="45.12368112219423" lon="1.7116797725821407"><ele>312.0</ele><time>2026-04-10T17:03:32.999Z</time></trkpt><trkpt lat="45.12362070443891" lon="1.7119985972085168"><ele>312.0</ele><time>2026-04-10T17:03:33.999Z</time></trkpt><trkpt lat="45.12356366674579" lon="1.7122961880665595"><ele>312.0</ele><time>2026-04-10T17:03:34.999Z</time></trkpt><trkpt lat="45.123516640743915" lon="1.7125683782454515"><ele>312.0</ele><time>2026-04-10T17:03:35.999Z</time></trkpt><trkpt lat="45.123468514648955" lon="1.712844070576825"><ele>312.0</ele><time>2026-04-10T17:03:36.999Z</time></trkpt><trkpt lat="45.123414905462035" lon="1.7131240226863726"><ele>312.0</ele><time>2026-04-10T17:03:37.999Z</time></trkpt><trkpt lat="45.123364609417145" lon="1.7133914016878733"><ele>312.0</ele><time>2026-04-10T17:03:38.999Z</time></trkpt><trkpt lat="45.123323061776" lon="1.7136385674456756"><ele>311.6666666666667</ele><time>2026-04-10T17:03:39.999Z</time></trkpt><trkpt lat="45.12328181368876" lon="1.7138990439644155"><ele>311.33333333333337</ele><time>2026-04-10T17:03:40.999Z</time></trkpt><trkpt lat="45.12324066639514" lon="1.7141690061195953"><ele>311.0</ele><time>2026-04-10T17:03:41.999Z</time></trkpt><trkpt lat="45.1232181754576" lon="1.7144242024231282"><ele>321.33333333333337</ele><time>2026-04-10T17:03:42.999Z</time></trkpt><trkpt lat="45.123201973565735" lon="1.7146783660582439"><ele>331.6666666666667</ele><time>2026-04-10T17:03:43.999Z</time></trkpt><trkpt lat="45.12318393375265" lon="1.7149388273749366"><ele>342.0</ele><time>2026-04-10T17:03:44.999Z</time></trkpt><trkpt lat="45.123170305643484" lon="1.7152129531678597"><ele>343.6666666666667</ele><time>2026-04-10T17:03:45.999Z</time></trkpt><trkpt lat="45.123155780266636" lon="1.7154916147551957"><ele>345.33333333333337</ele><time>2026-04-10T17:03:46.999Z</time></trkpt><trkpt lat="45.12314214460201" lon="1.7157580125422431"><ele>347.0</ele><time>2026-04-10T17:03:47.999Z</time></trkpt><trkpt lat="45.12313017356406" lon="1.7160155735257674"><ele>350.33333333333337</ele><time>2026-04-10T17:03:48.999Z</time></trkpt><trkpt lat="45.123123756141695" lon="1.7162706276521307"><ele>353.6666666666667</ele><time>2026-04-10T17:03:49.999Z</time></trkpt><trkpt lat="45.12311687249736" lon="1.7165227345581326"><ele>357.0</ele><time>2026-04-10T17:03:50.999Z</time></trkpt><trkpt lat="45.123106668933225" lon="1.7167733775098644"><ele>358.3333333333333</ele><time>2026-04-10T17:03:51.999Z</time></trkpt><trkpt lat="45.12309485862716" lon="1.7170433073644715"><ele>359.66666666666663</ele><time>2026-04-10T17:03:52.999Z</time></trkpt><trkpt lat="45.12309974090582" lon="1.7173343030669015"><ele>361.0</ele><time>2026-04-10T17:03:53.999Z</time></trkpt><trkpt lat="45.123127811720465" lon="1.7175768084923477"><ele>361.75</ele><time>2026-04-10T17:03:54.999Z</time></trkpt><trkpt lat="45.12316648912035" lon="1.7177655034457877"><ele>362.5</ele><time>2026-04-10T17:03:55.999Z</time></trkpt><trkpt lat="45.12322954119257" lon="1.7179196467485702"><ele>363.25</ele><time>2026-04-10T17:03:56.999Z</time></trkpt><trkpt lat="45.1233517274905" lon="1.7180361959073256"><ele>364.0</ele><time>2026-04-10T17:03:57.999Z</time></trkpt><trkpt lat="45.12349399801949" lon="1.7180620742788237"><ele>356.3333333333333</ele><time>2026-04-10T17:03:58.999Z</time></trkpt><trkpt lat="45.12363494354595" lon="1.7179940738024382"><ele>348.6666666666667</ele><time>2026-04-10T17:03:59.999Z</time></trkpt><trkpt lat="45.12373691275813" lon="1.7178741897548218"><ele>341.0</ele><time>2026-04-10T17:04:00.999Z</time></trkpt><trkpt lat="45.12380946389214" lon="1.717645688363663"><ele>338.6666666666667</ele><time>2026-04-10T17:04:01.999Z</time></trkpt><trkpt lat="45.12385452297386" lon="1.717390846272404"><ele>336.3333333333333</ele><time>2026-04-10T17:04:02.999Z</time></trkpt><trkpt lat="45.12392272957023" lon="1.7171095173228872"><ele>334.0</ele><time>2026-04-10T17:04:03.999Z</time></trkpt><trkpt lat="45.12396589247729" lon="1.7168057882287782"><ele>336.66666666666663</ele><time>2026-04-10T17:04:04.999Z</time></trkpt><trkpt lat="45.12403965068298" lon="1.7165871230799419"><ele>339.3333333333333</ele><time>2026-04-10T17:04:05.999Z</time></trkpt><trkpt lat="45.12412850457436" lon="1.7164220967222283"><ele>342.0</ele><time>2026-04-10T17:04:06.999Z</time></trkpt><trkpt lat="45.12427042290693" lon="1.7163130019796617"><ele>342.0</ele><time>2026-04-10T17:04:07.999Z</time></trkpt><trkpt lat="45.124437586692835" lon="1.7162709128391713"><ele>342.0</ele><time>2026-04-10T17:04:08.999Z</time></trkpt><trkpt lat="45.124637419840084" lon="1.716300443737011"><ele>342.0</ele><time>2026-04-10T17:04:09.999Z</time></trkpt><trkpt lat="45.12483082792209" lon="1.71627461459375"><ele>342.6666666666667</ele><time>2026-04-10T17:04:10.999Z</time></trkpt><trkpt lat="45.12499194397586" lon="1.7162027526449333"><ele>343.33333333333337</ele><time>2026-04-10T17:04:11.999Z</time></trkpt><trkpt lat="45.12512653159121" lon="1.7160872242163145"><ele>344.0</ele><time>2026-04-10T17:04:12.999Z</time></trkpt><trkpt lat="45.125199170671834" lon="1.7159015953140253"><ele>344.0</ele><time>2026-04-10T17:04:13.999Z</time></trkpt><trkpt lat="45.125220704699565" lon="1.7156486453736226"><ele>344.0</ele><time>2026-04-10T17:04:14.999Z</time></trkpt><trkpt lat="45.1251999968902" lon="1.7153970348918066"><ele>344.0</ele><time>2026-04-10T17:04:15.999Z</time></trkpt><trkpt lat="45.12515741879114" lon="1.7151979019792571"><ele>342.5</ele><time>2026-04-10T17:04:16.999Z</time></trkpt><trkpt lat="45.12513737487509" lon="1.7150256083455666"><ele>341.0</ele><time>2026-04-10T17:04:17.999Z</time></trkpt><trkpt lat="45.125145282812" lon="1.7148535458412202"><ele>339.5</ele><time>2026-04-10T17:04:18.999Z</time></trkpt><trkpt lat="45.12518134082453" lon="1.7146845660606684"><ele>338.0</ele><time>2026-04-10T17:04:19.999Z</time></trkpt><trkpt lat="45.12523429646616" lon="1.7145499749240518"><ele>338.0</ele><time>2026-04-10T17:04:20.999Z</time></trkpt><trkpt lat="45.12531202558794" lon="1.714434811688874"><ele>338.0</ele><time>2026-04-10T17:04:21.999Z</time></trkpt><trkpt lat="45.12541111622916" lon="1.7143225283143404"><ele>338.0</ele><time>2026-04-10T17:04:22.999Z</time></trkpt><trkpt lat="45.12551320492696" lon="1.7142354960257038"><ele>338.0</ele><time>2026-04-10T17:04:23.999Z</time></trkpt><trkpt lat="45.12563849899803" lon="1.7141953072296288"><ele>340.0</ele><time>2026-04-10T17:04:25Z</time></trkpt><trkpt lat="45.12577075742942" lon="1.7141869123820979"><ele>342.0</ele><time>2026-04-10T17:04:26Z</time></trkpt><trkpt lat="45.125907656877004" lon="1.71420558435545"><ele>344.0</ele><time>2026-04-10T17:04:27Z</time></trkpt><trkpt lat="45.126031704721576" lon="1.714256330381011"><ele>346.0</ele><time>2026-04-10T17:04:28Z</time></trkpt><trkpt lat="45.12614344826274" lon="1.7143346485768347"><ele>348.75</ele><time>2026-04-10T17:04:29Z</time></trkpt><trkpt lat="45.1262461418598" lon="1.7144407414158667"><ele>351.5</ele><time>2026-04-10T17:04:30Z</time></trkpt><trkpt lat="45.126315473391536" lon="1.7145895092438435"><ele>354.25</ele><time>2026-04-10T17:04:31Z</time></trkpt><trkpt lat="45.12637888349983" lon="1.7147361059234318"><ele>357.0</ele><time>2026-04-10T17:04:32Z</time></trkpt><trkpt lat="45.12641460887902" lon="1.7149261247532799"><ele>357.0</ele><time>2026-04-10T17:04:33Z</time></trkpt><trkpt lat="45.12644168607574" lon="1.7150982571354318"><ele>357.0</ele><time>2026-04-10T17:04:34Z</time></trkpt><trkpt lat="45.126474080138685" lon="1.7152250486963827"><ele>357.0</ele><time>2026-04-10T17:04:35Z</time></trkpt><trkpt lat="45.12653572832272" lon="1.7153413918072624"><ele>357.0</ele><time>2026-04-10T17:04:36Z</time></trkpt><trkpt lat="45.126617177450385" lon="1.715452081702366"><ele>357.0</ele><time>2026-04-10T17:04:37Z</time></trkpt><trkpt lat="45.12672170661806" lon="1.7155681211463132"><ele>357.0</ele><time>2026-04-10T17:04:38Z</time></trkpt><trkpt lat="45.12681815842866" lon="1.7156635407492802"><ele>357.0</ele><time>2026-04-10T17:04:39Z</time></trkpt><trkpt lat="45.12689073479687" lon="1.7157468810334673"><ele>357.0</ele><time>2026-04-10T17:04:40Z</time></trkpt><trkpt lat="45.12692576907856" lon="1.7158353294903803"><ele>357.0</ele><time>2026-04-10T17:04:41Z</time></trkpt><trkpt lat="45.12695430710283" lon="1.7159224622204634"><ele>357.0</ele><time>2026-04-10T17:04:42Z</time></trkpt><trkpt lat="45.12696449778462" lon="1.716048318272304"><ele>357.0</ele><time>2026-04-10T17:04:43Z</time></trkpt><trkpt lat="45.12693443838408" lon="1.7161731904753772"><ele>358.40000000000003</ele><time>2026-04-10T17:04:44Z</time></trkpt><trkpt lat="45.126910015225505" lon="1.71627346305432"><ele>359.8</ele><time>2026-04-10T17:04:45Z</time></trkpt><trkpt lat="45.12691632092139" lon="1.7163883193436444"><ele>361.2</ele><time>2026-04-10T17:04:46Z</time></trkpt><trkpt lat="45.126965623530076" lon="1.71646748188393"><ele>362.6</ele><time>2026-04-10T17:04:47Z</time></trkpt><trkpt lat="45.127110658355576" lon="1.716437402238359"><ele>364.0</ele><time>2026-04-10T17:04:49Z</time></trkpt><trkpt lat="45.127147645578894" lon="1.716323479386522"><ele>364.0</ele><time>2026-04-10T17:04:50Z</time></trkpt><trkpt lat="45.12711634777614" lon="1.7161971011728063"><ele>364.0</ele><time>2026-04-10T17:04:51Z</time></trkpt><trkpt lat="45.127078717479776" lon="1.7160767513973658"><ele>364.0</ele><time>2026-04-10T17:04:53Z</time></trkpt><trkpt lat="45.12694981379221" lon="1.7161359359627115"><ele>364.0</ele><time>2026-04-10T17:04:54Z</time></trkpt><trkpt lat="45.12691128098973" lon="1.716211961790841"><ele>364.0</ele><time>2026-04-10T17:04:55Z</time></trkpt><trkpt lat="45.12687450006738" lon="1.7162965967978239"><ele>364.0</ele><time>2026-04-10T17:04:56Z</time></trkpt><trkpt lat="45.126921122321264" lon="1.716512796758457"><ele>364.0</ele><time>2026-04-10T17:04:57Z</time></trkpt><trkpt lat="45.12693078631772" lon="1.7167065678891906"><ele>364.0</ele><time>2026-04-10T17:04:58Z</time></trkpt><trkpt lat="45.126864304661034" lon="1.7168927861465324"><ele>364.0</ele><time>2026-04-10T17:04:59Z</time></trkpt><trkpt lat="45.12676312258623" lon="1.7170841523249405"><ele>364.75</ele><time>2026-04-10T17:05:00Z</time></trkpt><trkpt lat="45.12667232042475" lon="1.7172584706689578"><ele>365.5</ele><time>2026-04-10T17:05:01Z</time></trkpt><trkpt lat="45.12657236516865" lon="1.7174131870012406"><ele>366.25</ele><time>2026-04-10T17:05:02Z</time></trkpt><trkpt lat="45.12647648740218" lon="1.7175601745823674"><ele>367.0</ele><time>2026-04-10T17:05:03Z</time></trkpt><trkpt lat="45.126421171938894" lon="1.717730694559427"><ele>372.3333333333333</ele><time>2026-04-10T17:05:04Z</time></trkpt><trkpt lat="45.126377959279694" lon="1.7179260675933377"><ele>377.6666666666667</ele><time>2026-04-10T17:05:05Z</time></trkpt><trkpt lat="45.12635402907938" lon="1.7181400402451028"><ele>383.0</ele><time>2026-04-10T17:05:06Z</time></trkpt><trkpt lat="45.12635337075434" lon="1.7183795716334873"><ele>384.25</ele><time>2026-04-10T17:05:07Z</time></trkpt><trkpt lat="45.126353721170865" lon="1.718599764459654"><ele>385.5</ele><time>2026-04-10T17:05:08Z</time></trkpt><trkpt lat="45.126347471751934" lon="1.718799442522543"><ele>386.75</ele><time>2026-04-10T17:05:09Z</time></trkpt><trkpt lat="45.12634114700398" lon="1.7190023002869312"><ele>388.0</ele><time>2026-04-10T17:05:10Z</time></trkpt><trkpt lat="45.12633108710457" lon="1.719248426331827"><ele>387.0</ele><time>2026-04-10T17:05:11Z</time></trkpt><trkpt lat="45.12631968423642" lon="1.7195377834318957"><ele>386.0</ele><time>2026-04-10T17:05:12Z</time></trkpt><trkpt lat="45.12630915731056" lon="1.7197944632285893"><ele>385.0</ele><time>2026-04-10T17:05:13Z</time></trkpt><trkpt lat="45.12629335636425" lon="1.720020957490879"><ele>385.0</ele><time>2026-04-10T17:05:14Z</time></trkpt><trkpt lat="45.12627044985433" lon="1.7202232006263105"><ele>385.0</ele><time>2026-04-10T17:05:15Z</time></trkpt><trkpt lat="45.12623117133981" lon="1.7204196810028547"><ele>385.0</ele><time>2026-04-10T17:05:16Z</time></trkpt><trkpt lat="45.12617858891961" lon="1.720618289315288"><ele>385.0</ele><time>2026-04-10T17:05:17Z</time></trkpt><trkpt lat="45.12609141472085" lon="1.7207978207632106"><ele>384.25</ele><time>2026-04-10T17:05:18Z</time></trkpt><trkpt lat="45.126010659371275" lon="1.7209404825913706"><ele>383.5</ele><time>2026-04-10T17:05:19Z</time></trkpt><trkpt lat="45.125907423791325" lon="1.7210537224694697"><ele>382.75</ele><time>2026-04-10T17:05:20Z</time></trkpt><trkpt lat="45.12577344516282" lon="1.7211709298073705"><ele>382.0</ele><time>2026-04-10T17:05:21Z</time></trkpt><trkpt lat="45.12563161512283" lon="1.721249280108477"><ele>385.0</ele><time>2026-04-10T17:05:22Z</time></trkpt><trkpt lat="45.12550791498963" lon="1.7213463181717201"><ele>388.0</ele><time>2026-04-10T17:05:23Z</time></trkpt><trkpt lat="45.125397164371165" lon="1.721444313212791"><ele>391.0</ele><time>2026-04-10T17:05:24Z</time></trkpt><trkpt lat="45.12530489349782" lon="1.7215450093117945"><ele>394.0</ele><time>2026-04-10T17:05:25Z</time></trkpt><trkpt lat="45.125225362176444" lon="1.7216720425630834"><ele>394.0</ele><time>2026-04-10T17:05:26Z</time></trkpt><trkpt lat="45.12516955052848" lon="1.7218287790891793"><ele>394.0</ele><time>2026-04-10T17:05:27Z</time></trkpt><trkpt lat="45.125124695189896" lon="1.7219861537476255"><ele>394.0</ele><time>2026-04-10T17:05:28Z</time></trkpt><trkpt lat="45.1250985691181" lon="1.7221462246971149"><ele>394.0</ele><time>2026-04-10T17:05:29Z</time></trkpt><trkpt lat="45.12508180718372" lon="1.7223164964601196"><ele>394.25</ele><time>2026-04-10T17:05:30Z</time></trkpt><trkpt lat="45.12507757530018" lon="1.7224982393065695"><ele>394.5</ele><time>2026-04-10T17:05:31Z</time></trkpt><trkpt lat="45.12508911148274" lon="1.722673869206741"><ele>394.75</ele><time>2026-04-10T17:05:32Z</time></trkpt><trkpt lat="45.125099034274605" lon="1.722849914671242"><ele>395.0</ele><time>2026-04-10T17:05:33Z</time></trkpt><trkpt lat="45.12510472742618" lon="1.7230208448911477"><ele>396.0</ele><time>2026-04-10T17:05:33.999Z</time></trkpt><trkpt lat="45.1251098370725" lon="1.723194122231529"><ele>397.0</ele><time>2026-04-10T17:05:34.999Z</time></trkpt><trkpt lat="45.12511447777769" lon="1.723363912237048"><ele>398.0</ele><time>2026-04-10T17:05:35.999Z</time></trkpt><trkpt lat="45.125121559716085" lon="1.7235192781414679"><ele>399.0</ele><time>2026-04-10T17:05:36.999Z</time></trkpt><trkpt lat="45.12512316730868" lon="1.7236652492509577"><ele>399.25</ele><time>2026-04-10T17:05:37.999Z</time></trkpt><trkpt lat="45.1251277190887" lon="1.7238240166225995"><ele>399.5</ele><time>2026-04-10T17:05:38.999Z</time></trkpt><trkpt lat="45.12513227046549" lon="1.723990189305387"><ele>399.75</ele><time>2026-04-10T17:05:39.999Z</time></trkpt><trkpt lat="45.12514204255115" lon="1.7241553137688876"><ele>400.0</ele><time>2026-04-10T17:05:40.999Z</time></trkpt><trkpt lat="45.12514723591058" lon="1.724325806455358"><ele>400.5</ele><time>2026-04-10T17:05:41.999Z</time></trkpt><trkpt lat="45.12515397080927" lon="1.7245018157753222"><ele>401.0</ele><time>2026-04-10T17:05:42.999Z</time></trkpt><trkpt lat="45.12516679496213" lon="1.7246829823373753"><ele>401.5</ele><time>2026-04-10T17:05:43.999Z</time></trkpt><trkpt lat="45.125186357511915" lon="1.7248469599315375"><ele>402.0</ele><time>2026-04-10T17:05:44.999Z</time></trkpt><trkpt lat="45.125219356370025" lon="1.7249954255306341"><ele>402.0</ele><time>2026-04-10T17:05:45.999Z</time></trkpt><trkpt lat="45.12526132665416" lon="1.7251527828226823"><ele>402.0</ele><time>2026-04-10T17:05:46.999Z</time></trkpt><trkpt lat="45.12530441423995" lon="1.7253018340742832"><ele>402.0</ele><time>2026-04-10T17:05:47.999Z</time></trkpt><trkpt lat="45.12533806862004" lon="1.7254387812783059"><ele>402.0</ele><time>2026-04-10T17:05:48.999Z</time></trkpt><trkpt lat="45.1253744556574" lon="1.7255558668643185"><ele>402.0</ele><time>2026-04-10T17:05:49.999Z</time></trkpt><trkpt lat="45.12541624444819" lon="1.7256492845478206"><ele>402.20000000000005</ele><time>2026-04-10T17:05:50.999Z</time></trkpt><trkpt lat="45.12538154106045" lon="1.7257987945119218"><ele>402.4</ele><time>2026-04-10T17:05:52.999Z</time></trkpt><trkpt lat="45.125362786863505" lon="1.7259123338194784"><ele>402.6</ele><time>2026-04-10T17:05:53.999Z</time></trkpt><trkpt lat="45.12534966477541" lon="1.7260341426143124"><ele>402.79999999999995</ele><time>2026-04-10T17:05:54.999Z</time></trkpt><trkpt lat="45.125334621832096" lon="1.7261707203899852"><ele>403.0</ele><time>2026-04-10T17:05:55.999Z</time></trkpt><trkpt lat="45.125302521990406" lon="1.7263112164708752"><ele>403.0</ele><time>2026-04-10T17:05:56.999Z</time></trkpt><trkpt lat="45.12525435081534" lon="1.7264651245846745"><ele>403.0</ele><time>2026-04-10T17:05:57.999Z</time></trkpt><trkpt lat="45.125186954399275" lon="1.726638430842596"><ele>403.0</ele><time>2026-04-10T17:05:58.999Z</time></trkpt><trkpt lat="45.12511217949778" lon="1.7267985030881199"><ele>403.0</ele><time>2026-04-10T17:05:59.999Z</time></trkpt><trkpt lat="45.12502427121541" lon="1.7269377273150024"><ele>403.75</ele><time>2026-04-10T17:06:00.999Z</time></trkpt><trkpt lat="45.12492100217092" lon="1.727070024721842"><ele>404.5</ele><time>2026-04-10T17:06:01.999Z</time></trkpt><trkpt lat="45.124824012302795" lon="1.727193299727983"><ele>405.25</ele><time>2026-04-10T17:06:02.999Z</time></trkpt><trkpt lat="45.12472299231308" lon="1.7272991335528372"><ele>406.0</ele><time>2026-04-10T17:06:03.999Z</time></trkpt><trkpt lat="45.124618205461815" lon="1.7274205943859309"><ele>406.0</ele><time>2026-04-10T17:06:04.999Z</time></trkpt><trkpt lat="45.12451704324135" lon="1.7275460170142287"><ele>406.0</ele><time>2026-04-10T17:06:05.999Z</time></trkpt><trkpt lat="45.1244271637411" lon="1.727668234739097"><ele>406.0</ele><time>2026-04-10T17:06:06.999Z</time></trkpt><trkpt lat="45.124352378463264" lon="1.7278012140720866"><ele>406.0</ele><time>2026-04-10T17:06:07.999Z</time></trkpt><trkpt lat="45.12429655310276" lon="1.7279490482283568"><ele>406.0</ele><time>2026-04-10T17:06:08.999Z</time></trkpt><trkpt lat="45.12425114066416" lon="1.7281121553965888"><ele>406.0</ele><time>2026-04-10T17:06:09.999Z</time></trkpt><trkpt lat="45.12422022169513" lon="1.7282938158111085"><ele>406.0</ele><time>2026-04-10T17:06:10.999Z</time></trkpt><trkpt lat="45.12419945285598" lon="1.7285239049740964"><ele>406.0</ele><time>2026-04-10T17:06:11.999Z</time></trkpt><trkpt lat="45.124193094819745" lon="1.7287933051188626"><ele>406.0</ele><time>2026-04-10T17:06:12.999Z</time></trkpt><trkpt lat="45.12418711779897" lon="1.7290779660675815"><ele>406.0</ele><time>2026-04-10T17:06:13.999Z</time></trkpt><trkpt lat="45.124176759711716" lon="1.7293382803960933"><ele>406.0</ele><time>2026-04-10T17:06:14.999Z</time></trkpt><trkpt lat="45.124168700595966" lon="1.7295758782927613"><ele>405.75</ele><time>2026-04-10T17:06:15.999Z</time></trkpt><trkpt lat="45.12415797971881" lon="1.729793491002485"><ele>405.5</ele><time>2026-04-10T17:06:16.999Z</time></trkpt><trkpt lat="45.12415520131649" lon="1.7299881066611256"><ele>405.25</ele><time>2026-04-10T17:06:17.999Z</time></trkpt><trkpt lat="45.12417273755501" lon="1.7301565317170775"><ele>405.0</ele><time>2026-04-10T17:06:18.999Z</time></trkpt><trkpt lat="45.124210347118584" lon="1.730304126683957"><ele>406.25</ele><time>2026-04-10T17:06:19.999Z</time></trkpt><trkpt lat="45.124278109461144" lon="1.7304524531814733"><ele>407.5</ele><time>2026-04-10T17:06:20.999Z</time></trkpt><trkpt lat="45.12438704882722" lon="1.7305876673245226"><ele>408.75</ele><time>2026-04-10T17:06:21.999Z</time></trkpt><trkpt lat="45.124522002746545" lon="1.7306814497687568"><ele>410.0</ele><time>2026-04-10T17:06:22.999Z</time></trkpt><trkpt lat="45.12466941781749" lon="1.7307182696971588"><ele>410.0</ele><time>2026-04-10T17:06:23.999Z</time></trkpt><trkpt lat="45.12482557575402" lon="1.730716441038638"><ele>410.0</ele><time>2026-04-10T17:06:24.999Z</time></trkpt><trkpt lat="45.12496354485185" lon="1.7307047989177469"><ele>410.0</ele><time>2026-04-10T17:06:25.999Z</time></trkpt><trkpt lat="45.12510926741224" lon="1.7307339624043885"><ele>410.0</ele><time>2026-04-10T17:06:26.999Z</time></trkpt><trkpt lat="45.12524738355164" lon="1.7307658596459092"><ele>408.75</ele><time>2026-04-10T17:06:27.999Z</time></trkpt><trkpt lat="45.1253713648372" lon="1.7308325404691327"><ele>407.5</ele><time>2026-04-10T17:06:28.999Z</time></trkpt><trkpt lat="45.125492376281706" lon="1.7309540637002516"><ele>406.25</ele><time>2026-04-10T17:06:29.999Z</time></trkpt><trkpt lat="45.125606129904924" lon="1.731123024912796"><ele>405.0</ele><time>2026-04-10T17:06:31Z</time></trkpt><trkpt lat="45.12569085701351" lon="1.731339698184174"><ele>404.0</ele><time>2026-04-10T17:06:32Z</time></trkpt><trkpt lat="45.12573028903003" lon="1.7315681597307004"><ele>403.0</ele><time>2026-04-10T17:06:33Z</time></trkpt><trkpt lat="45.125720414971894" lon="1.731794840709861"><ele>402.0</ele><time>2026-04-10T17:06:34Z</time></trkpt><trkpt lat="45.12570466241178" lon="1.7320104287577074"><ele>403.0</ele><time>2026-04-10T17:06:35Z</time></trkpt><trkpt lat="45.12569836155137" lon="1.7322114379960898"><ele>404.0</ele><time>2026-04-10T17:06:36Z</time></trkpt><trkpt lat="45.12570120489827" lon="1.732415533711697"><ele>405.0</ele><time>2026-04-10T17:06:37Z</time></trkpt><trkpt lat="45.125739408807846" lon="1.7326337029105208"><ele>406.0</ele><time>2026-04-10T17:06:38Z</time></trkpt><trkpt lat="45.1258177930974" lon="1.7328487861760449"><ele>409.6666666666667</ele><time>2026-04-10T17:06:39Z</time></trkpt><trkpt lat="45.12594826135154" lon="1.7330451436351912"><ele>413.33333333333337</ele><time>2026-04-10T17:06:40Z</time></trkpt><trkpt lat="45.126117563546025" lon="1.7332140735911294"><ele>417.0</ele><time>2026-04-10T17:06:41Z</time></trkpt><trkpt lat="45.12628693969913" lon="1.7333640299117816"><ele>417.0</ele><time>2026-04-10T17:06:42Z</time></trkpt><trkpt lat="45.12639773040337" lon="1.7335384508135727"><ele>417.0</ele><time>2026-04-10T17:06:43Z</time></trkpt><trkpt lat="45.126493183110895" lon="1.7337219230327718"><ele>417.0</ele><time>2026-04-10T17:06:44Z</time></trkpt><trkpt lat="45.12657003163885" lon="1.7339482490540725"><ele>414.0</ele><time>2026-04-10T17:06:45Z</time></trkpt><trkpt lat="45.126609727573125" lon="1.7341937360307271"><ele>411.0</ele><time>2026-04-10T17:06:46Z</time></trkpt><trkpt lat="45.1266149375925" lon="1.7344441368202002"><ele>408.0</ele><time>2026-04-10T17:06:47Z</time></trkpt><trkpt lat="45.12658905136905" lon="1.7346807912842903"><ele>411.0</ele><time>2026-04-10T17:06:48Z</time></trkpt><trkpt lat="45.126525158885464" lon="1.7348923339149733"><ele>414.0</ele><time>2026-04-10T17:06:49Z</time></trkpt><trkpt lat="45.12642484645505" lon="1.7350883379527773"><ele>417.0</ele><time>2026-04-10T17:06:50Z</time></trkpt><trkpt lat="45.12629540059658" lon="1.735257292315329"><ele>417.0</ele><time>2026-04-10T17:06:51Z</time></trkpt><trkpt lat="45.126175065315266" lon="1.7354486583938482"><ele>417.0</ele><time>2026-04-10T17:06:52Z</time></trkpt><trkpt lat="45.126061792570574" lon="1.73561609594819"><ele>417.0</ele><time>2026-04-10T17:06:53Z</time></trkpt><trkpt lat="45.12596602440653" lon="1.735819378143786"><ele>417.0</ele><time>2026-04-10T17:06:54Z</time></trkpt><trkpt lat="45.125903390031255" lon="1.736030301171348"><ele>417.0</ele><time>2026-04-10T17:06:55Z</time></trkpt><trkpt lat="45.125857719418875" lon="1.7362186127787838"><ele>417.0</ele><time>2026-04-10T17:06:56Z</time></trkpt><trkpt lat="45.12582129350955" lon="1.7363926100797056"><ele>417.0</ele><time>2026-04-10T17:06:57Z</time></trkpt><trkpt lat="45.12579286482363" lon="1.7365756582331116"><ele>417.0</ele><time>2026-04-10T17:06:58Z</time></trkpt><trkpt lat="45.12584163708444" lon="1.7367768119232525"><ele>417.0</ele><time>2026-04-10T17:06:59Z</time></trkpt><trkpt lat="45.1259241871785" lon="1.7369528145052393"><ele>417.0</ele><time>2026-04-10T17:07:00Z</time></trkpt><trkpt lat="45.126028629566484" lon="1.737084028358179"><ele>417.0</ele><time>2026-04-10T17:07:01Z</time></trkpt><trkpt lat="45.12616153320137" lon="1.7371720689170604"><ele>420.66666666666663</ele><time>2026-04-10T17:07:02Z</time></trkpt><trkpt lat="45.126334020862565" lon="1.737198572528725"><ele>424.3333333333333</ele><time>2026-04-10T17:07:03Z</time></trkpt><trkpt lat="45.126530251320595" lon="1.7371786337408295"><ele>428.0</ele><time>2026-04-10T17:07:04Z</time></trkpt><trkpt lat="45.12674171317749" lon="1.7371471485397936"><ele>428.3333333333333</ele><time>2026-04-10T17:07:05Z</time></trkpt><trkpt lat="45.126958516116844" lon="1.7371686407661522"><ele>428.66666666666663</ele><time>2026-04-10T17:07:06Z</time></trkpt><trkpt lat="45.127183117540504" lon="1.7371972795611477"><ele>429.0</ele><time>2026-04-10T17:07:07Z</time></trkpt><trkpt lat="45.127398389689034" lon="1.7372543453190652"><ele>426.5</ele><time>2026-04-10T17:07:08Z</time></trkpt><trkpt lat="45.12762446675349" lon="1.7373364137052043"><ele>424.0</ele><time>2026-04-10T17:07:09Z</time></trkpt><trkpt lat="45.127860724503996" lon="1.73744978319549"><ele>424.0</ele><time>2026-04-10T17:07:10Z</time></trkpt><trkpt lat="45.12809867693709" lon="1.737578051180764"><ele>424.0</ele><time>2026-04-10T17:07:11Z</time></trkpt><trkpt lat="45.12830050701256" lon="1.73772706817547"><ele>427.33333333333337</ele><time>2026-04-10T17:07:12Z</time></trkpt><trkpt lat="45.12846011156844" lon="1.7378883757146908"><ele>430.66666666666663</ele><time>2026-04-10T17:07:13Z</time></trkpt><trkpt lat="45.12859125937891" lon="1.7380674373063936"><ele>434.0</ele><time>2026-04-10T17:07:14Z</time></trkpt><trkpt lat="45.128697683158755" lon="1.738291658248974"><ele>439.66666666666663</ele><time>2026-04-10T17:07:15Z</time></trkpt><trkpt lat="45.1287808680575" lon="1.738552039859884"><ele>445.33333333333337</ele><time>2026-04-10T17:07:16Z</time></trkpt><trkpt lat="45.12884031227495" lon="1.73882682301648"><ele>451.0</ele><time>2026-04-10T17:07:17Z</time></trkpt><trkpt lat="45.12888270299344" lon="1.7391284394610982"><ele>453.5</ele><time>2026-04-10T17:07:18Z</time></trkpt><trkpt lat="45.12889933446986" lon="1.7394615209473254"><ele>456.0</ele><time>2026-04-10T17:07:19Z</time></trkpt><trkpt lat="45.12886493137659" lon="1.7398102227875802"><ele>456.0</ele><time>2026-04-10T17:07:20Z</time></trkpt><trkpt lat="45.12878671962519" lon="1.7401846550743314"><ele>456.0</ele><time>2026-04-10T17:07:21Z</time></trkpt><trkpt lat="45.128770666787766" lon="1.7405623348686539"><ele>456.5</ele><time>2026-04-10T17:07:22Z</time></trkpt><trkpt lat="45.12874137200245" lon="1.740930186246816"><ele>457.0</ele><time>2026-04-10T17:07:23Z</time></trkpt><trkpt lat="45.1286150203425" lon="1.7411969642769296"><ele>453.0</ele><time>2026-04-10T17:07:24Z</time></trkpt><trkpt lat="45.12847789247183" lon="1.7414625040286942"><ele>449.0</ele><time>2026-04-10T17:07:25Z</time></trkpt><trkpt lat="45.12835964770683" lon="1.7417628221261017"><ele>445.5</ele><time>2026-04-10T17:07:26Z</time></trkpt><trkpt lat="45.12824957375718" lon="1.7421053019286104"><ele>442.0</ele><time>2026-04-10T17:07:27Z</time></trkpt><trkpt lat="45.12821066605948" lon="1.7424743621828531"><ele>444.5</ele><time>2026-04-10T17:07:28Z</time></trkpt><trkpt lat="45.12823887655091" lon="1.74282999487649"><ele>447.0</ele><time>2026-04-10T17:07:29Z</time></trkpt><trkpt lat="45.128334105087454" lon="1.7431982867768572"><ele>447.0</ele><time>2026-04-10T17:07:30Z</time></trkpt><trkpt lat="45.12846039031947" lon="1.7435363295831514"><ele>447.0</ele><time>2026-04-10T17:07:31Z</time></trkpt><trkpt lat="45.12864867627038" lon="1.7438254839307714"><ele>450.0</ele><time>2026-04-10T17:07:32Z</time></trkpt><trkpt lat="45.128879518488944" lon="1.7440559791111103"><ele>453.0</ele><time>2026-04-10T17:07:33Z</time></trkpt><trkpt lat="45.12914509736669" lon="1.7442122474983668"><ele>453.0</ele><time>2026-04-10T17:07:33.999Z</time></trkpt><trkpt lat="45.12942426293303" lon="1.7442909158340645"><ele>453.0</ele><time>2026-04-10T17:07:34.999Z</time></trkpt><trkpt lat="45.12969765044139" lon="1.744334746226833"><ele>456.33333333333337</ele><time>2026-04-10T17:07:35.999Z</time></trkpt><trkpt lat="45.129922279392176" lon="1.7444221191066906"><ele>459.6666666666667</ele><time>2026-04-10T17:07:36.999Z</time></trkpt><trkpt lat="45.13009032153943" lon="1.7445669747158559"><ele>463.0</ele><time>2026-04-10T17:07:37.999Z</time></trkpt><trkpt lat="45.130221749815185" lon="1.744800569494772"><ele>463.0</ele><time>2026-04-10T17:07:38.999Z</time></trkpt><trkpt lat="45.13034066380226" lon="1.745105012687556"><ele>463.0</ele><time>2026-04-10T17:07:39.999Z</time></trkpt><trkpt lat="45.13042825068241" lon="1.7454540944525845"><ele>468.0</ele><time>2026-04-10T17:07:40.999Z</time></trkpt><trkpt lat="45.130526829751965" lon="1.7458139516619597"><ele>473.0</ele><time>2026-04-10T17:07:41.999Z</time></trkpt><trkpt lat="45.13062635261027" lon="1.7461322257004142"><ele>471.66666666666663</ele><time>2026-04-10T17:07:42.999Z</time></trkpt><trkpt lat="45.13069486160916" lon="1.7464272737454392"><ele>470.33333333333337</ele><time>2026-04-10T17:07:43.999Z</time></trkpt><trkpt lat="45.13073615650998" lon="1.7467380125037228"><ele>469.0</ele><time>2026-04-10T17:07:44.999Z</time></trkpt><trkpt lat="45.13075764322095" lon="1.747058614919401"><ele>469.0</ele><time>2026-04-10T17:07:45.999Z</time></trkpt><trkpt lat="45.130768990475296" lon="1.7473149447754486"><ele>469.0</ele><time>2026-04-10T17:07:46.999Z</time></trkpt><trkpt lat="45.13076499190153" lon="1.7475330296812748"><ele>469.0</ele><time>2026-04-10T17:07:47.999Z</time></trkpt><trkpt lat="45.13077425953855" lon="1.7477520828402067"><ele>468.6666666666667</ele><time>2026-04-10T17:07:48.999Z</time></trkpt><trkpt lat="45.13076671581729" lon="1.7479862032317373"><ele>468.33333333333337</ele><time>2026-04-10T17:07:49.999Z</time></trkpt><trkpt lat="45.130744933020104" lon="1.7482112332513207"><ele>468.0</ele><time>2026-04-10T17:07:50.999Z</time></trkpt><trkpt lat="45.130711670213145" lon="1.7484215578821634"><ele>472.33333333333337</ele><time>2026-04-10T17:07:51.999Z</time></trkpt><trkpt lat="45.130669703356" lon="1.7486635748562185"><ele>476.6666666666667</ele><time>2026-04-10T17:07:52.999Z</time></trkpt><trkpt lat="45.130577209731975" lon="1.7489062095631893"><ele>481.0</ele><time>2026-04-10T17:07:53.999Z</time></trkpt><trkpt lat="45.13049281558827" lon="1.749115644048863"><ele>481.0</ele><time>2026-04-10T17:07:54.999Z</time></trkpt><trkpt lat="45.13040119861142" lon="1.7493001902165823"><ele>481.0</ele><time>2026-04-10T17:07:55.999Z</time></trkpt><trkpt lat="45.13029359386312" lon="1.7494845414637907"><ele>481.0</ele><time>2026-04-10T17:07:56.999Z</time></trkpt><trkpt lat="45.13018956848277" lon="1.7496818344058533"><ele>479.0</ele><time>2026-04-10T17:07:57.999Z</time></trkpt><trkpt lat="45.13007218708655" lon="1.7498559057128764"><ele>477.0</ele><time>2026-04-10T17:07:58.999Z</time></trkpt><trkpt lat="45.129971092568674" lon="1.7500234697110435"><ele>475.0</ele><time>2026-04-10T17:07:59.999Z</time></trkpt><trkpt lat="45.12985420518057" lon="1.7501765760237518"><ele>477.33333333333337</ele><time>2026-04-10T17:08:00.999Z</time></trkpt><trkpt lat="45.12974674270179" lon="1.7503446199068602"><ele>479.66666666666663</ele><time>2026-04-10T17:08:01.999Z</time></trkpt><trkpt lat="45.12964028469332" lon="1.7505153098489228"><ele>482.0</ele><time>2026-04-10T17:08:02.999Z</time></trkpt><trkpt lat="45.129530255059045" lon="1.7506944896311023"><ele>482.0</ele><time>2026-04-10T17:08:03.999Z</time></trkpt><trkpt lat="45.129429871134455" lon="1.750897043148831"><ele>482.0</ele><time>2026-04-10T17:08:04.999Z</time></trkpt><trkpt lat="45.12933389395824" lon="1.7510723125624574"><ele>482.0</ele><time>2026-04-10T17:08:05.999Z</time></trkpt><trkpt lat="45.129247871084516" lon="1.7512675977642107"><ele>482.66666666666663</ele><time>2026-04-10T17:08:06.999Z</time></trkpt><trkpt lat="45.12919030160483" lon="1.7514974458521502"><ele>483.33333333333337</ele><time>2026-04-10T17:08:07.999Z</time></trkpt><trkpt lat="45.12917629668508" lon="1.7517277572843706"><ele>484.0</ele><time>2026-04-10T17:08:08.999Z</time></trkpt><trkpt lat="45.1292020600932" lon="1.7519365264915705"><ele>484.0</ele><time>2026-04-10T17:08:09.999Z</time></trkpt><trkpt lat="45.12926706420286" lon="1.7521563108837142"><ele>484.0</ele><time>2026-04-10T17:08:10.999Z</time></trkpt><trkpt lat="45.12935509048263" lon="1.7523620425143205"><ele>484.0</ele><time>2026-04-10T17:08:11.999Z</time></trkpt><trkpt lat="45.1294895290122" lon="1.752506864433962"><ele>484.0</ele><time>2026-04-10T17:08:12.999Z</time></trkpt><trkpt lat="45.12961714256419" lon="1.7525814173955885"><ele>484.0</ele><time>2026-04-10T17:08:13.999Z</time></trkpt><trkpt lat="45.12976483573381" lon="1.7526434469666885"><ele>484.0</ele><time>2026-04-10T17:08:14.999Z</time></trkpt><trkpt lat="45.129924321285756" lon="1.7526931466988331"><ele>485.5</ele><time>2026-04-10T17:08:15.999Z</time></trkpt><trkpt lat="45.130070640652306" lon="1.7527250117822992"><ele>487.0</ele><time>2026-04-10T17:08:16.999Z</time></trkpt><trkpt lat="45.13020498340539" lon="1.7527641882580722"><ele>488.5</ele><time>2026-04-10T17:08:17.999Z</time></trkpt><trkpt lat="45.13034408356882" lon="1.7528118230172551"><ele>490.0</ele><time>2026-04-10T17:08:18.999Z</time></trkpt><trkpt lat="45.13048124616185" lon="1.7529064135649148"><ele>490.0</ele><time>2026-04-10T17:08:19.999Z</time></trkpt><trkpt lat="45.13062616498699" lon="1.7530214011293253"><ele>490.0</ele><time>2026-04-10T17:08:20.999Z</time></trkpt><trkpt lat="45.130760035341076" lon="1.7531437490814847"><ele>490.0</ele><time>2026-04-10T17:08:21.999Z</time></trkpt><trkpt lat="45.130847776666414" lon="1.7533109189329015"><ele>489.6666666666667</ele><time>2026-04-10T17:08:22.999Z</time></trkpt><trkpt lat="45.13092869213833" lon="1.7534962200157058"><ele>489.33333333333337</ele><time>2026-04-10T17:08:23.999Z</time></trkpt><trkpt lat="45.13100425862867" lon="1.7537000320998595"><ele>489.0</ele><time>2026-04-10T17:08:24.999Z</time></trkpt><trkpt lat="45.131018962071046" lon="1.7539396313245366"><ele>490.33333333333337</ele><time>2026-04-10T17:08:25.999Z</time></trkpt><trkpt lat="45.131041589526426" lon="1.7541673544444871"><ele>491.6666666666667</ele><time>2026-04-10T17:08:26.999Z</time></trkpt><trkpt lat="45.13102030798101" lon="1.7543921015278898"><ele>493.0</ele><time>2026-04-10T17:08:27.999Z</time></trkpt><trkpt lat="45.130993267796626" lon="1.7545961693843277"><ele>494.0</ele><time>2026-04-10T17:08:28.999Z</time></trkpt><trkpt lat="45.13096678555353" lon="1.7547873476072855"><ele>495.0</ele><time>2026-04-10T17:08:29.999Z</time></trkpt><trkpt lat="45.13093293186157" lon="1.7549913772144454"><ele>496.0</ele><time>2026-04-10T17:08:30.999Z</time></trkpt><trkpt lat="45.130896214241666" lon="1.7552106690831413"><ele>497.0</ele><time>2026-04-10T17:08:31.999Z</time></trkpt><trkpt lat="45.13087026286893" lon="1.755444711019031"><ele>497.66666666666663</ele><time>2026-04-10T17:08:32.999Z</time></trkpt><trkpt lat="45.13085856195964" lon="1.755706881853843"><ele>498.33333333333337</ele><time>2026-04-10T17:08:33.999Z</time></trkpt><trkpt lat="45.130864314598995" lon="1.7559528473275439"><ele>499.0</ele><time>2026-04-10T17:08:34.999Z</time></trkpt><trkpt lat="45.13088407557797" lon="1.756202831282564"><ele>499.6666666666667</ele><time>2026-04-10T17:08:35.999Z</time></trkpt><trkpt lat="45.13091504992201" lon="1.7564533449949107"><ele>500.33333333333337</ele><time>2026-04-10T17:08:37Z</time></trkpt><trkpt lat="45.13096334634356" lon="1.756710149604354"><ele>501.0</ele><time>2026-04-10T17:08:38Z</time></trkpt><trkpt lat="45.13102297139711" lon="1.7569591369823205"><ele>502.66666666666663</ele><time>2026-04-10T17:08:39Z</time></trkpt><trkpt lat="45.131094809565305" lon="1.757180844859779"><ele>504.3333333333333</ele><time>2026-04-10T17:08:40Z</time></trkpt><trkpt lat="45.131176922203515" lon="1.7574003242630918"><ele>506.0</ele><time>2026-04-10T17:08:41Z</time></trkpt><trkpt lat="45.13126115775873" lon="1.7576167514236063"><ele>510.0</ele><time>2026-04-10T17:08:42Z</time></trkpt><trkpt lat="45.13134928393314" lon="1.7578347151579587"><ele>514.0</ele><time>2026-04-10T17:08:43Z</time></trkpt><trkpt lat="45.13144114209232" lon="1.7580546047463832"><ele>518.0</ele><time>2026-04-10T17:08:44Z</time></trkpt><trkpt lat="45.1315362512945" lon="1.758279877314432"><ele>517.0</ele><time>2026-04-10T17:08:45Z</time></trkpt><trkpt lat="45.131639507662264" lon="1.7585033173802274"><ele>516.0</ele><time>2026-04-10T17:08:46Z</time></trkpt><trkpt lat="45.13174643114731" lon="1.75872793018928"><ele>515.0</ele><time>2026-04-10T17:08:47Z</time></trkpt><trkpt lat="45.13185318688542" lon="1.758953247776922"><ele>515.0</ele><time>2026-04-10T17:08:48Z</time></trkpt><trkpt lat="45.131958932234674" lon="1.7591758110065248"><ele>515.0</ele><time>2026-04-10T17:08:49Z</time></trkpt><trkpt lat="45.13206459973236" lon="1.7593961891699017"><ele>515.0</ele><time>2026-04-10T17:08:50Z</time></trkpt><trkpt lat="45.13217518831015" lon="1.759615498208229"><ele>516.3333333333333</ele><time>2026-04-10T17:08:51Z</time></trkpt><trkpt lat="45.132283319286486" lon="1.7598314850305374"><ele>517.6666666666666</ele><time>2026-04-10T17:08:52Z</time></trkpt><trkpt lat="45.13238750722607" lon="1.7600253468947515"><ele>519.0</ele><time>2026-04-10T17:08:53Z</time></trkpt><trkpt lat="45.13249091600382" lon="1.760209379641582"><ele>519.0</ele><time>2026-04-10T17:08:54Z</time></trkpt><trkpt lat="45.132606047660026" lon="1.76041069215733"><ele>519.0</ele><time>2026-04-10T17:08:55Z</time></trkpt><trkpt lat="45.13274043120077" lon="1.7606173565273964"><ele>519.0</ele><time>2026-04-10T17:08:56Z</time></trkpt><trkpt lat="45.13286612107342" lon="1.760823342177075"><ele>519.0</ele><time>2026-04-10T17:08:57Z</time></trkpt><trkpt lat="45.132985098095034" lon="1.7610281161721322"><ele>519.0</ele><time>2026-04-10T17:08:58Z</time></trkpt><trkpt lat="45.133103874698826" lon="1.76122738680752"><ele>519.0</ele><time>2026-04-10T17:08:59Z</time></trkpt><trkpt lat="45.13320316350319" lon="1.7614253290046766"><ele>520.3333333333334</ele><time>2026-04-10T17:09:00Z</time></trkpt><trkpt lat="45.13328357610681" lon="1.7616154198829075"><ele>521.6666666666667</ele><time>2026-04-10T17:09:01Z</time></trkpt><trkpt lat="45.13335861824138" lon="1.7618347196270012"><ele>523.0</ele><time>2026-04-10T17:09:02Z</time></trkpt><trkpt lat="45.133418921548355" lon="1.7620807573126154"><ele>523.0</ele><time>2026-04-10T17:09:03Z</time></trkpt><trkpt lat="45.133444463257746" lon="1.7623545891709351"><ele>523.0</ele><time>2026-04-10T17:09:04Z</time></trkpt><trkpt lat="45.13349592884708" lon="1.762635315342452"><ele>523.0</ele><time>2026-04-10T17:09:05Z</time></trkpt><trkpt lat="45.133546424801416" lon="1.7629222614366555"><ele>523.0</ele><time>2026-04-10T17:09:06Z</time></trkpt><trkpt lat="45.133595645024954" lon="1.7632080372405248"><ele>523.0</ele><time>2026-04-10T17:09:07Z</time></trkpt><trkpt lat="45.13365515511639" lon="1.7634621422844035"><ele>523.0</ele><time>2026-04-10T17:09:08Z</time></trkpt><trkpt lat="45.133701148980954" lon="1.7637239133162141"><ele>523.0</ele><time>2026-04-10T17:09:09Z</time></trkpt><trkpt lat="45.13374573609945" lon="1.7639940210057217"><ele>523.0</ele><time>2026-04-10T17:09:10Z</time></trkpt><trkpt lat="45.133794463274185" lon="1.7642685793552022"><ele>523.0</ele><time>2026-04-10T17:09:11Z</time></trkpt><trkpt lat="45.133844633606515" lon="1.7645414247121305"><ele>522.5</ele><time>2026-04-10T17:09:12Z</time></trkpt><trkpt lat="45.13390322833639" lon="1.7648320077993056"><ele>522.0</ele><time>2026-04-10T17:09:13Z</time></trkpt><trkpt lat="45.133978895534455" lon="1.765155327388438"><ele>524.0</ele><time>2026-04-10T17:09:14Z</time></trkpt><trkpt lat="45.134076118796116" lon="1.7655016954379463"><ele>526.0</ele><time>2026-04-10T17:09:15Z</time></trkpt><trkpt lat="45.13415557590451" lon="1.7658578571944907"><ele>525.0</ele><time>2026-04-10T17:09:16Z</time></trkpt><trkpt lat="45.1342609620621" lon="1.76622592627132"><ele>524.0</ele><time>2026-04-10T17:09:17Z</time></trkpt><trkpt lat="45.13437533473339" lon="1.7666040945999049"><ele>524.5</ele><time>2026-04-10T17:09:18Z</time></trkpt><trkpt lat="45.13449787090391" lon="1.766988580646094"><ele>525.0</ele><time>2026-04-10T17:09:19Z</time></trkpt><trkpt lat="45.1346126650986" lon="1.7673496708530394"><ele>525.0</ele><time>2026-04-10T17:09:20Z</time></trkpt><trkpt lat="45.13474635060793" lon="1.7676877049332935"><ele>525.0</ele><time>2026-04-10T17:09:21Z</time></trkpt><trkpt lat="45.1348811315558" lon="1.7680442079543155"><ele>526.5</ele><time>2026-04-10T17:09:22Z</time></trkpt><trkpt lat="45.1350193421066" lon="1.7684163468234122"><ele>528.0</ele><time>2026-04-10T17:09:23Z</time></trkpt><trkpt lat="45.13514995007454" lon="1.7687683387745516"><ele>528.0</ele><time>2026-04-10T17:09:24Z</time></trkpt><trkpt lat="45.13527112755589" lon="1.7691086612019669"><ele>528.0</ele><time>2026-04-10T17:09:25Z</time></trkpt><trkpt lat="45.13540873530623" lon="1.7694540972685766"><ele>527.0</ele><time>2026-04-10T17:09:26Z</time></trkpt><trkpt lat="45.13555675893731" lon="1.7697755453998008"><ele>526.0</ele><time>2026-04-10T17:09:27Z</time></trkpt><trkpt lat="45.13573968102249" lon="1.7700656205393583"><ele>526.5</ele><time>2026-04-10T17:09:28Z</time></trkpt><trkpt lat="45.1359698438275" lon="1.770311087644504"><ele>527.0</ele><time>2026-04-10T17:09:29Z</time></trkpt><trkpt lat="45.136234411919176" lon="1.7705122005766365"><ele>527.0</ele><time>2026-04-10T17:09:30Z</time></trkpt><trkpt lat="45.13651185984114" lon="1.770761042179126"><ele>527.0</ele><time>2026-04-10T17:09:31Z</time></trkpt><trkpt lat="45.13673880767364" lon="1.7709866488030217"><ele>528.0</ele><time>2026-04-10T17:09:32Z</time></trkpt><trkpt lat="45.1369076510197" lon="1.771267075627072"><ele>529.0</ele><time>2026-04-10T17:09:33Z</time></trkpt><trkpt lat="45.137030965471304" lon="1.7715620180032796"><ele>528.5</ele><time>2026-04-10T17:09:34Z</time></trkpt><trkpt lat="45.13709989311222" lon="1.771933541826891"><ele>528.0</ele><time>2026-04-10T17:09:35Z</time></trkpt><trkpt lat="45.13712285870588" lon="1.772334983548258"><ele>529.5</ele><time>2026-04-10T17:09:36Z</time></trkpt><trkpt lat="45.13709849835947" lon="1.7727235440523466"><ele>531.0</ele><time>2026-04-10T17:09:36.999Z</time></trkpt><trkpt lat="45.13701397135616" lon="1.7730830136524323"><ele>531.0</ele><time>2026-04-10T17:09:37.999Z</time></trkpt><trkpt lat="45.136902749564996" lon="1.7734610463644764"><ele>531.0</ele><time>2026-04-10T17:09:38.999Z</time></trkpt><trkpt lat="45.13685526064866" lon="1.7738436269600224"><ele>532.5</ele><time>2026-04-10T17:09:39.999Z</time></trkpt><trkpt lat="45.13673899766318" lon="1.7742441998904586"><ele>534.0</ele><time>2026-04-10T17:09:40.999Z</time></trkpt><trkpt lat="45.13661968672177" lon="1.774642811082207"><ele>533.0</ele><time>2026-04-10T17:09:41.999Z</time></trkpt><trkpt lat="45.136513586279435" lon="1.775008029776548"><ele>532.0</ele><time>2026-04-10T17:09:42.999Z</time></trkpt><trkpt lat="45.13644328118934" lon="1.7753703544150243"><ele>532.0</ele><time>2026-04-10T17:09:43.999Z</time></trkpt><trkpt lat="45.13641817017185" lon="1.7757656931143362"><ele>532.0</ele><time>2026-04-10T17:09:44.999Z</time></trkpt><trkpt lat="45.13644457666727" lon="1.7761650706981726"><ele>533.0</ele><time>2026-04-10T17:09:45.999Z</time></trkpt><trkpt lat="45.13650572103716" lon="1.7765801325274702"><ele>534.0</ele><time>2026-04-10T17:09:46.999Z</time></trkpt><trkpt lat="45.13656423071395" lon="1.7769888732367296"><ele>536.5</ele><time>2026-04-10T17:09:47.999Z</time></trkpt><trkpt lat="45.1366309572954" lon="1.7774068034531991"><ele>539.0</ele><time>2026-04-10T17:09:48.999Z</time></trkpt><trkpt lat="45.13667186071938" lon="1.7778011890638004"><ele>540.0</ele><time>2026-04-10T17:09:49.999Z</time></trkpt><trkpt lat="45.13670328427279" lon="1.7781207144895996"><ele>541.0</ele><time>2026-04-10T17:09:50.999Z</time></trkpt><trkpt lat="45.13669110468733" lon="1.7783985145455738"><ele>542.0</ele><time>2026-04-10T17:09:51.999Z</time></trkpt><trkpt lat="45.13663430477676" lon="1.7786723617936055"><ele>541.3333333333333</ele><time>2026-04-10T17:09:52.999Z</time></trkpt><trkpt lat="45.13656673496404" lon="1.7789429599059907"><ele>540.6666666666666</ele><time>2026-04-10T17:09:53.999Z</time></trkpt><trkpt lat="45.1365226330982" lon="1.7791999853121911"><ele>540.0</ele><time>2026-04-10T17:09:54.999Z</time></trkpt><trkpt lat="45.13650501101094" lon="1.7794553450020356"><ele>540.0</ele><time>2026-04-10T17:09:55.999Z</time></trkpt><trkpt lat="45.136530442438875" lon="1.7797365484149146"><ele>540.0</ele><time>2026-04-10T17:09:56.999Z</time></trkpt><trkpt lat="45.136576992883164" lon="1.78003137122417"><ele>540.0</ele><time>2026-04-10T17:09:57.999Z</time></trkpt><trkpt lat="45.13659453239198" lon="1.7802993299721674"><ele>541.0</ele><time>2026-04-10T17:09:58.999Z</time></trkpt><trkpt lat="45.136579861630246" lon="1.7805398650140998"><ele>542.0</ele><time>2026-04-10T17:09:59.999Z</time></trkpt><trkpt lat="45.13652371871195" lon="1.7807777022686486"><ele>543.0</ele><time>2026-04-10T17:10:00.999Z</time></trkpt><trkpt lat="45.13643402399785" lon="1.781009541657497"><ele>543.5</ele><time>2026-04-10T17:10:01.999Z</time></trkpt><trkpt lat="45.136346722980726" lon="1.7812105548292365"><ele>544.0</ele><time>2026-04-10T17:10:02.999Z</time></trkpt><trkpt lat="45.13626669379247" lon="1.781386648878455"><ele>544.5</ele><time>2026-04-10T17:10:03.999Z</time></trkpt><trkpt lat="45.13620371756739" lon="1.781549864335451"><ele>545.0</ele><time>2026-04-10T17:10:04.999Z</time></trkpt><trkpt lat="45.136154253483475" lon="1.7816933891557296"><ele>545.0</ele><time>2026-04-10T17:10:05.999Z</time></trkpt><trkpt lat="45.13610449126687" lon="1.7818183490387076"><ele>545.0</ele><time>2026-04-10T17:10:06.999Z</time></trkpt><trkpt lat="45.13605997411901" lon="1.781934511196817"><ele>545.0</ele><time>2026-04-10T17:10:07.999Z</time></trkpt><trkpt lat="45.1360234090284" lon="1.7820255422508788"><ele>545.0</ele><time>2026-04-10T17:10:08.999Z</time></trkpt><trkpt lat="45.1360458587659" lon="1.7821314128476426"><ele>545.0</ele><time>2026-04-10T17:10:10.999Z</time></trkpt><trkpt lat="45.13615171152331" lon="1.7821081496111706"><ele>545.0</ele><time>2026-04-10T17:10:12.999Z</time></trkpt><trkpt lat="45.13619964266461" lon="1.7820314041646266"><ele>545.0</ele><time>2026-04-10T17:10:13.999Z</time></trkpt><trkpt lat="45.13627813294589" lon="1.7819326893929341"><ele>545.0</ele><time>2026-04-10T17:10:15.999Z</time></trkpt><trkpt lat="45.136332689920636" lon="1.781866395275488"><ele>545.0</ele><time>2026-04-10T17:10:18.999Z</time></trkpt><trkpt lat="45.13637622154726" lon="1.7817691622056242"><ele>545.0</ele><time>2026-04-10T17:10:21.999Z</time></trkpt><trkpt lat="45.13634360258016" lon="1.7816769802639063"><ele>545.0</ele><time>2026-04-10T17:10:23.999Z</time></trkpt><trkpt lat="45.136381981303494" lon="1.7816062041744842"><ele>545.0</ele><time>2026-04-10T17:10:26.999Z</time></trkpt><trkpt lat="45.136350005744696" lon="1.781696754292119"><ele>545.0</ele><time>2026-04-10T17:13:16Z</time></trkpt><trkpt lat="45.13627142859385" lon="1.781839773304216"><ele>545.0</ele><time>2026-04-10T17:13:18Z</time></trkpt><trkpt lat="45.136226873476446" lon="1.781905136590525"><ele>545.0</ele><time>2026-04-10T17:13:19Z</time></trkpt><trkpt lat="45.13614035925385" lon="1.7819683140331422"><ele>545.0</ele><time>2026-04-10T17:13:21Z</time></trkpt><trkpt lat="45.136040945601586" lon="1.7820587045488858"><ele>545.3333333333333</ele><time>2026-04-10T17:13:23Z</time></trkpt><trkpt lat="45.13591953642782" lon="1.782249373980094"><ele>545.6666666666666</ele><time>2026-04-10T17:13:24Z</time></trkpt><trkpt lat="45.13581537322788" lon="1.7823985534272915"><ele>546.0</ele><time>2026-04-10T17:13:25Z</time></trkpt><trkpt lat="45.13568542973702" lon="1.78256097821411"><ele>547.0</ele><time>2026-04-10T17:13:26Z</time></trkpt><trkpt lat="45.1355402446062" lon="1.7827183475000434"><ele>548.0</ele><time>2026-04-10T17:13:27Z</time></trkpt><trkpt lat="45.13539988004202" lon="1.7828399718345025"><ele>549.0</ele><time>2026-04-10T17:13:28Z</time></trkpt><trkpt lat="45.13524453529942" lon="1.78295665582214"><ele>549.0</ele><time>2026-04-10T17:13:29Z</time></trkpt><trkpt lat="45.13507159033728" lon="1.783047352861814"><ele>549.0</ele><time>2026-04-10T17:13:30Z</time></trkpt><trkpt lat="45.13488046026986" lon="1.783076396779334"><ele>549.0</ele><time>2026-04-10T17:13:31Z</time></trkpt><trkpt lat="45.134693453836604" lon="1.7830982116068552"><ele>549.3333333333334</ele><time>2026-04-10T17:13:32Z</time></trkpt><trkpt lat="45.13450695805352" lon="1.783138017889445"><ele>549.6666666666667</ele><time>2026-04-10T17:13:33Z</time></trkpt><trkpt lat="45.134297519446804" lon="1.7832231177300806"><ele>550.0</ele><time>2026-04-10T17:13:34Z</time></trkpt><trkpt lat="45.13409563877588" lon="1.7833651435215214"><ele>553.5</ele><time>2026-04-10T17:13:35Z</time></trkpt><trkpt lat="45.133884585532314" lon="1.7835525705903177"><ele>557.0</ele><time>2026-04-10T17:13:36Z</time></trkpt><trkpt lat="45.13367011025505" lon="1.7837273031810745"><ele>557.0</ele><time>2026-04-10T17:13:37Z</time></trkpt><trkpt lat="45.133466551986324" lon="1.7838552635986011"><ele>557.0</ele><time>2026-04-10T17:13:38Z</time></trkpt><trkpt lat="45.13325254308538" lon="1.7839028702252888"><ele>557.0</ele><time>2026-04-10T17:13:38.999Z</time></trkpt><trkpt lat="45.13303151944426" lon="1.7838409505322295"><ele>558.0</ele><time>2026-04-10T17:13:39.999Z</time></trkpt><trkpt lat="45.132817301013084" lon="1.7837488273353348"><ele>559.0</ele><time>2026-04-10T17:13:40.999Z</time></trkpt><trkpt lat="45.13259453506924" lon="1.7836062218637634"><ele>561.5</ele><time>2026-04-10T17:13:41.999Z</time></trkpt><trkpt lat="45.13236107234548" lon="1.783465960246255"><ele>564.0</ele><time>2026-04-10T17:13:42.999Z</time></trkpt><trkpt lat="45.13211403771658" lon="1.783326203464193"><ele>564.0</ele><time>2026-04-10T17:13:43.999Z</time></trkpt><trkpt lat="45.13188759592239" lon="1.7832083657077955"><ele>564.0</ele><time>2026-04-10T17:13:44.999Z</time></trkpt><trkpt lat="45.131678678375394" lon="1.783130866280832"><ele>566.5</ele><time>2026-04-10T17:13:45.999Z</time></trkpt><trkpt lat="45.131455693840174" lon="1.783098652851505"><ele>569.0</ele><time>2026-04-10T17:13:46.999Z</time></trkpt><trkpt lat="45.131207443003134" lon="1.7831123386405747"><ele>569.0</ele><time>2026-04-10T17:13:47.999Z</time></trkpt><trkpt lat="45.13094884931366" lon="1.783177832227697"><ele>569.0</ele><time>2026-04-10T17:13:48.999Z</time></trkpt><trkpt lat="45.130680585449234" lon="1.783272863660184"><ele>572.0</ele><time>2026-04-10T17:13:49.999Z</time></trkpt><trkpt lat="45.13040937645108" lon="1.7833521380330828"><ele>575.0</ele><time>2026-04-10T17:13:50.999Z</time></trkpt><trkpt lat="45.13013418734895" lon="1.7834210849070906"><ele>575.0</ele><time>2026-04-10T17:13:51.999Z</time></trkpt><trkpt lat="45.129892027055654" lon="1.7834971595027984"><ele>575.0</ele><time>2026-04-10T17:13:52.999Z</time></trkpt><trkpt lat="45.129656464373774" lon="1.7835549526036683"><ele>571.0</ele><time>2026-04-10T17:13:53.999Z</time></trkpt><trkpt lat="45.12942141554887" lon="1.7836242610061293"><ele>567.0</ele><time>2026-04-10T17:13:54.999Z</time></trkpt><trkpt lat="45.12918874320701" lon="1.7837274742745568"><ele>572.0</ele><time>2026-04-10T17:13:55.999Z</time></trkpt><trkpt lat="45.12894096922398" lon="1.7838538551120924"><ele>577.0</ele><time>2026-04-10T17:13:56.999Z</time></trkpt><trkpt lat="45.128692107572725" lon="1.7840024980097022"><ele>577.0</ele><time>2026-04-10T17:13:57.999Z</time></trkpt><trkpt lat="45.12843995366323" lon="1.784154775679269"><ele>577.0</ele><time>2026-04-10T17:13:58.999Z</time></trkpt><trkpt lat="45.12819256603401" lon="1.7843347170472355"><ele>578.5</ele><time>2026-04-10T17:13:59.999Z</time></trkpt><trkpt lat="45.12793570185061" lon="1.7845102434808668"><ele>580.0</ele><time>2026-04-10T17:14:00.999Z</time></trkpt><trkpt lat="45.12768096066266" lon="1.7847110040820422"><ele>580.0</ele><time>2026-04-10T17:14:01.999Z</time></trkpt><trkpt lat="45.12744266182103" lon="1.7848958427162482"><ele>580.0</ele><time>2026-04-10T17:14:02.999Z</time></trkpt><trkpt lat="45.127240193357494" lon="1.7850871608027896"><ele>582.0</ele><time>2026-04-10T17:14:03.999Z</time></trkpt><trkpt lat="45.12705401440972" lon="1.7853332171433751"><ele>584.0</ele><time>2026-04-10T17:14:04.999Z</time></trkpt><trkpt lat="45.12688921059897" lon="1.785633833061178"><ele>584.0</ele><time>2026-04-10T17:14:05.999Z</time></trkpt><trkpt lat="45.12673142314371" lon="1.785958967576748"><ele>584.0</ele><time>2026-04-10T17:14:06.999Z</time></trkpt><trkpt lat="45.12656779196454" lon="1.7862530296276955"><ele>584.3333333333333</ele><time>2026-04-10T17:14:07.999Z</time></trkpt><trkpt lat="45.126410675710964" lon="1.786461992383656"><ele>584.6666666666666</ele><time>2026-04-10T17:14:08.999Z</time></trkpt><trkpt lat="45.126245961074396" lon="1.786593034898856"><ele>585.0</ele><time>2026-04-10T17:14:09.999Z</time></trkpt><trkpt lat="45.12604361960899" lon="1.7866518851239561"><ele>585.0</ele><time>2026-04-10T17:14:10.999Z</time></trkpt><trkpt lat="45.12580768308355" lon="1.7866689154300706"><ele>585.0</ele><time>2026-04-10T17:14:11.999Z</time></trkpt><trkpt lat="45.12555920180378" lon="1.7866947307726642"><ele>585.5</ele><time>2026-04-10T17:14:12.999Z</time></trkpt><trkpt lat="45.12529515831679" lon="1.7867269046469771"><ele>586.0</ele><time>2026-04-10T17:14:13.999Z</time></trkpt><trkpt lat="45.125035203474916" lon="1.7867782993665668"><ele>586.5</ele><time>2026-04-10T17:14:14.999Z</time></trkpt><trkpt lat="45.12478185569762" lon="1.7869017840959662"><ele>587.0</ele><time>2026-04-10T17:14:15.999Z</time></trkpt><trkpt lat="45.124522311315765" lon="1.7870698615009961"><ele>587.0</ele><time>2026-04-10T17:14:16.999Z</time></trkpt><trkpt lat="45.124260001581156" lon="1.7872483944885904"><ele>587.0</ele><time>2026-04-10T17:14:17.999Z</time></trkpt><trkpt lat="45.123997307561055" lon="1.7874152374751533"><ele>588.0</ele><time>2026-04-10T17:14:18.999Z</time></trkpt><trkpt lat="45.12375405149666" lon="1.787566883183067"><ele>589.0</ele><time>2026-04-10T17:14:19.999Z</time></trkpt><trkpt lat="45.1235303845183" lon="1.7877146462318112"><ele>589.0</ele><time>2026-04-10T17:14:20.999Z</time></trkpt><trkpt lat="45.12332758923225" lon="1.7878405706950875"><ele>589.0</ele><time>2026-04-10T17:14:21.999Z</time></trkpt><trkpt lat="45.12313468300986" lon="1.7879274835072965"><ele>589.0</ele><time>2026-04-10T17:14:22.999Z</time></trkpt><trkpt lat="45.1229664174728" lon="1.7879431387802442"><ele>589.3333333333334</ele><time>2026-04-10T17:14:23.999Z</time></trkpt><trkpt lat="45.12280449403704" lon="1.7878673663706224"><ele>589.6666666666666</ele><time>2026-04-10T17:14:24.999Z</time></trkpt><trkpt lat="45.12264859677725" lon="1.7877067833941538"><ele>590.0</ele><time>2026-04-10T17:14:25.999Z</time></trkpt><trkpt lat="45.12249019165398" lon="1.7874670500156624"><ele>593.5</ele><time>2026-04-10T17:14:26.999Z</time></trkpt><trkpt lat="45.12231363705449" lon="1.787245838436489"><ele>597.0</ele><time>2026-04-10T17:14:27.999Z</time></trkpt><trkpt lat="45.12211517367837" lon="1.787003801530425"><ele>590.0</ele><time>2026-04-10T17:14:28.999Z</time></trkpt><trkpt lat="45.12188798652619" lon="1.7867766869686421"><ele>583.0</ele><time>2026-04-10T17:14:29.999Z</time></trkpt><trkpt lat="45.121642214212415" lon="1.7865660057848622"><ele>585.5</ele><time>2026-04-10T17:14:30.999Z</time></trkpt><trkpt lat="45.121381180636014" lon="1.7863647370001374"><ele>588.0</ele><time>2026-04-10T17:14:31.999Z</time></trkpt><trkpt lat="45.121106334053785" lon="1.7861595642140138"><ele>585.5</ele><time>2026-04-10T17:14:32.999Z</time></trkpt><trkpt lat="45.12082663342055" lon="1.7859272029813715"><ele>583.0</ele><time>2026-04-10T17:14:33.999Z</time></trkpt><trkpt lat="45.12054507416096" lon="1.7856962980596753"><ele>583.0</ele><time>2026-04-10T17:14:34.999Z</time></trkpt><trkpt lat="45.120280495658776" lon="1.7854933920667782"><ele>583.0</ele><time>2026-04-10T17:14:35.999Z</time></trkpt><trkpt lat="45.12003775118918" lon="1.7853598564186153"><ele>583.0</ele><time>2026-04-10T17:14:36.999Z</time></trkpt><trkpt lat="45.11976868720848" lon="1.7853000542658404"><ele>583.0</ele><time>2026-04-10T17:14:37.999Z</time></trkpt><trkpt lat="45.119473012133916" lon="1.785290232859639"><ele>583.0</ele><time>2026-04-10T17:14:38.999Z</time></trkpt><trkpt lat="45.11916941999299" lon="1.7852716650932519"><ele>583.0</ele><time>2026-04-10T17:14:39.999Z</time></trkpt><trkpt lat="45.11885628031592" lon="1.7852326650479717"><ele>580.5</ele><time>2026-04-10T17:14:40.999Z</time></trkpt><trkpt lat="45.118536232979004" lon="1.7851848484597586"><ele>578.0</ele><time>2026-04-10T17:14:41.999Z</time></trkpt><trkpt lat="45.11820271959816" lon="1.7851439648866778"><ele>575.5</ele><time>2026-04-10T17:14:42.999Z</time></trkpt><trkpt lat="45.11786731883352" lon="1.7851036731742163"><ele>573.0</ele><time>2026-04-10T17:14:43.999Z</time></trkpt><trkpt lat="45.117583414382636" lon="1.7850777032389071"><ele>571.5</ele><time>2026-04-10T17:14:44.999Z</time></trkpt><trkpt lat="45.117341868685195" lon="1.7850869310873905"><ele>570.0</ele><time>2026-04-10T17:14:45.999Z</time></trkpt><trkpt lat="45.11710102854223" lon="1.785186978936404"><ele>570.0</ele><time>2026-04-10T17:14:46.999Z</time></trkpt><trkpt lat="45.116854137344966" lon="1.7853593649714898"><ele>570.0</ele><time>2026-04-10T17:14:47.999Z</time></trkpt><trkpt lat="45.11659840228131" lon="1.785551273387598"><ele>567.5</ele><time>2026-04-10T17:14:48.999Z</time></trkpt><trkpt lat="45.116349410525864" lon="1.7856711522453834"><ele>565.0</ele><time>2026-04-10T17:14:49.999Z</time></trkpt><trkpt lat="45.11610127867943" lon="1.7856960560907198"><ele>565.0</ele><time>2026-04-10T17:14:50.999Z</time></trkpt><trkpt lat="45.11584642767665" lon="1.785623147856126"><ele>565.0</ele><time>2026-04-10T17:14:51.999Z</time></trkpt><trkpt lat="45.11557967621018" lon="1.7854851655156863"><ele>565.5</ele><time>2026-04-10T17:14:52.999Z</time></trkpt><trkpt lat="45.11531721119117" lon="1.7853041235962586"><ele>566.0</ele><time>2026-04-10T17:14:53.999Z</time></trkpt><trkpt lat="45.11508980862648" lon="1.7851310181704538"><ele>569.5</ele><time>2026-04-10T17:14:55Z</time></trkpt><trkpt lat="45.11489508966766" lon="1.7849562706278754"><ele>573.0</ele><time>2026-04-10T17:14:56Z</time></trkpt><trkpt lat="45.114726574897674" lon="1.784695648069258"><ele>573.0</ele><time>2026-04-10T17:14:57Z</time></trkpt><trkpt lat="45.114577183214685" lon="1.7843707798342918"><ele>573.0</ele><time>2026-04-10T17:14:58Z</time></trkpt><trkpt lat="45.11443752372616" lon="1.7840141431148764"><ele>574.0</ele><time>2026-04-10T17:14:59Z</time></trkpt><trkpt lat="45.11429627092078" lon="1.7836456423786031"><ele>575.0</ele><time>2026-04-10T17:15:00Z</time></trkpt><trkpt lat="45.114147069550945" lon="1.7832743145204286"><ele>575.0</ele><time>2026-04-10T17:15:01Z</time></trkpt><trkpt lat="45.114011358548346" lon="1.7829421810458193"><ele>575.0</ele><time>2026-04-10T17:15:02Z</time></trkpt><trkpt lat="45.113894774471284" lon="1.7826635291193489"><ele>576.0</ele><time>2026-04-10T17:15:03Z</time></trkpt><trkpt lat="45.11379129895584" lon="1.7824064089689056"><ele>577.0</ele><time>2026-04-10T17:15:04Z</time></trkpt><trkpt lat="45.11367777070709" lon="1.7821785289898109"><ele>578.0</ele><time>2026-04-10T17:15:05Z</time></trkpt><trkpt lat="45.11353852968654" lon="1.7819983427109216"><ele>578.0</ele><time>2026-04-10T17:15:06Z</time></trkpt><trkpt lat="45.11338897731648" lon="1.78186144762832"><ele>578.0</ele><time>2026-04-10T17:15:07Z</time></trkpt><trkpt lat="45.11324701746849" lon="1.7817536347340381"><ele>578.0</ele><time>2026-04-10T17:15:08Z</time></trkpt><trkpt lat="45.11307550389312" lon="1.7817054119014497"><ele>576.3333333333333</ele><time>2026-04-10T17:15:09Z</time></trkpt><trkpt lat="45.11286986748173" lon="1.7817629594193414"><ele>574.6666666666666</ele><time>2026-04-10T17:15:10Z</time></trkpt><trkpt lat="45.11265158951898" lon="1.7818574906914213"><ele>573.0</ele><time>2026-04-10T17:15:11Z</time></trkpt><trkpt lat="45.112415760756875" lon="1.7820104445081377"><ele>571.5</ele><time>2026-04-10T17:15:12Z</time></trkpt><trkpt lat="45.112173589863616" lon="1.782131535077038"><ele>570.0</ele><time>2026-04-10T17:15:13Z</time></trkpt><trkpt lat="45.11193951821426" lon="1.782153008423553"><ele>570.0</ele><time>2026-04-10T17:15:14Z</time></trkpt><trkpt lat="45.11175288504434" lon="1.7820858483836846"><ele>570.0</ele><time>2026-04-10T17:15:15Z</time></trkpt><trkpt lat="45.11161461982702" lon="1.7819866549652597"><ele>570.0</ele><time>2026-04-10T17:15:16Z</time></trkpt><trkpt lat="45.11147852334886" lon="1.781833077451797"><ele>568.0</ele><time>2026-04-10T17:15:17Z</time></trkpt><trkpt lat="45.1113074125243" lon="1.7816425357593288"><ele>566.0</ele><time>2026-04-10T17:15:18Z</time></trkpt><trkpt lat="45.11110341299427" lon="1.7814730485616115"><ele>566.0</ele><time>2026-04-10T17:15:19Z</time></trkpt><trkpt lat="45.11088802023748" lon="1.7813160734545743"><ele>566.0</ele><time>2026-04-10T17:15:20Z</time></trkpt><trkpt lat="45.11068097814264" lon="1.7811820608528786"><ele>565.5</ele><time>2026-04-10T17:15:21Z</time></trkpt><trkpt lat="45.11046459345736" lon="1.7810667104725495"><ele>565.0</ele><time>2026-04-10T17:15:22Z</time></trkpt><trkpt lat="45.11024981175283" lon="1.781009751288947"><ele>563.0</ele><time>2026-04-10T17:15:23Z</time></trkpt><trkpt lat="45.11002856840775" lon="1.7810108267125884"><ele>561.0</ele><time>2026-04-10T17:15:24Z</time></trkpt><trkpt lat="45.109780985191975" lon="1.7810605283217116"><ele>561.0</ele><time>2026-04-10T17:15:25Z</time></trkpt><trkpt lat="45.10950827264858" lon="1.781122724686119"><ele>561.0</ele><time>2026-04-10T17:15:26Z</time></trkpt><trkpt lat="45.10921753058313" lon="1.7811720179890358"><ele>557.5</ele><time>2026-04-10T17:15:27Z</time></trkpt><trkpt lat="45.10892972966214" lon="1.7812134533550619"><ele>554.0</ele><time>2026-04-10T17:15:28Z</time></trkpt><trkpt lat="45.108657808660844" lon="1.7812486720046357"><ele>554.0</ele><time>2026-04-10T17:15:29Z</time></trkpt><trkpt lat="45.108425250088544" lon="1.7812685256726457"><ele>554.0</ele><time>2026-04-10T17:15:30Z</time></trkpt><trkpt lat="45.10823281226043" lon="1.7811992847848857"><ele>554.0</ele><time>2026-04-10T17:15:31Z</time></trkpt><trkpt lat="45.10806043282955" lon="1.7810662149995224"><ele>552.0</ele><time>2026-04-10T17:15:32Z</time></trkpt><trkpt lat="45.107916973158744" lon="1.7808571978764143"><ele>550.0</ele><time>2026-04-10T17:15:33Z</time></trkpt><trkpt lat="45.107742962956834" lon="1.7805999778517887"><ele>550.0</ele><time>2026-04-10T17:15:34Z</time></trkpt><trkpt lat="45.10755986382126" lon="1.7803182076451272"><ele>550.0</ele><time>2026-04-10T17:15:35Z</time></trkpt><trkpt lat="45.107367660736976" lon="1.7800202310330004"><ele>548.5</ele><time>2026-04-10T17:15:36Z</time></trkpt><trkpt lat="45.10716499173902" lon="1.779728139271457"><ele>547.0</ele><time>2026-04-10T17:15:37Z</time></trkpt><trkpt lat="45.1069527290871" lon="1.7794288475522588"><ele>547.0</ele><time>2026-04-10T17:15:37.999Z</time></trkpt><trkpt lat="45.10673809506619" lon="1.7791206468380338"><ele>547.0</ele><time>2026-04-10T17:15:38.999Z</time></trkpt><trkpt lat="45.106526306573556" lon="1.7788191697355342"><ele>547.0</ele><time>2026-04-10T17:15:39.999Z</time></trkpt><trkpt lat="45.106309451428" lon="1.7785513876762697"><ele>547.0</ele><time>2026-04-10T17:15:40.999Z</time></trkpt><trkpt lat="45.10605806695793" lon="1.7783170448611931"><ele>547.0</ele><time>2026-04-10T17:15:41.999Z</time></trkpt><trkpt lat="45.10578893416894" lon="1.7780997180001108"><ele>547.0</ele><time>2026-04-10T17:15:42.999Z</time></trkpt><trkpt lat="45.10549717353619" lon="1.7779104461895343"><ele>546.5</ele><time>2026-04-10T17:15:43.999Z</time></trkpt><trkpt lat="45.10521013918092" lon="1.7777174380115495"><ele>546.0</ele><time>2026-04-10T17:15:44.999Z</time></trkpt><trkpt lat="45.10494454714787" lon="1.7775215732759533"><ele>545.0</ele><time>2026-04-10T17:15:45.999Z</time></trkpt><trkpt lat="45.104698919254346" lon="1.777355103462497"><ele>544.0</ele><time>2026-04-10T17:15:46.999Z</time></trkpt><trkpt lat="45.10447247213813" lon="1.77719831060488"><ele>544.0</ele><time>2026-04-10T17:15:47.999Z</time></trkpt><trkpt lat="45.10424968203935" lon="1.7770263676779277"><ele>544.0</ele><time>2026-04-10T17:15:48.999Z</time></trkpt><trkpt lat="45.10401295448201" lon="1.7768505424986054"><ele>544.5</ele><time>2026-04-10T17:15:49.999Z</time></trkpt><trkpt lat="45.10378856102649" lon="1.7766972298021995"><ele>545.0</ele><time>2026-04-10T17:15:50.999Z</time></trkpt><trkpt lat="45.103569851849194" lon="1.776560652304518"><ele>545.0</ele><time>2026-04-10T17:15:51.999Z</time></trkpt><trkpt lat="45.10334713350938" lon="1.776417495326682"><ele>545.0</ele><time>2026-04-10T17:15:52.999Z</time></trkpt><trkpt lat="45.10311263464863" lon="1.7762337517267301"><ele>544.0</ele><time>2026-04-10T17:15:53.999Z</time></trkpt><trkpt lat="45.10285533372077" lon="1.7760607491929887"><ele>543.0</ele><time>2026-04-10T17:15:54.999Z</time></trkpt><trkpt lat="45.1025832226312" lon="1.775909327047438"><ele>546.0</ele><time>2026-04-10T17:15:55.999Z</time></trkpt><trkpt lat="45.1023053532076" lon="1.775786698396478"><ele>549.0</ele><time>2026-04-10T17:15:56.999Z</time></trkpt><trkpt lat="45.10200421205958" lon="1.7757393440113818"><ele>549.0</ele><time>2026-04-10T17:15:57.999Z</time></trkpt><trkpt lat="45.10170449106355" lon="1.7757784339444014"><ele>549.0</ele><time>2026-04-10T17:15:58.999Z</time></trkpt><trkpt lat="45.101394852621524" lon="1.7758690652690918"><ele>550.5</ele><time>2026-04-10T17:15:59.999Z</time></trkpt><trkpt lat="45.10108585630313" lon="1.775989615178037"><ele>552.0</ele><time>2026-04-10T17:16:00.999Z</time></trkpt><trkpt lat="45.100787831698604" lon="1.7760918451941097"><ele>548.0</ele><time>2026-04-10T17:16:01.999Z</time></trkpt><trkpt lat="45.1004749226595" lon="1.7761773414562951"><ele>544.0</ele><time>2026-04-10T17:16:02.999Z</time></trkpt><trkpt lat="45.10015152163168" lon="1.7761991604097687"><ele>545.0</ele><time>2026-04-10T17:16:03.999Z</time></trkpt><trkpt lat="45.099823138583375" lon="1.7762444640282131"><ele>546.0</ele><time>2026-04-10T17:16:04.999Z</time></trkpt><trkpt lat="45.09949326050623" lon="1.776257119047909"><ele>546.0</ele><time>2026-04-10T17:16:05.999Z</time></trkpt><trkpt lat="45.09917469715241" lon="1.7762689531642337"><ele>546.0</ele><time>2026-04-10T17:16:06.999Z</time></trkpt><trkpt lat="45.098892809634705" lon="1.7762757666445805"><ele>544.5</ele><time>2026-04-10T17:16:07.999Z</time></trkpt><trkpt lat="45.098591714365" lon="1.7762796635466853"><ele>543.0</ele><time>2026-04-10T17:16:08.999Z</time></trkpt><trkpt lat="45.0983043273392" lon="1.7762499172957726"><ele>542.5</ele><time>2026-04-10T17:16:09.999Z</time></trkpt><trkpt lat="45.09802984404177" lon="1.7762333746420287"><ele>542.0</ele><time>2026-04-10T17:16:10.999Z</time></trkpt><trkpt lat="45.09775830404854" lon="1.7762170068538918"><ele>542.0</ele><time>2026-04-10T17:16:11.999Z</time></trkpt><trkpt lat="45.09748811677587" lon="1.7762045363158427"><ele>542.0</ele><time>2026-04-10T17:16:12.999Z</time></trkpt><trkpt lat="45.097218006682894" lon="1.7761971038456505"><ele>540.5</ele><time>2026-04-10T17:16:13.999Z</time></trkpt><trkpt lat="45.09694742840103" lon="1.776175500168356"><ele>539.0</ele><time>2026-04-10T17:16:14.999Z</time></trkpt><trkpt lat="45.09667870255468" lon="1.7761575584704044"><ele>536.5</ele><time>2026-04-10T17:16:15.999Z</time></trkpt><trkpt lat="45.09641136247625" lon="1.7761456156584148"><ele>534.0</ele><time>2026-04-10T17:16:16.999Z</time></trkpt><trkpt lat="45.09614200485859" lon="1.7761339568102223"><ele>534.0</ele><time>2026-04-10T17:16:17.999Z</time></trkpt><trkpt lat="45.095868015245905" lon="1.776123405642804"><ele>534.0</ele><time>2026-04-10T17:16:18.999Z</time></trkpt><trkpt lat="45.09559568023924" lon="1.77612201480233"><ele>532.5</ele><time>2026-04-10T17:16:19.999Z</time></trkpt><trkpt lat="45.095310169290364" lon="1.7761315234625745"><ele>531.0</ele><time>2026-04-10T17:16:20.999Z</time></trkpt><trkpt lat="45.095023170718406" lon="1.776180090046355"><ele>529.0</ele><time>2026-04-10T17:16:21.999Z</time></trkpt><trkpt lat="45.094735501594826" lon="1.7762723620885061"><ele>527.0</ele><time>2026-04-10T17:16:22.999Z</time></trkpt><trkpt lat="45.09446118068045" lon="1.7763939484347744"><ele>527.0</ele><time>2026-04-10T17:16:23.999Z</time></trkpt><trkpt lat="45.09420486566951" lon="1.7765150556631943"><ele>527.0</ele><time>2026-04-10T17:16:24.999Z</time></trkpt><trkpt lat="45.09394483751541" lon="1.7766177867041364"><ele>524.0</ele><time>2026-04-10T17:16:25.999Z</time></trkpt><trkpt lat="45.09368844815849" lon="1.7767265060129789"><ele>521.0</ele><time>2026-04-10T17:16:26.999Z</time></trkpt><trkpt lat="45.09342888525275" lon="1.7768350182928894"><ele>522.5</ele><time>2026-04-10T17:16:27.999Z</time></trkpt><trkpt lat="45.093180509599115" lon="1.7769385864457627"><ele>524.0</ele><time>2026-04-10T17:16:28.999Z</time></trkpt><trkpt lat="45.09292728954807" lon="1.7770401698272609"><ele>524.0</ele><time>2026-04-10T17:16:29.999Z</time></trkpt><trkpt lat="45.09267573335996" lon="1.7771434177186571"><ele>524.0</ele><time>2026-04-10T17:16:30.999Z</time></trkpt><trkpt lat="45.09242510331967" lon="1.7772479768545426"><ele>523.5</ele><time>2026-04-10T17:16:31.999Z</time></trkpt><trkpt lat="45.09218005758339" lon="1.77734643236189"><ele>523.0</ele><time>2026-04-10T17:16:32.999Z</time></trkpt><trkpt lat="45.091934473148676" lon="1.7774573975181513"><ele>523.0</ele><time>2026-04-10T17:16:33.999Z</time></trkpt><trkpt lat="45.091690618756296" lon="1.7775626313708326"><ele>523.0</ele><time>2026-04-10T17:16:34.999Z</time></trkpt><trkpt lat="45.091442505309274" lon="1.777669019068082"><ele>520.5</ele><time>2026-04-10T17:16:35.999Z</time></trkpt><trkpt lat="45.09119530615203" lon="1.7777764821058761"><ele>518.0</ele><time>2026-04-10T17:16:36.999Z</time></trkpt><trkpt lat="45.0909416051881" lon="1.7778798432172638"><ele>517.5</ele><time>2026-04-10T17:16:37.999Z</time></trkpt><trkpt lat="45.090673614889035" lon="1.7779959050871323"><ele>517.0</ele><time>2026-04-10T17:16:38.999Z</time></trkpt><trkpt lat="45.09039921540122" lon="1.7781117297573992"><ele>517.0</ele><time>2026-04-10T17:16:39.999Z</time></trkpt><trkpt lat="45.09011093344845" lon="1.778233258428435"><ele>517.0</ele><time>2026-04-10T17:16:40.999Z</time></trkpt><trkpt lat="45.08982068113293" lon="1.7783539750296729"><ele>516.5</ele><time>2026-04-10T17:16:41.999Z</time></trkpt><trkpt lat="45.08955423067676" lon="1.7784680052763087"><ele>516.0</ele><time>2026-04-10T17:16:42.999Z</time></trkpt><trkpt lat="45.08928486073882" lon="1.7785820905004517"><ele>514.0</ele><time>2026-04-10T17:16:43.999Z</time></trkpt><trkpt lat="45.08901356982438" lon="1.7787014193443655"><ele>512.0</ele><time>2026-04-10T17:16:44.999Z</time></trkpt><trkpt lat="45.088738358755364" lon="1.778823185091365"><ele>512.0</ele><time>2026-04-10T17:16:45.999Z</time></trkpt><trkpt lat="45.088465164247864" lon="1.7789472590336606"><ele>512.0</ele><time>2026-04-10T17:16:46.999Z</time></trkpt><trkpt lat="45.08819371321277" lon="1.779062590735469"><ele>510.0</ele><time>2026-04-10T17:16:47.999Z</time></trkpt><trkpt lat="45.087922715944664" lon="1.7791825715344978"><ele>508.0</ele><time>2026-04-10T17:16:48.999Z</time></trkpt><trkpt lat="45.08765259844594" lon="1.7792969961448053"><ele>508.0</ele><time>2026-04-10T17:16:49.999Z</time></trkpt><trkpt lat="45.08737845039282" lon="1.7793942183550222"><ele>508.0</ele><time>2026-04-10T17:16:50.999Z</time></trkpt><trkpt lat="45.08709452103098" lon="1.7795117638198232"><ele>508.0</ele><time>2026-04-10T17:16:51.999Z</time></trkpt><trkpt lat="45.08681276164294" lon="1.7796306671579494"><ele>508.0</ele><time>2026-04-10T17:16:52.999Z</time></trkpt><trkpt lat="45.086534472475584" lon="1.7797445241861154"><ele>505.5</ele><time>2026-04-10T17:16:53.999Z</time></trkpt><trkpt lat="45.08626029403806" lon="1.7798626325763816"><ele>503.0</ele><time>2026-04-10T17:16:54.999Z</time></trkpt><trkpt lat="45.085989163909446" lon="1.7799720835194648"><ele>502.0</ele><time>2026-04-10T17:16:55.999Z</time></trkpt><trkpt lat="45.08571937786429" lon="1.78008600318157"><ele>501.0</ele><time>2026-04-10T17:16:56.999Z</time></trkpt><trkpt lat="45.08545646166166" lon="1.7801898606492073"><ele>501.0</ele><time>2026-04-10T17:16:57.999Z</time></trkpt><trkpt lat="45.085206489330055" lon="1.7802910864172008"><ele>501.0</ele><time>2026-04-10T17:16:58.999Z</time></trkpt><trkpt lat="45.08496666891615" lon="1.780394150361716"><ele>499.0</ele><time>2026-04-10T17:16:59.999Z</time></trkpt><trkpt lat="45.08472787171803" lon="1.7805090002023345"><ele>497.0</ele><time>2026-04-10T17:17:01Z</time></trkpt><trkpt lat="45.08449663953657" lon="1.7806121405974693"><ele>497.0</ele><time>2026-04-10T17:17:02Z</time></trkpt><trkpt lat="45.084256560936886" lon="1.780707354862946"><ele>497.0</ele><time>2026-04-10T17:17:03Z</time></trkpt><trkpt lat="45.08400349659647" lon="1.7808070020628195"><ele>497.0</ele><time>2026-04-10T17:17:04Z</time></trkpt><trkpt lat="45.083754545237625" lon="1.7809076892006934"><ele>497.0</ele><time>2026-04-10T17:17:05Z</time></trkpt><trkpt lat="45.08350332564312" lon="1.7810162799551756"><ele>496.0</ele><time>2026-04-10T17:17:06Z</time></trkpt><trkpt lat="45.08325103313953" lon="1.7811281853221625"><ele>495.0</ele><time>2026-04-10T17:17:07Z</time></trkpt><trkpt lat="45.08299199788793" lon="1.7812373621103903"><ele>495.0</ele><time>2026-04-10T17:17:08Z</time></trkpt><trkpt lat="45.0827440246949" lon="1.781343559708701"><ele>495.0</ele><time>2026-04-10T17:17:09Z</time></trkpt><trkpt lat="45.082481881864304" lon="1.7814548676086368"><ele>495.5</ele><time>2026-04-10T17:17:10Z</time></trkpt><trkpt lat="45.0822276220294" lon="1.7815652556601753"><ele>496.0</ele><time>2026-04-10T17:17:11Z</time></trkpt><trkpt lat="45.08198284969774" lon="1.7816685113065545"><ele>496.0</ele><time>2026-04-10T17:17:12Z</time></trkpt><trkpt lat="45.081740868258116" lon="1.7817745411032695"><ele>496.0</ele><time>2026-04-10T17:17:13Z</time></trkpt><trkpt lat="45.08148164059364" lon="1.7818813880527675"><ele>496.0</ele><time>2026-04-10T17:17:14Z</time></trkpt><trkpt lat="45.081221630507066" lon="1.7819836602156758"><ele>496.0</ele><time>2026-04-10T17:17:15Z</time></trkpt><trkpt lat="45.08095389618337" lon="1.7820865555023917"><ele>494.5</ele><time>2026-04-10T17:17:16Z</time></trkpt><trkpt lat="45.080710157366276" lon="1.782184844073625"><ele>493.0</ele><time>2026-04-10T17:17:17Z</time></trkpt><trkpt lat="45.08046160856728" lon="1.7822867609614024"><ele>493.0</ele><time>2026-04-10T17:17:18Z</time></trkpt><trkpt lat="45.08021236204416" lon="1.7823869559085452"><ele>493.0</ele><time>2026-04-10T17:17:19Z</time></trkpt><trkpt lat="45.07993693350532" lon="1.7824960167654074"><ele>492.0</ele><time>2026-04-10T17:17:20Z</time></trkpt><trkpt lat="45.07968165355325" lon="1.7826062372230833"><ele>491.0</ele><time>2026-04-10T17:17:21Z</time></trkpt><trkpt lat="45.07943376396925" lon="1.7827093712568403"><ele>491.0</ele><time>2026-04-10T17:17:22Z</time></trkpt><trkpt lat="45.07917409113224" lon="1.7828271394527024"><ele>491.0</ele><time>2026-04-10T17:17:23Z</time></trkpt><trkpt lat="45.07891295850699" lon="1.7829355636396094"><ele>489.0</ele><time>2026-04-10T17:17:24Z</time></trkpt><trkpt lat="45.078650999872536" lon="1.7830479615032562"><ele>487.0</ele><time>2026-04-10T17:17:25Z</time></trkpt><trkpt lat="45.0783902732416" lon="1.7831617637974073"><ele>484.0</ele><time>2026-04-10T17:17:26Z</time></trkpt><trkpt lat="45.07812082468253" lon="1.7832709977413757"><ele>481.0</ele><time>2026-04-10T17:17:27Z</time></trkpt><trkpt lat="45.077845697435684" lon="1.7833789314245878"><ele>481.0</ele><time>2026-04-10T17:17:28Z</time></trkpt><trkpt lat="45.07756220164477" lon="1.783494996126224"><ele>481.0</ele><time>2026-04-10T17:17:29Z</time></trkpt><trkpt lat="45.077280512024316" lon="1.7836177392516717"><ele>481.0</ele><time>2026-04-10T17:17:30Z</time></trkpt><trkpt lat="45.07698608790479" lon="1.78373785173429"><ele>481.0</ele><time>2026-04-10T17:17:31Z</time></trkpt><trkpt lat="45.07668512133293" lon="1.7838589177685718"><ele>479.5</ele><time>2026-04-10T17:17:32Z</time></trkpt><trkpt lat="45.076372898401374" lon="1.7839848449949127"><ele>478.0</ele><time>2026-04-10T17:17:33Z</time></trkpt><trkpt lat="45.076076505614445" lon="1.7841039984396785"><ele>478.0</ele><time>2026-04-10T17:17:34Z</time></trkpt><trkpt lat="45.07580500964865" lon="1.784212812357401"><ele>478.0</ele><time>2026-04-10T17:17:35Z</time></trkpt><trkpt lat="45.0755431482615" lon="1.7843223893239466"><ele>479.0</ele><time>2026-04-10T17:17:36Z</time></trkpt><trkpt lat="45.075287919956104" lon="1.784430433260083"><ele>480.0</ele><time>2026-04-10T17:17:37Z</time></trkpt><trkpt lat="45.075033800496094" lon="1.7845369027938807"><ele>480.5</ele><time>2026-04-10T17:17:38Z</time></trkpt><trkpt lat="45.07478219816517" lon="1.7846400834999343"><ele>481.0</ele><time>2026-04-10T17:17:39Z</time></trkpt><trkpt lat="45.074525075591545" lon="1.7847472303923329"><ele>481.0</ele><time>2026-04-10T17:17:40Z</time></trkpt><trkpt lat="45.074276070664155" lon="1.7848507670612637"><ele>481.0</ele><time>2026-04-10T17:17:41Z</time></trkpt><trkpt lat="45.07404213577111" lon="1.7849622414601505"><ele>478.0</ele><time>2026-04-10T17:17:42Z</time></trkpt><trkpt lat="45.0737980793174" lon="1.7850550566176278"><ele>475.0</ele><time>2026-04-10T17:17:43Z</time></trkpt><trkpt lat="45.07353721478231" lon="1.7851614619817013"><ele>475.5</ele><time>2026-04-10T17:17:44Z</time></trkpt><trkpt lat="45.07328112332516" lon="1.7852665092319073"><ele>476.0</ele><time>2026-04-10T17:17:45Z</time></trkpt><trkpt lat="45.07304026318034" lon="1.785382423004122"><ele>476.0</ele><time>2026-04-10T17:17:46Z</time></trkpt><trkpt lat="45.07280072278781" lon="1.7855364350963918"><ele>476.0</ele><time>2026-04-10T17:17:47Z</time></trkpt><trkpt lat="45.07256914454071" lon="1.7857257655812833"><ele>473.5</ele><time>2026-04-10T17:17:48Z</time></trkpt><trkpt lat="45.07235112237191" lon="1.7859672767458088"><ele>471.0</ele><time>2026-04-10T17:17:49Z</time></trkpt><trkpt lat="45.072134251182106" lon="1.78624322932556"><ele>470.0</ele><time>2026-04-10T17:17:50Z</time></trkpt><trkpt lat="45.07190528663491" lon="1.7865294025214293"><ele>469.0</ele><time>2026-04-10T17:17:51Z</time></trkpt><trkpt lat="45.07166056937017" lon="1.7867843420230811"><ele>470.0</ele><time>2026-04-10T17:17:52Z</time></trkpt><trkpt lat="45.07139190132907" lon="1.7870017445054098"><ele>471.0</ele><time>2026-04-10T17:17:53Z</time></trkpt><trkpt lat="45.07110519952102" lon="1.7871339588693442"><ele>471.0</ele><time>2026-04-10T17:17:54Z</time></trkpt><trkpt lat="45.07081782925245" lon="1.7872323538701447"><ele>471.0</ele><time>2026-04-10T17:17:55Z</time></trkpt><trkpt lat="45.07051437003446" lon="1.7872786505282545"><ele>468.5</ele><time>2026-04-10T17:17:56Z</time></trkpt><trkpt lat="45.07019606379494" lon="1.7873430561641517"><ele>466.0</ele><time>2026-04-10T17:17:57Z</time></trkpt><trkpt lat="45.06988801610198" lon="1.7874035744242127"><ele>462.5</ele><time>2026-04-10T17:17:58Z</time></trkpt><trkpt lat="45.06958958822613" lon="1.7874684577988202"><ele>459.0</ele><time>2026-04-10T17:17:59Z</time></trkpt><trkpt lat="45.06928038623297" lon="1.7875716514599456"><ele>457.5</ele><time>2026-04-10T17:18:00Z</time></trkpt><trkpt lat="45.068963544291115" lon="1.7877141636760514"><ele>456.0</ele><time>2026-04-10T17:18:01Z</time></trkpt><trkpt lat="45.06864481637098" lon="1.7878737799925888"><ele>456.0</ele><time>2026-04-10T17:18:01.999Z</time></trkpt><trkpt lat="45.06832884561129" lon="1.788064299539859"><ele>456.0</ele><time>2026-04-10T17:18:02.999Z</time></trkpt><trkpt lat="45.068011730515146" lon="1.7882801225188516"><ele>450.0</ele><time>2026-04-10T17:18:03.999Z</time></trkpt><trkpt lat="45.067688894582965" lon="1.7885001326248864"><ele>444.0</ele><time>2026-04-10T17:18:04.999Z</time></trkpt><trkpt lat="45.06735056245787" lon="1.7887056731361215"><ele>444.0</ele><time>2026-04-10T17:18:05.999Z</time></trkpt><trkpt lat="45.0670137461396" lon="1.7889055592474488"><ele>444.0</ele><time>2026-04-10T17:18:06.999Z</time></trkpt><trkpt lat="45.06666783252628" lon="1.789068707828668"><ele>447.0</ele><time>2026-04-10T17:18:07.999Z</time></trkpt><trkpt lat="45.06630858817594" lon="1.7892175733892086"><ele>450.0</ele><time>2026-04-10T17:18:08.999Z</time></trkpt><trkpt lat="45.065943751947515" lon="1.7893521319989762"><ele>446.0</ele><time>2026-04-10T17:18:09.999Z</time></trkpt><trkpt lat="45.065577821928464" lon="1.7894632524367404"><ele>442.0</ele><time>2026-04-10T17:18:10.999Z</time></trkpt><trkpt lat="45.065208561621326" lon="1.7895507457467634"><ele>443.0</ele><time>2026-04-10T17:18:11.999Z</time></trkpt><trkpt lat="45.06483573023078" lon="1.7896121093999933"><ele>444.0</ele><time>2026-04-10T17:18:12.999Z</time></trkpt><trkpt lat="45.06445934072539" lon="1.7896618659288497"><ele>440.5</ele><time>2026-04-10T17:18:13.999Z</time></trkpt><trkpt lat="45.06407885455764" lon="1.7896917322203942"><ele>437.0</ele><time>2026-04-10T17:18:14.999Z</time></trkpt><trkpt lat="45.06369704146191" lon="1.7897176405511193"><ele>437.0</ele><time>2026-04-10T17:18:15.999Z</time></trkpt><trkpt lat="45.063314315762256" lon="1.7897453952762616"><ele>437.0</ele><time>2026-04-10T17:18:16.999Z</time></trkpt><trkpt lat="45.062932142955745" lon="1.7897816550481118"><ele>434.0</ele><time>2026-04-10T17:18:17.999Z</time></trkpt><trkpt lat="45.0625536638494" lon="1.789818903732894"><ele>431.0</ele><time>2026-04-10T17:18:18.999Z</time></trkpt><trkpt lat="45.06220427239403" lon="1.789846645413708"><ele>423.5</ele><time>2026-04-10T17:18:19.999Z</time></trkpt><trkpt lat="45.06189298816964" lon="1.7898698249086638"><ele>416.0</ele><time>2026-04-10T17:18:20.999Z</time></trkpt><trkpt lat="45.061612112703244" lon="1.7898921713978402"><ele>414.0</ele><time>2026-04-10T17:18:21.999Z</time></trkpt><trkpt lat="45.061336710536004" lon="1.7898840940385414"><ele>412.0</ele><time>2026-04-10T17:18:22.999Z</time></trkpt><trkpt lat="45.06108144017653" lon="1.7898279861495465"><ele>412.0</ele><time>2026-04-10T17:18:23.999Z</time></trkpt><trkpt lat="45.060871374530436" lon="1.7897350985882428"><ele>412.0</ele><time>2026-04-10T17:18:24.999Z</time></trkpt><trkpt lat="45.060680096813925" lon="1.7895809824067155"><ele>412.0</ele><time>2026-04-10T17:18:25.999Z</time></trkpt><trkpt lat="45.06049599114379" lon="1.7893395744110518"><ele>415.0</ele><time>2026-04-10T17:18:26.999Z</time></trkpt><trkpt lat="45.0603469050432" lon="1.7890251788557614"><ele>418.0</ele><time>2026-04-10T17:18:27.999Z</time></trkpt><trkpt lat="45.06023608954745" lon="1.7886590767226362"><ele>414.0</ele><time>2026-04-10T17:18:28.999Z</time></trkpt><trkpt lat="45.060148506861246" lon="1.7882503822573552"><ele>410.0</ele><time>2026-04-10T17:18:29.999Z</time></trkpt><trkpt lat="45.06005575169907" lon="1.7878363359297944"><ele>409.5</ele><time>2026-04-10T17:18:30.999Z</time></trkpt><trkpt lat="45.05996091795908" lon="1.7874736548518586"><ele>409.0</ele><time>2026-04-10T17:18:31.999Z</time></trkpt><trkpt lat="45.05985960192705" lon="1.7871750465183234"><ele>409.0</ele><time>2026-04-10T17:18:32.999Z</time></trkpt><trkpt lat="45.05971470174662" lon="1.7868996517541451"><ele>409.0</ele><time>2026-04-10T17:18:33.999Z</time></trkpt><trkpt lat="45.05952107619495" lon="1.7866679257584537"><ele>402.5</ele><time>2026-04-10T17:18:34.999Z</time></trkpt><trkpt lat="45.059306932971914" lon="1.7865076548874879"><ele>396.0</ele><time>2026-04-10T17:18:35.999Z</time></trkpt><trkpt lat="45.059066379928794" lon="1.78642370528864"><ele>388.5</ele><time>2026-04-10T17:18:36.999Z</time></trkpt><trkpt lat="45.058816104799334" lon="1.786417805492064"><ele>381.0</ele><time>2026-04-10T17:18:37.999Z</time></trkpt><trkpt lat="45.05857075826711" lon="1.7864929185130747"><ele>381.0</ele><time>2026-04-10T17:18:38.999Z</time></trkpt><trkpt lat="45.058347926379795" lon="1.7866142142500885"><ele>381.0</ele><time>2026-04-10T17:18:39.999Z</time></trkpt><trkpt lat="45.058158511064434" lon="1.7867507423866111"><ele>375.5</ele><time>2026-04-10T17:18:40.999Z</time></trkpt><trkpt lat="45.05798519498274" lon="1.7869618847864666"><ele>370.0</ele><time>2026-04-10T17:18:41.999Z</time></trkpt><trkpt lat="45.05779673329218" lon="1.7872333248611076"><ele>370.0</ele><time>2026-04-10T17:18:42.999Z</time></trkpt><trkpt lat="45.05760578798854" lon="1.7875418826191456"><ele>370.0</ele><time>2026-04-10T17:18:43.999Z</time></trkpt><trkpt lat="45.05742286785096" lon="1.7878886719219467"><ele>366.5</ele><time>2026-04-10T17:18:44.999Z</time></trkpt><trkpt lat="45.057249991559424" lon="1.7882539814541503"><ele>363.0</ele><time>2026-04-10T17:18:45.999Z</time></trkpt><trkpt lat="45.057099098687836" lon="1.7886000950989231"><ele>363.0</ele><time>2026-04-10T17:18:46.999Z</time></trkpt><trkpt lat="45.05699156804725" lon="1.7889107632388863"><ele>363.0</ele><time>2026-04-10T17:18:47.999Z</time></trkpt><trkpt lat="45.056932344898094" lon="1.7892172637658128"><ele>360.5</ele><time>2026-04-10T17:18:48.999Z</time></trkpt><trkpt lat="45.05694859197531" lon="1.7895628278391396"><ele>358.0</ele><time>2026-04-10T17:18:49.999Z</time></trkpt><trkpt lat="45.05700447935031" lon="1.7899307767640569"><ele>357.3333333333333</ele><time>2026-04-10T17:18:50.999Z</time></trkpt><trkpt lat="45.057048521289694" lon="1.7902447622177506"><ele>356.6666666666667</ele><time>2026-04-10T17:18:51.999Z</time></trkpt><trkpt lat="45.05706440703014" lon="1.7905138192947634"><ele>356.0</ele><time>2026-04-10T17:18:52.999Z</time></trkpt><trkpt lat="45.05704860640947" lon="1.7907546941321593"><ele>356.0</ele><time>2026-04-10T17:18:53.999Z</time></trkpt><trkpt lat="45.05699276834332" lon="1.790977856436415"><ele>356.0</ele><time>2026-04-10T17:18:54.999Z</time></trkpt><trkpt lat="45.056910033415235" lon="1.7911790583880152"><ele>356.0</ele><time>2026-04-10T17:18:55.999Z</time></trkpt><trkpt lat="45.056822651690155" lon="1.7913500217451257"><ele>356.75</ele><time>2026-04-10T17:18:56.999Z</time></trkpt><trkpt lat="45.05673444335043" lon="1.7914816970463665"><ele>357.5</ele><time>2026-04-10T17:18:57.999Z</time></trkpt><trkpt lat="45.05663403506196" lon="1.7915729264272517"><ele>358.25</ele><time>2026-04-10T17:18:58.999Z</time></trkpt><trkpt lat="45.05652624305598" lon="1.791659448729472"><ele>359.0</ele><time>2026-04-10T17:18:59.999Z</time></trkpt><trkpt lat="45.05640342832325" lon="1.7917182064667923"><ele>359.0</ele><time>2026-04-10T17:19:00.999Z</time></trkpt><trkpt lat="45.05626852904129" lon="1.7917532347803684"><ele>359.0</ele><time>2026-04-10T17:19:01.999Z</time></trkpt><trkpt lat="45.056107205869885" lon="1.7917771413992"><ele>359.0</ele><time>2026-04-10T17:19:02.999Z</time></trkpt><trkpt lat="45.05591994797006" lon="1.7918035872149833"><ele>356.5</ele><time>2026-04-10T17:19:03.999Z</time></trkpt><trkpt lat="45.05569446756233" lon="1.7917780491820763"><ele>354.0</ele><time>2026-04-10T17:19:04.999Z</time></trkpt><trkpt lat="45.055465629206644" lon="1.7917409683261063"><ele>354.0</ele><time>2026-04-10T17:19:05.999Z</time></trkpt><trkpt lat="45.05518644533322" lon="1.7916757472476708"><ele>354.0</ele><time>2026-04-10T17:19:07Z</time></trkpt><trkpt lat="45.05490877370858" lon="1.7916178282261086"><ele>350.0</ele><time>2026-04-10T17:19:08Z</time></trkpt><trkpt lat="45.054627679976555" lon="1.7916040602186312"><ele>346.0</ele><time>2026-04-10T17:19:09Z</time></trkpt><trkpt lat="45.05433960757207" lon="1.7916225796057097"><ele>340.5</ele><time>2026-04-10T17:19:10Z</time></trkpt><trkpt lat="45.054043769217074" lon="1.7916762142876566"><ele>335.0</ele><time>2026-04-10T17:19:11Z</time></trkpt><trkpt lat="45.05374827000252" lon="1.7917559193839523"><ele>335.0</ele><time>2026-04-10T17:19:12Z</time></trkpt><trkpt lat="45.05348154134835" lon="1.7918201109974712"><ele>335.0</ele><time>2026-04-10T17:19:13Z</time></trkpt><trkpt lat="45.05323268570995" lon="1.7919044011793455"><ele>337.5</ele><time>2026-04-10T17:19:14Z</time></trkpt><trkpt lat="45.05299917084539" lon="1.7920055300665159"><ele>340.0</ele><time>2026-04-10T17:19:15Z</time></trkpt><trkpt lat="45.05278862130844" lon="1.7921160996961178"><ele>340.0</ele><time>2026-04-10T17:19:16Z</time></trkpt><trkpt lat="45.05258431284263" lon="1.7922312273328935"><ele>340.0</ele><time>2026-04-10T17:19:17Z</time></trkpt><trkpt lat="45.0523797962686" lon="1.792364530605256"><ele>340.0</ele><time>2026-04-10T17:19:18Z</time></trkpt><trkpt lat="45.05219681971176" lon="1.7924993263860576"><ele>339.0</ele><time>2026-04-10T17:19:19Z</time></trkpt><trkpt lat="45.05202143654672" lon="1.7926243026169086"><ele>338.0</ele><time>2026-04-10T17:19:20Z</time></trkpt><trkpt lat="45.05183010039645" lon="1.7927229395450146"><ele>337.0</ele><time>2026-04-10T17:19:21Z</time></trkpt><trkpt lat="45.05164523996294" lon="1.792810953780576"><ele>332.0</ele><time>2026-04-10T17:19:22Z</time></trkpt><trkpt lat="45.0514752925445" lon="1.7929643811383498"><ele>327.0</ele><time>2026-04-10T17:19:23Z</time></trkpt><trkpt lat="45.05133016639519" lon="1.7931866452298677"><ele>322.0</ele><time>2026-04-10T17:19:24Z</time></trkpt><trkpt lat="45.0512058730287" lon="1.7934464693746557"><ele>326.3333333333333</ele><time>2026-04-10T17:19:25Z</time></trkpt><trkpt lat="45.05110061020702" lon="1.7936588107921831"><ele>330.6666666666667</ele><time>2026-04-10T17:19:26Z</time></trkpt><trkpt lat="45.05097038024092" lon="1.7937901794051456"><ele>335.0</ele><time>2026-04-10T17:19:27Z</time></trkpt><trkpt lat="45.050798062220494" lon="1.793850538404739"><ele>330.33333333333337</ele><time>2026-04-10T17:19:28Z</time></trkpt><trkpt lat="45.05059048474525" lon="1.7938583248500761"><ele>325.6666666666667</ele><time>2026-04-10T17:19:29Z</time></trkpt><trkpt lat="45.050387583605776" lon="1.7938623407023402"><ele>321.0</ele><time>2026-04-10T17:19:30Z</time></trkpt><trkpt lat="45.050246300063016" lon="1.7938979540443636"><ele>321.0</ele><time>2026-04-10T17:19:31Z</time></trkpt><trkpt lat="45.0501672287167" lon="1.793942113275113"><ele>321.0</ele><time>2026-04-10T17:19:32Z</time></trkpt><trkpt lat="45.05009595380763" lon="1.7939577361974"><ele>321.0</ele><time>2026-04-10T17:19:33Z</time></trkpt><trkpt lat="45.05003294485708" lon="1.7939094995681573"><ele>321.0</ele><time>2026-04-10T17:19:34Z</time></trkpt><trkpt lat="45.04996564064789" lon="1.7938296529294708"><ele>321.0</ele><time>2026-04-10T17:19:35Z</time></trkpt><trkpt lat="45.049897881023284" lon="1.7937698434548548"><ele>321.0</ele><time>2026-04-10T17:19:36Z</time></trkpt><trkpt lat="45.0498258960898" lon="1.793664371552617"><ele>319.3333333333333</ele><time>2026-04-10T17:19:38Z</time></trkpt><trkpt lat="45.04983021383913" lon="1.7935233624343925"><ele>317.6666666666667</ele><time>2026-04-10T17:19:40Z</time></trkpt><trkpt lat="45.049725078387674" lon="1.793472954470866"><ele>316.0</ele><time>2026-04-10T17:19:42Z</time></trkpt><trkpt lat="45.04966083832485" lon="1.7935561525524333"><ele>314.33333333333337</ele><time>2026-04-10T17:19:44Z</time></trkpt><trkpt lat="45.04961883086741" lon="1.7934705483164557"><ele>312.6666666666667</ele><time>2026-04-10T17:19:46Z</time></trkpt><trkpt lat="45.049660602483414" lon="1.7933990425196733"><ele>311.0</ele><time>2026-04-10T17:19:48Z</time></trkpt><trkpt lat="45.04975478139257" lon="1.7934575099410397"><ele>309.75</ele><time>2026-04-10T17:19:50Z</time></trkpt><trkpt lat="45.049857775703835" lon="1.7936102335163935"><ele>308.5</ele><time>2026-04-10T17:21:28Z</time></trkpt><trkpt lat="45.04982085210256" lon="1.793723146798426"><ele>307.25</ele><time>2026-04-10T17:21:30Z</time></trkpt><trkpt lat="45.049663576075545" lon="1.7936600424769127"><ele>306.0</ele><time>2026-04-10T17:21:33Z</time></trkpt><trkpt lat="45.04958894683402" lon="1.7936208517082897"><ele>306.0</ele><time>2026-04-10T17:21:34Z</time></trkpt><trkpt lat="45.049484272486595" lon="1.793551033085473"><ele>306.0</ele><time>2026-04-10T17:21:35Z</time></trkpt><trkpt lat="45.04937530858255" lon="1.7934607051281564"><ele>306.0</ele><time>2026-04-10T17:21:36Z</time></trkpt><trkpt lat="45.04927284254809" lon="1.793353525248361"><ele>306.0</ele><time>2026-04-10T17:21:37Z</time></trkpt><trkpt lat="45.04917863090973" lon="1.7932088119854772"><ele>304.75</ele><time>2026-04-10T17:21:38Z</time></trkpt><trkpt lat="45.04909532324763" lon="1.79304411445719"><ele>303.5</ele><time>2026-04-10T17:21:39Z</time></trkpt><trkpt lat="45.04902280712801" lon="1.7928633881233198"><ele>302.25</ele><time>2026-04-10T17:21:40Z</time></trkpt><trkpt lat="45.048982452206936" lon="1.7926791482189979"><ele>301.0</ele><time>2026-04-10T17:21:41Z</time></trkpt><trkpt lat="45.04897289237415" lon="1.7925270369188058"><ele>301.0</ele><time>2026-04-10T17:21:42Z</time></trkpt><trkpt lat="45.048965119528404" lon="1.792370296036124"><ele>301.0</ele><time>2026-04-10T17:21:44Z</time></trkpt><trkpt lat="45.04895077269531" lon="1.7922675390018186"><ele>301.0</ele><time>2026-04-10T17:21:45Z</time></trkpt><trkpt lat="45.048942110360194" lon="1.7921524478531758"><ele>301.0</ele><time>2026-04-10T17:21:46Z</time></trkpt><trkpt lat="45.04893877400175" lon="1.791997435423412"><ele>301.0</ele><time>2026-04-10T17:21:47Z</time></trkpt><trkpt lat="45.048940490022645" lon="1.7918167974166648"><ele>303.25</ele><time>2026-04-10T17:21:48Z</time></trkpt><trkpt lat="45.04892143495919" lon="1.7916609674752166"><ele>305.5</ele><time>2026-04-10T17:21:49Z</time></trkpt><trkpt lat="45.04888997877281" lon="1.7915159921090582"><ele>307.75</ele><time>2026-04-10T17:21:50Z</time></trkpt><trkpt lat="45.04882582210356" lon="1.791384306259181"><ele>310.0</ele><time>2026-04-10T17:21:51Z</time></trkpt><trkpt lat="45.04870476307301" lon="1.7912465328165852"><ele>310.0</ele><time>2026-04-10T17:21:52Z</time></trkpt><trkpt lat="45.048553839632916" lon="1.791151844722334"><ele>310.0</ele><time>2026-04-10T17:21:53Z</time></trkpt><trkpt lat="45.04836414946419" lon="1.7910901383595426"><ele>310.0</ele><time>2026-04-10T17:21:54Z</time></trkpt><trkpt lat="45.048183563292014" lon="1.7909871950755585"><ele>309.5</ele><time>2026-04-10T17:21:55Z</time></trkpt><trkpt lat="45.04805159765093" lon="1.7908958838398927"><ele>309.0</ele><time>2026-04-10T17:21:56Z</time></trkpt><trkpt lat="45.04794477574855" lon="1.7907755035837558"><ele>308.5</ele><time>2026-04-10T17:21:57Z</time></trkpt><trkpt lat="45.04790493496926" lon="1.7906370331216819"><ele>308.0</ele><time>2026-04-10T17:21:58Z</time></trkpt><trkpt lat="45.0478724968194" lon="1.7904490959029495"><ele>308.0</ele><time>2026-04-10T17:21:59Z</time></trkpt><trkpt lat="45.04784924416647" lon="1.7902294354261485"><ele>308.0</ele><time>2026-04-10T17:22:00Z</time></trkpt><trkpt lat="45.047808816406445" lon="1.7900393016446121"><ele>308.0</ele><time>2026-04-10T17:22:01Z</time></trkpt><trkpt lat="45.047753297755996" lon="1.7898745307290949"><ele>308.0</ele><time>2026-04-10T17:22:02Z</time></trkpt><trkpt lat="45.047653366439945" lon="1.7897145872157634"><ele>309.6666666666667</ele><time>2026-04-10T17:22:03Z</time></trkpt><trkpt lat="45.04751543082853" lon="1.7895528229561086"><ele>311.3333333333333</ele><time>2026-04-10T17:22:04Z</time></trkpt><trkpt lat="45.04733525129077" lon="1.7894375437331882"><ele>313.0</ele><time>2026-04-10T17:22:05Z</time></trkpt><trkpt lat="45.04715390182275" lon="1.7893422125560334"><ele>313.5</ele><time>2026-04-10T17:22:06Z</time></trkpt><trkpt lat="45.047030096396725" lon="1.7892470025285359"><ele>314.0</ele><time>2026-04-10T17:22:07Z</time></trkpt><trkpt lat="45.04699425713367" lon="1.7890892677229508"><ele>314.5</ele><time>2026-04-10T17:22:08Z</time></trkpt><trkpt lat="45.04696020388834" lon="1.7889264652012777"><ele>315.0</ele><time>2026-04-10T17:22:09Z</time></trkpt><trkpt lat="45.04693262533413" lon="1.7886925916543088"><ele>316.25</ele><time>2026-04-10T17:22:10Z</time></trkpt><trkpt lat="45.046887574713274" lon="1.7884816723754347"><ele>317.5</ele><time>2026-04-10T17:22:11Z</time></trkpt><trkpt lat="45.04684986711299" lon="1.7883284622095288"><ele>318.75</ele><time>2026-04-10T17:22:12Z</time></trkpt><trkpt lat="45.04679583458517" lon="1.788215690909419"><ele>320.0</ele><time>2026-04-10T17:22:13Z</time></trkpt><trkpt lat="45.04671241301761" lon="1.7881523265858905"><ele>318.75</ele><time>2026-04-10T17:22:14Z</time></trkpt><trkpt lat="45.046605692912244" lon="1.7881308957872397"><ele>317.5</ele><time>2026-04-10T17:22:15Z</time></trkpt><trkpt lat="45.046502231636914" lon="1.7881731559454672"><ele>316.25</ele><time>2026-04-10T17:22:16Z</time></trkpt><trkpt lat="45.04637211525377" lon="1.788267068714821"><ele>315.0</ele><time>2026-04-10T17:22:16.999Z</time></trkpt><trkpt lat="45.04624496379524" lon="1.788409560999573"><ele>315.0</ele><time>2026-04-10T17:22:17.999Z</time></trkpt><trkpt lat="45.0461238307643" lon="1.7884994132230483"><ele>315.0</ele><time>2026-04-10T17:22:18.999Z</time></trkpt><trkpt lat="45.04598689928673" lon="1.7884865957835199"><ele>315.0</ele><time>2026-04-10T17:22:19.999Z</time></trkpt><trkpt lat="45.04581205234255" lon="1.7884194026063036"><ele>312.3333333333333</ele><time>2026-04-10T17:22:20.999Z</time></trkpt><trkpt lat="45.045627002670805" lon="1.788366547690169"><ele>309.66666666666663</ele><time>2026-04-10T17:22:21.999Z</time></trkpt><trkpt lat="45.045434771382695" lon="1.7883657257020975"><ele>307.0</ele><time>2026-04-10T17:22:22.999Z</time></trkpt><trkpt lat="45.045270401149864" lon="1.7883657993954953"><ele>307.0</ele><time>2026-04-10T17:22:23.999Z</time></trkpt><trkpt lat="45.04515449535911" lon="1.7883390536223678"><ele>307.0</ele><time>2026-04-10T17:22:24.999Z</time></trkpt><trkpt lat="45.04506116788287" lon="1.7882584319251467"><ele>307.0</ele><time>2026-04-10T17:22:25.999Z</time></trkpt><trkpt lat="45.04496950064308" lon="1.788080333737152"><ele>307.0</ele><time>2026-04-10T17:22:26.999Z</time></trkpt><trkpt lat="45.044868169121614" lon="1.787854674378383"><ele>305.3333333333333</ele><time>2026-04-10T17:22:27.999Z</time></trkpt><trkpt lat="45.04476327247544" lon="1.7876262828680132"><ele>303.6666666666667</ele><time>2026-04-10T17:22:28.999Z</time></trkpt><trkpt lat="45.04466622314461" lon="1.7874297972795434"><ele>302.0</ele><time>2026-04-10T17:22:29.999Z</time></trkpt><trkpt lat="45.04456163968346" lon="1.787294052546413"><ele>302.0</ele><time>2026-04-10T17:22:30.999Z</time></trkpt><trkpt lat="45.044404310443085" lon="1.787199856145994"><ele>302.0</ele><time>2026-04-10T17:22:31.999Z</time></trkpt><trkpt lat="45.04422303345171" lon="1.7871358620305693"><ele>302.0</ele><time>2026-04-10T17:22:32.999Z</time></trkpt><trkpt lat="45.04395799225967" lon="1.7871437025487105"><ele>302.0</ele><time>2026-04-10T17:22:33.999Z</time></trkpt><trkpt lat="45.04375034017435" lon="1.7871226159508133"><ele>302.0</ele><time>2026-04-10T17:22:34.999Z</time></trkpt><trkpt lat="45.04358126208184" lon="1.7870865228692014"><ele>302.0</ele><time>2026-04-10T17:22:35.999Z</time></trkpt><trkpt lat="45.04342037457267" lon="1.7870879336426542"><ele>300.33333333333337</ele><time>2026-04-10T17:22:36.999Z</time></trkpt><trkpt lat="45.043272296947436" lon="1.78717402812593"><ele>298.6666666666667</ele><time>2026-04-10T17:22:37.999Z</time></trkpt><trkpt lat="45.043112285623096" lon="1.7873356063344263"><ele>297.0</ele><time>2026-04-10T17:22:38.999Z</time></trkpt><trkpt lat="45.04298065421406" lon="1.7875017749556164"><ele>297.0</ele><time>2026-04-10T17:22:39.999Z</time></trkpt><trkpt lat="45.04285490175117" lon="1.7875465460882785"><ele>297.0</ele><time>2026-04-10T17:22:40.999Z</time></trkpt><trkpt lat="45.0427225320451" lon="1.7875468588001444"><ele>297.0</ele><time>2026-04-10T17:22:41.999Z</time></trkpt><trkpt lat="45.04257516967825" lon="1.7874961349040264"><ele>297.0</ele><time>2026-04-10T17:22:42.999Z</time></trkpt><trkpt lat="45.04245802742697" lon="1.7873737241235987"><ele>294.3333333333333</ele><time>2026-04-10T17:22:43.999Z</time></trkpt><trkpt lat="45.042336489072504" lon="1.7872271240236517"><ele>291.66666666666663</ele><time>2026-04-10T17:22:44.999Z</time></trkpt><trkpt lat="45.04221012298819" lon="1.7870064538201882"><ele>289.0</ele><time>2026-04-10T17:22:45.999Z</time></trkpt><trkpt lat="45.04209864805252" lon="1.7868106037867306"><ele>289.0</ele><time>2026-04-10T17:22:46.999Z</time></trkpt><trkpt lat="45.04201948420105" lon="1.7866283936409904"><ele>289.0</ele><time>2026-04-10T17:22:47.999Z</time></trkpt><trkpt lat="45.04197991387243" lon="1.7863769968745786"><ele>289.0</ele><time>2026-04-10T17:22:48.999Z</time></trkpt><trkpt lat="45.041926114954734" lon="1.786081349636965"><ele>289.3333333333333</ele><time>2026-04-10T17:22:49.999Z</time></trkpt><trkpt lat="45.0418949386719" lon="1.785759805067824"><ele>289.6666666666667</ele><time>2026-04-10T17:22:50.999Z</time></trkpt><trkpt lat="45.0418421545493" lon="1.7854840227419246"><ele>290.0</ele><time>2026-04-10T17:22:51.999Z</time></trkpt><trkpt lat="45.04174045675646" lon="1.7852066172400496"><ele>283.0</ele><time>2026-04-10T17:22:52.999Z</time></trkpt><trkpt lat="45.04159609433314" lon="1.7848998253151827"><ele>276.0</ele><time>2026-04-10T17:22:53.999Z</time></trkpt><trkpt lat="45.041436113345554" lon="1.7845807462321048"><ele>278.5</ele><time>2026-04-10T17:22:54.999Z</time></trkpt><trkpt lat="45.04128193134087" lon="1.78423693993794"><ele>281.0</ele><time>2026-04-10T17:22:55.999Z</time></trkpt><trkpt lat="45.04112336032053" lon="1.7838753867572075"><ele>281.0</ele><time>2026-04-10T17:22:56.999Z</time></trkpt><trkpt lat="45.04096979552526" lon="1.783518436497039"><ele>281.0</ele><time>2026-04-10T17:22:57.999Z</time></trkpt><trkpt lat="45.040840306790585" lon="1.7831679993497855"><ele>277.0</ele><time>2026-04-10T17:22:58.999Z</time></trkpt><trkpt lat="45.040696452373936" lon="1.7828587720680396"><ele>273.0</ele><time>2026-04-10T17:22:59.999Z</time></trkpt><trkpt lat="45.04054628559113" lon="1.782557417112109"><ele>273.0</ele><time>2026-04-10T17:23:00.999Z</time></trkpt><trkpt lat="45.04035652204176" lon="1.7822578970378076"><ele>273.0</ele><time>2026-04-10T17:23:01.999Z</time></trkpt><trkpt lat="45.04013779570641" lon="1.781960496645861"><ele>268.5</ele><time>2026-04-10T17:23:02.999Z</time></trkpt><trkpt lat="45.039915376540414" lon="1.781662648244046"><ele>264.0</ele><time>2026-04-10T17:23:03.999Z</time></trkpt><trkpt lat="45.039702700999385" lon="1.7813632028725177"><ele>264.0</ele><time>2026-04-10T17:23:04.999Z</time></trkpt><trkpt lat="45.03951390759786" lon="1.7811041591711927"><ele>264.0</ele><time>2026-04-10T17:23:05.999Z</time></trkpt><trkpt lat="45.03934232236319" lon="1.7808720202208395"><ele>264.6666666666667</ele><time>2026-04-10T17:23:06.999Z</time></trkpt><trkpt lat="45.03919486187354" lon="1.780657259896989"><ele>265.33333333333337</ele><time>2026-04-10T17:23:07.999Z</time></trkpt><trkpt lat="45.03907204145482" lon="1.780480304030787"><ele>266.0</ele><time>2026-04-10T17:23:08.999Z</time></trkpt><trkpt lat="45.03896417050696" lon="1.7803363830879477"><ele>266.0</ele><time>2026-04-10T17:23:09.999Z</time></trkpt><trkpt lat="45.038856228526804" lon="1.7802596085433826"><ele>266.0</ele><time>2026-04-10T17:23:10.999Z</time></trkpt><trkpt lat="45.038707160178255" lon="1.780247532527613"><ele>266.0</ele><time>2026-04-10T17:23:11.999Z</time></trkpt><trkpt lat="45.038524562976555" lon="1.7802877827909134"><ele>266.0</ele><time>2026-04-10T17:23:12.999Z</time></trkpt><trkpt lat="45.0383305896883" lon="1.7803466080629955"><ele>266.0</ele><time>2026-04-10T17:23:13.999Z</time></trkpt><trkpt lat="45.038146388113155" lon="1.7803561102427226"><ele>266.0</ele><time>2026-04-10T17:23:14.999Z</time></trkpt><trkpt lat="45.03800365458462" lon="1.7803836156249402"><ele>267.0</ele><time>2026-04-10T17:23:15.999Z</time></trkpt><trkpt lat="45.03789219935995" lon="1.780430263744157"><ele>268.0</ele><time>2026-04-10T17:23:16.999Z</time></trkpt><trkpt lat="45.0378088881014" lon="1.780445998764511"><ele>269.0</ele><time>2026-04-10T17:23:17.999Z</time></trkpt><trkpt lat="45.03772620432751" lon="1.780452532013042"><ele>270.0</ele><time>2026-04-10T17:23:19Z</time></trkpt><trkpt lat="45.037663999479165" lon="1.780387417808105"><ele>271.0</ele><time>2026-04-10T17:23:20Z</time></trkpt><trkpt lat="45.037593709015155" lon="1.7802507995754577"><ele>270.5</ele><time>2026-04-10T17:23:21Z</time></trkpt><trkpt lat="45.037509746941815" lon="1.7800835602038816"><ele>270.0</ele><time>2026-04-10T17:23:22Z</time></trkpt><trkpt lat="45.03746059850106" lon="1.7799379034926275"><ele>269.5</ele><time>2026-04-10T17:23:23Z</time></trkpt><trkpt lat="45.037473606822715" lon="1.7797694692030257"><ele>269.0</ele><time>2026-04-10T17:23:24Z</time></trkpt><trkpt lat="45.03753384387609" lon="1.779564901215733"><ele>269.33333333333337</ele><time>2026-04-10T17:23:25Z</time></trkpt><trkpt lat="45.03763088498221" lon="1.7793258639155944"><ele>269.6666666666667</ele><time>2026-04-10T17:23:26Z</time></trkpt><trkpt lat="45.03774179571601" lon="1.7790682481240836"><ele>270.0</ele><time>2026-04-10T17:23:27Z</time></trkpt><trkpt lat="45.037841825026625" lon="1.7787998689082527"><ele>270.0</ele><time>2026-04-10T17:23:28Z</time></trkpt><trkpt lat="45.0379290001892" lon="1.7785767141926159"><ele>270.0</ele><time>2026-04-10T17:23:29Z</time></trkpt><trkpt lat="45.03799774756855" lon="1.7784079977399638"><ele>270.0</ele><time>2026-04-10T17:23:30Z</time></trkpt><trkpt lat="45.03805371557649" lon="1.7782697639474339"><ele>270.0</ele><time>2026-04-10T17:23:31Z</time></trkpt><trkpt lat="45.03810417769015" lon="1.7781970043274242"><ele>270.6</ele><time>2026-04-10T17:23:32Z</time></trkpt><trkpt lat="45.038201494300786" lon="1.7781568300770394"><ele>271.2</ele><time>2026-04-10T17:23:34Z</time></trkpt><trkpt lat="45.038249936774136" lon="1.77805444895582"><ele>271.8</ele><time>2026-04-10T17:23:41Z</time></trkpt><trkpt lat="45.03823342958121" lon="1.777908545895758"><ele>272.4</ele><time>2026-04-10T17:23:42Z</time></trkpt><trkpt lat="45.0382041052378" lon="1.777724454427578"><ele>273.0</ele><time>2026-04-10T17:23:43Z</time></trkpt><trkpt lat="45.038162666112996" lon="1.7774675757406573"><ele>273.3333333333333</ele><time>2026-04-10T17:23:44Z</time></trkpt><trkpt lat="45.038121109933456" lon="1.7771837169485147"><ele>273.66666666666663</ele><time>2026-04-10T17:23:45Z</time></trkpt><trkpt lat="45.03808856436075" lon="1.7768635565647448"><ele>274.0</ele><time>2026-04-10T17:23:46Z</time></trkpt><trkpt lat="45.03805233270986" lon="1.7765241959861882"><ele>274.0</ele><time>2026-04-10T17:23:47Z</time></trkpt><trkpt lat="45.03800219751118" lon="1.7761542258218856"><ele>274.0</ele><time>2026-04-10T17:23:48Z</time></trkpt><trkpt lat="45.0379713271026" lon="1.7758080575478195"><ele>274.0</ele><time>2026-04-10T17:23:49Z</time></trkpt><trkpt lat="45.03796422399722" lon="1.775424446002314"><ele>274.0</ele><time>2026-04-10T17:23:50Z</time></trkpt><trkpt lat="45.03797619799667" lon="1.7750482728174264"><ele>274.0</ele><time>2026-04-10T17:23:51Z</time></trkpt><trkpt lat="45.03802865288276" lon="1.7746684670979802"><ele>274.0</ele><time>2026-04-10T17:23:52Z</time></trkpt><trkpt lat="45.03808791967987" lon="1.774276449174941"><ele>274.5</ele><time>2026-04-10T17:23:53Z</time></trkpt><trkpt lat="45.03819153016762" lon="1.7739089477992063"><ele>275.0</ele><time>2026-04-10T17:23:54Z</time></trkpt><trkpt lat="45.03826624432628" lon="1.7735474059524166"><ele>263.5</ele><time>2026-04-10T17:23:55Z</time></trkpt><trkpt lat="45.03832264179676" lon="1.773177871315689"><ele>252.0</ele><time>2026-04-10T17:23:56Z</time></trkpt><trkpt lat="45.038351176809705" lon="1.772763267006046"><ele>250.5</ele><time>2026-04-10T17:23:57Z</time></trkpt><trkpt lat="45.03836757167537" lon="1.772314135540682"><ele>249.0</ele><time>2026-04-10T17:23:58Z</time></trkpt><trkpt lat="45.03839354907158" lon="1.7718416506816381"><ele>247.0</ele><time>2026-04-10T17:23:59Z</time></trkpt><trkpt lat="45.03842250749368" lon="1.771367044154878"><ele>245.0</ele><time>2026-04-10T17:24:00Z</time></trkpt><trkpt lat="45.03846558994711" lon="1.770890557870817"><ele>242.5</ele><time>2026-04-10T17:24:01Z</time></trkpt><trkpt lat="45.03851179373097" lon="1.7704597391648658"><ele>240.0</ele><time>2026-04-10T17:24:02Z</time></trkpt><trkpt lat="45.038532598882654" lon="1.7700598287970843"><ele>239.5</ele><time>2026-04-10T17:24:03Z</time></trkpt><trkpt lat="45.03855575142588" lon="1.7696839270210512"><ele>239.0</ele><time>2026-04-10T17:24:04Z</time></trkpt><trkpt lat="45.03861006398861" lon="1.769322208051779"><ele>240.33333333333334</ele><time>2026-04-10T17:24:05Z</time></trkpt><trkpt lat="45.038695048450606" lon="1.769036645245065"><ele>241.66666666666669</ele><time>2026-04-10T17:24:06Z</time></trkpt><trkpt lat="45.03883164586616" lon="1.7687840477322885"><ele>243.0</ele><time>2026-04-10T17:24:07Z</time></trkpt><trkpt lat="45.039030580399086" lon="1.7685415784288496"><ele>239.5</ele><time>2026-04-10T17:24:08Z</time></trkpt><trkpt lat="45.03926247124513" lon="1.7683020972700219"><ele>236.0</ele><time>2026-04-10T17:24:09Z</time></trkpt><trkpt lat="45.03948994831999" lon="1.7680166362008498"><ele>236.0</ele><time>2026-04-10T17:24:10Z</time></trkpt><trkpt lat="45.03971941900429" lon="1.7677178768201285"><ele>236.0</ele><time>2026-04-10T17:24:11Z</time></trkpt><trkpt lat="45.03995408546161" lon="1.7674205755548233"><ele>233.5</ele><time>2026-04-10T17:24:12Z</time></trkpt><trkpt lat="45.040186039669116" lon="1.7671026702211041"><ele>231.0</ele><time>2026-04-10T17:24:13Z</time></trkpt><trkpt lat="45.04041973360105" lon="1.7667684650635975"><ele>228.0</ele><time>2026-04-10T17:24:14Z</time></trkpt><trkpt lat="45.04065585172212" lon="1.7664217716657489"><ele>225.0</ele><time>2026-04-10T17:24:15Z</time></trkpt><trkpt lat="45.040865918415165" lon="1.7660296502264006"><ele>226.5</ele><time>2026-04-10T17:24:16Z</time></trkpt><trkpt lat="45.041062234985475" lon="1.7656840930982893"><ele>228.0</ele><time>2026-04-10T17:24:17Z</time></trkpt><trkpt lat="45.04128513057825" lon="1.7653828473398796"><ele>224.0</ele><time>2026-04-10T17:24:18Z</time></trkpt><trkpt lat="45.041538371929" lon="1.7651081756066038"><ele>220.0</ele><time>2026-04-10T17:24:19Z</time></trkpt><trkpt lat="45.041784771174214" lon="1.764873455088818"><ele>220.0</ele><time>2026-04-10T17:24:20Z</time></trkpt><trkpt lat="45.0420024854944" lon="1.7646537171250516"><ele>220.0</ele><time>2026-04-10T17:24:21Z</time></trkpt><trkpt lat="45.042168844558994" lon="1.7644157668751304"><ele>225.5</ele><time>2026-04-10T17:24:22Z</time></trkpt><trkpt lat="45.042283689965096" lon="1.7641196401984138"><ele>231.0</ele><time>2026-04-10T17:24:23Z</time></trkpt><trkpt lat="45.042366103299344" lon="1.7637854313806949"><ele>231.0</ele><time>2026-04-10T17:24:24Z</time></trkpt><trkpt lat="45.04241379381531" lon="1.7634350848051092"><ele>231.0</ele><time>2026-04-10T17:24:25Z</time></trkpt><trkpt lat="45.04241331895573" lon="1.7631043504174506"><ele>231.0</ele><time>2026-04-10T17:24:26Z</time></trkpt><trkpt lat="45.04236437661698" lon="1.762765982799239"><ele>231.0</ele><time>2026-04-10T17:24:27Z</time></trkpt><trkpt lat="45.0422726619699" lon="1.7624333616779937"><ele>230.0</ele><time>2026-04-10T17:24:28Z</time></trkpt><trkpt lat="45.04216509657481" lon="1.7621312789096084"><ele>229.0</ele><time>2026-04-10T17:24:29Z</time></trkpt><trkpt lat="45.04205545891216" lon="1.7618127896343616"><ele>225.5</ele><time>2026-04-10T17:24:30Z</time></trkpt><trkpt lat="45.04196391240955" lon="1.7615037461906007"><ele>222.0</ele><time>2026-04-10T17:24:31Z</time></trkpt><trkpt lat="45.04190093902745" lon="1.7611841911186716"><ele>218.5</ele><time>2026-04-10T17:24:31.999Z</time></trkpt><trkpt lat="45.041861721210296" lon="1.7608709433627086"><ele>215.0</ele><time>2026-04-10T17:24:32.999Z</time></trkpt><trkpt lat="45.04187431131268" lon="1.760543990656214"><ele>217.0</ele><time>2026-04-10T17:24:33.999Z</time></trkpt><trkpt lat="45.04192589017298" lon="1.7601899542827872"><ele>219.0</ele><time>2026-04-10T17:24:34.999Z</time></trkpt><trkpt lat="45.04196593121001" lon="1.7597788741805687"><ele>219.5</ele><time>2026-04-10T17:24:35.999Z</time></trkpt><trkpt lat="45.042033517019945" lon="1.7593584864939167"><ele>220.0</ele><time>2026-04-10T17:24:36.999Z</time></trkpt><trkpt lat="45.04208395674531" lon="1.7589322832819354"><ele>220.0</ele><time>2026-04-10T17:24:37.999Z</time></trkpt><trkpt lat="45.04215023970286" lon="1.7585502471324048"><ele>220.0</ele><time>2026-04-10T17:24:38.999Z</time></trkpt><trkpt lat="45.042191484373376" lon="1.7582260482822356"><ele>219.0</ele><time>2026-04-10T17:24:39.999Z</time></trkpt><trkpt lat="45.04221103936345" lon="1.7579459519610203"><ele>218.0</ele><time>2026-04-10T17:24:40.999Z</time></trkpt><trkpt lat="45.04217623441952" lon="1.7576617645771049"><ele>217.0</ele><time>2026-04-10T17:24:41.999Z</time></trkpt><trkpt lat="45.04208244811556" lon="1.7573456647648718"><ele>213.5</ele><time>2026-04-10T17:24:42.999Z</time></trkpt><trkpt lat="45.04194773319069" lon="1.7570033274560506"><ele>210.0</ele><time>2026-04-10T17:24:43.999Z</time></trkpt><trkpt lat="45.04184175527544" lon="1.756620006833307"><ele>206.5</ele><time>2026-04-10T17:24:44.999Z</time></trkpt><trkpt lat="45.04175534476766" lon="1.7562101698183772"><ele>203.0</ele><time>2026-04-10T17:24:45.999Z</time></trkpt><trkpt lat="45.041667307322776" lon="1.7557879668378564"><ele>203.5</ele><time>2026-04-10T17:24:46.999Z</time></trkpt><trkpt lat="45.04155367751703" lon="1.7553647873054448"><ele>204.0</ele><time>2026-04-10T17:24:47.999Z</time></trkpt><trkpt lat="45.04147982651055" lon="1.7549386835936325"><ele>204.0</ele><time>2026-04-10T17:24:48.999Z</time></trkpt><trkpt lat="45.04141552284431" lon="1.7544807463244656"><ele>204.0</ele><time>2026-04-10T17:24:49.999Z</time></trkpt><trkpt lat="45.04138818066348" lon="1.7539991457852004"><ele>201.5</ele><time>2026-04-10T17:24:50.999Z</time></trkpt><trkpt lat="45.041374250012005" lon="1.7535108134969453"><ele>199.0</ele><time>2026-04-10T17:24:51.999Z</time></trkpt><trkpt lat="45.041361304819524" lon="1.753019383547377"><ele>197.5</ele><time>2026-04-10T17:24:52.999Z</time></trkpt><trkpt lat="45.04133228568454" lon="1.7525842502076425"><ele>196.0</ele><time>2026-04-10T17:24:53.999Z</time></trkpt><trkpt lat="45.04130336035433" lon="1.7522199629719633"><ele>196.0</ele><time>2026-04-10T17:24:54.999Z</time></trkpt><trkpt lat="45.041274314657436" lon="1.7518981804293148"><ele>196.0</ele><time>2026-04-10T17:24:55.999Z</time></trkpt><trkpt lat="45.04122900402743" lon="1.7515914898229323"><ele>193.0</ele><time>2026-04-10T17:24:56.999Z</time></trkpt><trkpt lat="45.04113846027175" lon="1.7513186702315005"><ele>190.0</ele><time>2026-04-10T17:24:57.999Z</time></trkpt><trkpt lat="45.0410008096816" lon="1.75109526672103"><ele>187.0</ele><time>2026-04-10T17:24:58.999Z</time></trkpt><trkpt lat="45.04079345244174" lon="1.750903282205415"><ele>184.5</ele><time>2026-04-10T17:24:59.999Z</time></trkpt><trkpt lat="45.04056442836214" lon="1.7507356649596721"><ele>182.0</ele><time>2026-04-10T17:25:00.999Z</time></trkpt><trkpt lat="45.040367829184646" lon="1.7505363787029944"><ele>182.0</ele><time>2026-04-10T17:25:01.999Z</time></trkpt><trkpt lat="45.04019151918199" lon="1.7502816143093372"><ele>182.0</ele><time>2026-04-10T17:25:02.999Z</time></trkpt><trkpt lat="45.04003935404063" lon="1.7499842573196778"><ele>173.0</ele><time>2026-04-10T17:25:03.999Z</time></trkpt><trkpt lat="45.03994577067661" lon="1.7496347550440943"><ele>164.0</ele><time>2026-04-10T17:25:04.999Z</time></trkpt><trkpt lat="45.039896488819906" lon="1.7492606823677883"><ele>159.5</ele><time>2026-04-10T17:25:05.999Z</time></trkpt><trkpt lat="45.03987346296124" lon="1.7488771053027818"><ele>155.0</ele><time>2026-04-10T17:25:06.999Z</time></trkpt><trkpt lat="45.0398562248995" lon="1.7485773914465037"><ele>155.5</ele><time>2026-04-10T17:25:07.999Z</time></trkpt><trkpt lat="45.03982594090341" lon="1.748379561047821"><ele>156.0</ele><time>2026-04-10T17:25:08.999Z</time></trkpt><trkpt lat="45.0397995105494" lon="1.748218547646527"><ele>156.5</ele><time>2026-04-10T17:25:09.999Z</time></trkpt><trkpt lat="45.039774440763935" lon="1.748064682660656"><ele>157.0</ele><time>2026-04-10T17:25:10.999Z</time></trkpt><trkpt lat="45.03974498533909" lon="1.747933578368672"><ele>157.0</ele><time>2026-04-10T17:25:11.999Z</time></trkpt><trkpt lat="45.03973115355653" lon="1.7478431298828625"><ele>157.0</ele><time>2026-04-10T17:25:12.999Z</time></trkpt><trkpt lat="45.03964004701117" lon="1.7477663732128144"><ele>157.0</ele><time>2026-04-10T17:25:14.999Z</time></trkpt><trkpt lat="45.03951333367074" lon="1.7479277531864972"><ele>157.0</ele><time>2026-04-10T17:25:16.999Z</time></trkpt><trkpt lat="45.039425579678245" lon="1.7479812049378505"><ele>157.0</ele><time>2026-04-10T17:25:17.999Z</time></trkpt><trkpt lat="45.0393212375373" lon="1.7479423505656235"><ele>157.0</ele><time>2026-04-10T17:25:18.999Z</time></trkpt><trkpt lat="45.039201748786056" lon="1.7478103840848742"><ele>157.0</ele><time>2026-04-10T17:25:19.999Z</time></trkpt><trkpt lat="45.03905068213189" lon="1.7476718134927234"><ele>157.0</ele><time>2026-04-10T17:25:20.999Z</time></trkpt><trkpt lat="45.03886979136913" lon="1.7475556679891089"><ele>160.0</ele><time>2026-04-10T17:25:21.999Z</time></trkpt><trkpt lat="45.03864364347258" lon="1.747497302073185"><ele>163.0</ele><time>2026-04-10T17:25:22.999Z</time></trkpt><trkpt lat="45.03839311746278" lon="1.7474575262777012"><ele>162.5</ele><time>2026-04-10T17:25:23.999Z</time></trkpt><trkpt lat="45.03812603100439" lon="1.7474186367018623"><ele>162.0</ele><time>2026-04-10T17:25:25Z</time></trkpt><trkpt lat="45.03785227496768" lon="1.7473699577342312"><ele>162.0</ele><time>2026-04-10T17:25:26Z</time></trkpt><trkpt lat="45.03756504341904" lon="1.747320082933188"><ele>162.0</ele><time>2026-04-10T17:25:27Z</time></trkpt><trkpt lat="45.03726525859112" lon="1.7472714695283103"><ele>159.0</ele><time>2026-04-10T17:25:28Z</time></trkpt><trkpt lat="45.03696049044625" lon="1.74722203863598"><ele>156.0</ele><time>2026-04-10T17:25:29Z</time></trkpt><trkpt lat="45.03665030968956" lon="1.7471693948556841"><ele>155.5</ele><time>2026-04-10T17:25:30Z</time></trkpt><trkpt lat="45.036334427968804" lon="1.7471179989166268"><ele>155.0</ele><time>2026-04-10T17:25:31Z</time></trkpt><trkpt lat="45.036007206751314" lon="1.7470701017192343"><ele>153.5</ele><time>2026-04-10T17:25:32Z</time></trkpt><trkpt lat="45.035675329846654" lon="1.7470059762917327"><ele>152.0</ele><time>2026-04-10T17:25:33Z</time></trkpt><trkpt lat="45.03535821029675" lon="1.7469242998275247"><ele>153.5</ele><time>2026-04-10T17:25:34Z</time></trkpt><trkpt lat="45.03505674970309" lon="1.7468271955927404"><ele>155.0</ele><time>2026-04-10T17:25:35Z</time></trkpt><trkpt lat="45.034750999749875" lon="1.7466744570806692"><ele>155.0</ele><time>2026-04-10T17:25:36Z</time></trkpt><trkpt lat="45.03443579957977" lon="1.746492412452108"><ele>155.0</ele><time>2026-04-10T17:25:37Z</time></trkpt><trkpt lat="45.034120490197495" lon="1.7463248845821173"><ele>154.5</ele><time>2026-04-10T17:25:38Z</time></trkpt><trkpt lat="45.03379746099424" lon="1.746156919800199"><ele>154.0</ele><time>2026-04-10T17:25:39Z</time></trkpt><trkpt lat="45.03347152190371" lon="1.7459841517872723"><ele>154.5</ele><time>2026-04-10T17:25:40Z</time></trkpt><trkpt lat="45.03314472098156" lon="1.7458177747511672"><ele>155.0</ele><time>2026-04-10T17:25:41Z</time></trkpt><trkpt lat="45.03280717446153" lon="1.7456588094785235"><ele>155.0</ele><time>2026-04-10T17:25:42Z</time></trkpt><trkpt lat="45.03248946689534" lon="1.7454571066115872"><ele>155.0</ele><time>2026-04-10T17:25:43Z</time></trkpt><trkpt lat="45.032179261441954" lon="1.745293364048522"><ele>157.0</ele><time>2026-04-10T17:25:44Z</time></trkpt><trkpt lat="45.03189978555537" lon="1.745140191085328"><ele>159.0</ele><time>2026-04-10T17:25:45Z</time></trkpt><trkpt lat="45.03166019350828" lon="1.7450222085289613"><ele>158.0</ele><time>2026-04-10T17:25:46Z</time></trkpt><trkpt lat="45.03141424252064" lon="1.7449304241900534"><ele>157.0</ele><time>2026-04-10T17:25:47Z</time></trkpt><trkpt lat="45.03112551370494" lon="1.7448877592737218"><ele>157.0</ele><time>2026-04-10T17:25:48Z</time></trkpt><trkpt lat="45.03082195668727" lon="1.7448608196908393"><ele>157.0</ele><time>2026-04-10T17:25:49Z</time></trkpt><trkpt lat="45.03050292830554" lon="1.7448507557501765"><ele>157.0</ele><time>2026-04-10T17:25:50Z</time></trkpt><trkpt lat="45.030171482609695" lon="1.744845196524373"><ele>157.0</ele><time>2026-04-10T17:25:51Z</time></trkpt><trkpt lat="45.02983806936276" lon="1.744824366708123"><ele>157.5</ele><time>2026-04-10T17:25:52Z</time></trkpt><trkpt lat="45.02949952788887" lon="1.7447992756974635"><ele>158.0</ele><time>2026-04-10T17:25:53Z</time></trkpt><trkpt lat="45.02915558374499" lon="1.7447759088578478"><ele>156.0</ele><time>2026-04-10T17:25:54Z</time></trkpt><trkpt lat="45.02880406401305" lon="1.7447445418722858"><ele>154.0</ele><time>2026-04-10T17:25:55Z</time></trkpt><trkpt lat="45.028451708721946" lon="1.7447100632588002"><ele>154.5</ele><time>2026-04-10T17:25:56Z</time></trkpt><trkpt lat="45.028106688285874" lon="1.7447009977944092"><ele>155.0</ele><time>2026-04-10T17:25:57Z</time></trkpt><trkpt lat="45.02775545279322" lon="1.74469251585941"><ele>154.5</ele><time>2026-04-10T17:25:58Z</time></trkpt><trkpt lat="45.027368761738984" lon="1.7446719509446569"><ele>154.0</ele><time>2026-04-10T17:25:59Z</time></trkpt><trkpt lat="45.02706274848989" lon="1.744614166470078"><ele>154.0</ele><time>2026-04-10T17:26:00Z</time></trkpt><trkpt lat="45.02688652408717" lon="1.7445082090100386"><ele>154.0</ele><time>2026-04-10T17:26:01Z</time></trkpt><trkpt lat="45.026628498491256" lon="1.7443471521962461"><ele>154.0</ele><time>2026-04-10T17:26:02Z</time></trkpt><trkpt lat="45.026380006364896" lon="1.7441752963463304"><ele>154.0</ele><time>2026-04-10T17:26:03Z</time></trkpt><trkpt lat="45.0261166723586" lon="1.7439983163298123"><ele>154.0</ele><time>2026-04-10T17:26:04Z</time></trkpt><trkpt lat="45.02584080567065" lon="1.7438458081293062"><ele>154.0</ele><time>2026-04-10T17:26:05Z</time></trkpt><trkpt lat="45.025558164637786" lon="1.7436932907115335"><ele>152.5</ele><time>2026-04-10T17:26:06Z</time></trkpt><trkpt lat="45.025263460470235" lon="1.743613034957418"><ele>151.0</ele><time>2026-04-10T17:26:07Z</time></trkpt><trkpt lat="45.02496799779306" lon="1.7435970911886962"><ele>151.0</ele><time>2026-04-10T17:26:08Z</time></trkpt><trkpt lat="45.024657826887434" lon="1.7436016426956236"><ele>151.0</ele><time>2026-04-10T17:26:09Z</time></trkpt><trkpt lat="45.02434214047629" lon="1.7435850258504626"><ele>151.5</ele><time>2026-04-10T17:26:10Z</time></trkpt><trkpt lat="45.02406039023545" lon="1.7435671274669085"><ele>152.0</ele><time>2026-04-10T17:26:11Z</time></trkpt><trkpt lat="45.02381814729112" lon="1.7435492173053688"><ele>152.0</ele><time>2026-04-10T17:26:12Z</time></trkpt><trkpt lat="45.023587648163954" lon="1.7435739519397502"><ele>152.0</ele><time>2026-04-10T17:26:13Z</time></trkpt><trkpt lat="45.023351901942725" lon="1.7437104801688337"><ele>155.5</ele><time>2026-04-10T17:26:14Z</time></trkpt><trkpt lat="45.02310087730097" lon="1.7438865686189844"><ele>159.0</ele><time>2026-04-10T17:26:15Z</time></trkpt><trkpt lat="45.022860191712795" lon="1.7441283784339634"><ele>159.0</ele><time>2026-04-10T17:26:16Z</time></trkpt><trkpt lat="45.02261067491601" lon="1.744335226763701"><ele>159.0</ele><time>2026-04-10T17:26:17Z</time></trkpt><trkpt lat="45.02236076866106" lon="1.7444877564382697"><ele>155.5</ele><time>2026-04-10T17:26:18Z</time></trkpt><trkpt lat="45.0220901086821" lon="1.74461596789708"><ele>152.0</ele><time>2026-04-10T17:26:19Z</time></trkpt><trkpt lat="45.021795988793826" lon="1.7446665631397806"><ele>151.5</ele><time>2026-04-10T17:26:20Z</time></trkpt><trkpt lat="45.02148686923485" lon="1.7447567871453507"><ele>151.0</ele><time>2026-04-10T17:26:21Z</time></trkpt><trkpt lat="45.021163666765965" lon="1.7448063486164125"><ele>151.0</ele><time>2026-04-10T17:26:22Z</time></trkpt><trkpt lat="45.02083433606972" lon="1.7448810981094156"><ele>151.0</ele><time>2026-04-10T17:26:23Z</time></trkpt><trkpt lat="45.02050406629854" lon="1.744968101144012"><ele>151.0</ele><time>2026-04-10T17:26:24Z</time></trkpt><trkpt lat="45.020157387461175" lon="1.7450626732683734"><ele>151.0</ele><time>2026-04-10T17:26:25Z</time></trkpt><trkpt lat="45.0198200998625" lon="1.7451604906293468"><ele>149.5</ele><time>2026-04-10T17:26:26Z</time></trkpt><trkpt lat="45.01947478841035" lon="1.7452520988196514"><ele>148.0</ele><time>2026-04-10T17:26:27Z</time></trkpt><trkpt lat="45.01912982650396" lon="1.745350987485659"><ele>148.0</ele><time>2026-04-10T17:26:28Z</time></trkpt><trkpt lat="45.01878433446696" lon="1.7454586259965355"><ele>148.0</ele><time>2026-04-10T17:26:29Z</time></trkpt><trkpt lat="45.01843260367293" lon="1.7455621392583935"><ele>149.0</ele><time>2026-04-10T17:26:30Z</time></trkpt><trkpt lat="45.01807854252006" lon="1.7456686128549048"><ele>150.0</ele><time>2026-04-10T17:26:31Z</time></trkpt><trkpt lat="45.01774289366432" lon="1.7457547768279138"><ele>149.0</ele><time>2026-04-10T17:26:32Z</time></trkpt><trkpt lat="45.017434184837526" lon="1.7458305201066306"><ele>148.0</ele><time>2026-04-10T17:26:33Z</time></trkpt><trkpt lat="45.017160001660734" lon="1.7458306405060595"><ele>148.0</ele><time>2026-04-10T17:26:34Z</time></trkpt><trkpt lat="45.01688831227913" lon="1.7457514361279052"><ele>148.0</ele><time>2026-04-10T17:26:35Z</time></trkpt><trkpt lat="45.016598362851006" lon="1.745675832259618"><ele>148.0</ele><time>2026-04-10T17:26:36Z</time></trkpt><trkpt lat="45.016283239963755" lon="1.7456714216339737"><ele>148.0</ele><time>2026-04-10T17:26:36.999Z</time></trkpt><trkpt lat="45.01596709448183" lon="1.7457154130278443"><ele>149.5</ele><time>2026-04-10T17:26:37.999Z</time></trkpt><trkpt lat="45.015684760249904" lon="1.7457845542304766"><ele>151.0</ele><time>2026-04-10T17:26:38.999Z</time></trkpt><trkpt lat="45.0154228977541" lon="1.7458346604989146"><ele>151.0</ele><time>2026-04-10T17:26:39.999Z</time></trkpt><trkpt lat="45.015165600078575" lon="1.7459041911905202"><ele>151.0</ele><time>2026-04-10T17:26:40.999Z</time></trkpt><trkpt lat="45.01492022039116" lon="1.7460416751155978"><ele>149.5</ele><time>2026-04-10T17:26:41.999Z</time></trkpt><trkpt lat="45.01466950131775" lon="1.7462497155724355"><ele>148.0</ele><time>2026-04-10T17:26:42.999Z</time></trkpt><trkpt lat="45.014414083977236" lon="1.7464886976805734"><ele>148.0</ele><time>2026-04-10T17:26:43.999Z</time></trkpt><trkpt lat="45.014159287522084" lon="1.746745358810306"><ele>148.0</ele><time>2026-04-10T17:26:44.999Z</time></trkpt><trkpt lat="45.013891785737606" lon="1.7470143081511"><ele>147.5</ele><time>2026-04-10T17:26:45.999Z</time></trkpt><trkpt lat="45.01362654250405" lon="1.7472582827816359"><ele>147.0</ele><time>2026-04-10T17:26:46.999Z</time></trkpt><trkpt lat="45.01339084160791" lon="1.7474693704814728"><ele>147.0</ele><time>2026-04-10T17:26:47.999Z</time></trkpt><trkpt lat="45.01317565764672" lon="1.7476491396543794"><ele>147.0</ele><time>2026-04-10T17:26:48.999Z</time></trkpt><trkpt lat="45.012939399400395" lon="1.747795053471341"><ele>145.5</ele><time>2026-04-10T17:26:49.999Z</time></trkpt><trkpt lat="45.01265904099117" lon="1.7478864596363177"><ele>144.0</ele><time>2026-04-10T17:26:50.999Z</time></trkpt><trkpt lat="45.012367736920744" lon="1.747943880120008"><ele>143.5</ele><time>2026-04-10T17:26:51.999Z</time></trkpt><trkpt lat="45.01205812833344" lon="1.7480167879338733"><ele>143.0</ele><time>2026-04-10T17:26:52.999Z</time></trkpt><trkpt lat="45.01174299384994" lon="1.748100167812341"><ele>143.5</ele><time>2026-04-10T17:26:53.999Z</time></trkpt><trkpt lat="45.01142763292292" lon="1.7481633979561342"><ele>144.0</ele><time>2026-04-10T17:26:54.999Z</time></trkpt><trkpt lat="45.01109397772524" lon="1.7481865140440238"><ele>144.0</ele><time>2026-04-10T17:26:55.999Z</time></trkpt><trkpt lat="45.010752520876004" lon="1.7481720841376098"><ele>144.0</ele><time>2026-04-10T17:26:56.999Z</time></trkpt><trkpt lat="45.010407962438514" lon="1.7481504456170287"><ele>144.0</ele><time>2026-04-10T17:26:57.999Z</time></trkpt><trkpt lat="45.010064120166234" lon="1.7481550058807926"><ele>144.0</ele><time>2026-04-10T17:26:58.999Z</time></trkpt><trkpt lat="45.00970900082224" lon="1.7481625412070518"><ele>144.0</ele><time>2026-04-10T17:26:59.999Z</time></trkpt><trkpt lat="45.00935150457774" lon="1.7481493964368693"><ele>144.0</ele><time>2026-04-10T17:27:00.999Z</time></trkpt><trkpt lat="45.00900100479125" lon="1.7481470788192461"><ele>143.5</ele><time>2026-04-10T17:27:01.999Z</time></trkpt><trkpt lat="45.00863598027567" lon="1.7481423530666935"><ele>143.0</ele><time>2026-04-10T17:27:02.999Z</time></trkpt><trkpt lat="45.00827075873751" lon="1.7481408748284581"><ele>143.0</ele><time>2026-04-10T17:27:03.999Z</time></trkpt><trkpt lat="45.00790418598532" lon="1.7481478581233887"><ele>143.0</ele><time>2026-04-10T17:27:04.999Z</time></trkpt><trkpt lat="45.00756087338726" lon="1.7481606105144087"><ele>142.0</ele><time>2026-04-10T17:27:05.999Z</time></trkpt><trkpt lat="45.0072742466637" lon="1.7481643275134313"><ele>141.0</ele><time>2026-04-10T17:27:06.999Z</time></trkpt><trkpt lat="45.007007944774735" lon="1.7481456403132565"><ele>141.0</ele><time>2026-04-10T17:27:07.999Z</time></trkpt><trkpt lat="45.006737216306874" lon="1.7480873833804194"><ele>141.0</ele><time>2026-04-10T17:27:08.999Z</time></trkpt><trkpt lat="45.00645457287517" lon="1.7479855036863567"><ele>141.0</ele><time>2026-04-10T17:27:09.999Z</time></trkpt><trkpt lat="45.006162362875166" lon="1.7478829363036412"><ele>141.0</ele><time>2026-04-10T17:27:10.999Z</time></trkpt><trkpt lat="45.00584568597773" lon="1.747805024450847"><ele>140.5</ele><time>2026-04-10T17:27:11.999Z</time></trkpt><trkpt lat="45.00551752672126" lon="1.7477694776445207"><ele>140.0</ele><time>2026-04-10T17:27:12.999Z</time></trkpt><trkpt lat="45.00518305990734" lon="1.7477783514423555"><ele>138.0</ele><time>2026-04-10T17:27:13.999Z</time></trkpt><trkpt lat="45.0048406044756" lon="1.7477760905751776"><ele>136.0</ele><time>2026-04-10T17:27:14.999Z</time></trkpt><trkpt lat="45.00449873147295" lon="1.7477528670982927"><ele>136.5</ele><time>2026-04-10T17:27:15.999Z</time></trkpt><trkpt lat="45.00414641031454" lon="1.7477294152510456"><ele>137.0</ele><time>2026-04-10T17:27:16.999Z</time></trkpt><trkpt lat="45.003793211140284" lon="1.7477162603473706"><ele>139.5</ele><time>2026-04-10T17:27:17.999Z</time></trkpt><trkpt lat="45.003436905787176" lon="1.7477085380310369"><ele>142.0</ele><time>2026-04-10T17:27:18.999Z</time></trkpt><trkpt lat="45.00308281662067" lon="1.7476874340649604"><ele>142.0</ele><time>2026-04-10T17:27:19.999Z</time></trkpt><trkpt lat="45.00275928661131" lon="1.747666235404875"><ele>142.0</ele><time>2026-04-10T17:27:20.999Z</time></trkpt><trkpt lat="45.00249610716306" lon="1.7476543441369254"><ele>141.0</ele><time>2026-04-10T17:27:21.999Z</time></trkpt><trkpt lat="45.002262758101644" lon="1.747580323720776"><ele>140.0</ele><time>2026-04-10T17:27:22.999Z</time></trkpt><trkpt lat="45.00203985001956" lon="1.7474290413337892"><ele>140.0</ele><time>2026-04-10T17:27:23.999Z</time></trkpt><trkpt lat="45.00181141108052" lon="1.7472081456652178"><ele>140.0</ele><time>2026-04-10T17:27:24.999Z</time></trkpt><trkpt lat="45.001559693301566" lon="1.747010456592671"><ele>141.0</ele><time>2026-04-10T17:27:25.999Z</time></trkpt><trkpt lat="45.00131472693637" lon="1.7468731160025626"><ele>142.0</ele><time>2026-04-10T17:27:26.999Z</time></trkpt><trkpt lat="45.001104272433494" lon="1.7467692623810402"><ele>142.0</ele><time>2026-04-10T17:27:27.999Z</time></trkpt><trkpt lat="45.00092374202865" lon="1.7466713984868547"><ele>142.0</ele><time>2026-04-10T17:27:28.999Z</time></trkpt><trkpt lat="45.00079294562685" lon="1.7465804519199817"><ele>142.0</ele><time>2026-04-10T17:27:29.999Z</time></trkpt><trkpt lat="45.00070900820003" lon="1.74643981060435"><ele>140.0</ele><time>2026-04-10T17:27:31Z</time></trkpt><trkpt lat="45.00064581038655" lon="1.7462276200921143"><ele>138.0</ele><time>2026-04-10T17:27:32Z</time></trkpt><trkpt lat="45.000614403502134" lon="1.7459240455993479"><ele>136.0</ele><time>2026-04-10T17:27:33Z</time></trkpt><trkpt lat="45.00057887924759" lon="1.7456032394884735"><ele>136.0</ele><time>2026-04-10T17:27:34Z</time></trkpt><trkpt lat="45.00051979932957" lon="1.7453192749178512"><ele>136.0</ele><time>2026-04-10T17:27:35Z</time></trkpt><trkpt lat="45.0004247300603" lon="1.7450884095171195"><ele>136.0</ele><time>2026-04-10T17:27:36Z</time></trkpt><trkpt lat="45.00026981958348" lon="1.744874477977731"><ele>140.0</ele><time>2026-04-10T17:27:37Z</time></trkpt><trkpt lat="45.00006391838398" lon="1.7446983084955952"><ele>144.0</ele><time>2026-04-10T17:27:38Z</time></trkpt><trkpt lat="44.99982787835666" lon="1.7445527831767682"><ele>144.0</ele><time>2026-04-10T17:27:39Z</time></trkpt><trkpt lat="44.999578210831274" lon="1.7444514688566997"><ele>144.0</ele><time>2026-04-10T17:27:40Z</time></trkpt><trkpt lat="44.99930120893129" lon="1.744451874137834"><ele>141.0</ele><time>2026-04-10T17:27:41Z</time></trkpt><trkpt lat="44.99901398204069" lon="1.744509840905243"><ele>138.0</ele><time>2026-04-10T17:27:42Z</time></trkpt><trkpt lat="44.998756234188235" lon="1.7445512206196383"><ele>138.0</ele><time>2026-04-10T17:27:43Z</time></trkpt><trkpt lat="44.998499958010115" lon="1.7445054833792597"><ele>138.0</ele><time>2026-04-10T17:27:44Z</time></trkpt><trkpt lat="44.9982384737938" lon="1.7444718079952781"><ele>138.0</ele><time>2026-04-10T17:27:45Z</time></trkpt><trkpt lat="44.99798491052039" lon="1.744524558078633"><ele>138.0</ele><time>2026-04-10T17:27:46Z</time></trkpt><trkpt lat="44.99771102347991" lon="1.7446433060862458"><ele>140.5</ele><time>2026-04-10T17:27:47Z</time></trkpt><trkpt lat="44.99743435022817" lon="1.7447984641170933"><ele>143.0</ele><time>2026-04-10T17:27:48Z</time></trkpt><trkpt lat="44.99715914512399" lon="1.7449565875750686"><ele>143.0</ele><time>2026-04-10T17:27:49Z</time></trkpt><trkpt lat="44.996923066034505" lon="1.7451066141502596"><ele>143.0</ele><time>2026-04-10T17:27:50Z</time></trkpt><trkpt lat="44.99673704458756" lon="1.7452281123109976"><ele>143.0</ele><time>2026-04-10T17:27:51Z</time></trkpt><trkpt lat="44.99656725445517" lon="1.7452775449950004"><ele>143.0</ele><time>2026-04-10T17:27:52Z</time></trkpt><trkpt lat="44.99640368690038" lon="1.7452198967510175"><ele>143.0</ele><time>2026-04-10T17:27:53Z</time></trkpt><trkpt lat="44.99622311150703" lon="1.7451033710892847"><ele>143.0</ele><time>2026-04-10T17:27:54Z</time></trkpt><trkpt lat="44.99601724175251" lon="1.7449284016351365"><ele>143.0</ele><time>2026-04-10T17:27:55Z</time></trkpt><trkpt lat="44.995791494410824" lon="1.7447415016655712"><ele>140.0</ele><time>2026-04-10T17:27:56Z</time></trkpt><trkpt lat="44.99553503328099" lon="1.7445971496302282"><ele>137.0</ele><time>2026-04-10T17:27:57Z</time></trkpt><trkpt lat="44.995259310629436" lon="1.7445001672773455"><ele>136.0</ele><time>2026-04-10T17:27:58Z</time></trkpt><trkpt lat="44.99497331071088" lon="1.7443901692102213"><ele>135.0</ele><time>2026-04-10T17:27:59Z</time></trkpt><trkpt lat="44.99468594741987" lon="1.7442559201590504"><ele>139.0</ele><time>2026-04-10T17:28:00Z</time></trkpt><trkpt lat="44.99441893375078" lon="1.7441315279254754"><ele>143.0</ele><time>2026-04-10T17:28:01Z</time></trkpt><trkpt lat="44.994186412288634" lon="1.7440303197350537"><ele>140.66666666666666</ele><time>2026-04-10T17:28:02Z</time></trkpt><trkpt lat="44.993987879500395" lon="1.7439505746726498"><ele>138.33333333333334</ele><time>2026-04-10T17:28:03Z</time></trkpt><trkpt lat="44.9937999318363" lon="1.7439150783656328"><ele>136.0</ele><time>2026-04-10T17:28:04Z</time></trkpt><trkpt lat="44.9936438046793" lon="1.7439148427441895"><ele>136.0</ele><time>2026-04-10T17:28:05Z</time></trkpt><trkpt lat="44.99353794353878" lon="1.7439041025469542"><ele>136.0</ele><time>2026-04-10T17:28:06Z</time></trkpt><trkpt lat="44.993465097993344" lon="1.7438955712780142"><ele>136.0</ele><time>2026-04-10T17:28:07Z</time></trkpt><trkpt lat="44.9933903541802" lon="1.7438533581094076"><ele>136.0</ele><time>2026-04-10T17:28:08Z</time></trkpt><trkpt lat="44.99329426666377" lon="1.743739971061893"><ele>136.0</ele><time>2026-04-10T17:28:09Z</time></trkpt><trkpt lat="44.99319770698402" lon="1.743549463736465"><ele>137.33333333333334</ele><time>2026-04-10T17:28:10Z</time></trkpt><trkpt lat="44.99309789677193" lon="1.7433006504489048"><ele>138.66666666666666</ele><time>2026-04-10T17:28:11Z</time></trkpt><trkpt lat="44.99299647076222" lon="1.7430484528471046"><ele>140.0</ele><time>2026-04-10T17:28:12Z</time></trkpt><trkpt lat="44.992891827470714" lon="1.7428095884370887"><ele>144.0</ele><time>2026-04-10T17:28:13Z</time></trkpt><trkpt lat="44.992820346555696" lon="1.7425735861664473"><ele>148.0</ele><time>2026-04-10T17:28:14Z</time></trkpt><trkpt lat="44.99279417167288" lon="1.7423041980091065"><ele>152.0</ele><time>2026-04-10T17:28:15Z</time></trkpt><trkpt lat="44.99279708739109" lon="1.7420113771401886"><ele>154.0</ele><time>2026-04-10T17:28:16Z</time></trkpt><trkpt lat="44.99278110926781" lon="1.7417300839381198"><ele>156.0</ele><time>2026-04-10T17:28:17Z</time></trkpt><trkpt lat="44.9926942595279" lon="1.7414695242511324"><ele>158.0</ele><time>2026-04-10T17:28:18Z</time></trkpt><trkpt lat="44.99256064077313" lon="1.7411721453045599"><ele>152.5</ele><time>2026-04-10T17:28:19Z</time></trkpt><trkpt lat="44.99242298190637" lon="1.740850676958015"><ele>147.0</ele><time>2026-04-10T17:28:20Z</time></trkpt><trkpt lat="44.99228207261688" lon="1.7405214772865114"><ele>149.5</ele><time>2026-04-10T17:28:21Z</time></trkpt><trkpt lat="44.99211239381984" lon="1.740198397146478"><ele>152.0</ele><time>2026-04-10T17:28:22Z</time></trkpt><trkpt lat="44.991935486787405" lon="1.7399247958941793"><ele>152.0</ele><time>2026-04-10T17:28:23Z</time></trkpt><trkpt lat="44.99179009244959" lon="1.739670732458165"><ele>152.0</ele><time>2026-04-10T17:28:24Z</time></trkpt><trkpt lat="44.99166852576391" lon="1.7394394942792906"><ele>152.0</ele><time>2026-04-10T17:28:25Z</time></trkpt><trkpt lat="44.991581721466524" lon="1.7392180308332916"><ele>148.0</ele><time>2026-04-10T17:28:26Z</time></trkpt><trkpt lat="44.99155084467395" lon="1.7389810717263103"><ele>144.0</ele><time>2026-04-10T17:28:27Z</time></trkpt><trkpt lat="44.99155173308765" lon="1.7386942727927381"><ele>140.0</ele><time>2026-04-10T17:28:28Z</time></trkpt><trkpt lat="44.991599384177896" lon="1.7383406555483325"><ele>140.0</ele><time>2026-04-10T17:28:29Z</time></trkpt><trkpt lat="44.991593182449854" lon="1.737975014242681"><ele>140.0</ele><time>2026-04-10T17:28:30Z</time></trkpt><trkpt lat="44.991606877096345" lon="1.7376202164302932"><ele>140.66666666666666</ele><time>2026-04-10T17:28:31Z</time></trkpt><trkpt lat="44.991613419361265" lon="1.7372837881354475"><ele>141.33333333333334</ele><time>2026-04-10T17:28:32Z</time></trkpt><trkpt lat="44.991637719172545" lon="1.7370309291816148"><ele>142.0</ele><time>2026-04-10T17:28:33Z</time></trkpt><trkpt lat="44.991719086969795" lon="1.7368275099331587"><ele>149.0</ele><time>2026-04-10T17:28:34Z</time></trkpt><trkpt lat="44.99182216660137" lon="1.7365652804591198"><ele>156.0</ele><time>2026-04-10T17:28:35Z</time></trkpt><trkpt lat="44.99193793163115" lon="1.736261958898855"><ele>154.33333333333334</ele><time>2026-04-10T17:28:36Z</time></trkpt><trkpt lat="44.992040006103174" lon="1.7359640965346153"><ele>152.66666666666669</ele><time>2026-04-10T17:28:37Z</time></trkpt><trkpt lat="44.99209166943944" lon="1.7356735691028529"><ele>151.0</ele><time>2026-04-10T17:28:38Z</time></trkpt><trkpt lat="44.99209744192635" lon="1.7354013626934413"><ele>150.66666666666669</ele><time>2026-04-10T17:28:39Z</time></trkpt><trkpt lat="44.992070711367674" lon="1.7351599094293018"><ele>150.33333333333334</ele><time>2026-04-10T17:28:40Z</time></trkpt><trkpt lat="44.99198842572423" lon="1.7349643365134046"><ele>150.0</ele><time>2026-04-10T17:28:41Z</time></trkpt><trkpt lat="44.99184872846845" lon="1.7347427407837956"><ele>148.0</ele><time>2026-04-10T17:28:41.999Z</time></trkpt><trkpt lat="44.991663618133956" lon="1.7345312208282144"><ele>146.0</ele><time>2026-04-10T17:28:42.999Z</time></trkpt><trkpt lat="44.99144505347035" lon="1.7343211310396065"><ele>146.0</ele><time>2026-04-10T17:28:43.999Z</time></trkpt><trkpt lat="44.991258792776655" lon="1.7340885326705546"><ele>146.0</ele><time>2026-04-10T17:28:44.999Z</time></trkpt><trkpt lat="44.991105052131964" lon="1.733893145361623"><ele>146.0</ele><time>2026-04-10T17:28:45.999Z</time></trkpt><trkpt lat="44.99102111553305" lon="1.733727640900309"><ele>146.0</ele><time>2026-04-10T17:28:46.999Z</time></trkpt><trkpt lat="44.99098334127565" lon="1.7335747674833126"><ele>146.0</ele><time>2026-04-10T17:28:47.999Z</time></trkpt><trkpt lat="44.990991635386735" lon="1.7333921368730492"><ele>146.0</ele><time>2026-04-10T17:28:48.999Z</time></trkpt><trkpt lat="44.99104914982762" lon="1.7332119953232759"><ele>147.0</ele><time>2026-04-10T17:28:49.999Z</time></trkpt><trkpt lat="44.99114257821292" lon="1.7330585386618722"><ele>148.0</ele><time>2026-04-10T17:28:50.999Z</time></trkpt><trkpt lat="44.99126667338641" lon="1.732830309677987"><ele>149.0</ele><time>2026-04-10T17:28:51.999Z</time></trkpt><trkpt lat="44.99141162183924" lon="1.7326127234137665"><ele>149.0</ele><time>2026-04-10T17:28:52.999Z</time></trkpt><trkpt lat="44.991530751847165" lon="1.732388711261324"><ele>149.0</ele><time>2026-04-10T17:28:53.999Z</time></trkpt><trkpt lat="44.99158858950233" lon="1.7321261017362695"><ele>149.0</ele><time>2026-04-10T17:28:54.999Z</time></trkpt><trkpt lat="44.991591615892396" lon="1.731818286059415"><ele>146.0</ele><time>2026-04-10T17:28:55.999Z</time></trkpt><trkpt lat="44.99157688698109" lon="1.731489802661101"><ele>143.0</ele><time>2026-04-10T17:28:56.999Z</time></trkpt><trkpt lat="44.99157400102376" lon="1.7311425289541136"><ele>142.0</ele><time>2026-04-10T17:28:57.999Z</time></trkpt><trkpt lat="44.99156174245661" lon="1.7308062474678785"><ele>141.0</ele><time>2026-04-10T17:28:58.999Z</time></trkpt><trkpt lat="44.99154463330916" lon="1.7305301781781914"><ele>140.0</ele><time>2026-04-10T17:28:59.999Z</time></trkpt><trkpt lat="44.99148476543999" lon="1.7303124021970604"><ele>142.0</ele><time>2026-04-10T17:29:00.999Z</time></trkpt><trkpt lat="44.991386298457954" lon="1.7300924978274312"><ele>144.0</ele><time>2026-04-10T17:29:01.999Z</time></trkpt><trkpt lat="44.991202449023206" lon="1.729851672489351"><ele>146.0</ele><time>2026-04-10T17:29:02.999Z</time></trkpt><trkpt lat="44.99100856062495" lon="1.7295816347527486"><ele>144.5</ele><time>2026-04-10T17:29:03.999Z</time></trkpt><trkpt lat="44.99084153580702" lon="1.7292864903927503"><ele>143.0</ele><time>2026-04-10T17:29:04.999Z</time></trkpt><trkpt lat="44.99069876752865" lon="1.728963987821549"><ele>143.0</ele><time>2026-04-10T17:29:05.999Z</time></trkpt><trkpt lat="44.99055616151666" lon="1.7286411212521768"><ele>143.0</ele><time>2026-04-10T17:29:06.999Z</time></trkpt><trkpt lat="44.99037539025661" lon="1.7283195113110454"><ele>141.5</ele><time>2026-04-10T17:29:07.999Z</time></trkpt><trkpt lat="44.99015085651906" lon="1.728016299418102"><ele>140.0</ele><time>2026-04-10T17:29:08.999Z</time></trkpt><trkpt lat="44.98991833622321" lon="1.7277131948559887"><ele>140.0</ele><time>2026-04-10T17:29:09.999Z</time></trkpt><trkpt lat="44.98970370381135" lon="1.727463038261989"><ele>140.0</ele><time>2026-04-10T17:29:10.999Z</time></trkpt><trkpt lat="44.989523936497875" lon="1.7272225236650396"><ele>140.0</ele><time>2026-04-10T17:29:11.999Z</time></trkpt><trkpt lat="44.98931051622712" lon="1.7270127281182512"><ele>140.0</ele><time>2026-04-10T17:29:12.999Z</time></trkpt><trkpt lat="44.989058919778635" lon="1.726834558785286"><ele>136.0</ele><time>2026-04-10T17:29:13.999Z</time></trkpt><trkpt lat="44.98878819987969" lon="1.726666843194161"><ele>132.0</ele><time>2026-04-10T17:29:14.999Z</time></trkpt><trkpt lat="44.9885183060265" lon="1.726502881658496"><ele>132.33333333333334</ele><time>2026-04-10T17:29:15.999Z</time></trkpt><trkpt lat="44.98831254031256" lon="1.726357208261195"><ele>132.66666666666669</ele><time>2026-04-10T17:29:16.999Z</time></trkpt><trkpt lat="44.988148443514035" lon="1.726242004294656"><ele>133.0</ele><time>2026-04-10T17:29:17.999Z</time></trkpt><trkpt lat="44.9880065508432" lon="1.7261225099582556"><ele>133.0</ele><time>2026-04-10T17:29:18.999Z</time></trkpt><trkpt lat="44.987880499522994" lon="1.7259450783050505"><ele>133.0</ele><time>2026-04-10T17:29:19.999Z</time></trkpt><trkpt lat="44.98777039858887" lon="1.7257473094195521"><ele>133.0</ele><time>2026-04-10T17:29:20.999Z</time></trkpt><trkpt lat="44.98766820691678" lon="1.7255117543874887"><ele>133.0</ele><time>2026-04-10T17:29:21.999Z</time></trkpt><trkpt lat="44.9876282790059" lon="1.7252013170081795"><ele>133.0</ele><time>2026-04-10T17:29:22.999Z</time></trkpt><trkpt lat="44.98762439192212" lon="1.7248806956650145"><ele>133.0</ele><time>2026-04-10T17:29:23.999Z</time></trkpt><trkpt lat="44.98765460578531" lon="1.7245351529699764"><ele>133.0</ele><time>2026-04-10T17:29:24.999Z</time></trkpt><trkpt lat="44.9876851155486" lon="1.7241650269950533"><ele>133.5</ele><time>2026-04-10T17:29:25.999Z</time></trkpt><trkpt lat="44.98774068739721" lon="1.7237945210318535"><ele>134.0</ele><time>2026-04-10T17:29:26.999Z</time></trkpt><trkpt lat="44.98778081742469" lon="1.7234133154606592"><ele>133.0</ele><time>2026-04-10T17:29:27.999Z</time></trkpt><trkpt lat="44.98781072405231" lon="1.7230669401105052"><ele>132.0</ele><time>2026-04-10T17:29:28.999Z</time></trkpt><trkpt lat="44.98780924480858" lon="1.7227441792453275"><ele>131.0</ele><time>2026-04-10T17:29:29.999Z</time></trkpt><trkpt lat="44.98777710647769" lon="1.72239383879696"><ele>130.0</ele><time>2026-04-10T17:29:30.999Z</time></trkpt><trkpt lat="44.98773150434097" lon="1.7219835096643896"><ele>129.5</ele><time>2026-04-10T17:29:31.999Z</time></trkpt><trkpt lat="44.987693099102565" lon="1.7215735545169204"><ele>129.0</ele><time>2026-04-10T17:29:32.999Z</time></trkpt><trkpt lat="44.987729898739964" lon="1.7212115038724571"><ele>129.33333333333334</ele><time>2026-04-10T17:29:33.999Z</time></trkpt><trkpt lat="44.987782583441806" lon="1.7209069132759223"><ele>129.66666666666669</ele><time>2026-04-10T17:29:34.999Z</time></trkpt><trkpt lat="44.98783767896942" lon="1.7206173370683797"><ele>130.0</ele><time>2026-04-10T17:29:35.999Z</time></trkpt><trkpt lat="44.98786341151433" lon="1.7203364218756836"><ele>130.66666666666669</ele><time>2026-04-10T17:29:37Z</time></trkpt><trkpt lat="44.9878597834124" lon="1.7200555337949994"><ele>131.33333333333334</ele><time>2026-04-10T17:29:38Z</time></trkpt><trkpt lat="44.987813749584596" lon="1.719795991032987"><ele>132.0</ele><time>2026-04-10T17:29:39Z</time></trkpt><trkpt lat="44.987741705813285" lon="1.7195511018216842"><ele>132.0</ele><time>2026-04-10T17:29:40Z</time></trkpt><trkpt lat="44.98763180585799" lon="1.719341908365571"><ele>132.0</ele><time>2026-04-10T17:29:41Z</time></trkpt><trkpt lat="44.9874791583926" lon="1.7191233762243807"><ele>132.0</ele><time>2026-04-10T17:29:42Z</time></trkpt><trkpt lat="44.987302005875286" lon="1.7189213976471631"><ele>133.33333333333334</ele><time>2026-04-10T17:29:43Z</time></trkpt><trkpt lat="44.98711865756396" lon="1.7187746474115246"><ele>134.66666666666669</ele><time>2026-04-10T17:29:44Z</time></trkpt><trkpt lat="44.98690090636747" lon="1.7186629193448146"><ele>136.0</ele><time>2026-04-10T17:29:45Z</time></trkpt><trkpt lat="44.986648552366674" lon="1.7185886160268034"><ele>136.0</ele><time>2026-04-10T17:29:46Z</time></trkpt><trkpt lat="44.986378513714904" lon="1.718542749372641"><ele>136.0</ele><time>2026-04-10T17:29:47Z</time></trkpt><trkpt lat="44.98613640704731" lon="1.718424207530367"><ele>136.0</ele><time>2026-04-10T17:29:48Z</time></trkpt><trkpt lat="44.9859003866209" lon="1.7182815915484435"><ele>136.0</ele><time>2026-04-10T17:29:49Z</time></trkpt><trkpt lat="44.985684651516536" lon="1.7180866172633582"><ele>136.5</ele><time>2026-04-10T17:29:50Z</time></trkpt><trkpt lat="44.985494706332524" lon="1.7178637713643128"><ele>137.0</ele><time>2026-04-10T17:29:51Z</time></trkpt><trkpt lat="44.9853003897361" lon="1.717595427590011"><ele>137.0</ele><time>2026-04-10T17:29:52Z</time></trkpt><trkpt lat="44.98508099427463" lon="1.717323888815324"><ele>137.0</ele><time>2026-04-10T17:29:53Z</time></trkpt><trkpt lat="44.984860376062834" lon="1.717033496740087"><ele>135.0</ele><time>2026-04-10T17:29:54Z</time></trkpt><trkpt lat="44.98464698427779" lon="1.716780208692673"><ele>133.0</ele><time>2026-04-10T17:29:55Z</time></trkpt><trkpt lat="44.984500762501405" lon="1.7165262280279654"><ele>133.0</ele><time>2026-04-10T17:29:56Z</time></trkpt><trkpt lat="44.98434531674707" lon="1.716263030432888"><ele>133.0</ele><time>2026-04-10T17:29:57Z</time></trkpt><trkpt lat="44.98424353331516" lon="1.7159156716134958"><ele>133.0</ele><time>2026-04-10T17:29:58Z</time></trkpt><trkpt lat="44.98409061358374" lon="1.7156720445679148"><ele>133.0</ele><time>2026-04-10T17:29:59Z</time></trkpt><trkpt lat="44.984141728447774" lon="1.715248982225058"><ele>132.66666666666669</ele><time>2026-04-10T17:30:00Z</time></trkpt><trkpt lat="44.984113571494426" lon="1.7149840061907935"><ele>132.33333333333334</ele><time>2026-04-10T17:30:01Z</time></trkpt><trkpt lat="44.98406092500149" lon="1.7147654436530824"><ele>132.0</ele><time>2026-04-10T17:30:02Z</time></trkpt><trkpt lat="44.9839694587565" lon="1.7146017945498748"><ele>132.0</ele><time>2026-04-10T17:30:03Z</time></trkpt><trkpt lat="44.983845826344115" lon="1.7144647295128284"><ele>132.0</ele><time>2026-04-10T17:30:04Z</time></trkpt><trkpt lat="44.98369000011009" lon="1.7143330630475653"><ele>132.0</ele><time>2026-04-10T17:30:05Z</time></trkpt><trkpt lat="44.983540133267184" lon="1.7142453043555235"><ele>131.79999999999998</ele><time>2026-04-10T17:30:06Z</time></trkpt><trkpt lat="44.983421680498246" lon="1.7141856698854496"><ele>131.6</ele><time>2026-04-10T17:30:07Z</time></trkpt><trkpt lat="44.983315647414535" lon="1.7141322816118052"><ele>131.39999999999998</ele><time>2026-04-10T17:30:08Z</time></trkpt><trkpt lat="44.98321607343057" lon="1.7140851129687917"><ele>131.2</ele><time>2026-04-10T17:30:09Z</time></trkpt><trkpt lat="44.983118904802105" lon="1.714027069943503"><ele>131.0</ele><time>2026-04-10T17:30:10Z</time></trkpt><trkpt lat="44.983005950132195" lon="1.713958867899212"><ele>131.0</ele><time>2026-04-10T17:30:11Z</time></trkpt><trkpt lat="44.98289311235921" lon="1.7138724174144664"><ele>131.0</ele><time>2026-04-10T17:30:12Z</time></trkpt><trkpt lat="44.982792654146415" lon="1.713788501293738"><ele>131.0</ele><time>2026-04-10T17:30:13Z</time></trkpt><trkpt lat="44.98269409778927" lon="1.713713577384729"><ele>131.0</ele><time>2026-04-10T17:30:14Z</time></trkpt><trkpt lat="44.982588652870305" lon="1.713626954128976"><ele>131.5</ele><time>2026-04-10T17:30:15Z</time></trkpt><trkpt lat="44.98247749701844" lon="1.7135096823126112"><ele>132.0</ele><time>2026-04-10T17:30:16Z</time></trkpt><trkpt lat="44.98237185669984" lon="1.713369551581507"><ele>132.5</ele><time>2026-04-10T17:30:17Z</time></trkpt><trkpt lat="44.9822860908818" lon="1.7132393156504733"><ele>133.0</ele><time>2026-04-10T17:30:18Z</time></trkpt><trkpt lat="44.98222255460419" lon="1.71312198131799"><ele>133.0</ele><time>2026-04-10T17:30:19Z</time></trkpt><trkpt lat="44.98217553563886" lon="1.713032124497594"><ele>133.0</ele><time>2026-04-10T17:30:20Z</time></trkpt><trkpt lat="44.98213187918566" lon="1.7129566004689545"><ele>133.0</ele><time>2026-04-10T17:30:21Z</time></trkpt><trkpt lat="44.982080491045316" lon="1.712867311464524"><ele>133.0</ele><time>2026-04-10T17:30:23Z</time></trkpt><trkpt lat="44.98204171534508" lon="1.7127945179465358"><ele>133.0</ele><time>2026-04-10T17:30:26Z</time></trkpt><trkpt lat="44.98193916394133" lon="1.7126817194073336"><ele>133.0</ele><time>2026-04-10T17:30:28Z</time></trkpt><trkpt lat="44.981881941032164" lon="1.7125601658834013"><ele>132.75</ele><time>2026-04-10T17:30:29Z</time></trkpt><trkpt lat="44.98182515213968" lon="1.712420241602178"><ele>132.5</ele><time>2026-04-10T17:30:30Z</time></trkpt><trkpt lat="44.98175190023514" lon="1.7122498806342623"><ele>132.25</ele><time>2026-04-10T17:30:31Z</time></trkpt><trkpt lat="44.98165898019321" lon="1.7120703632583611"><ele>132.0</ele><time>2026-04-10T17:30:31.999Z</time></trkpt><trkpt lat="44.98156917962532" lon="1.7118925872284005"><ele>131.33333333333334</ele><time>2026-04-10T17:30:32.999Z</time></trkpt><trkpt lat="44.98146617743165" lon="1.7117144896858225"><ele>130.66666666666669</ele><time>2026-04-10T17:30:33.999Z</time></trkpt><trkpt lat="44.98135070034993" lon="1.7115549888137986"><ele>130.0</ele><time>2026-04-10T17:30:34.999Z</time></trkpt><trkpt lat="44.98121480794527" lon="1.7114327527983106"><ele>130.0</ele><time>2026-04-10T17:30:35.999Z</time></trkpt><trkpt lat="44.98106222494566" lon="1.7113546107923399"><ele>130.0</ele><time>2026-04-10T17:30:36.999Z</time></trkpt><trkpt lat="44.98089955866426" lon="1.7113046643875078"><ele>130.0</ele><time>2026-04-10T17:30:37.999Z</time></trkpt><trkpt lat="44.9807036945726" lon="1.7112963896486673"><ele>131.33333333333334</ele><time>2026-04-10T17:30:38.999Z</time></trkpt><trkpt lat="44.98048760959476" lon="1.7113079979029064"><ele>132.66666666666666</ele><time>2026-04-10T17:30:39.999Z</time></trkpt><trkpt lat="44.980268519178246" lon="1.711303928975819"><ele>134.0</ele><time>2026-04-10T17:30:40.999Z</time></trkpt><trkpt lat="44.98003536189282" lon="1.7112987801834754"><ele>134.5</ele><time>2026-04-10T17:30:41.999Z</time></trkpt><trkpt lat="44.979787226764046" lon="1.711286446187049"><ele>135.0</ele><time>2026-04-10T17:30:42.999Z</time></trkpt><trkpt lat="44.97952522601332" lon="1.7112761973303114"><ele>135.0</ele><time>2026-04-10T17:30:43.999Z</time></trkpt><trkpt lat="44.97924541753653" lon="1.7112664961768547"><ele>135.0</ele><time>2026-04-10T17:30:44.999Z</time></trkpt><trkpt lat="44.97894058612404" lon="1.7112528248448908"><ele>134.5</ele><time>2026-04-10T17:30:45.999Z</time></trkpt><trkpt lat="44.97862880297091" lon="1.7112438663661385"><ele>134.0</ele><time>2026-04-10T17:30:46.999Z</time></trkpt><trkpt lat="44.978312240157955" lon="1.7112286784775752"><ele>132.5</ele><time>2026-04-10T17:30:47.999Z</time></trkpt><trkpt lat="44.97801931640094" lon="1.711202589464676"><ele>131.0</ele><time>2026-04-10T17:30:48.999Z</time></trkpt><trkpt lat="44.977771520803" lon="1.7112039261817138"><ele>131.0</ele><time>2026-04-10T17:30:49.999Z</time></trkpt><trkpt lat="44.97753660594206" lon="1.7111927752285643"><ele>131.0</ele><time>2026-04-10T17:30:50.999Z</time></trkpt><trkpt lat="44.977317096376254" lon="1.7111588472598986"><ele>131.0</ele><time>2026-04-10T17:30:51.999Z</time></trkpt><trkpt lat="44.97710384808656" lon="1.7111052309085766"><ele>131.0</ele><time>2026-04-10T17:30:52.999Z</time></trkpt><trkpt lat="44.97689213376974" lon="1.7110162852058846"><ele>131.0</ele><time>2026-04-10T17:30:53.999Z</time></trkpt><trkpt lat="44.97666504180081" lon="1.7109102845836706"><ele>132.0</ele><time>2026-04-10T17:30:54.999Z</time></trkpt><trkpt lat="44.97642605334776" lon="1.7108020538165636"><ele>133.0</ele><time>2026-04-10T17:30:55.999Z</time></trkpt><trkpt lat="44.976175138966546" lon="1.7106916109352808"><ele>133.0</ele><time>2026-04-10T17:30:56.999Z</time></trkpt><trkpt lat="44.975917230946635" lon="1.7105784865290843"><ele>133.0</ele><time>2026-04-10T17:30:57.999Z</time></trkpt><trkpt lat="44.97567973681593" lon="1.7104746371759765"><ele>133.0</ele><time>2026-04-10T17:30:58.999Z</time></trkpt><trkpt lat="44.97546518700561" lon="1.7103769732703875"><ele>133.0</ele><time>2026-04-10T17:30:59.999Z</time></trkpt><trkpt lat="44.97526738667368" lon="1.7102963658315873"><ele>133.0</ele><time>2026-04-10T17:31:00.999Z</time></trkpt><trkpt lat="44.97507248525343" lon="1.7102299205722353"><ele>132.0</ele><time>2026-04-10T17:31:01.999Z</time></trkpt><trkpt lat="44.97485526808974" lon="1.7102020624339471"><ele>131.0</ele><time>2026-04-10T17:31:02.999Z</time></trkpt><trkpt lat="44.97460466183428" lon="1.7102105571648194"><ele>131.0</ele><time>2026-04-10T17:31:03.999Z</time></trkpt><trkpt lat="44.97432859589794" lon="1.7102339660538972"><ele>131.0</ele><time>2026-04-10T17:31:04.999Z</time></trkpt><trkpt lat="44.97403846699279" lon="1.710259297748415"><ele>132.5</ele><time>2026-04-10T17:31:05.999Z</time></trkpt><trkpt lat="44.973735029788365" lon="1.7102863774973374"><ele>134.0</ele><time>2026-04-10T17:31:06.999Z</time></trkpt><trkpt lat="44.97342788321929" lon="1.7103152480329982"><ele>134.5</ele><time>2026-04-10T17:31:07.999Z</time></trkpt><trkpt lat="44.97313492572563" lon="1.7103534840040273"><ele>135.0</ele><time>2026-04-10T17:31:08.999Z</time></trkpt><trkpt lat="44.97284300796566" lon="1.7104123515430805"><ele>135.0</ele><time>2026-04-10T17:31:09.999Z</time></trkpt><trkpt lat="44.97253617275891" lon="1.7104853090189882"><ele>135.0</ele><time>2026-04-10T17:31:10.999Z</time></trkpt><trkpt lat="44.972219282472274" lon="1.7105891459487221"><ele>134.5</ele><time>2026-04-10T17:31:11.999Z</time></trkpt><trkpt lat="44.97189303538727" lon="1.710714569711998"><ele>134.0</ele><time>2026-04-10T17:31:12.999Z</time></trkpt><trkpt lat="44.971569444688384" lon="1.7108213516219186"><ele>132.0</ele><time>2026-04-10T17:31:13.999Z</time></trkpt><trkpt lat="44.971248653004494" lon="1.710933249333053"><ele>130.0</ele><time>2026-04-10T17:31:14.999Z</time></trkpt><trkpt lat="44.970911320007424" lon="1.7110399639331828"><ele>130.0</ele><time>2026-04-10T17:31:15.999Z</time></trkpt><trkpt lat="44.97056622421848" lon="1.711146521599022"><ele>130.0</ele><time>2026-04-10T17:31:16.999Z</time></trkpt><trkpt lat="44.97024966483589" lon="1.7112362740121143"><ele>131.0</ele><time>2026-04-10T17:31:17.999Z</time></trkpt><trkpt lat="44.96997876660713" lon="1.7113448126629782"><ele>132.0</ele><time>2026-04-10T17:31:18.999Z</time></trkpt><trkpt lat="44.969728474473136" lon="1.7114235236002113"><ele>132.0</ele><time>2026-04-10T17:31:19.999Z</time></trkpt><trkpt lat="44.96952049334129" lon="1.7114991260722467"><ele>132.0</ele><time>2026-04-10T17:31:20.999Z</time></trkpt><trkpt lat="44.96931556757174" lon="1.7115840618615688"><ele>132.0</ele><time>2026-04-10T17:31:21.999Z</time></trkpt><trkpt lat="44.969114742143255" lon="1.7117187013178596"><ele>131.0</ele><time>2026-04-10T17:31:22.999Z</time></trkpt><trkpt lat="44.96893922733541" lon="1.711924801284251"><ele>130.0</ele><time>2026-04-10T17:31:23.999Z</time></trkpt><trkpt lat="44.96878993683212" lon="1.7121688748092594"><ele>130.0</ele><time>2026-04-10T17:31:24.999Z</time></trkpt><trkpt lat="44.96865507815719" lon="1.7123850378499044"><ele>130.0</ele><time>2026-04-10T17:31:25.999Z</time></trkpt><trkpt lat="44.96851274710474" lon="1.71250516633283"><ele>130.0</ele><time>2026-04-10T17:31:26.999Z</time></trkpt><trkpt lat="44.96835808842932" lon="1.712564466977998"><ele>129.66666666666669</ele><time>2026-04-10T17:31:27.999Z</time></trkpt><trkpt lat="44.96816417066057" lon="1.7126322358582369"><ele>129.33333333333334</ele><time>2026-04-10T17:31:28.999Z</time></trkpt><trkpt lat="44.96793980102969" lon="1.71271322369372"><ele>129.0</ele><time>2026-04-10T17:31:29.999Z</time></trkpt><trkpt lat="44.96769276167058" lon="1.7127822652327596"><ele>128.5</ele><time>2026-04-10T17:31:30.999Z</time></trkpt><trkpt lat="44.967427306003096" lon="1.7128504097011037"><ele>128.0</ele><time>2026-04-10T17:31:31.999Z</time></trkpt><trkpt lat="44.967159988133915" lon="1.7129591338275771"><ele>128.0</ele><time>2026-04-10T17:31:32.999Z</time></trkpt><trkpt lat="44.96687748476431" lon="1.7130318152694326"><ele>128.0</ele><time>2026-04-10T17:31:33.999Z</time></trkpt><trkpt lat="44.96658555631704" lon="1.7131341581441586"><ele>127.5</ele><time>2026-04-10T17:31:34.999Z</time></trkpt><trkpt lat="44.96628665351917" lon="1.7132351729211572"><ele>127.0</ele><time>2026-04-10T17:31:35.999Z</time></trkpt><trkpt lat="44.96597647978658" lon="1.7133281929588742"><ele>126.5</ele><time>2026-04-10T17:31:36.999Z</time></trkpt><trkpt lat="44.96566323385129" lon="1.71343606582994"><ele>126.0</ele><time>2026-04-10T17:31:37.999Z</time></trkpt><trkpt lat="44.96534495087536" lon="1.7135469447021805"><ele>127.0</ele><time>2026-04-10T17:31:38.999Z</time></trkpt><trkpt lat="44.965026180839146" lon="1.7136471607887238"><ele>128.0</ele><time>2026-04-10T17:31:39.999Z</time></trkpt><trkpt lat="44.964702852518954" lon="1.7137569124776988"><ele>128.0</ele><time>2026-04-10T17:31:40.999Z</time></trkpt><trkpt lat="44.964366936359056" lon="1.713870194196465"><ele>128.0</ele><time>2026-04-10T17:31:41.999Z</time></trkpt><trkpt lat="44.96403387315243" lon="1.713972153237794"><ele>126.0</ele><time>2026-04-10T17:31:43Z</time></trkpt><trkpt lat="44.963699995578175" lon="1.7140913760284153"><ele>124.0</ele><time>2026-04-10T17:31:44Z</time></trkpt><trkpt lat="44.96336178262983" lon="1.7142042043705423"><ele>124.0</ele><time>2026-04-10T17:31:45Z</time></trkpt><trkpt lat="44.963030371129214" lon="1.71431984000269"><ele>124.0</ele><time>2026-04-10T17:31:46Z</time></trkpt><trkpt lat="44.96268078933469" lon="1.7144145922744214"><ele>127.0</ele><time>2026-04-10T17:31:47Z</time></trkpt><trkpt lat="44.96234612937433" lon="1.7144997216635045"><ele>130.0</ele><time>2026-04-10T17:31:48Z</time></trkpt><trkpt lat="44.96202371734465" lon="1.714547575874327"><ele>130.0</ele><time>2026-04-10T17:31:49Z</time></trkpt><trkpt lat="44.9617412791115" lon="1.7146995140539107"><ele>130.0</ele><time>2026-04-10T17:31:50Z</time></trkpt><trkpt lat="44.96142117832471" lon="1.7148012605293812"><ele>130.5</ele><time>2026-04-10T17:31:51Z</time></trkpt><trkpt lat="44.961085199750336" lon="1.7149155260445252"><ele>131.0</ele><time>2026-04-10T17:31:52Z</time></trkpt><trkpt lat="44.96074924609657" lon="1.715016075987493"><ele>129.0</ele><time>2026-04-10T17:31:53Z</time></trkpt><trkpt lat="44.96040713724311" lon="1.7151253120152483"><ele>127.0</ele><time>2026-04-10T17:31:54Z</time></trkpt><trkpt lat="44.960063208326154" lon="1.7152305548605529"><ele>132.0</ele><time>2026-04-10T17:31:55Z</time></trkpt><trkpt lat="44.95972407606465" lon="1.7153483054868972"><ele>137.0</ele><time>2026-04-10T17:31:56Z</time></trkpt><trkpt lat="44.95939827051719" lon="1.7154682610362826"><ele>134.5</ele><time>2026-04-10T17:31:57Z</time></trkpt><trkpt lat="44.959101807526416" lon="1.7155650068744654"><ele>132.0</ele><time>2026-04-10T17:31:58Z</time></trkpt><trkpt lat="44.95881602638106" lon="1.715648762831909"><ele>132.0</ele><time>2026-04-10T17:31:59Z</time></trkpt><trkpt lat="44.95855855834958" lon="1.7157315906550434"><ele>132.0</ele><time>2026-04-10T17:32:00Z</time></trkpt><trkpt lat="44.95832787880774" lon="1.7158021866545636"><ele>130.5</ele><time>2026-04-10T17:32:01Z</time></trkpt><trkpt lat="44.9580867152713" lon="1.7158366626366617"><ele>129.0</ele><time>2026-04-10T17:32:02Z</time></trkpt><trkpt lat="44.957841307049804" lon="1.7158155131338138"><ele>129.0</ele><time>2026-04-10T17:32:03Z</time></trkpt><trkpt lat="44.95760045936227" lon="1.7157710275759979"><ele>129.0</ele><time>2026-04-10T17:32:04Z</time></trkpt><trkpt lat="44.95739936308802" lon="1.715749553628801"><ele>129.0</ele><time>2026-04-10T17:32:05Z</time></trkpt><trkpt lat="44.957209784608146" lon="1.7157354984787567"><ele>128.66666666666666</ele><time>2026-04-10T17:32:06Z</time></trkpt><trkpt lat="44.95700737350217" lon="1.7157137215821192"><ele>128.33333333333331</ele><time>2026-04-10T17:32:07Z</time></trkpt><trkpt lat="44.95680618033696" lon="1.7156941104104175"><ele>128.0</ele><time>2026-04-10T17:32:08Z</time></trkpt><trkpt lat="44.956596037519155" lon="1.7156745581798316"><ele>128.0</ele><time>2026-04-10T17:32:09Z</time></trkpt><trkpt lat="44.95637197611898" lon="1.7156753808182532"><ele>128.0</ele><time>2026-04-10T17:32:10Z</time></trkpt><trkpt lat="44.9561631372193" lon="1.7156531443441814"><ele>128.0</ele><time>2026-04-10T17:32:11Z</time></trkpt><trkpt lat="44.9559678368904" lon="1.7156367616919561"><ele>126.0</ele><time>2026-04-10T17:32:12Z</time></trkpt><trkpt lat="44.95576442496625" lon="1.715612264196169"><ele>124.0</ele><time>2026-04-10T17:32:13Z</time></trkpt><trkpt lat="44.95556488630112" lon="1.7155681917343628"><ele>122.0</ele><time>2026-04-10T17:32:14Z</time></trkpt><trkpt lat="44.955382695755794" lon="1.7155062844699156"><ele>122.0</ele><time>2026-04-10T17:32:15Z</time></trkpt><trkpt lat="44.95525371090507" lon="1.7154081468795142"><ele>122.0</ele><time>2026-04-10T17:32:16Z</time></trkpt><trkpt lat="44.955168861759546" lon="1.7152936168137887"><ele>122.0</ele><time>2026-04-10T17:32:17Z</time></trkpt><trkpt lat="44.955098836810535" lon="1.715145059788301"><ele>122.0</ele><time>2026-04-10T17:32:18Z</time></trkpt><trkpt lat="44.9550429589497" lon="1.7149505689954836"><ele>122.0</ele><time>2026-04-10T17:32:19Z</time></trkpt><trkpt lat="44.95502264494501" lon="1.7147537265391783"><ele>122.0</ele><time>2026-04-10T17:32:20Z</time></trkpt><trkpt lat="44.95498109660169" lon="1.7146075190929506"><ele>122.0</ele><time>2026-04-10T17:32:21Z</time></trkpt><trkpt lat="44.95487942291204" lon="1.7144929930802668"><ele>122.0</ele><time>2026-04-10T17:32:22Z</time></trkpt><trkpt lat="44.9547700433872" lon="1.714345306048707"><ele>122.0</ele><time>2026-04-10T17:32:23Z</time></trkpt><trkpt lat="44.95470137905303" lon="1.7141105159323229"><ele>122.0</ele><time>2026-04-10T17:32:24Z</time></trkpt><trkpt lat="44.95464183096145" lon="1.7138623761376466"><ele>122.0</ele><time>2026-04-10T17:32:25Z</time></trkpt><trkpt lat="44.95457928671758" lon="1.713637175762147"><ele>121.6</ele><time>2026-04-10T17:32:26Z</time></trkpt><trkpt lat="44.95453934771977" lon="1.7134439944567024"><ele>121.19999999999999</ele><time>2026-04-10T17:32:27Z</time></trkpt><trkpt lat="44.954524342153476" lon="1.7132750269727948"><ele>120.8</ele><time>2026-04-10T17:32:28Z</time></trkpt><trkpt lat="44.95452341770601" lon="1.71313036373995"><ele>120.4</ele><time>2026-04-10T17:32:29Z</time></trkpt><trkpt lat="44.9545247507784" lon="1.713017095008851"><ele>120.0</ele><time>2026-04-10T17:32:30Z</time></trkpt><trkpt lat="44.954500688873345" lon="1.7129087699747796"><ele>120.16666666666667</ele><time>2026-04-10T17:32:35Z</time></trkpt><trkpt lat="44.9544807568223" lon="1.7127167530461387"><ele>120.33333333333334</ele><time>2026-04-10T17:32:36.999Z</time></trkpt><trkpt lat="44.954479123709596" lon="1.7126254320472687"><ele>120.5</ele><time>2026-04-10T17:32:37.999Z</time></trkpt><trkpt lat="44.954500919380926" lon="1.7124974563852975"><ele>120.66666666666667</ele><time>2026-04-10T17:32:56.999Z</time></trkpt><trkpt lat="44.954496170234655" lon="1.7124056518567485"><ele>120.83333333333334</ele><time>2026-04-10T17:32:57.999Z</time></trkpt><trkpt lat="44.95447983517104" lon="1.7122879677206098"><ele>121.0</ele><time>2026-04-10T17:32:58.999Z</time></trkpt><trkpt lat="44.954457836024446" lon="1.712143405227754"><ele>121.0</ele><time>2026-04-10T17:32:59.999Z</time></trkpt><trkpt lat="44.9544460633016" lon="1.7119764232009909"><ele>121.0</ele><time>2026-04-10T17:33:00.999Z</time></trkpt><trkpt lat="44.95443897028634" lon="1.7117984377450604"><ele>121.0</ele><time>2026-04-10T17:33:01.999Z</time></trkpt><trkpt lat="44.954422887457646" lon="1.71158119074672"><ele>121.0</ele><time>2026-04-10T17:33:02.999Z</time></trkpt><trkpt lat="44.95440788487159" lon="1.7113417188365925"><ele>121.33333333333334</ele><time>2026-04-10T17:33:03.999Z</time></trkpt><trkpt lat="44.954395195440576" lon="1.7111039683147284"><ele>121.66666666666666</ele><time>2026-04-10T17:33:04.999Z</time></trkpt><trkpt lat="44.95437358562945" lon="1.710869091206926"><ele>122.0</ele><time>2026-04-10T17:33:05.999Z</time></trkpt><trkpt lat="44.95434523132047" lon="1.7106559592470314"><ele>122.0</ele><time>2026-04-10T17:33:06.999Z</time></trkpt><trkpt lat="44.954291993517316" lon="1.710454245986811"><ele>122.0</ele><time>2026-04-10T17:33:07.999Z</time></trkpt><trkpt lat="44.954201499807446" lon="1.7102711076998551"><ele>122.0</ele><time>2026-04-10T17:33:08.999Z</time></trkpt><trkpt lat="44.954068349568104" lon="1.7101083897076625"><ele>123.0</ele><time>2026-04-10T17:33:09.999Z</time></trkpt><trkpt lat="44.953911022509764" lon="1.7099355393364308"><ele>124.0</ele><time>2026-04-10T17:33:10.999Z</time></trkpt><trkpt lat="44.953753663896116" lon="1.7097522555040938"><ele>125.0</ele><time>2026-04-10T17:33:11.999Z</time></trkpt><trkpt lat="44.95358467400502" lon="1.7095696347080045"><ele>125.33333333333333</ele><time>2026-04-10T17:33:12.999Z</time></trkpt><trkpt lat="44.95341697534761" lon="1.7093791226552097"><ele>125.66666666666666</ele><time>2026-04-10T17:33:13.999Z</time></trkpt><trkpt lat="44.95327118985229" lon="1.7092084571334232"><ele>126.0</ele><time>2026-04-10T17:33:14.999Z</time></trkpt><trkpt lat="44.95313358795719" lon="1.7090481806923452"><ele>126.0</ele><time>2026-04-10T17:33:15.999Z</time></trkpt><trkpt lat="44.95302177734328" lon="1.7089050818736131"><ele>126.0</ele><time>2026-04-10T17:33:16.999Z</time></trkpt><trkpt lat="44.95297120270879" lon="1.708774304070735"><ele>126.0</ele><time>2026-04-10T17:33:17.999Z</time></trkpt><trkpt lat="44.95294239833358" lon="1.7086705277664644"><ele>126.0</ele><time>2026-04-10T17:33:18.999Z</time></trkpt><trkpt lat="44.9529160886657" lon="1.708574130387386"><ele>126.0</ele><time>2026-04-10T17:33:19.999Z</time></trkpt><trkpt lat="44.95268000353271" lon="1.708540875733214"><ele>126.66666666666666</ele><time>2026-04-10T17:33:20.999Z</time></trkpt><trkpt lat="44.95255037338701" lon="1.7083582210090655"><ele>127.33333333333333</ele><time>2026-04-10T17:33:21.999Z</time></trkpt><trkpt lat="44.95239307060856" lon="1.7081983751856815"><ele>128.0</ele><time>2026-04-10T17:33:22.999Z</time></trkpt><trkpt lat="44.95222481758137" lon="1.7080105835748887"><ele>128.0</ele><time>2026-04-10T17:33:23.999Z</time></trkpt><trkpt lat="44.95205714146788" lon="1.7077908258142096"><ele>128.0</ele><time>2026-04-10T17:33:24.999Z</time></trkpt><trkpt lat="44.951869827174605" lon="1.7076067972410858"><ele>127.33333333333333</ele><time>2026-04-10T17:33:25.999Z</time></trkpt><trkpt lat="44.95170645355465" lon="1.7074150783386828"><ele>126.66666666666666</ele><time>2026-04-10T17:33:26.999Z</time></trkpt><trkpt lat="44.95159437403488" lon="1.7072298419159138"><ele>126.0</ele><time>2026-04-10T17:33:27.999Z</time></trkpt><trkpt lat="44.95151463858148" lon="1.7070478987231754"><ele>126.66666666666666</ele><time>2026-04-10T17:33:28.999Z</time></trkpt><trkpt lat="44.951474265407754" lon="1.7068382401007531"><ele>127.33333333333333</ele><time>2026-04-10T17:33:29.999Z</time></trkpt><trkpt lat="44.951471492021916" lon="1.7065896858023386"><ele>128.0</ele><time>2026-04-10T17:33:30.999Z</time></trkpt><trkpt lat="44.95149011070481" lon="1.7062935262133707"><ele>129.0</ele><time>2026-04-10T17:33:31.999Z</time></trkpt><trkpt lat="44.95151135853849" lon="1.7059540688210906"><ele>130.0</ele><time>2026-04-10T17:33:32.999Z</time></trkpt><trkpt lat="44.95154466982275" lon="1.7056013599965263"><ele>129.0</ele><time>2026-04-10T17:33:33.999Z</time></trkpt><trkpt lat="44.95156702590601" lon="1.70523425691774"><ele>128.0</ele><time>2026-04-10T17:33:34.999Z</time></trkpt><trkpt lat="44.951589035098074" lon="1.7048850728746976"><ele>128.0</ele><time>2026-04-10T17:33:35.999Z</time></trkpt><trkpt lat="44.95161449892338" lon="1.704579372186382"><ele>128.0</ele><time>2026-04-10T17:33:36.999Z</time></trkpt><trkpt lat="44.95164016373897" lon="1.7042881456726995"><ele>128.0</ele><time>2026-04-10T17:33:37.999Z</time></trkpt><trkpt lat="44.9516546377862" lon="1.7040200053797607"><ele>127.66666666666666</ele><time>2026-04-10T17:33:38.999Z</time></trkpt><trkpt lat="44.95165877145443" lon="1.7037726055509266"><ele>127.33333333333334</ele><time>2026-04-10T17:33:39.999Z</time></trkpt><trkpt lat="44.951641394572896" lon="1.7035599541921114"><ele>127.0</ele><time>2026-04-10T17:33:40.999Z</time></trkpt><trkpt lat="44.95160906057152" lon="1.7033772972864827"><ele>126.6</ele><time>2026-04-10T17:33:41.999Z</time></trkpt><trkpt lat="44.95157628010425" lon="1.7032387173836865"><ele>126.19999999999999</ele><time>2026-04-10T17:33:42.999Z</time></trkpt><trkpt lat="44.95154304736222" lon="1.7031281838272594"><ele>125.8</ele><time>2026-04-10T17:33:43.999Z</time></trkpt><trkpt lat="44.95150575318123" lon="1.703010587211458"><ele>125.4</ele><time>2026-04-10T17:34:14Z</time></trkpt><trkpt lat="44.95145975570025" lon="1.7029198021388074"><ele>125.0</ele><time>2026-04-10T17:34:15Z</time></trkpt><trkpt lat="44.95142671675236" lon="1.7027961207900069"><ele>124.75</ele><time>2026-04-10T17:34:16Z</time></trkpt><trkpt lat="44.951380262023235" lon="1.7026479828201109"><ele>124.5</ele><time>2026-04-10T17:34:17Z</time></trkpt><trkpt lat="44.95133215924961" lon="1.7024873167177728"><ele>124.25</ele><time>2026-04-10T17:34:18Z</time></trkpt><trkpt lat="44.95128391165165" lon="1.7022724342307554"><ele>124.0</ele><time>2026-04-10T17:34:19Z</time></trkpt><trkpt lat="44.95117800504398" lon="1.7020199425481655"><ele>124.33333333333334</ele><time>2026-04-10T17:34:20Z</time></trkpt><trkpt lat="44.95109797325294" lon="1.7017604445152865"><ele>124.66666666666666</ele><time>2026-04-10T17:34:21Z</time></trkpt><trkpt lat="44.95100541372335" lon="1.7014437824450726"><ele>125.0</ele><time>2026-04-10T17:34:22Z</time></trkpt><trkpt lat="44.95090486080758" lon="1.7011022847446715"><ele>123.0</ele><time>2026-04-10T17:34:23Z</time></trkpt><trkpt lat="44.950790780635735" lon="1.7007449522976739"><ele>121.0</ele><time>2026-04-10T17:34:24Z</time></trkpt><trkpt lat="44.95066888586042" lon="1.700372251787193"><ele>121.0</ele><time>2026-04-10T17:34:25Z</time></trkpt><trkpt lat="44.950553816816466" lon="1.6999827540066668"><ele>121.0</ele><time>2026-04-10T17:34:26Z</time></trkpt><trkpt lat="44.95043786128257" lon="1.6995765408438628"><ele>123.0</ele><time>2026-04-10T17:34:27Z</time></trkpt><trkpt lat="44.950312892825906" lon="1.6991597828004454"><ele>125.0</ele><time>2026-04-10T17:34:28Z</time></trkpt><trkpt lat="44.95017727577413" lon="1.6987383082433063"><ele>127.0</ele><time>2026-04-10T17:34:29Z</time></trkpt><trkpt lat="44.950043367485556" lon="1.6983064725741992"><ele>129.0</ele><time>2026-04-10T17:34:30Z</time></trkpt><trkpt lat="44.94990701267141" lon="1.6978608183077732"><ele>124.5</ele><time>2026-04-10T17:34:31Z</time></trkpt><trkpt lat="44.94976722812991" lon="1.6974149261169396"><ele>120.0</ele><time>2026-04-10T17:34:32Z</time></trkpt><trkpt lat="44.94962327602277" lon="1.696958488295608"><ele>122.0</ele><time>2026-04-10T17:34:33Z</time></trkpt><trkpt lat="44.94948162074968" lon="1.6965029150232775"><ele>124.0</ele><time>2026-04-10T17:34:34Z</time></trkpt><trkpt lat="44.949345518278676" lon="1.6960450137432752"><ele>121.5</ele><time>2026-04-10T17:34:34.999Z</time></trkpt><trkpt lat="44.94920228410789" lon="1.6955806641468254"><ele>119.0</ele><time>2026-04-10T17:34:35.999Z</time></trkpt><trkpt lat="44.94905723366731" lon="1.6951229890514865"><ele>118.5</ele><time>2026-04-10T17:34:36.999Z</time></trkpt><trkpt lat="44.94891199298945" lon="1.6946549314321497"><ele>118.0</ele><time>2026-04-10T17:34:37.999Z</time></trkpt><trkpt lat="44.9487674541068" lon="1.6941861339123243"><ele>118.0</ele><time>2026-04-10T17:34:38.999Z</time></trkpt><trkpt lat="44.94861820854125" lon="1.6937163685955983"><ele>118.0</ele><time>2026-04-10T17:34:39.999Z</time></trkpt><trkpt lat="44.948468778869945" lon="1.6932481905910808"><ele>117.5</ele><time>2026-04-10T17:34:40.999Z</time></trkpt><trkpt lat="44.948325582054466" lon="1.6927719883875845"><ele>117.0</ele><time>2026-04-10T17:34:41.999Z</time></trkpt><trkpt lat="44.94818126362496" lon="1.6922960426281457"><ele>117.0</ele><time>2026-04-10T17:34:42.999Z</time></trkpt><trkpt lat="44.948034624306516" lon="1.6918175863696947"><ele>117.0</ele><time>2026-04-10T17:34:43.999Z</time></trkpt><trkpt lat="44.947885943120106" lon="1.6913371497057963"><ele>116.5</ele><time>2026-04-10T17:34:44.999Z</time></trkpt><trkpt lat="44.94773754883679" lon="1.6908568713825771"><ele>116.0</ele><time>2026-04-10T17:34:45.999Z</time></trkpt><trkpt lat="44.94758791754417" lon="1.6903740005611314"><ele>116.5</ele><time>2026-04-10T17:34:46.999Z</time></trkpt><trkpt lat="44.94743791810757" lon="1.6898897654236131"><ele>117.0</ele><time>2026-04-10T17:34:47.999Z</time></trkpt><trkpt lat="44.94728623062415" lon="1.6894047752651455"><ele>117.0</ele><time>2026-04-10T17:34:48.999Z</time></trkpt><trkpt lat="44.947137216100515" lon="1.6889199350032964"><ele>117.0</ele><time>2026-04-10T17:34:49.999Z</time></trkpt><trkpt lat="44.94698567713765" lon="1.688437053329902"><ele>117.0</ele><time>2026-04-10T17:34:50.999Z</time></trkpt><trkpt lat="44.94683373377945" lon="1.6879507589108358"><ele>117.0</ele><time>2026-04-10T17:34:51.999Z</time></trkpt><trkpt lat="44.946681561423866" lon="1.6874663723722858"><ele>117.0</ele><time>2026-04-10T17:34:52.999Z</time></trkpt><trkpt lat="44.94653286197184" lon="1.6869815795122574"><ele>117.0</ele><time>2026-04-10T17:34:53.999Z</time></trkpt><trkpt lat="44.946385215532516" lon="1.6864936762268803"><ele>117.0</ele><time>2026-04-10T17:34:54.999Z</time></trkpt><trkpt lat="44.946237128858016" lon="1.6860020207741107"><ele>117.0</ele><time>2026-04-10T17:34:55.999Z</time></trkpt><trkpt lat="44.94608360524143" lon="1.6855189993999533"><ele>117.0</ele><time>2026-04-10T17:34:56.999Z</time></trkpt><trkpt lat="44.94592930659223" lon="1.685037177709306"><ele>117.0</ele><time>2026-04-10T17:34:57.999Z</time></trkpt><trkpt lat="44.945777444760814" lon="1.6845524652045003"><ele>117.5</ele><time>2026-04-10T17:34:58.999Z</time></trkpt><trkpt lat="44.94562280357671" lon="1.684072900549751"><ele>118.0</ele><time>2026-04-10T17:34:59.999Z</time></trkpt><trkpt lat="44.94547216597535" lon="1.6835922061153277"><ele>118.5</ele><time>2026-04-10T17:35:00.999Z</time></trkpt><trkpt lat="44.94532324414805" lon="1.683104717597249"><ele>119.0</ele><time>2026-04-10T17:35:01.999Z</time></trkpt><trkpt lat="44.94517318807829" lon="1.6826185058350687"><ele>119.0</ele><time>2026-04-10T17:35:02.999Z</time></trkpt><trkpt lat="44.9450224708826" lon="1.6821359466450683"><ele>119.0</ele><time>2026-04-10T17:35:03.999Z</time></trkpt><trkpt lat="44.94486975118004" lon="1.6816565827413479"><ele>119.0</ele><time>2026-04-10T17:35:04.999Z</time></trkpt><trkpt lat="44.944716874981566" lon="1.6811765273418298"><ele>119.0</ele><time>2026-04-10T17:35:05.999Z</time></trkpt><trkpt lat="44.944563173819084" lon="1.6807003409805579"><ele>122.0</ele><time>2026-04-10T17:35:06.999Z</time></trkpt><trkpt lat="44.94441463626278" lon="1.6802116778255638"><ele>125.0</ele><time>2026-04-10T17:35:07.999Z</time></trkpt><trkpt lat="44.94426435260571" lon="1.679730159865448"><ele>121.5</ele><time>2026-04-10T17:35:08.999Z</time></trkpt><trkpt lat="44.94411179054021" lon="1.6792509191216616"><ele>118.0</ele><time>2026-04-10T17:35:09.999Z</time></trkpt><trkpt lat="44.94395953449831" lon="1.678772873750958"><ele>120.0</ele><time>2026-04-10T17:35:10.999Z</time></trkpt><trkpt lat="44.94380772443204" lon="1.6782927080901044"><ele>122.0</ele><time>2026-04-10T17:35:11.999Z</time></trkpt><trkpt lat="44.94365668997149" lon="1.6778111496201147"><ele>120.5</ele><time>2026-04-10T17:35:12.999Z</time></trkpt><trkpt lat="44.94350733385522" lon="1.6773274445089739"><ele>119.0</ele><time>2026-04-10T17:35:13.999Z</time></trkpt><trkpt lat="44.943357070589336" lon="1.6768450627501772"><ele>119.0</ele><time>2026-04-10T17:35:14.999Z</time></trkpt><trkpt lat="44.94320578038788" lon="1.6763685277507077"><ele>119.0</ele><time>2026-04-10T17:35:15.999Z</time></trkpt><trkpt lat="44.94305392591759" lon="1.6758900908473449"><ele>123.5</ele><time>2026-04-10T17:35:16.999Z</time></trkpt><trkpt lat="44.94290519487724" lon="1.675408360717219"><ele>128.0</ele><time>2026-04-10T17:35:17.999Z</time></trkpt><trkpt lat="44.94275431297511" lon="1.6749228899599113"><ele>126.0</ele><time>2026-04-10T17:35:18.999Z</time></trkpt><trkpt lat="44.942614269281165" lon="1.6744601703255044"><ele>124.0</ele><time>2026-04-10T17:35:19.999Z</time></trkpt><trkpt lat="44.94246036963744" lon="1.6739730949153386"><ele>130.5</ele><time>2026-04-10T17:35:20.999Z</time></trkpt><trkpt lat="44.94233443041032" lon="1.6735596806375357"><ele>137.0</ele><time>2026-04-10T17:35:21.999Z</time></trkpt><trkpt lat="44.942216137708016" lon="1.6731728806669246"><ele>137.0</ele><time>2026-04-10T17:35:22.999Z</time></trkpt><trkpt lat="44.94209872508762" lon="1.6728136869546615"><ele>137.0</ele><time>2026-04-10T17:35:23.999Z</time></trkpt><trkpt lat="44.941984856840705" lon="1.672474858655759"><ele>142.0</ele><time>2026-04-10T17:35:24.999Z</time></trkpt><trkpt lat="44.94187982953844" lon="1.6721607759963428"><ele>147.0</ele><time>2026-04-10T17:35:25.999Z</time></trkpt><trkpt lat="44.941785270384194" lon="1.6718589625316156"><ele>136.0</ele><time>2026-04-10T17:35:26.999Z</time></trkpt><trkpt lat="44.94169964841958" lon="1.671535590222939"><ele>125.0</ele><time>2026-04-10T17:35:27.999Z</time></trkpt><trkpt lat="44.94163219917279" lon="1.6712015809661327"><ele>126.0</ele><time>2026-04-10T17:35:28.999Z</time></trkpt><trkpt lat="44.94159962974763" lon="1.6708368220229004"><ele>127.0</ele><time>2026-04-10T17:35:29.999Z</time></trkpt><trkpt lat="44.94159726374555" lon="1.6704712155009414"><ele>126.66666666666667</ele><time>2026-04-10T17:35:30.999Z</time></trkpt><trkpt lat="44.94161289341913" lon="1.670152575931305"><ele>126.33333333333334</ele><time>2026-04-10T17:35:31.999Z</time></trkpt><trkpt lat="44.94163441129044" lon="1.6699000332544656"><ele>126.0</ele><time>2026-04-10T17:35:32.999Z</time></trkpt><trkpt lat="44.94169003421583" lon="1.6696566273120086"><ele>128.0</ele><time>2026-04-10T17:35:33.999Z</time></trkpt><trkpt lat="44.94180793747643" lon="1.669406065317404"><ele>130.0</ele><time>2026-04-10T17:35:34.999Z</time></trkpt><trkpt lat="44.94197668968115" lon="1.6691642276844907"><ele>130.0</ele><time>2026-04-10T17:35:35.999Z</time></trkpt><trkpt lat="44.94216746223812" lon="1.6689631365754776"><ele>130.0</ele><time>2026-04-10T17:35:36.999Z</time></trkpt><trkpt lat="44.942383857551825" lon="1.668814790051117"><ele>127.0</ele><time>2026-04-10T17:35:37.999Z</time></trkpt><trkpt lat="44.94263227973446" lon="1.6686869833566802"><ele>124.0</ele><time>2026-04-10T17:35:38.999Z</time></trkpt><trkpt lat="44.94289515658744" lon="1.6685807032605515"><ele>124.0</ele><time>2026-04-10T17:35:39.999Z</time></trkpt><trkpt lat="44.943165216339" lon="1.668502529062374"><ele>124.0</ele><time>2026-04-10T17:35:40.999Z</time></trkpt><trkpt lat="44.94344782404516" lon="1.6684270388725229"><ele>125.5</ele><time>2026-04-10T17:35:41.999Z</time></trkpt><trkpt lat="44.943739459290725" lon="1.668384314903276"><ele>127.0</ele><time>2026-04-10T17:35:42.999Z</time></trkpt><trkpt lat="44.944041808844496" lon="1.6683582819078449"><ele>125.5</ele><time>2026-04-10T17:35:43.999Z</time></trkpt><trkpt lat="44.944355950906996" lon="1.6683529361167329"><ele>124.0</ele><time>2026-04-10T17:35:44.999Z</time></trkpt><trkpt lat="44.94467770488164" lon="1.668376828431029"><ele>124.0</ele><time>2026-04-10T17:35:45.999Z</time></trkpt><trkpt lat="44.945003433066226" lon="1.6684099357319213"><ele>124.0</ele><time>2026-04-10T17:35:46.999Z</time></trkpt><trkpt lat="44.94532567381027" lon="1.6684405316562452"><ele>123.0</ele><time>2026-04-10T17:35:47.999Z</time></trkpt><trkpt lat="44.94560874934846" lon="1.6684656856861695"><ele>122.0</ele><time>2026-04-10T17:35:48.998Z</time></trkpt><trkpt lat="44.945837830653176" lon="1.6684830088953504"><ele>121.66666666666666</ele><time>2026-04-10T17:35:49.998Z</time></trkpt><trkpt lat="44.94603303495756" lon="1.6685000464697375"><ele>121.33333333333334</ele><time>2026-04-10T17:35:50.998Z</time></trkpt><trkpt lat="44.946203074489006" lon="1.6685198593708501"><ele>121.0</ele><time>2026-04-10T17:35:51.998Z</time></trkpt><trkpt lat="44.94633512957385" lon="1.6685228699456467"><ele>121.0</ele><time>2026-04-10T17:35:52.998Z</time></trkpt><trkpt lat="44.94642335658049" lon="1.6684835824441817"><ele>121.0</ele><time>2026-04-10T17:35:53.998Z</time></trkpt><trkpt lat="44.94648576749089" lon="1.6683786632414184"><ele>121.0</ele><time>2026-04-10T17:35:55Z</time></trkpt><trkpt lat="44.946514792919075" lon="1.6682099936995503"><ele>121.0</ele><time>2026-04-10T17:35:56Z</time></trkpt><trkpt lat="44.946530304931514" lon="1.6679966531564896"><ele>121.0</ele><time>2026-04-10T17:35:57Z</time></trkpt><trkpt lat="44.9465344891515" lon="1.6677990267654168"><ele>121.0</ele><time>2026-04-10T17:35:58Z</time></trkpt><trkpt lat="44.946519388821876" lon="1.6676374854544305"><ele>121.0</ele><time>2026-04-10T17:35:59Z</time></trkpt><trkpt lat="44.94645867156405" lon="1.6675192663447622"><ele>121.0</ele><time>2026-04-10T17:36:00Z</time></trkpt><trkpt lat="44.94635725777867" lon="1.6674528242224045"><ele>120.0</ele><time>2026-04-10T17:36:01Z</time></trkpt><trkpt lat="44.946201162326844" lon="1.6674045816527796"><ele>119.0</ele><time>2026-04-10T17:36:02Z</time></trkpt><trkpt lat="44.94598366359486" lon="1.6673651438640396"><ele>118.0</ele><time>2026-04-10T17:36:03Z</time></trkpt><trkpt lat="44.945771535862725" lon="1.6673247192381315"><ele>118.0</ele><time>2026-04-10T17:36:04Z</time></trkpt><trkpt lat="44.945528617861136" lon="1.667266922972011"><ele>118.0</ele><time>2026-04-10T17:36:05Z</time></trkpt><trkpt lat="44.94526874939764" lon="1.6671669768250819"><ele>118.0</ele><time>2026-04-10T17:36:06Z</time></trkpt><trkpt lat="44.94500999396782" lon="1.667044051849262"><ele>118.0</ele><time>2026-04-10T17:36:07Z</time></trkpt><trkpt lat="44.9447503216591" lon="1.6668849664869505"><ele>118.0</ele><time>2026-04-10T17:36:08Z</time></trkpt><trkpt lat="44.94451312450099" lon="1.6667113868577892"><ele>118.0</ele><time>2026-04-10T17:36:09Z</time></trkpt><trkpt lat="44.94431733118641" lon="1.6665286561817934"><ele>117.5</ele><time>2026-04-10T17:36:10Z</time></trkpt><trkpt lat="44.94415898024714" lon="1.6663205174908076"><ele>117.0</ele><time>2026-04-10T17:36:11Z</time></trkpt><trkpt lat="44.94400152972461" lon="1.6660598332368513"><ele>118.0</ele><time>2026-04-10T17:36:12Z</time></trkpt><trkpt lat="44.943847220425305" lon="1.665849614487058"><ele>119.0</ele><time>2026-04-10T17:36:13Z</time></trkpt><trkpt lat="44.94366939118711" lon="1.6657292087359585"><ele>120.0</ele><time>2026-04-10T17:36:14Z</time></trkpt><trkpt lat="44.943513946804345" lon="1.6656352150434"><ele>120.0</ele><time>2026-04-10T17:36:15Z</time></trkpt><trkpt lat="44.94344255394087" lon="1.665470518983835"><ele>120.0</ele><time>2026-04-10T17:36:16Z</time></trkpt><trkpt lat="44.943393675969155" lon="1.6652916939901532"><ele>120.0</ele><time>2026-04-10T17:36:17Z</time></trkpt><trkpt lat="44.94337948592477" lon="1.6650855388958177"><ele>120.0</ele><time>2026-04-10T17:36:18Z</time></trkpt><trkpt lat="44.943418419171955" lon="1.6648693748127146"><ele>120.2</ele><time>2026-04-10T17:36:19Z</time></trkpt><trkpt lat="44.94348322830142" lon="1.664687445819656"><ele>120.4</ele><time>2026-04-10T17:36:20Z</time></trkpt><trkpt lat="44.9435247266241" lon="1.664540392459197"><ele>120.6</ele><time>2026-04-10T17:36:21Z</time></trkpt><trkpt lat="44.94357706136537" lon="1.6644335921868552"><ele>120.8</ele><time>2026-04-10T17:36:22Z</time></trkpt><trkpt lat="44.94364490529515" lon="1.6643698033931007"><ele>121.0</ele><time>2026-04-10T17:36:23Z</time></trkpt><trkpt lat="44.94375332729569" lon="1.6643649148356914"><ele>121.0</ele><time>2026-04-10T17:36:24Z</time></trkpt><trkpt lat="44.94388237056714" lon="1.664430973233766"><ele>121.0</ele><time>2026-04-10T17:36:25Z</time></trkpt><trkpt lat="44.944016361782516" lon="1.6645830022163253"><ele>121.0</ele><time>2026-04-10T17:36:26Z</time></trkpt><trkpt lat="44.944154096334934" lon="1.664783300631945"><ele>120.66666666666667</ele><time>2026-04-10T17:36:27Z</time></trkpt><trkpt lat="44.94432406232046" lon="1.6649768876555013"><ele>120.33333333333334</ele><time>2026-04-10T17:36:28Z</time></trkpt><trkpt lat="44.944500941015626" lon="1.6651514590478584"><ele>120.0</ele><time>2026-04-10T17:36:29Z</time></trkpt><trkpt lat="44.94469312282031" lon="1.6652982124250926"><ele>120.0</ele><time>2026-04-10T17:36:30Z</time></trkpt><trkpt lat="44.94491397792195" lon="1.6653724318163647"><ele>120.0</ele><time>2026-04-10T17:36:31Z</time></trkpt><trkpt lat="44.9451496954381" lon="1.6653827563811887"><ele>120.33333333333334</ele><time>2026-04-10T17:36:32Z</time></trkpt><trkpt lat="44.94536721699805" lon="1.66539704283282"><ele>120.66666666666667</ele><time>2026-04-10T17:36:33Z</time></trkpt><trkpt lat="44.945584484776404" lon="1.665452565921916"><ele>121.0</ele><time>2026-04-10T17:36:34Z</time></trkpt><trkpt lat="44.945774478769266" lon="1.6655696374561195"><ele>121.4</ele><time>2026-04-10T17:36:35Z</time></trkpt><trkpt lat="44.945884158642855" lon="1.6656882837523745"><ele>121.8</ele><time>2026-04-10T17:36:36Z</time></trkpt><trkpt lat="44.94596097582512" lon="1.665769769496281"><ele>122.20000000000002</ele><time>2026-04-10T17:36:37Z</time></trkpt><trkpt lat="44.946045984760005" lon="1.6658490724799624"><ele>122.60000000000001</ele><time>2026-04-10T17:36:38Z</time></trkpt><trkpt lat="44.94613831994789" lon="1.6659134168135423"><ele>123.0</ele><time>2026-04-10T17:36:39Z</time></trkpt><trkpt lat="44.94623508114941" lon="1.665983796174279"><ele>123.0</ele><time>2026-04-10T17:36:40Z</time></trkpt><trkpt lat="44.946337848577734" lon="1.666062482187883"><ele>123.0</ele><time>2026-04-10T17:36:41Z</time></trkpt><trkpt lat="44.94645410698419" lon="1.6661660298783108"><ele>123.0</ele><time>2026-04-10T17:36:42Z</time></trkpt><trkpt lat="44.94655953961293" lon="1.666260354454488"><ele>123.0</ele><time>2026-04-10T17:36:43Z</time></trkpt><trkpt lat="44.946642010419275" lon="1.6663259610918115"><ele>123.0</ele><time>2026-04-10T17:36:44Z</time></trkpt><trkpt lat="44.946725052634086" lon="1.6663426153772067"><ele>123.00000000000001</ele><time>2026-04-10T17:36:44.999Z</time></trkpt><trkpt lat="44.94679369977189" lon="1.666301393010535"><ele>123.00000000000001</ele><time>2026-04-10T17:36:45.999Z</time></trkpt><trkpt lat="44.94684909390336" lon="1.666197453907768"><ele>123.0</ele><time>2026-04-10T17:36:46.999Z</time></trkpt><trkpt lat="44.94689135297261" lon="1.6660295242897205"><ele>123.0</ele><time>2026-04-10T17:36:47.999Z</time></trkpt><trkpt lat="44.946912657789404" lon="1.6658296733257074"><ele>123.0</ele><time>2026-04-10T17:36:48.999Z</time></trkpt><trkpt lat="44.946931222544016" lon="1.665623327254784"><ele>123.0</ele><time>2026-04-10T17:36:49.999Z</time></trkpt><trkpt lat="44.9469266300138" lon="1.6654355086382275"><ele>123.0</ele><time>2026-04-10T17:36:50.999Z</time></trkpt><trkpt lat="44.94687621864079" lon="1.6652547926588228"><ele>123.0</ele><time>2026-04-10T17:36:51.999Z</time></trkpt><trkpt lat="44.9467758325511" lon="1.6650693507476881"><ele>124.66666666666666</ele><time>2026-04-10T17:36:52.999Z</time></trkpt><trkpt lat="44.94662754747046" lon="1.664880242967936"><ele>126.33333333333333</ele><time>2026-04-10T17:36:53.999Z</time></trkpt><trkpt lat="44.94645234526993" lon="1.664724709667171"><ele>128.0</ele><time>2026-04-10T17:36:54.999Z</time></trkpt><trkpt lat="44.94625150908648" lon="1.6645880374471234"><ele>128.0</ele><time>2026-04-10T17:36:55.999Z</time></trkpt><trkpt lat="44.94601192002509" lon="1.6644641717259556"><ele>128.0</ele><time>2026-04-10T17:36:56.999Z</time></trkpt><trkpt lat="44.94577638967239" lon="1.6643145984896899"><ele>132.5</ele><time>2026-04-10T17:36:57.999Z</time></trkpt><trkpt lat="44.9455298289574" lon="1.6641485768060826"><ele>137.0</ele><time>2026-04-10T17:36:58.999Z</time></trkpt><trkpt lat="44.94527753439073" lon="1.663977951697342"><ele>137.0</ele><time>2026-04-10T17:36:59.999Z</time></trkpt><trkpt lat="44.945058495551265" lon="1.6638333701209476"><ele>137.0</ele><time>2026-04-10T17:37:00.999Z</time></trkpt><trkpt lat="44.944913856053546" lon="1.6637379809331385"><ele>137.0</ele><time>2026-04-10T17:37:01.999Z</time></trkpt><trkpt lat="44.94479983216079" lon="1.6636615597034063"><ele>138.79999999999998</ele><time>2026-04-10T17:37:02.999Z</time></trkpt><trkpt lat="44.944725360738296" lon="1.6635983332987792"><ele>140.6</ele><time>2026-04-10T17:37:03.999Z</time></trkpt><trkpt lat="44.94469165465442" lon="1.6635003186379063"><ele>142.39999999999998</ele><time>2026-04-10T17:37:04.999Z</time></trkpt><trkpt lat="44.944724799839115" lon="1.6633551680231429"><ele>144.2</ele><time>2026-04-10T17:37:05.999Z</time></trkpt><trkpt lat="44.94484559854817" lon="1.663289328373095"><ele>146.0</ele><time>2026-04-10T17:37:06.999Z</time></trkpt><trkpt lat="44.94499792563049" lon="1.6632749245523353"><ele>147.66666666666666</ele><time>2026-04-10T17:37:07.999Z</time></trkpt><trkpt lat="44.9451870993043" lon="1.6632119475939882"><ele>149.33333333333334</ele><time>2026-04-10T17:37:08.999Z</time></trkpt><trkpt lat="44.94538958908428" lon="1.663160883579529"><ele>151.0</ele><time>2026-04-10T17:37:09.999Z</time></trkpt><trkpt lat="44.94561786554264" lon="1.663086466117728"><ele>151.0</ele><time>2026-04-10T17:37:10.999Z</time></trkpt><trkpt lat="44.94584076330131" lon="1.6630155382594276"><ele>151.0</ele><time>2026-04-10T17:37:11.999Z</time></trkpt><trkpt lat="44.946072555347826" lon="1.6629342954544197"><ele>152.0</ele><time>2026-04-10T17:37:12.999Z</time></trkpt><trkpt lat="44.94631810620567" lon="1.6628412568424655"><ele>153.0</ele><time>2026-04-10T17:37:13.999Z</time></trkpt><trkpt lat="44.946592212941646" lon="1.6627784870429945"><ele>153.5</ele><time>2026-04-10T17:37:14.999Z</time></trkpt><trkpt lat="44.94686274823167" lon="1.662783049910039"><ele>154.0</ele><time>2026-04-10T17:37:15.999Z</time></trkpt><trkpt lat="44.94712663073926" lon="1.6628145928921414"><ele>154.0</ele><time>2026-04-10T17:37:16.999Z</time></trkpt><trkpt lat="44.947321633671166" lon="1.6628368364700439"><ele>154.0</ele><time>2026-04-10T17:37:17.999Z</time></trkpt><trkpt lat="44.947473404166246" lon="1.662848038932312"><ele>154.0</ele><time>2026-04-10T17:37:18.999Z</time></trkpt><trkpt lat="44.94759018911626" lon="1.6628623234997415"><ele>153.6</ele><time>2026-04-10T17:37:19.999Z</time></trkpt><trkpt lat="44.94766909312693" lon="1.662861066634065"><ele>153.2</ele><time>2026-04-10T17:37:20.999Z</time></trkpt><trkpt lat="44.947707899399134" lon="1.6626988612972662"><ele>152.79999999999998</ele><time>2026-04-10T17:37:22.999Z</time></trkpt><trkpt lat="44.947647113571" lon="1.6625895130713688"><ele>152.4</ele><time>2026-04-10T17:37:23.999Z</time></trkpt><trkpt lat="44.94753233492781" lon="1.6625465186945556"><ele>152.0</ele><time>2026-04-10T17:37:24.999Z</time></trkpt><trkpt lat="44.947376299755575" lon="1.6625794870507296"><ele>159.75</ele><time>2026-04-10T17:37:25.999Z</time></trkpt><trkpt lat="44.94720665123923" lon="1.6625975857334498"><ele>167.5</ele><time>2026-04-10T17:37:26.999Z</time></trkpt><trkpt lat="44.947083040643676" lon="1.6625868146513632"><ele>175.25</ele><time>2026-04-10T17:37:27.999Z</time></trkpt><trkpt lat="44.94700690943527" lon="1.6625703125541134"><ele>183.0</ele><time>2026-04-10T17:37:28.999Z</time></trkpt><trkpt lat="44.94699935892691" lon="1.6624110072570708"><ele>183.0</ele><time>2026-04-10T17:37:30.999Z</time></trkpt><trkpt lat="44.94710703788455" lon="1.6623520416495114"><ele>183.0</ele><time>2026-04-10T17:37:31.999Z</time></trkpt><trkpt lat="44.94724679107945" lon="1.6623757718203152"><ele>183.0</ele><time>2026-04-10T17:37:32.999Z</time></trkpt><trkpt lat="44.94741702089746" lon="1.6624331639995318"><ele>183.0</ele><time>2026-04-10T17:37:33.999Z</time></trkpt><trkpt lat="44.947614873070066" lon="1.6624435594177258"><ele>181.66666666666666</ele><time>2026-04-10T17:37:34.999Z</time></trkpt><trkpt lat="44.947825750541924" lon="1.6624111593316193"><ele>180.33333333333331</ele><time>2026-04-10T17:37:35.999Z</time></trkpt><trkpt lat="44.94805282184988" lon="1.6624134436043856"><ele>179.0</ele><time>2026-04-10T17:37:36.999Z</time></trkpt><trkpt lat="44.94823262795813" lon="1.6624005917951652"><ele>171.33333333333331</ele><time>2026-04-10T17:37:37.999Z</time></trkpt><trkpt lat="44.94838048638773" lon="1.6623442592243551"><ele>163.66666666666666</ele><time>2026-04-10T17:37:38.999Z</time></trkpt><trkpt lat="44.948504083665824" lon="1.6621950127436749"><ele>156.0</ele><time>2026-04-10T17:37:39.999Z</time></trkpt><trkpt lat="44.94859517878294" lon="1.6619532542118274"><ele>165.0</ele><time>2026-04-10T17:37:40.999Z</time></trkpt><trkpt lat="44.948665313136246" lon="1.661652712201434"><ele>174.0</ele><time>2026-04-10T17:37:41.999Z</time></trkpt><trkpt lat="44.94871228254141" lon="1.6613284621437463"><ele>184.5</ele><time>2026-04-10T17:37:42.999Z</time></trkpt><trkpt lat="44.94873586582034" lon="1.6609819969216995"><ele>195.0</ele><time>2026-04-10T17:37:43.999Z</time></trkpt><trkpt lat="44.94877980193547" lon="1.6606320536101655"><ele>195.0</ele><time>2026-04-10T17:37:44.999Z</time></trkpt><trkpt lat="44.94887239460064" lon="1.6603129772433753"><ele>195.0</ele><time>2026-04-10T17:37:45.999Z</time></trkpt><trkpt lat="44.94893007120882" lon="1.6600449796868257"><ele>195.0</ele><time>2026-04-10T17:37:46.999Z</time></trkpt><trkpt lat="44.9489345017803" lon="1.6597594478670767"><ele>201.0</ele><time>2026-04-10T17:37:47.999Z</time></trkpt><trkpt lat="44.94889692982389" lon="1.659449157865664"><ele>207.0</ele><time>2026-04-10T17:37:48.999Z</time></trkpt><trkpt lat="44.94888657784813" lon="1.6591404560951353"><ele>213.0</ele><time>2026-04-10T17:37:49.999Z</time></trkpt><trkpt lat="44.948957347469964" lon="1.6588923050028435"><ele>213.0</ele><time>2026-04-10T17:37:50.999Z</time></trkpt><trkpt lat="44.94907304608581" lon="1.6586911147589698"><ele>213.0</ele><time>2026-04-10T17:37:51.999Z</time></trkpt><trkpt lat="44.94926691515643" lon="1.6585358373199386"><ele>213.0</ele><time>2026-04-10T17:37:52.999Z</time></trkpt><trkpt lat="44.94949448727484" lon="1.6584290196235454"><ele>216.0</ele><time>2026-04-10T17:37:53.999Z</time></trkpt><trkpt lat="44.949714617140394" lon="1.6583933623573728"><ele>219.0</ele><time>2026-04-10T17:37:54.999Z</time></trkpt><trkpt lat="44.9498894810946" lon="1.658386025215933"><ele>222.0</ele><time>2026-04-10T17:37:55.999Z</time></trkpt><trkpt lat="44.95003108956374" lon="1.6584156789699547"><ele>224.5</ele><time>2026-04-10T17:37:56.999Z</time></trkpt><trkpt lat="44.95014522372194" lon="1.6584965055310932"><ele>227.0</ele><time>2026-04-10T17:37:57.999Z</time></trkpt><trkpt lat="44.950220541579306" lon="1.6586416247290203"><ele>229.5</ele><time>2026-04-10T17:37:58.999Z</time></trkpt><trkpt lat="44.95023091236422" lon="1.6588033113508178"><ele>232.0</ele><time>2026-04-10T17:37:59.999Z</time></trkpt><trkpt lat="44.95016455891583" lon="1.6589574864350178"><ele>232.0</ele><time>2026-04-10T17:38:01Z</time></trkpt><trkpt lat="44.95004652445724" lon="1.6591139604641263"><ele>232.0</ele><time>2026-04-10T17:38:02Z</time></trkpt><trkpt lat="44.949952204549966" lon="1.659218349750962"><ele>232.0</ele><time>2026-04-10T17:38:03Z</time></trkpt><trkpt lat="44.949922281049304" lon="1.6593646822969434"><ele>232.0</ele><time>2026-04-10T17:38:04Z</time></trkpt><trkpt lat="44.949968735712915" lon="1.6594849156742988"><ele>232.0</ele><time>2026-04-10T17:38:05Z</time></trkpt><trkpt lat="44.95007832459153" lon="1.6595410998783922"><ele>232.0</ele><time>2026-04-10T17:38:06Z</time></trkpt><trkpt lat="44.95020752515651" lon="1.6594832468914804"><ele>232.0</ele><time>2026-04-10T17:38:07Z</time></trkpt><trkpt lat="44.950324101914866" lon="1.6593253495401283"><ele>232.0</ele><time>2026-04-10T17:38:08Z</time></trkpt><trkpt lat="44.95044300278472" lon="1.6591189067148524"><ele>232.0</ele><time>2026-04-10T17:38:09Z</time></trkpt><trkpt lat="44.95062270868057" lon="1.6590123673407984"><ele>232.0</ele><time>2026-04-10T17:38:10Z</time></trkpt><trkpt lat="44.95081902126911" lon="1.6589535591238258"><ele>232.0</ele><time>2026-04-10T17:38:11Z</time></trkpt><trkpt lat="44.95097292874483" lon="1.6588916477232631"><ele>235.33333333333331</ele><time>2026-04-10T17:38:12Z</time></trkpt><trkpt lat="44.95108174053404" lon="1.6587633405087534"><ele>238.66666666666669</ele><time>2026-04-10T17:38:13Z</time></trkpt><trkpt lat="44.951134445156654" lon="1.6585798344627787"><ele>242.0</ele><time>2026-04-10T17:38:14Z</time></trkpt><trkpt lat="44.951141206528334" lon="1.6583340769726058"><ele>242.33333333333334</ele><time>2026-04-10T17:38:15Z</time></trkpt><trkpt lat="44.95108811295285" lon="1.6580492781019247"><ele>242.66666666666669</ele><time>2026-04-10T17:38:16Z</time></trkpt><trkpt lat="44.95097946245176" lon="1.65776633450047"><ele>243.0</ele><time>2026-04-10T17:38:17Z</time></trkpt><trkpt lat="44.95083854174332" lon="1.6574993708740622"><ele>243.5</ele><time>2026-04-10T17:38:18Z</time></trkpt><trkpt lat="44.95063551970017" lon="1.6572875023267906"><ele>244.0</ele><time>2026-04-10T17:38:19Z</time></trkpt><trkpt lat="44.950415869926005" lon="1.6570798217259057"><ele>246.5</ele><time>2026-04-10T17:38:20Z</time></trkpt><trkpt lat="44.95019993695959" lon="1.656859927667834"><ele>249.0</ele><time>2026-04-10T17:38:21Z</time></trkpt><trkpt lat="44.95001077438054" lon="1.6565820471107635"><ele>249.0</ele><time>2026-04-10T17:38:22Z</time></trkpt><trkpt lat="44.9498654829064" lon="1.656289859003969"><ele>249.0</ele><time>2026-04-10T17:38:23Z</time></trkpt><trkpt lat="44.949761615372985" lon="1.6560287792292057"><ele>252.66666666666669</ele><time>2026-04-10T17:38:24Z</time></trkpt><trkpt lat="44.949622624340805" lon="1.655830687694402"><ele>256.33333333333337</ele><time>2026-04-10T17:38:25Z</time></trkpt><trkpt lat="44.9494358174314" lon="1.6557216060976327"><ele>260.0</ele><time>2026-04-10T17:38:26Z</time></trkpt><trkpt lat="44.949220400555554" lon="1.6556818838756462"><ele>258.0</ele><time>2026-04-10T17:38:27Z</time></trkpt><trkpt lat="44.948988269237525" lon="1.6557250146322602"><ele>256.0</ele><time>2026-04-10T17:38:28Z</time></trkpt><trkpt lat="44.94873083698855" lon="1.6557681973286453"><ele>256.0</ele><time>2026-04-10T17:38:29Z</time></trkpt><trkpt lat="44.94846978639743" lon="1.6557324277740992"><ele>256.0</ele><time>2026-04-10T17:38:30Z</time></trkpt><trkpt lat="44.948197405152094" lon="1.6556239907472807"><ele>256.0</ele><time>2026-04-10T17:38:31Z</time></trkpt><trkpt lat="44.947922125792765" lon="1.6555110763106988"><ele>256.0</ele><time>2026-04-10T17:38:32Z</time></trkpt><trkpt lat="44.9476224882246" lon="1.6554012831537015"><ele>255.0</ele><time>2026-04-10T17:38:33Z</time></trkpt><trkpt lat="44.94731340940284" lon="1.6553015172569043"><ele>254.0</ele><time>2026-04-10T17:38:34Z</time></trkpt><trkpt lat="44.9470007348079" lon="1.6551931793894172"><ele>250.0</ele><time>2026-04-10T17:38:35Z</time></trkpt><trkpt lat="44.94667051089442" lon="1.6550883540523738"><ele>246.0</ele><time>2026-04-10T17:38:36Z</time></trkpt><trkpt lat="44.946339118483806" lon="1.6549707663014024"><ele>246.0</ele><time>2026-04-10T17:38:37Z</time></trkpt><trkpt lat="44.94600838399756" lon="1.6548545329537154"><ele>246.0</ele><time>2026-04-10T17:38:38Z</time></trkpt><trkpt lat="44.94567808087801" lon="1.6547247372940557"><ele>246.0</ele><time>2026-04-10T17:38:39Z</time></trkpt><trkpt lat="44.94538305537157" lon="1.65460671590067"><ele>246.0</ele><time>2026-04-10T17:38:40Z</time></trkpt><trkpt lat="44.94509748427174" lon="1.6544507332808531"><ele>241.5</ele><time>2026-04-10T17:38:41Z</time></trkpt><trkpt lat="44.94483567484855" lon="1.6542370581971921"><ele>237.0</ele><time>2026-04-10T17:38:42Z</time></trkpt><trkpt lat="44.94459350795446" lon="1.6539659907110522"><ele>237.0</ele><time>2026-04-10T17:38:43Z</time></trkpt><trkpt lat="44.94438127318904" lon="1.6536536020080386"><ele>237.0</ele><time>2026-04-10T17:38:44Z</time></trkpt><trkpt lat="44.94422578103005" lon="1.6533321502732072"><ele>235.0</ele><time>2026-04-10T17:38:45Z</time></trkpt><trkpt lat="44.94412742890915" lon="1.653009111971427"><ele>233.0</ele><time>2026-04-10T17:38:46Z</time></trkpt><trkpt lat="44.94408270082205" lon="1.6526445663959324"><ele>232.5</ele><time>2026-04-10T17:38:47Z</time></trkpt><trkpt lat="44.94408677350555" lon="1.6522431867124696"><ele>232.0</ele><time>2026-04-10T17:38:47.999Z</time></trkpt><trkpt lat="44.94414937834338" lon="1.6518289219290905"><ele>226.0</ele><time>2026-04-10T17:38:48.999Z</time></trkpt><trkpt lat="44.944260750003636" lon="1.6514163660876908"><ele>220.0</ele><time>2026-04-10T17:38:49.999Z</time></trkpt><trkpt lat="44.9443616400259" lon="1.650989062339654"><ele>220.0</ele><time>2026-04-10T17:38:50.999Z</time></trkpt><trkpt lat="44.944450312589204" lon="1.6505411491431663"><ele>220.0</ele><time>2026-04-10T17:38:51.999Z</time></trkpt><trkpt lat="44.94453620420972" lon="1.650080952086984"><ele>219.5</ele><time>2026-04-10T17:38:52.999Z</time></trkpt><trkpt lat="44.94462616867653" lon="1.6496119425433164"><ele>219.0</ele><time>2026-04-10T17:38:53.999Z</time></trkpt><trkpt lat="44.94472102596839" lon="1.649136632771857"><ele>219.0</ele><time>2026-04-10T17:38:54.999Z</time></trkpt><trkpt lat="44.94481888905761" lon="1.6486493434030838"><ele>219.0</ele><time>2026-04-10T17:38:55.999Z</time></trkpt><trkpt lat="44.94491188422739" lon="1.6481580528534674"><ele>216.5</ele><time>2026-04-10T17:38:56.999Z</time></trkpt><trkpt lat="44.94500042286564" lon="1.6476552718345996"><ele>214.0</ele><time>2026-04-10T17:38:57.999Z</time></trkpt><trkpt lat="44.94510811404467" lon="1.6471532365721127"><ele>212.0</ele><time>2026-04-10T17:38:58.999Z</time></trkpt><trkpt lat="44.9451965944481" lon="1.6466364653244054"><ele>210.0</ele><time>2026-04-10T17:38:59.999Z</time></trkpt><trkpt lat="44.94529800960087" lon="1.6461260584384725"><ele>209.5</ele><time>2026-04-10T17:39:00.999Z</time></trkpt><trkpt lat="44.94540291738438" lon="1.6456089908499645"><ele>209.0</ele><time>2026-04-10T17:39:01.999Z</time></trkpt><trkpt lat="44.94550488591448" lon="1.6450962954924548"><ele>208.5</ele><time>2026-04-10T17:39:02.999Z</time></trkpt><trkpt lat="44.94558904438402" lon="1.6446374176790342"><ele>208.0</ele><time>2026-04-10T17:39:03.999Z</time></trkpt><trkpt lat="44.94566016828158" lon="1.6442471510706573"><ele>209.0</ele><time>2026-04-10T17:39:04.999Z</time></trkpt><trkpt lat="44.94570161463452" lon="1.643895775910188"><ele>210.0</ele><time>2026-04-10T17:39:05.999Z</time></trkpt><trkpt lat="44.94568507654423" lon="1.6435524568129436"><ele>211.0</ele><time>2026-04-10T17:39:06.999Z</time></trkpt><trkpt lat="44.945619733272" lon="1.6431864811974926"><ele>212.0</ele><time>2026-04-10T17:39:07.999Z</time></trkpt><trkpt lat="44.94550476376592" lon="1.642810606080132"><ele>211.5</ele><time>2026-04-10T17:39:08.999Z</time></trkpt><trkpt lat="44.94537014852489" lon="1.6424346466661333"><ele>211.0</ele><time>2026-04-10T17:39:09.999Z</time></trkpt><trkpt lat="44.94524011109292" lon="1.6420401022363735"><ele>210.5</ele><time>2026-04-10T17:39:10.999Z</time></trkpt><trkpt lat="44.94511229902548" lon="1.6416251187646995"><ele>210.0</ele><time>2026-04-10T17:39:11.999Z</time></trkpt><trkpt lat="44.94498442155449" lon="1.6412016361146098"><ele>211.0</ele><time>2026-04-10T17:39:12.999Z</time></trkpt><trkpt lat="44.94485772995914" lon="1.6407592362152583"><ele>212.0</ele><time>2026-04-10T17:39:13.999Z</time></trkpt><trkpt lat="44.944728794035775" lon="1.6403116514580218"><ele>210.5</ele><time>2026-04-10T17:39:14.999Z</time></trkpt><trkpt lat="44.94459356983907" lon="1.6398558514441495"><ele>209.0</ele><time>2026-04-10T17:39:15.999Z</time></trkpt><trkpt lat="44.944462268515274" lon="1.6393940611822329"><ele>209.0</ele><time>2026-04-10T17:39:16.999Z</time></trkpt><trkpt lat="44.94432308964208" lon="1.638929646502462"><ele>209.0</ele><time>2026-04-10T17:39:17.999Z</time></trkpt><trkpt lat="44.9441805863055" lon="1.6384654161137162"><ele>208.0</ele><time>2026-04-10T17:39:18.999Z</time></trkpt><trkpt lat="44.944035346472575" lon="1.6379966308247917"><ele>207.0</ele><time>2026-04-10T17:39:19.999Z</time></trkpt><trkpt lat="44.94389921209195" lon="1.6375235674596822"><ele>206.5</ele><time>2026-04-10T17:39:20.999Z</time></trkpt><trkpt lat="44.94375513743863" lon="1.6370526192902184"><ele>206.0</ele><time>2026-04-10T17:39:21.999Z</time></trkpt><trkpt lat="44.94360775475085" lon="1.6365790224396983"><ele>205.0</ele><time>2026-04-10T17:39:22.999Z</time></trkpt><trkpt lat="44.9434732187204" lon="1.6361253606269621"><ele>204.0</ele><time>2026-04-10T17:39:23.999Z</time></trkpt><trkpt lat="44.94335492689877" lon="1.635735246551612"><ele>205.5</ele><time>2026-04-10T17:39:24.999Z</time></trkpt><trkpt lat="44.94325994902282" lon="1.6353976555611447"><ele>207.0</ele><time>2026-04-10T17:39:25.999Z</time></trkpt><trkpt lat="44.943215154992316" lon="1.6350707426390387"><ele>207.0</ele><time>2026-04-10T17:39:26.999Z</time></trkpt><trkpt lat="44.943213905509346" lon="1.6347356199893843"><ele>207.0</ele><time>2026-04-10T17:39:27.999Z</time></trkpt><trkpt lat="44.94326956777226" lon="1.6343844565074472"><ele>210.5</ele><time>2026-04-10T17:39:28.999Z</time></trkpt><trkpt lat="44.943368881728965" lon="1.634020625356878"><ele>214.0</ele><time>2026-04-10T17:39:29.999Z</time></trkpt><trkpt lat="44.94348131509895" lon="1.6336436684301785"><ele>215.5</ele><time>2026-04-10T17:39:30.999Z</time></trkpt><trkpt lat="44.94359248042164" lon="1.6332501630318326"><ele>217.0</ele><time>2026-04-10T17:39:31.999Z</time></trkpt><trkpt lat="44.94371959877915" lon="1.6328523995280053"><ele>220.5</ele><time>2026-04-10T17:39:32.999Z</time></trkpt><trkpt lat="44.94383377177787" lon="1.632469087680523"><ele>224.0</ele><time>2026-04-10T17:39:33.999Z</time></trkpt><trkpt lat="44.94393400828542" lon="1.632143402428514"><ele>226.0</ele><time>2026-04-10T17:39:34.999Z</time></trkpt><trkpt lat="44.94400470929447" lon="1.6318509345412233"><ele>228.0</ele><time>2026-04-10T17:39:35.999Z</time></trkpt><trkpt lat="44.94402561417163" lon="1.6315657829423664"><ele>230.0</ele><time>2026-04-10T17:39:36.999Z</time></trkpt><trkpt lat="44.944001803449886" lon="1.63123963729711"><ele>231.0</ele><time>2026-04-10T17:39:37.999Z</time></trkpt><trkpt lat="44.94392736186234" lon="1.6308928290601585"><ele>232.0</ele><time>2026-04-10T17:39:38.999Z</time></trkpt><trkpt lat="44.94380399006698" lon="1.6305576947882774"><ele>231.0</ele><time>2026-04-10T17:39:39.999Z</time></trkpt><trkpt lat="44.94366711424626" lon="1.6302175887604977"><ele>230.0</ele><time>2026-04-10T17:39:40.999Z</time></trkpt><trkpt lat="44.943553090992125" lon="1.6298388688581764"><ele>227.5</ele><time>2026-04-10T17:39:41.999Z</time></trkpt><trkpt lat="44.94343962450608" lon="1.629455585456553"><ele>225.0</ele><time>2026-04-10T17:39:42.999Z</time></trkpt><trkpt lat="44.9433150274455" lon="1.6290731406242989"><ele>231.0</ele><time>2026-04-10T17:39:43.999Z</time></trkpt><trkpt lat="44.94319274117138" lon="1.62869244524635"><ele>237.0</ele><time>2026-04-10T17:39:44.999Z</time></trkpt><trkpt lat="44.943097276511836" lon="1.6283761501636715"><ele>237.0</ele><time>2026-04-10T17:39:45.999Z</time></trkpt><trkpt lat="44.94304838126714" lon="1.6281304020680836"><ele>237.0</ele><time>2026-04-10T17:39:46.999Z</time></trkpt><trkpt lat="44.94303603507799" lon="1.6279060941214376"><ele>237.0</ele><time>2026-04-10T17:39:47.999Z</time></trkpt><trkpt lat="44.943091722943564" lon="1.62770765796909"><ele>237.0</ele><time>2026-04-10T17:39:48.999Z</time></trkpt><trkpt lat="44.94318010534004" lon="1.6274568937102967"><ele>237.0</ele><time>2026-04-10T17:39:49.999Z</time></trkpt><trkpt lat="44.94323578810729" lon="1.627210761046673"><ele>237.0</ele><time>2026-04-10T17:39:50.999Z</time></trkpt><trkpt lat="44.943249841489006" lon="1.6269584619235657"><ele>240.0</ele><time>2026-04-10T17:39:51.999Z</time></trkpt><trkpt lat="44.94320253364625" lon="1.6266562973480372"><ele>243.0</ele><time>2026-04-10T17:39:52.999Z</time></trkpt><trkpt lat="44.943139592116616" lon="1.6263280646403633"><ele>247.0</ele><time>2026-04-10T17:39:53.999Z</time></trkpt><trkpt lat="44.94310289490367" lon="1.6259640464227265"><ele>251.0</ele><time>2026-04-10T17:39:54.999Z</time></trkpt><trkpt lat="44.943077033410695" lon="1.6256056024806176"><ele>253.5</ele><time>2026-04-10T17:39:55.999Z</time></trkpt><trkpt lat="44.943056722892294" lon="1.625252154635479"><ele>256.0</ele><time>2026-04-10T17:39:56.999Z</time></trkpt><trkpt lat="44.9430666312509" lon="1.6249596438636225"><ele>256.0</ele><time>2026-04-10T17:39:57.999Z</time></trkpt><trkpt lat="44.943074319077624" lon="1.6247298399475396"><ele>256.0</ele><time>2026-04-10T17:39:58.999Z</time></trkpt><trkpt lat="44.94306214450071" lon="1.6245319981372235"><ele>256.0</ele><time>2026-04-10T17:39:59.999Z</time></trkpt><trkpt lat="44.94298467859195" lon="1.6243270233408993"><ele>256.0</ele><time>2026-04-10T17:40:00.999Z</time></trkpt><trkpt lat="44.942843357356175" lon="1.6241269419893025"><ele>256.0</ele><time>2026-04-10T17:40:01.999Z</time></trkpt><trkpt lat="44.94264876396891" lon="1.6239121640063559"><ele>256.0</ele><time>2026-04-10T17:40:02.999Z</time></trkpt><trkpt lat="44.94246901772352" lon="1.6236599603827842"><ele>253.0</ele><time>2026-04-10T17:40:03.998Z</time></trkpt><trkpt lat="44.9422877839573" lon="1.623388750647038"><ele>250.0</ele><time>2026-04-10T17:40:04.998Z</time></trkpt><trkpt lat="44.942121795421656" lon="1.6230665734890901"><ele>247.5</ele><time>2026-04-10T17:40:05.998Z</time></trkpt><trkpt lat="44.9419739478883" lon="1.6227016647657635"><ele>245.0</ele><time>2026-04-10T17:40:07Z</time></trkpt><trkpt lat="44.9418326104614" lon="1.6223159164187926"><ele>245.5</ele><time>2026-04-10T17:40:08Z</time></trkpt><trkpt lat="44.941680803557894" lon="1.6219198651932927"><ele>246.0</ele><time>2026-04-10T17:40:09Z</time></trkpt><trkpt lat="44.94152933937607" lon="1.621519920878825"><ele>244.0</ele><time>2026-04-10T17:40:10Z</time></trkpt><trkpt lat="44.94137120233687" lon="1.6211004822384099"><ele>242.0</ele><time>2026-04-10T17:40:11Z</time></trkpt><trkpt lat="44.941217059615376" lon="1.620683486562292"><ele>241.0</ele><time>2026-04-10T17:40:12Z</time></trkpt><trkpt lat="44.941063895835725" lon="1.6202812409422465"><ele>240.0</ele><time>2026-04-10T17:40:13Z</time></trkpt><trkpt lat="44.940897165998194" lon="1.619885909593442"><ele>239.0</ele><time>2026-04-10T17:40:14Z</time></trkpt><trkpt lat="44.94068548904906" lon="1.6195364057263837"><ele>238.0</ele><time>2026-04-10T17:40:15Z</time></trkpt><trkpt lat="44.94046727832992" lon="1.6191946730035578"><ele>238.0</ele><time>2026-04-10T17:40:16Z</time></trkpt><trkpt lat="44.94022761982689" lon="1.618933219067771"><ele>238.0</ele><time>2026-04-10T17:40:17Z</time></trkpt><trkpt lat="44.93996820503396" lon="1.6186766826452106"><ele>238.5</ele><time>2026-04-10T17:40:18Z</time></trkpt><trkpt lat="44.939682875177006" lon="1.618437990197151"><ele>239.0</ele><time>2026-04-10T17:40:19Z</time></trkpt><trkpt lat="44.93941311913321" lon="1.6181997513521835"><ele>241.0</ele><time>2026-04-10T17:40:20Z</time></trkpt><trkpt lat="44.93916486914009" lon="1.6179951139320883"><ele>243.0</ele><time>2026-04-10T17:40:21Z</time></trkpt><trkpt lat="44.93892393814149" lon="1.6178233164823692"><ele>237.0</ele><time>2026-04-10T17:40:22Z</time></trkpt><trkpt lat="44.93872813185911" lon="1.6176246516306314"><ele>231.0</ele><time>2026-04-10T17:40:23Z</time></trkpt><trkpt lat="44.93856549047858" lon="1.6174400405676206"><ele>231.0</ele><time>2026-04-10T17:40:24Z</time></trkpt><trkpt lat="44.938448015676194" lon="1.6172305772812643"><ele>231.0</ele><time>2026-04-10T17:40:25Z</time></trkpt><trkpt lat="44.93837435153359" lon="1.6170028525002718"><ele>231.0</ele><time>2026-04-10T17:40:26Z</time></trkpt><trkpt lat="44.9383314852821" lon="1.6168234507417687"><ele>233.0</ele><time>2026-04-10T17:40:27Z</time></trkpt><trkpt lat="44.93829579470045" lon="1.6166981797570066"><ele>235.0</ele><time>2026-04-10T17:40:28Z</time></trkpt><trkpt lat="44.93828294709808" lon="1.6166062613446226"><ele>237.0</ele><time>2026-04-10T17:40:29Z</time></trkpt><trkpt lat="44.938265529402" lon="1.6165200993468682"><ele>239.0</ele><time>2026-04-10T17:40:31Z</time></trkpt><trkpt lat="44.93802750566739" lon="1.616658361302614"><ele>239.0</ele><time>2026-04-10T17:40:33Z</time></trkpt><trkpt lat="44.93790568698475" lon="1.6167260118383464"><ele>239.0</ele><time>2026-04-10T17:40:34Z</time></trkpt><trkpt lat="44.937781533934945" lon="1.616800481138518"><ele>239.0</ele><time>2026-04-10T17:40:35Z</time></trkpt><trkpt lat="44.93764398955183" lon="1.6168962936550402"><ele>239.0</ele><time>2026-04-10T17:40:36Z</time></trkpt><trkpt lat="44.93750627325201" lon="1.6169838193973252"><ele>238.33333333333334</ele><time>2026-04-10T17:40:37Z</time></trkpt><trkpt lat="44.93737288321603" lon="1.6170477346235599"><ele>237.66666666666669</ele><time>2026-04-10T17:40:38Z</time></trkpt><trkpt lat="44.937212416015846" lon="1.6170971464567607"><ele>237.0</ele><time>2026-04-10T17:40:39Z</time></trkpt><trkpt lat="44.937031357669184" lon="1.6171688810550964"><ele>237.0</ele><time>2026-04-10T17:40:40Z</time></trkpt><trkpt lat="44.936832767432286" lon="1.6172164578710095"><ele>237.0</ele><time>2026-04-10T17:40:41Z</time></trkpt><trkpt lat="44.93661799050265" lon="1.6172609966875124"><ele>237.0</ele><time>2026-04-10T17:40:42Z</time></trkpt><trkpt lat="44.936368179496206" lon="1.6172913744381971"><ele>235.66666666666669</ele><time>2026-04-10T17:40:43Z</time></trkpt><trkpt lat="44.936132081023665" lon="1.6173375377784105"><ele>234.33333333333334</ele><time>2026-04-10T17:40:44Z</time></trkpt><trkpt lat="44.935933425475405" lon="1.6173247625443539"><ele>233.0</ele><time>2026-04-10T17:40:45Z</time></trkpt><trkpt lat="44.93577170822866" lon="1.617318062542133"><ele>232.0</ele><time>2026-04-10T17:40:46Z</time></trkpt><trkpt lat="44.93562660364154" lon="1.6173180625406984"><ele>231.0</ele><time>2026-04-10T17:40:47Z</time></trkpt><trkpt lat="44.935503163253415" lon="1.6173107191793124"><ele>230.0</ele><time>2026-04-10T17:40:48Z</time></trkpt><trkpt lat="44.93541388658002" lon="1.6173131885165621"><ele>229.0</ele><time>2026-04-10T17:40:49Z</time></trkpt><trkpt lat="44.9353560276789" lon="1.6172457699804603"><ele>228.0</ele><time>2026-04-10T17:40:50Z</time></trkpt><trkpt lat="44.935354570090524" lon="1.6171478842919018"><ele>228.0</ele><time>2026-04-10T17:40:51Z</time></trkpt><trkpt lat="44.93534810028385" lon="1.617046994415734"><ele>228.0</ele><time>2026-04-10T17:40:52Z</time></trkpt><trkpt lat="44.93546201042499" lon="1.6169492359025035"><ele>228.0</ele><time>2026-04-10T17:40:53Z</time></trkpt><trkpt lat="44.935474669083156" lon="1.6168620283465107"><ele>228.0</ele><time>2026-04-10T17:40:56Z</time></trkpt><trkpt lat="44.93531559329146" lon="1.616862834634032"><ele>228.0</ele><time>2026-04-10T17:40:59Z</time></trkpt><trkpt lat="44.93516689609328" lon="1.6169310284191378"><ele>228.33333333333331</ele><time>2026-04-10T17:41:00Z</time></trkpt><trkpt lat="44.93499463748611" lon="1.6170018058211337"><ele>228.66666666666666</ele><time>2026-04-10T17:41:01Z</time></trkpt><trkpt lat="44.93481004929833" lon="1.6170737759028264"><ele>229.0</ele><time>2026-04-10T17:41:01.999Z</time></trkpt><trkpt lat="44.934593382789785" lon="1.61716150172495"><ele>229.0</ele><time>2026-04-10T17:41:02.999Z</time></trkpt><trkpt lat="44.93436774153001" lon="1.6172533528913853"><ele>229.0</ele><time>2026-04-10T17:41:03.999Z</time></trkpt><trkpt lat="44.93412405711384" lon="1.6173532117129361"><ele>229.5</ele><time>2026-04-10T17:41:04.999Z</time></trkpt><trkpt lat="44.93386314666876" lon="1.617450615010634"><ele>230.0</ele><time>2026-04-10T17:41:05.999Z</time></trkpt><trkpt lat="44.93359404907046" lon="1.617549169908927"><ele>229.5</ele><time>2026-04-10T17:41:06.999Z</time></trkpt><trkpt lat="44.933352237938486" lon="1.6176459275909114"><ele>229.0</ele><time>2026-04-10T17:41:07.999Z</time></trkpt><trkpt lat="44.93314812346554" lon="1.6177410266490269"><ele>229.0</ele><time>2026-04-10T17:41:08.999Z</time></trkpt><trkpt lat="44.93299488382736" lon="1.6178026205839762"><ele>229.0</ele><time>2026-04-10T17:41:09.999Z</time></trkpt><trkpt lat="44.93287884769587" lon="1.6178148715035883"><ele>229.0</ele><time>2026-04-10T17:41:10.999Z</time></trkpt><trkpt lat="44.932754052954806" lon="1.6177739200884886"><ele>229.0</ele><time>2026-04-10T17:41:11.999Z</time></trkpt><trkpt lat="44.93258175052081" lon="1.6177044218451828"><ele>229.66666666666666</ele><time>2026-04-10T17:41:12.999Z</time></trkpt><trkpt lat="44.93237718415609" lon="1.6176253483057235"><ele>230.33333333333331</ele><time>2026-04-10T17:41:13.999Z</time></trkpt><trkpt lat="44.93215975641696" lon="1.6175874245226924"><ele>231.0</ele><time>2026-04-10T17:41:14.999Z</time></trkpt><trkpt lat="44.93191784708338" lon="1.6175666029733737"><ele>233.0</ele><time>2026-04-10T17:41:15.999Z</time></trkpt><trkpt lat="44.931662342071014" lon="1.6175192892337615"><ele>235.0</ele><time>2026-04-10T17:41:16.999Z</time></trkpt><trkpt lat="44.93141250091243" lon="1.6174754439371317"><ele>235.0</ele><time>2026-04-10T17:41:17.999Z</time></trkpt><trkpt lat="44.931199866353715" lon="1.6174481642984162"><ele>235.0</ele><time>2026-04-10T17:41:18.999Z</time></trkpt><trkpt lat="44.93101934293078" lon="1.6174466236786984"><ele>235.0</ele><time>2026-04-10T17:41:19.999Z</time></trkpt><trkpt lat="44.93086013532505" lon="1.6174704889259082"><ele>237.5</ele><time>2026-04-10T17:41:20.999Z</time></trkpt><trkpt lat="44.93071703967683" lon="1.617485126955802"><ele>240.0</ele><time>2026-04-10T17:41:21.999Z</time></trkpt><trkpt lat="44.93058505997107" lon="1.6174444473981484"><ele>242.5</ele><time>2026-04-10T17:41:22.999Z</time></trkpt><trkpt lat="44.930453938370874" lon="1.6173263094665626"><ele>245.0</ele><time>2026-04-10T17:41:23.999Z</time></trkpt><trkpt lat="44.93028622119257" lon="1.6171811704586194"><ele>245.0</ele><time>2026-04-10T17:41:24.999Z</time></trkpt><trkpt lat="44.930098641826675" lon="1.6170545927360247"><ele>245.0</ele><time>2026-04-10T17:41:25.999Z</time></trkpt><trkpt lat="44.9298906417975" lon="1.6169204466286364"><ele>245.0</ele><time>2026-04-10T17:41:26.999Z</time></trkpt><trkpt lat="44.929673464118885" lon="1.6167924446440147"><ele>251.0</ele><time>2026-04-10T17:41:27.999Z</time></trkpt><trkpt lat="44.929464686058765" lon="1.616654558266401"><ele>257.0</ele><time>2026-04-10T17:41:28.999Z</time></trkpt><trkpt lat="44.92925937963464" lon="1.6164976160932878"><ele>262.5</ele><time>2026-04-10T17:41:29.999Z</time></trkpt><trkpt lat="44.929071879384935" lon="1.6162978847537266"><ele>268.0</ele><time>2026-04-10T17:41:30.999Z</time></trkpt><trkpt lat="44.92888189200029" lon="1.6160961466046486"><ele>268.3333333333333</ele><time>2026-04-10T17:41:31.999Z</time></trkpt><trkpt lat="44.928706918833754" lon="1.615944739348161"><ele>268.6666666666667</ele><time>2026-04-10T17:41:32.999Z</time></trkpt><trkpt lat="44.92859060304283" lon="1.6158269143061"><ele>269.0</ele><time>2026-04-10T17:41:33.999Z</time></trkpt><trkpt lat="44.9284850448074" lon="1.6157495660128158"><ele>270.59999999999997</ele><time>2026-04-10T17:41:34.999Z</time></trkpt><trkpt lat="44.92838822251044" lon="1.6156933828853173"><ele>272.2</ele><time>2026-04-10T17:41:35.999Z</time></trkpt><trkpt lat="44.928303555338175" lon="1.6156496729268592"><ele>273.79999999999995</ele><time>2026-04-10T17:41:36.999Z</time></trkpt><trkpt lat="44.92821936554661" lon="1.6155642633461829"><ele>275.4</ele><time>2026-04-10T17:41:38.999Z</time></trkpt><trkpt lat="44.92827518148428" lon="1.615372777410322"><ele>277.0</ele><time>2026-04-10T17:41:40.999Z</time></trkpt><trkpt lat="44.92833023520348" lon="1.6152941542732606"><ele>276.3333333333333</ele><time>2026-04-10T17:41:41.999Z</time></trkpt><trkpt lat="44.92841645647689" lon="1.6152479981394086"><ele>275.66666666666663</ele><time>2026-04-10T17:41:42.999Z</time></trkpt><trkpt lat="44.928519618297116" lon="1.6152129365207506"><ele>275.0</ele><time>2026-04-10T17:41:44.999Z</time></trkpt><trkpt lat="44.92859079929733" lon="1.6151858391585563"><ele>274.3333333333333</ele><time>2026-04-10T17:41:48.999Z</time></trkpt><trkpt lat="44.92867885687431" lon="1.6151546687501237"><ele>273.6666666666667</ele><time>2026-04-10T17:42:30Z</time></trkpt><trkpt lat="44.92875726196409" lon="1.6151115892172438"><ele>273.0</ele><time>2026-04-10T17:42:32Z</time></trkpt><trkpt lat="44.92882306828188" lon="1.6150857664221596"><ele>273.0</ele><time>2026-04-10T17:42:34Z</time></trkpt><trkpt lat="44.92889044250155" lon="1.6150633431635"><ele>273.0</ele><time>2026-04-10T17:42:36Z</time></trkpt></trkseg></trk></gpx>